XML Sitemap

This is a XML Sitemap which is supposed to be processed by search engines which follow the XML Sitemap standard like Ask.com, Bing, Google and Yahoo.
It was generated using the Blogging-Software WordPress and the Google Sitemap Generator Plugin by Arne Brachhold.
You can find more information about XML sitemaps on sitemaps.org and Google's list of sitemap programs.

URLPriorityChange frequencyLast modified (GMT)
http://www.hotnewdeal.com/2017/03/31/182517_Rogaine_3x3month_supply__7298_AC_AR__Walgree/20%Monthly2017-03-31 23:36
http://www.hotnewdeal.com/2017/03/31/182516_Ring_Video_Doorbell__Ring_Chime__1_year_of_Cloud/20%Monthly2017-03-31 23:36
http://www.hotnewdeal.com/2017/03/31/182515_PLine_Tactical_Fluorocarbon_Fishing_Line__Buy_1_/20%Monthly2017-03-31 23:26
http://www.hotnewdeal.com/2017/03/31/182514_Fidget_Toy_Anxiety_Release_Desk_Toy_499_AC_w_F/20%Monthly2017-03-31 23:26
http://www.hotnewdeal.com/2017/03/31/182513_Prime_Members_Back_Again_AmazonBasics_133Inch/20%Monthly2017-03-31 23:08
http://www.hotnewdeal.com/2017/03/31/182512_GUN_Smith_and_Wesson_MP_Shield_as_low_as_23999/20%Monthly2017-03-31 22:32
http://www.hotnewdeal.com/2017/03/31/182511_2Pack_500Thread_Count_Sorrento_Cotton_Sateen_Pil/20%Monthly2017-03-31 22:31
http://www.hotnewdeal.com/2017/03/31/182510_Target_Email_Verizon_350_GC_IPhone_7/20%Monthly2017-03-31 22:17
http://www.hotnewdeal.com/2017/03/31/182509_Macys_Martha_Stewart_Quick_Dry_Towels_Bath_463/20%Monthly2017-03-31 22:07
http://www.hotnewdeal.com/2017/03/31/182508_KitchenAid_Stainless_Steel_Bowl_K45SBWH_45Quart/20%Monthly2017-03-31 21:47
http://www.hotnewdeal.com/2017/03/31/182507_LUVVITT_Case_Sale_for_Galaxy_S8S8_Plus_LG_G6_Ga/20%Monthly2017-03-31 21:47
http://www.hotnewdeal.com/2017/03/31/182506_298__intel_Core_M5_Windows_10_Silent_Smart_Mini_/20%Monthly2017-03-31 20:16
http://www.hotnewdeal.com/2017/03/31/182503_100_Back_in_Points_Pixel_Cosmetics_Kmart_InSt/20%Monthly2017-03-31 19:59
http://www.hotnewdeal.com/2017/03/31/182502_Kleenex_Ultra_Soft_Facial_Tissue_Cube_18_boxes_7/20%Monthly2017-03-31 19:59
http://www.hotnewdeal.com/2017/03/31/182501_Georgia_Only__ecobee3_Smarter_WiFi_Thermostat_w_/20%Monthly2017-03-31 19:47
http://www.hotnewdeal.com/2017/03/31/182500_Safavieh_Hudson_Shag_Grey_and_Ivory_Area_Rug_51/20%Monthly2017-03-31 19:08
http://www.hotnewdeal.com/2017/03/31/182499_Badgerbalm_Get_Badger_Argan_Face_Care_TryMe_Kit_/20%Monthly2017-03-31 18:57
http://www.hotnewdeal.com/2017/03/31/182497_Rubbermaid_Commercial_Floor_Sweep_Gray_36_Head_O/20%Monthly2017-03-31 18:51
http://www.hotnewdeal.com/2017/03/31/182496_Regal_Cinemas_20_eGift_Card_for_10__Groupon_Ta/20%Monthly2017-03-31 18:42
http://www.hotnewdeal.com/2017/03/31/182495_GreenWorks_Pro_60Volt_Brushless_Lithium_Ion_21in/20%Monthly2017-03-31 18:42
http://www.hotnewdeal.com/2017/03/31/182494_Dura_Power_50ft_143_Outdoor_Extension_Cord_20_/20%Monthly2017-03-31 18:42
http://www.hotnewdeal.com/2017/03/31/182493_Kryptonite_KryptoLok_Series_2_Bicycle_ULock_w_4/20%Monthly2017-03-31 18:23
http://www.hotnewdeal.com/2017/03/31/182492_Hersheys_unsweetened_cocoa_powder_1220_for_48_o/20%Monthly2017-03-31 18:14
http://www.hotnewdeal.com/2017/03/31/182491_Edox_Mens_Les_Vauberts_Watch_149__free_shipping/20%Monthly2017-03-31 18:04
http://www.hotnewdeal.com/2017/03/31/182490_Amazon_Gama_Sonic_Prairie_Solar_LED_Light_Fixture/20%Monthly2017-03-31 18:03
http://www.hotnewdeal.com/2017/03/31/182488_Chicago_to_Ho_Chi_Minh_City_528_RT_on_United_Airl/20%Monthly2017-03-31 17:09
http://www.hotnewdeal.com/2017/03/31/182487_Fit__Fresh_Insulated_Lunch_Box_5_Backpack_wIns/20%Monthly2017-03-31 17:09
http://www.hotnewdeal.com/2017/03/31/182486_145Piece_Stanley_Mechanics_Tool_Set_4046__Free/20%Monthly2017-03-31 16:55
http://www.hotnewdeal.com/2017/03/31/182485_Oster_TSSTTRWF4S_4Slice_Stainless_Steel_Toaster_/20%Monthly2017-03-31 16:38
http://www.hotnewdeal.com/2017/03/31/182484_18399_Seagate_Backup_Plus_Hub_8TB_External_Deskt/20%Monthly2017-03-31 16:31
http://www.hotnewdeal.com/2017/03/31/182483_999_per_day_Enterprise_Rental_Car_Weekend_Rate_g/20%Monthly2017-03-31 16:31
http://www.hotnewdeal.com/2017/03/31/182482_adidas_Diablo_Small_Duffel_10_colors_11_Defens/20%Monthly2017-03-31 16:31
http://www.hotnewdeal.com/2017/03/31/182481_HP_Spectre_x360_13__i77500U_8BGB_Ram_256GB_SSD_F/20%Monthly2017-03-31 16:24
http://www.hotnewdeal.com/2017/03/31/182480_flash_sale_Beats_by_Dr_Dre__Beats_EP_Headphones/20%Monthly2017-03-31 16:24
http://www.hotnewdeal.com/2017/03/31/182479_PowerStroke_1700_PSI_Electric_Pressure_Washer_on_s/20%Monthly2017-03-31 16:24
http://www.hotnewdeal.com/2017/03/31/182478_Batman_Arkham_Orgins__499_until_8_AM_Pacific_Ap/20%Monthly2017-03-31 15:48
http://www.hotnewdeal.com/2017/03/31/182477_Mountain_Hardwear_Extra_40_Off_Select_Sale_Items/20%Monthly2017-03-31 15:40
http://www.hotnewdeal.com/2017/03/31/182476_Jura_Ena_Micro_1_Automatic_Coffee_and_Espresso_Mak/20%Monthly2017-03-31 15:24
http://www.hotnewdeal.com/2017/03/31/182475_Apple_iPhone_5s_16GB_Unlocked_GSM_4G_LTE_DualCore/20%Monthly2017-03-31 15:24
http://www.hotnewdeal.com/2017/03/31/182474_3_for_12_Magazine_Sale_Popular_Science_Cosmopol/20%Monthly2017-03-31 15:24
http://www.hotnewdeal.com/2017/03/31/182473_31062_Amazon_Generac_6866_iQ2000_1600_Running_W/20%Monthly2017-03-31 15:08
http://www.hotnewdeal.com/2017/03/31/182472_Qnap_TS251A_2bay_diskless_NAS_249__Amazoncom/20%Monthly2017-03-31 14:55
http://www.hotnewdeal.com/2017/03/31/182471_Wolfenstein_The_Old_Blood_PC_Digital_Download_/20%Monthly2017-03-31 14:46
http://www.hotnewdeal.com/2017/03/31/182470_GoPro_Hero_Session_Refurbished__110_shipped_on_e/20%Monthly2017-03-31 14:46
http://www.hotnewdeal.com/2017/03/31/182469_50w__10w_iXCC_5Port_USB_Car_Charger_10__Amazon/20%Monthly2017-03-31 14:46
http://www.hotnewdeal.com/2017/03/31/182468_Earn_5000_Alaska_miles_as_bonus_Join_Mileage_Plan/20%Monthly2017-03-31 14:46
http://www.hotnewdeal.com/2017/03/31/182467_Samsonite_Mightlight_Spinner_Luggage30_12499_/20%Monthly2017-03-31 14:38
http://www.hotnewdeal.com/2017/03/31/182466_Denali_classic_avaitor_style_glasses_6/20%Monthly2017-03-31 14:31
http://www.hotnewdeal.com/2017/03/31/182465_Polk_Signature_Speakers_S15_Satellite_Pair_140/20%Monthly2017-03-31 14:23
http://www.hotnewdeal.com/2017/03/31/182464_Macys_Martha_Stewart_Fleece_Blankets_All_Sizes_/20%Monthly2017-03-31 14:16
http://www.hotnewdeal.com/2017/03/31/182463_EZVIZ_Mini_O_720p_HD_WiFi_Home_Security_Camera_wi/20%Monthly2017-03-31 14:16
http://www.hotnewdeal.com/2017/03/31/182462_Korg_B1_88_Key_Digital_Piano_360__free_shipping/20%Monthly2017-03-31 14:08
http://www.hotnewdeal.com/2017/03/31/182461_SanDisk__Ultra_Fit_64GB_USB_30_Flash_Drive__Bla/20%Monthly2017-03-31 14:08
http://www.hotnewdeal.com/2017/03/31/182460_1_Month_FREE_SlickVPN_core_vpn_Service/20%Monthly2017-03-31 13:58
http://www.hotnewdeal.com/2017/03/31/182459_Kenneth_Cole_Reaction_Mens_Suits_90__free_ship_o/20%Monthly2017-03-31 13:58
http://www.hotnewdeal.com/2017/03/31/182458_AcuRite_Digital_Weather_Centers_3_Models_Walmart/20%Monthly2017-03-31 13:58
http://www.hotnewdeal.com/2017/03/31/182457_Philips_60W_Equivalent_Soft_White_A19_LED_Light_Bu/20%Monthly2017-03-31 13:37
http://www.hotnewdeal.com/2017/03/31/182456_Philips_Hue_White_Ambiance_BR30_LED_Light_Bulb_2/20%Monthly2017-03-31 13:29
http://www.hotnewdeal.com/2017/03/31/182455_Target__Amazon_Cambridge_Shiloh_Stainless_Steel_/20%Monthly2017-03-31 13:29
http://www.hotnewdeal.com/2017/03/31/182454_Samsung_KS8000_and_KS8500_Clearance_Television_sal/20%Monthly2017-03-31 13:28
http://www.hotnewdeal.com/2017/03/31/182453_55_Avera_55EQX10_Black_2160p_4K_LED_Television_fo/20%Monthly2017-03-31 13:28
http://www.hotnewdeal.com/2017/03/31/182452_Better_Chef_16Inch_Chrome_Dish_Rack_1550__ship/20%Monthly2017-03-31 13:28
http://www.hotnewdeal.com/2017/03/31/182451_1Year_Free_ShopRunner_Membership/20%Monthly2017-03-31 13:22
http://www.hotnewdeal.com/2017/03/31/182450_Lenovo_156_11015ISK_Laptop_i36100U_1TB_HDD_/20%Monthly2017-03-31 13:22
http://www.hotnewdeal.com/2017/03/31/182449_Localflavorcom_25_off_using_coupon_code_NET_V/20%Monthly2017-03-31 13:22
http://www.hotnewdeal.com/2017/03/31/182448_Teac_TN300_2Speed_Analog_Turntable_red_200__/20%Monthly2017-03-31 13:22
http://www.hotnewdeal.com/2017/03/31/182447_American_Tourister_Fieldbrook_II_4Piece_Nested_Lu/20%Monthly2017-03-31 13:22
http://www.hotnewdeal.com/2017/03/31/182446_Free_8x10_Portrait_at_Picture_People/20%Monthly2017-03-31 13:22
http://www.hotnewdeal.com/2017/03/31/182445_Delta_Porter_2Handle_Centerset_Chrome_Bathroom_Fa/20%Monthly2017-03-31 13:11
http://www.hotnewdeal.com/2017/03/31/182444_Target_Threshold_Small_Pendant_Light__White_w_/20%Monthly2017-03-31 13:11
http://www.hotnewdeal.com/2017/03/31/182443_Dog_Toys_Pally_Paws_Dura_Pet_Lou_Hedgehog_or_Bes/20%Monthly2017-03-31 13:11
http://www.hotnewdeal.com/2017/03/31/182442_Shower_Liner_InterDesign_MildewFree_PEVA_3_Gauge_/20%Monthly2017-03-31 12:56
http://www.hotnewdeal.com/2017/03/31/182441_adidas_Mens_Athletic_Low_Cut_Sock_6Pack_1199/20%Monthly2017-03-31 12:56
http://www.hotnewdeal.com/2017/03/31/182440_Prime_Members_Nostalgia_PCM805RETRORED_Retro_Seri/20%Monthly2017-03-31 12:29
http://www.hotnewdeal.com/2017/03/31/182439_Creality_3D_CR__10_3D_Desktop_DIY_Printer_395_sh/20%Monthly2017-03-31 12:19
http://www.hotnewdeal.com/2017/03/31/182438_20_Zippered_Cable_Management_Sleeves_4_Pack_for_/20%Monthly2017-03-31 12:19
http://www.hotnewdeal.com/2017/03/31/182437_4Pack_of_500Count_QTips_Cotton_Swabs_863_or_L/20%Monthly2017-03-31 12:08
http://www.hotnewdeal.com/2017/03/31/182436_Amex_only_20_2_mobil1_5qt_jugs_and_2_filters__/20%Monthly2017-03-31 11:48
http://www.hotnewdeal.com/2017/03/31/182435_NordVPN__protect_your_privacy_up_to_72_off__1_/20%Monthly2017-03-31 11:48
http://www.hotnewdeal.com/2017/03/31/182434_Acer_Desktop_PC_Aspire_Predator_AG3710UC11_Intel/20%Monthly2017-03-31 11:39
http://www.hotnewdeal.com/2017/03/31/182433_Uniden_BCD325P2_Digital_Trunking_Scanner__282_a/20%Monthly2017-03-31 11:39
http://www.hotnewdeal.com/2017/03/31/182432_398_1Gallon_Home_Defense_Max_Insect_Killer/20%Monthly2017-03-31 11:33
http://www.hotnewdeal.com/2017/03/31/182430_Zippered_Binder_Pencil_Pouch_104__Free_Prime_Sh/20%Monthly2017-03-31 11:25
http://www.hotnewdeal.com/2017/03/31/182429_Onkyo_TXNR656_Black_72Channel_Network_AV_Recei/20%Monthly2017-03-31 11:25
http://www.hotnewdeal.com/2017/03/31/182428_Amazon_349_or_2_with_coupon_and_15_SS_MET/20%Monthly2017-03-31 11:17
http://www.hotnewdeal.com/2017/03/31/182427_GSKILL_Ripjaws_V_Series_32GB_4_x_8GB_288Pin_DD/20%Monthly2017-03-31 11:17
http://www.hotnewdeal.com/2017/03/31/182426_Disneyland_Resort_Tickets_on_Expedia_Starting_From/20%Monthly2017-03-31 11:09
http://www.hotnewdeal.com/2017/03/31/182425_Amazon__EXSHOW_Car_Mount_Universal_Windshield_Ho/20%Monthly2017-03-31 11:08
http://www.hotnewdeal.com/2017/03/31/182424_Refurbished_Razer_Blade_V3__Full_HD_69999/20%Monthly2017-03-31 10:56
http://www.hotnewdeal.com/2017/03/31/182423_Beltronics_RX65_Professional_RadarLaser_Detector_/20%Monthly2017-03-31 10:52
http://www.hotnewdeal.com/2017/03/31/182422_3TB_WD_My_Passport_for_Mac_Portable_HDD_94frys_/20%Monthly2017-03-31 10:47
http://www.hotnewdeal.com/2017/03/31/182420_Aeropostale_Clearance_Up_to_80_off__50_off_Cou/20%Monthly2017-03-31 10:39
http://www.hotnewdeal.com/2017/03/31/182419_ZWAVE_SALE__TheSmartestHousecom_April_Fools_Sa/20%Monthly2017-03-31 10:23
http://www.hotnewdeal.com/2017/03/31/182418_Logitech_Harmony_Ultimate_All_in_One_Remote_with_C/20%Monthly2017-03-31 10:23
http://www.hotnewdeal.com/2017/03/31/182417_Original_Penguin_Select_Mens_Polos_1599_Dres/20%Monthly2017-03-31 10:17
http://www.hotnewdeal.com/2017/03/31/182416_Humble_Book_Bundle_The_Horus_Heresy__pay_1_or_m/20%Monthly2017-03-31 10:04
http://www.hotnewdeal.com/2017/03/31/182415_Flat_Cat_6_Ethernet_Cable_50_With_Snagless_Rj45_C/20%Monthly2017-03-31 10:04
http://www.hotnewdeal.com/2017/03/31/182414_100_Neverkink_Pro_58_Commercial_Duty_Water_Hose/20%Monthly2017-03-31 09:40
http://www.hotnewdeal.com/2017/03/31/182413_WD__Elements_Portable_3TB_External_USB_30_Portab/20%Monthly2017-03-31 09:24
http://www.hotnewdeal.com/2017/03/31/182412_Amazon_Warehouse_Like_New_Flybar_Foam_Master_Pog/20%Monthly2017-03-31 09:19
http://www.hotnewdeal.com/2017/03/31/182410_YMMV_125_Hisense_40H3B_40_Class_H3_Series__Full/20%Monthly2017-03-31 08:24
http://www.hotnewdeal.com/2017/03/31/182409_Dunlop_SP_Sport_Signature_Tire_20555R16_91V__Wal/20%Monthly2017-03-31 08:24
http://www.hotnewdeal.com/2017/03/31/182408_Asus_ROG_Strix_RX470_4GB_as_low_as_9919_AR_and_p/20%Monthly2017-03-31 08:17
http://www.hotnewdeal.com/2017/03/31/182407_32_GB_ADATA_DashDrive_UV128_USB_30_Flash_Drive_fo/20%Monthly2017-03-31 08:17
http://www.hotnewdeal.com/2017/03/31/182406_Dunlop_RoadSmart_II_Front_and_Rear_Motorcycle_Tire/20%Monthly2017-03-31 08:08
http://www.hotnewdeal.com/2017/03/31/182405_3Pack_Sperry_Mens_Casual_Crew_Socks_4__free_sh/20%Monthly2017-03-31 07:59
http://www.hotnewdeal.com/2017/03/31/182404_001_Strategy_Guides_YMMV_In_Store_Pickup_Only/20%Monthly2017-03-31 07:47
http://www.hotnewdeal.com/2017/03/31/182403_Lucky_Brand_leather_bags__Nordstrom_Rack__2820/20%Monthly2017-03-31 07:39
http://www.hotnewdeal.com/2017/03/31/182402_Monoprice_Pure_Outdoor_Emperor_25_Cooler_9999/20%Monthly2017-03-31 07:25
http://www.hotnewdeal.com/2017/03/31/182401_4M_Flexible_EL_Wire__Blue_for_199__Free_Shippi/20%Monthly2017-03-31 07:25
http://www.hotnewdeal.com/2017/03/31/182400_Home_Depot_BM_YMMV__HDX_65Compartment_5In1_S/20%Monthly2017-03-31 07:25
http://www.hotnewdeal.com/2017/03/31/182398_Dockers_Mens_Alpha_Khaki_Slim_FlatFront_Pant__D/20%Monthly2017-03-31 07:18
http://www.hotnewdeal.com/2017/03/31/182397_1_TB_Seagate_FireCuda_Gaming_SSHD_25_SATA_III_In/20%Monthly2017-03-31 07:18
http://www.hotnewdeal.com/2017/03/31/182396_Mens_600Fill_Power_Ultralight_Down_Vest_9__Fre/20%Monthly2017-03-31 07:18
http://www.hotnewdeal.com/2017/03/31/182394_Seagate_Backup_Plus_External_Hard_Drive_4TB_879/20%Monthly2017-03-31 06:07
http://www.hotnewdeal.com/2017/03/31/182393_Prime_Members_Amazon_Dash_Button__499_Credit_w/20%Monthly2017-03-31 05:28
http://www.hotnewdeal.com/2017/03/31/182392_Acronis_True_Image_2017_Software_Free_after_Rebate/20%Monthly2017-03-31 05:08
http://www.hotnewdeal.com/2017/03/31/182391_VPNSecure_Lifetime_Subscription__34/20%Monthly2017-03-31 05:08
http://www.hotnewdeal.com/2017/03/31/182390_Excellent_Audio_Processing_BM800_White_Condenser_M/20%Monthly2017-03-31 05:02
http://www.hotnewdeal.com/2017/03/31/182389_Rubbermaid_50_Qt_Insulated_Modern_Red_Cooler_for_/20%Monthly2017-03-31 03:09
http://www.hotnewdeal.com/2017/03/31/182388_Ultrasonic_Aromatherapy_Essential_Oil_Diffuser__C/20%Monthly2017-03-31 03:09
http://www.hotnewdeal.com/2017/03/31/182387_SelfScore_Achieve_MasterCard_for_International_stu/20%Monthly2017-03-31 03:09
http://www.hotnewdeal.com/2017/03/31/182386_Sonifresh_Toothbrush_HeadsReplacement_Toothbrush_/20%Monthly2017-03-31 03:09
http://www.hotnewdeal.com/2017/03/31/182384_Easy_Decoration_36ft_100_LED_Outdoor_Battery_Fairy/20%Monthly2017-03-31 01:29
http://www.hotnewdeal.com/2017/03/31/182383_Select_Funko_Pop_Figures__2_for_6_w_Free_Picku/20%Monthly2017-03-31 01:10
http://www.hotnewdeal.com/2017/03/31/182382_Los_Angeles_to_Paris_France_394_RT_on_Norwegian_A/20%Monthly2017-03-31 00:16
http://www.hotnewdeal.com/2017/03/30/182381_Klipsch_Black_Quintet_V_50Ch_Home_Theater_Syste/20%Monthly2017-03-30 23:53
http://www.hotnewdeal.com/2017/03/30/182380_RYOBI_ONE_18_Volt_Lithium_Impact_Driver_Kit_w_Ba/20%Monthly2017-03-30 23:48
http://www.hotnewdeal.com/2017/03/30/182379_Bluetooth_41_Audio_Receiver_Adapter__Amazon_12/20%Monthly2017-03-30 23:40
http://www.hotnewdeal.com/2017/03/30/182378_Roll_for_the_Galaxy_Board_Game__Amazon_3448_FS_/20%Monthly2017-03-30 23:33
http://www.hotnewdeal.com/2017/03/30/182377_99_transfer_TiVo_Lifetime_Service_from_Series_2_o/20%Monthly2017-03-30 23:33
http://www.hotnewdeal.com/2017/03/30/182376_24x16_3D_Heart_Pool_Design_Water_Absorption_Door/20%Monthly2017-03-30 23:09
http://www.hotnewdeal.com/2017/03/30/182375_Sierra_Trading_Post_Select_Clearance_Items_Up_to_9/20%Monthly2017-03-30 22:56
http://www.hotnewdeal.com/2017/03/30/182374_Breville_BKE720BSS_The_Temp_Select_Electric_Kettle/20%Monthly2017-03-30 22:56
http://www.hotnewdeal.com/2017/03/30/182373_Street_Moda_Mens_and_Womens_TOMS_Shoes__2499/20%Monthly2017-03-30 22:32
http://www.hotnewdeal.com/2017/03/30/182372_Home_Depot_Sportsman_4000Watt_Dual_Fuel_Powered/20%Monthly2017-03-30 22:24
http://www.hotnewdeal.com/2017/03/30/182371_Excelvan_1500_Lumens_1080P_Mini_WIFI_Android_LCD_L/20%Monthly2017-03-30 22:04
http://www.hotnewdeal.com/2017/03/30/182370_New_Jet_Customers_PlayStation_4_Pro_4_1TB_369_w/20%Monthly2017-03-30 21:59
http://www.hotnewdeal.com/2017/03/30/182369_adidas_Womens_CLIMALITE_34_Capri_MidRise_Workou/20%Monthly2017-03-30 21:37
http://www.hotnewdeal.com/2017/03/30/182368_GIGABYTE_GeForce_GTX_1080_DirectX_12_GVN1080D5X8/20%Monthly2017-03-30 21:19
http://www.hotnewdeal.com/2017/03/30/182367_5_for_10_Dunkin_Donuts_eGift_card__LivingSocia/20%Monthly2017-03-30 21:19
http://www.hotnewdeal.com/2017/03/30/182366_Motorola_Moto_360_2nd_Gen_Smartwatch_w_Leather_/20%Monthly2017-03-30 20:56
http://www.hotnewdeal.com/2017/03/30/182365_Animal_Crossing_Amiibo_Festival_Bundle_Gamestop_/20%Monthly2017-03-30 20:56
http://www.hotnewdeal.com/2017/03/30/182364_Cuisinart_Refurbished_DGB625BC_GrindandBrew_12/20%Monthly2017-03-30 20:47
http://www.hotnewdeal.com/2017/03/30/182363_Blizzard_TShirts__7_or_5_for_25/20%Monthly2017-03-30 20:08
http://www.hotnewdeal.com/2017/03/30/182362_Amazon_516__607_Doctors_Best_Vitamin_D3_500/20%Monthly2017-03-30 19:59
http://www.hotnewdeal.com/2017/03/30/182361_Wii_to_HDMI_Converter_Real_720P_1080P_HD_Output_Vi/20%Monthly2017-03-30 19:59
http://www.hotnewdeal.com/2017/03/30/182360_Baby_Jogger_Citi_mini_stroller_evergreen__40_ta/20%Monthly2017-03-30 19:48
http://www.hotnewdeal.com/2017/03/30/182359_GoPro_Hero_4_OEM_Battery_771_YMMV/20%Monthly2017-03-30 19:40
http://www.hotnewdeal.com/2017/03/30/182358_Tapcon_Concrete_Screws_75pk_with_concrete_bit_3_/20%Monthly2017-03-30 19:40
http://www.hotnewdeal.com/2017/03/30/182356_Das_Keyboard_Model_S_Ultimate_Mechanical_Keyboard_/20%Monthly2017-03-30 19:33
http://www.hotnewdeal.com/2017/03/30/182355_AMD_Ryzen_7_1700_3GHz_8Core_Processor_299_w_Fry/20%Monthly2017-03-30 19:33
http://www.hotnewdeal.com/2017/03/30/182354_Worx_120_MPH_450_CFM_Turbine_Electric_Leaf_Blower_/20%Monthly2017-03-30 19:29
http://www.hotnewdeal.com/2017/03/30/182353_Cardcash_Extra_7_off_All_Restaurant_GCs_Applebe/20%Monthly2017-03-30 19:25
http://www.hotnewdeal.com/2017/03/30/182352_Star_Wars_Battlefront__Standard_Edition_PS4_for_/20%Monthly2017-03-30 19:25
http://www.hotnewdeal.com/2017/03/30/182351_LG_29UC88_29Inch_219_UltraWide_FHD_2560x1080_I/20%Monthly2017-03-30 19:18
http://www.hotnewdeal.com/2017/03/30/182350_Mr_Heater_Portable_Buddy_Carry_Bag_9BX_840__Am/20%Monthly2017-03-30 19:09
http://www.hotnewdeal.com/2017/03/30/182349_KitchenAid_KCO273SS_12_Convection_Bake_Digital_Co/20%Monthly2017-03-30 18:55
http://www.hotnewdeal.com/2017/03/30/182348_Suaoki_T10_Portable_Car_Jump_Starter__Power_Bank_/20%Monthly2017-03-30 18:55
http://www.hotnewdeal.com/2017/03/30/182347_Refurb_Jawbone_ERA_Bluetooth_Headset_with_NoiseA/20%Monthly2017-03-30 18:32
http://www.hotnewdeal.com/2017/03/30/182346_Fender_American_Elite_Telecaster_with_Fender_Limit/20%Monthly2017-03-30 18:17
http://www.hotnewdeal.com/2017/03/30/182345_Ultrasone_PRO550_SLogic_Headphones_70_after_10/20%Monthly2017-03-30 17:59
http://www.hotnewdeal.com/2017/03/30/182344_Pronto_and_Peel_Smart_Universal_Remote_Control__/20%Monthly2017-03-30 17:40
http://www.hotnewdeal.com/2017/03/30/182343_6Pack_of_CHOETECH_USB_Type_C_to_USB_Type_C_Cables/20%Monthly2017-03-30 17:40
http://www.hotnewdeal.com/2017/03/30/182342_HP_Pavilion_Desktop_510P136_Intel_Core_i76700T/20%Monthly2017-03-30 17:33
http://www.hotnewdeal.com/2017/03/30/182341_Asus_N600_rtn53_15__10_MIR_YMMV__In_store_/20%Monthly2017-03-30 17:18
http://www.hotnewdeal.com/2017/03/30/182340_12Pack_of_169oz_Propel_Zero_Calorie_Sports_Drink/20%Monthly2017-03-30 17:08
http://www.hotnewdeal.com/2017/03/30/182339_Hamilton_Khaki_Field_Automatic_Chronograph_Watch_/20%Monthly2017-03-30 16:56
http://www.hotnewdeal.com/2017/03/30/182338_Whistler_XTR538_Laser_Radar_Detector_for_3999_F/20%Monthly2017-03-30 16:56
http://www.hotnewdeal.com/2017/03/30/182337_Beyerdynamic_DT_990_PRO_Headphones__LIMITED_EDITI/20%Monthly2017-03-30 16:56
http://www.hotnewdeal.com/2017/03/30/182336_Jabra_Stealth_and_Jabra_Steel_Bluetooth_Headset_R/20%Monthly2017-03-30 16:47
http://www.hotnewdeal.com/2017/03/30/182335_TaoTronics_Bluetooth_Headphones_Wireless_Neckband_/20%Monthly2017-03-30 16:34
http://www.hotnewdeal.com/2017/03/30/182334_Best_Buy__McFarlane_Toys__Collector_Color_Tops_E/20%Monthly2017-03-30 16:26
http://www.hotnewdeal.com/2017/03/30/182333_Bella_DualBrew_Single_Serve_Coffeemaker_1999FS_/20%Monthly2017-03-30 16:18
http://www.hotnewdeal.com/2017/03/30/182332_6_Pack__Degree_Men_Dry_Protection_Antiperspirant_/20%Monthly2017-03-30 16:08
http://www.hotnewdeal.com/2017/03/30/182331_6Pack_of_EcoSmart_65W_Equivalent_2700K_Soft_White/20%Monthly2017-03-30 15:59
http://www.hotnewdeal.com/2017/03/30/182330_Calphalon_Contemporary_HardAnodized_Aluminum_Nons/20%Monthly2017-03-30 15:40
http://www.hotnewdeal.com/2017/03/30/182329_Lucky_Brand_181_and_others_from_3299_Amazon_DoTD/20%Monthly2017-03-30 15:40
http://www.hotnewdeal.com/2017/03/30/182328_Mophie_Juice_Pack_Battery_Cases_for_Samsung_Galaxy/20%Monthly2017-03-30 15:33
http://www.hotnewdeal.com/2017/03/30/182327_Nintendo_Switch_with_Neon_Blue_and_Neon_Red_JoyCo/20%Monthly2017-03-30 15:33
http://www.hotnewdeal.com/2017/03/30/182326_Bose_SoundLink_OnEar_Bluetooth_headphones_1699/20%Monthly2017-03-30 15:33
http://www.hotnewdeal.com/2017/03/30/182325_Arm__Hammer_2IN1_Laundry_Detergent_Power_Paks_/20%Monthly2017-03-30 15:33
http://www.hotnewdeal.com/2017/03/30/182324_Nintendo_Switch_Now_In_Stock_29999_for_Prime_Mem/20%Monthly2017-03-30 15:24
http://www.hotnewdeal.com/2017/03/30/182323_DEWALT_DWP849X_79_Variable_Speed_Polisher_w_Sof/20%Monthly2017-03-30 15:24
http://www.hotnewdeal.com/2017/03/30/182320_2TB_Xbox_One_S_Gears_of_War_4_Limited_Edition_Bund/20%Monthly2017-03-30 15:17
http://www.hotnewdeal.com/2017/03/30/182319_Melissa__Doug_Smarty_Pants_1st_Grade_Card_Set__/20%Monthly2017-03-30 15:17
http://www.hotnewdeal.com/2017/03/30/182318_Planet_Earth_II_4K_Bluray_3399__Free_Shippin/20%Monthly2017-03-30 15:08
http://www.hotnewdeal.com/2017/03/30/182317_Kids_Mini_Backpacks_648__Target/20%Monthly2017-03-30 15:08
http://www.hotnewdeal.com/2017/03/30/182316_72_Simpli_Home_Cosmopolitan_Wide_TV_Media_Stand_/20%Monthly2017-03-30 14:47
http://www.hotnewdeal.com/2017/03/30/182315_Schlage_Connect_Camelot_Touchscreen_Deadbolt_with_/20%Monthly2017-03-30 14:47
http://www.hotnewdeal.com/2017/03/30/182314_Razer_Blade_v3__79999/20%Monthly2017-03-30 14:33
http://www.hotnewdeal.com/2017/03/30/182313_San_Diego_to_Puerto_Rico_385_RT_Airfare_travel_A/20%Monthly2017-03-30 14:33
http://www.hotnewdeal.com/2017/03/30/182312_blueandcream_Designer_Apparel_Warehouse_Sale_Up_T/20%Monthly2017-03-30 14:24
http://www.hotnewdeal.com/2017/03/30/182311_Apple_116_MacBook_Air_Notebook_i7_8GB_512GB_SSD_/20%Monthly2017-03-30 14:24
http://www.hotnewdeal.com/2017/03/30/182310_Tommy_Hilfiger_All_American_II_Cotton_Bath_Towel_/20%Monthly2017-03-30 14:24
http://www.hotnewdeal.com/2017/03/30/182309_AllClad_700362_MC2_Professional_Master_Chef_2_Sta/20%Monthly2017-03-30 14:18
http://www.hotnewdeal.com/2017/03/30/182308_PackTowl_Personal_Microfiber_Towel_XLargeBody_/20%Monthly2017-03-30 14:17
http://www.hotnewdeal.com/2017/03/30/182307_funko_pop_clearance_blowout_excluding_overwatch/20%Monthly2017-03-30 14:08
http://www.hotnewdeal.com/2017/03/30/182306_FLYINGPIGEON_Folding_bike_Suspension_system_20_W/20%Monthly2017-03-30 14:08
http://www.hotnewdeal.com/2017/03/30/182305_PS4__16_Final_Fantasy_XIV_Avatars_FREE/20%Monthly2017-03-30 14:08
http://www.hotnewdeal.com/2017/03/30/182304_1599_MusclePharm_Combat_Crunch_Bars_12_pack_Fl/20%Monthly2017-03-30 14:08
http://www.hotnewdeal.com/2017/03/30/182303_2_Disney_Princess_Dolls__5_Target_Gift_Card_for_/20%Monthly2017-03-30 13:48
http://www.hotnewdeal.com/2017/03/30/182302_KZ_ZST_Noisecanceling_Earphones_13__free_shippi/20%Monthly2017-03-30 13:33
http://www.hotnewdeal.com/2017/03/30/182301_Dell_Inspiron_15_Laptop_i56300HQ_8GB_RAM_1TB_/20%Monthly2017-03-30 13:25
http://www.hotnewdeal.com/2017/03/30/182300_John_Deere_riding_mower_Mail_in_Rebate/20%Monthly2017-03-30 13:25
http://www.hotnewdeal.com/2017/03/30/182299_18_Pcs_Girls_Polka_Dot_Hair_Bows_329__FSAmaz/20%Monthly2017-03-30 13:25
http://www.hotnewdeal.com/2017/03/30/182298_14_Cuisinart_Chefs_Classic_Stainless_Open_Skille/20%Monthly2017-03-30 13:18
http://www.hotnewdeal.com/2017/03/30/182296_Husky_20_oz_Ripping_Hammer_988__Free_Store_Pick/20%Monthly2017-03-30 13:18
http://www.hotnewdeal.com/2017/03/30/182295_Nintendo_Switch_Gaming_Console__12Switch_for_3/20%Monthly2017-03-30 13:09
http://www.hotnewdeal.com/2017/03/30/182294_Dr_Seuss_5_books_for_595_plus_free_shipping_plu/20%Monthly2017-03-30 13:09
http://www.hotnewdeal.com/2017/03/30/182293_Samsung_Gear_S2_Smartwatch_Black_9999_or_Samsu/20%Monthly2017-03-30 13:09
http://www.hotnewdeal.com/2017/03/30/182292_Shimano_Nexave_FD_Spinning_Reel_100025004000/20%Monthly2017-03-30 13:09
http://www.hotnewdeal.com/2017/03/30/182291_THD_Spring_Black_Friday_Tool_Promotions__Milwauke/20%Monthly2017-03-30 13:09
http://www.hotnewdeal.com/2017/03/30/182290_Black_Mountain_Products_Resistance_Band_Set_only_/20%Monthly2017-03-30 12:47
http://www.hotnewdeal.com/2017/03/30/182289_Zelda_Breath_of_the_Wild_Special_Edition_in_stock/20%Monthly2017-03-30 12:47
http://www.hotnewdeal.com/2017/03/30/182288_Runners_World_Magazine_5_per_year_when_you_buy_2/20%Monthly2017-03-30 12:47
http://www.hotnewdeal.com/2017/03/30/182287_Corsair_Carbide_Series_400C_White_CC9011095WW_/20%Monthly2017-03-30 12:32
http://www.hotnewdeal.com/2017/03/30/182286_Ecobee_3_w_1_sensor_184_YMMV__Walmart/20%Monthly2017-03-30 12:32
http://www.hotnewdeal.com/2017/03/30/182285_VPN_Unlimited_Lifetime_Subscription__3315/20%Monthly2017-03-30 12:24
http://www.hotnewdeal.com/2017/03/30/182284_HGST_Deskstar_NAS_4TB_hard_drive_129__Frys_wem/20%Monthly2017-03-30 12:17
http://www.hotnewdeal.com/2017/03/30/182283_60_OFF_32_Benuo_Defender_Series_Apple_Watch_/20%Monthly2017-03-30 12:08
http://www.hotnewdeal.com/2017/03/30/182282_Ringke_Cases_for_LG_G6_iPhone_77_Plus_Galaxy_S7/20%Monthly2017-03-30 12:08
http://www.hotnewdeal.com/2017/03/30/182281_ZTE_ZMAX_2_GoPhone_Certified_Restored__Black_4/20%Monthly2017-03-30 12:08
http://www.hotnewdeal.com/2017/03/30/182280_Gorilla_3Step_Lightweight_Steel_Step_Stool_Ladder/20%Monthly2017-03-30 11:59
http://www.hotnewdeal.com/2017/03/30/182279_Fiskars_5inch_Kids_Scissors_129__Free_Prime_Sh/20%Monthly2017-03-30 11:48
http://www.hotnewdeal.com/2017/03/30/182278_Delta_Airlines_SkyMiles_1000_Frequent_Flyer_Miles/20%Monthly2017-03-30 11:40
http://www.hotnewdeal.com/2017/03/30/182277_800_off_MSRP_Apple_116_MacBook_Air_Notebook_Com/20%Monthly2017-03-30 11:33
http://www.hotnewdeal.com/2017/03/30/182276_Possible_MM_Swagbucks_Purchase_one_Kiwi_product_/20%Monthly2017-03-30 11:33
http://www.hotnewdeal.com/2017/03/30/182275_Target_Purchase_50_in_Food_andor_Beverage_Get_/20%Monthly2017-03-30 11:24
http://www.hotnewdeal.com/2017/03/30/182274_10Piece_Bosch_Daredevil_Spade_Bit_Set_997__Fre/20%Monthly2017-03-30 11:18
http://www.hotnewdeal.com/2017/03/30/182273_Heads_Up_Cheesecake_Factory_Free_Slice_of_Joy_Exp/20%Monthly2017-03-30 11:09
http://www.hotnewdeal.com/2017/03/30/182272_Gorilla_Ladders_17_MPX_Aluminum_Telescoping_Multi/20%Monthly2017-03-30 11:09
http://www.hotnewdeal.com/2017/03/30/182271_3_LED_Solar_Garden_Lights_Outdoor_Decorative_Water/20%Monthly2017-03-30 11:09
http://www.hotnewdeal.com/2017/03/30/182270_Delta_7Spray_Hand_Shower_in_Chrome_1688_at_Home/20%Monthly2017-03-30 10:56
http://www.hotnewdeal.com/2017/03/30/182269_Mafia_III_PC_Digital_Download_1699_via_Green_M/20%Monthly2017-03-30 10:56
http://www.hotnewdeal.com/2017/03/30/182268_1Gallon_Ortho_Home_Defense_Max_ReadyToUse_Insec/20%Monthly2017-03-30 10:56
http://www.hotnewdeal.com/2017/03/30/182267_GroundSmart_Rubber_Mulch_SuperSack_385_cu_ft__2/20%Monthly2017-03-30 10:56
http://www.hotnewdeal.com/2017/03/30/182266_Samsung_s8_650_for_sliver_version_on_Samsung_wesi/20%Monthly2017-03-30 10:33
http://www.hotnewdeal.com/2017/03/30/182265_Foo_Fighters_Greatest_Hits_Vinyl_1334/20%Monthly2017-03-30 10:24
http://www.hotnewdeal.com/2017/03/30/182264_Seventh_Generation_Lunch_Napkins_250count_185_/20%Monthly2017-03-30 10:24
http://www.hotnewdeal.com/2017/03/30/182263_Ryobi_18Volt_ONE_Drain_Auger__18Volt_ONE_Lith/20%Monthly2017-03-30 10:24
http://www.hotnewdeal.com/2017/03/30/182262_Silly_Animals_4Up_Card_Game__Peaceable_Kingdom_fo/20%Monthly2017-03-30 10:17
http://www.hotnewdeal.com/2017/03/30/182261_Band_It_Trash_Can_Loop_165__Free_Prime_Shipping/20%Monthly2017-03-30 09:59
http://www.hotnewdeal.com/2017/03/30/182260_BLU_Life_One_X2_52_GSM_Unlocked_Dual_SIM_Smartph/20%Monthly2017-03-30 09:59
http://www.hotnewdeal.com/2017/03/30/182259_Bluray_w_8_Movie_Cash_to_Kong_Skull_Island_Liv/20%Monthly2017-03-30 09:59
http://www.hotnewdeal.com/2017/03/30/182258_Nashbar_Up_To_80_Off_Bicycle_Tires_Michelin_Pro/20%Monthly2017-03-30 09:59
http://www.hotnewdeal.com/2017/03/30/182257_Prime_Members_Propel_Black_Cherry_169_Ounce_Bo/20%Monthly2017-03-30 09:48
http://www.hotnewdeal.com/2017/03/30/182255_Simple_Mobile_ZTE_Midnight_Pro__Free_30_Days_40_/20%Monthly2017-03-30 09:41
http://www.hotnewdeal.com/2017/03/30/182253_Galaxy_S8_with_Free_VR_preorder_at_Samsungcom_fo/20%Monthly2017-03-30 09:30
http://www.hotnewdeal.com/2017/03/30/182252_Elechomes_1600watt_3HP_HighSpeed_Blender_15949_/20%Monthly2017-03-30 08:51
http://www.hotnewdeal.com/2017/03/30/182251_Select_Razer_PC_Gaming_Products_Up_to_40_Off_Ra/20%Monthly2017-03-30 08:38
http://www.hotnewdeal.com/2017/03/30/182250_TrafficMASTER_Dark_Brown_Hickory_7mm_Laminate_Floo/20%Monthly2017-03-30 08:24
http://www.hotnewdeal.com/2017/03/30/182249_Ryobi_18Volt_ONE_Power_Inflator_ToolOnly_19/20%Monthly2017-03-30 07:34
http://www.hotnewdeal.com/2017/03/30/182248_Husky_46_9Drawer_Mobile_Workbench_w_Solid_Wood_/20%Monthly2017-03-30 07:25
http://www.hotnewdeal.com/2017/03/30/182247_Link_Depot_HDMI_4K_6_ft_199__Free_Shipping__N/20%Monthly2017-03-30 07:25
http://www.hotnewdeal.com/2017/03/30/182246_Cuties_3lb_for_25_cents_via_AmazonFresh_YMMV/20%Monthly2017-03-30 07:25
http://www.hotnewdeal.com/2017/03/30/182244_Prime_Members_58Count_Quaker_Chewy_Granola_Bars_/20%Monthly2017-03-30 07:09
http://www.hotnewdeal.com/2017/03/30/182243_Samsung_Galaxy_S8__S8_PreOrder_at_Sams_Club_/20%Monthly2017-03-30 07:09
http://www.hotnewdeal.com/2017/03/30/182242_RAVPower_60W_12A_6Port_USB_Desktop_Charger_Black/20%Monthly2017-03-30 06:09
http://www.hotnewdeal.com/2017/03/30/182241_Go_Trilogy_Lara_Croft_Go_Hitman_Go_Deus_Ex_Go_/20%Monthly2017-03-30 06:08
http://www.hotnewdeal.com/2017/03/30/182240_1544_lb_100_All_Natural_Hardwood_Lump_Charcoal_/20%Monthly2017-03-30 05:09
http://www.hotnewdeal.com/2017/03/30/182239_Open_Box_Item_Step2_Lift_and_Hide_Bookcase_Toy_B/20%Monthly2017-03-30 03:27
http://www.hotnewdeal.com/2017/03/30/182238_Save_30_on_Gurin_Water_Flosser_Offer_Price_230/20%Monthly2017-03-30 03:18
http://www.hotnewdeal.com/2017/03/30/182236_Patriot_Viper_4_Series_DDR4_RAM__16GB_2_x_8GB_/20%Monthly2017-03-30 03:09
http://www.hotnewdeal.com/2017/03/30/182235_Yongnuo_35mm_f20_Autofocus_Lens_Nikon_or_Canon_/20%Monthly2017-03-30 02:29
http://www.hotnewdeal.com/2017/03/30/182234_Patchwork_Board_Game_1784__Free_Shipping_w_Pri/20%Monthly2017-03-30 02:08
http://www.hotnewdeal.com/2017/03/30/182233_BTC3100_V22_Smart_Liion_Battery_Charger_1999_/20%Monthly2017-03-30 01:33
http://www.hotnewdeal.com/2017/03/30/182232_Home_Depot__Ryobi_15Amp_10_in_Sliding_Miter_Saw/20%Monthly2017-03-30 01:33
http://www.hotnewdeal.com/2017/03/30/182230_Speed__Strength_SS1200_Full_Face_Motorcycle_Helme/20%Monthly2017-03-30 01:08
http://www.hotnewdeal.com/2017/03/30/182229_Macbook_proLate_2016_13_inch_without_touch_bar_/20%Monthly2017-03-30 01:08
http://www.hotnewdeal.com/2017/03/30/182228_Jansport_Backpack_1999_57_Off_Meritline/20%Monthly2017-03-30 00:16
http://www.hotnewdeal.com/2017/03/30/182227_20L_Durable_Lightweight_Packable_Travel_Hiking_Bac/20%Monthly2017-03-30 00:16
http://www.hotnewdeal.com/2017/03/29/182226_Home_depot__Lawn_cart_20_0330__0404/20%Monthly2017-03-29 23:48
http://www.hotnewdeal.com/2017/03/29/182225_Groupon_Membership_at_Natl_Museum_of_Nuclear_Sci_/20%Monthly2017-03-29 23:48
http://www.hotnewdeal.com/2017/03/29/182224_Shower_Liner_InterDesign_MildewFree_PEVA_3_Gauge_/20%Monthly2017-03-29 23:48
http://www.hotnewdeal.com/2017/03/29/182223_Pasonomi_VR_Glasses__1470_AC__Prime_FSSS/20%Monthly2017-03-29 23:44
http://www.hotnewdeal.com/2017/03/29/182222_OOS__MetRX_Extreme_NOS_Pumped_Drink_Nitro_Grape/20%Monthly2017-03-29 23:09
http://www.hotnewdeal.com/2017/03/29/182221_Bemastar_New_Style_Ladys_5_Pack_Warm_Thicken_Rabb/20%Monthly2017-03-29 23:09
http://www.hotnewdeal.com/2017/03/29/182220_TMobile_Asus_Dual_Band_Wireless_Router_TMAC1900_/20%Monthly2017-03-29 22:56
http://www.hotnewdeal.com/2017/03/29/182219_37_Excelvan_5_Tier_240W_Electric_Food_Fruit_Dehyd/20%Monthly2017-03-29 22:56
http://www.hotnewdeal.com/2017/03/29/182218_Brandon_Sanderson_The_Way_of_Kings_Paperback_447/20%Monthly2017-03-29 22:48
http://www.hotnewdeal.com/2017/03/29/182217_Home_Depot_InStore_Offer_150oz_Tide_HE_Liquid_La/20%Monthly2017-03-29 22:34
http://www.hotnewdeal.com/2017/03/29/182215_128oz_Lysol_Professional_Heavy_Duty_Bathroom_Cle/20%Monthly2017-03-29 21:49
http://www.hotnewdeal.com/2017/03/29/182214_Kate_Spade_Sale_Items__Wallets_starting_from_33_/20%Monthly2017-03-29 21:49
http://www.hotnewdeal.com/2017/03/29/182213_Werner_8ft_Fiberglass_Step_Ladder__Lowes_89_po/20%Monthly2017-03-29 21:36
http://www.hotnewdeal.com/2017/03/29/182212_2TB_Gears_of_War_Xbox_one_S__Extra_Controller_32/20%Monthly2017-03-29 21:28
http://www.hotnewdeal.com/2017/03/29/182211_GeIL_Desktop_Memory_16GBKIT_8GBx2_DDR4_2400_58/20%Monthly2017-03-29 21:20
http://www.hotnewdeal.com/2017/03/29/182209_Nitecore_EA8_AA_XML_U2_Flashlight_49__free_ship/20%Monthly2017-03-29 21:20
http://www.hotnewdeal.com/2017/03/29/182208_Rokform_iPhone_66s_or_6_Plus6S_Plus_Rugged_Case_/20%Monthly2017-03-29 20:37
http://www.hotnewdeal.com/2017/03/29/182207_Home_Design_Mattress_Pad_1499_at_Macys_instor/20%Monthly2017-03-29 20:28
http://www.hotnewdeal.com/2017/03/29/182206_Logitech_BLOK_Protective_Keyboard_Case_for_iPad_Ai/20%Monthly2017-03-29 20:09
http://www.hotnewdeal.com/2017/03/29/182205_Wolf_Gold_223_Remington_55_Grain_FMJ_1000_Ro/20%Monthly2017-03-29 19:49
http://www.hotnewdeal.com/2017/03/29/182204_16GB_Motorola_Moto_G_Play_Unlocked_Smartphone_Bla/20%Monthly2017-03-29 19:37
http://www.hotnewdeal.com/2017/03/29/182203_Noodles__Company_4_off_10_order_with_4OFF10/20%Monthly2017-03-29 19:36
http://www.hotnewdeal.com/2017/03/29/182202_329_Jersey_Mikes_is_giving_100_of_Sales_to_Chari/20%Monthly2017-03-29 19:36
http://www.hotnewdeal.com/2017/03/29/182201_Repel_94101_6Ounce_Sportsmen_Max_Insect_Repellent/20%Monthly2017-03-29 19:29
http://www.hotnewdeal.com/2017/03/29/182200_Jetcom_15_Off_Top_Allergy_Brands_Including_Zyrt/20%Monthly2017-03-29 19:27
http://www.hotnewdeal.com/2017/03/29/182198_22_multi_position_375lb_limit_ladder_99_Home_Dep/20%Monthly2017-03-29 19:09
http://www.hotnewdeal.com/2017/03/29/182197_Save_on_Cuisinart__Cuisinart_5Piece_Hard_Anodize/20%Monthly2017-03-29 18:56
http://www.hotnewdeal.com/2017/03/29/182196_Free_John_Deere_dump_cart_with_qualifying_lawn_mow/20%Monthly2017-03-29 18:34
http://www.hotnewdeal.com/2017/03/29/182195_Reconditioned_RYOBI_13_Amp_714_In_Corded_Circul/20%Monthly2017-03-29 18:26
http://www.hotnewdeal.com/2017/03/29/182194_Target_Joovy_ScooterX2_Double_Stroller__30_GC_f/20%Monthly2017-03-29 18:25
http://www.hotnewdeal.com/2017/03/29/182193_Minneapolis_MN_to_Munich_Germany_470_RT_on_United/20%Monthly2017-03-29 18:18
http://www.hotnewdeal.com/2017/03/29/182192_Levis_Mens_501_CT_Jeans_takedown_1518_2Pac/20%Monthly2017-03-29 18:18
http://www.hotnewdeal.com/2017/03/29/182191_Utec_Ultraloq_Bluetooth_Fingerprint_and_Touchscre/20%Monthly2017-03-29 17:59
http://www.hotnewdeal.com/2017/03/29/182190_Vitamin_World_75_Off_75_Best_Selling_VW_Products/20%Monthly2017-03-29 17:59
http://www.hotnewdeal.com/2017/03/29/182189_Flash_Sale_Impact_Whey_Protein_11lb__4999_an/20%Monthly2017-03-29 17:49
http://www.hotnewdeal.com/2017/03/29/182188_AMD_Ryzen_5_processors_R5_1600__230_and_R5_1400/20%Monthly2017-03-29 17:49
http://www.hotnewdeal.com/2017/03/29/182187_A4C_20_Off_Clearance_Coupon_Motorola_Moto_360_45/20%Monthly2017-03-29 17:42
http://www.hotnewdeal.com/2017/03/29/182186_6_Pack_Ozark_Trail_folder_knives_667/20%Monthly2017-03-29 17:19
http://www.hotnewdeal.com/2017/03/29/182185_Make_Magazine_DIY_Projects_HowTos_Electronics/20%Monthly2017-03-29 17:19
http://www.hotnewdeal.com/2017/03/29/182184_Kreg_DIY_Project_Kit__79_at_Home_Depot_again/20%Monthly2017-03-29 17:19
http://www.hotnewdeal.com/2017/03/29/182182_Homasy_Spice_Herb_Grinder_599__Amazon/20%Monthly2017-03-29 17:10
http://www.hotnewdeal.com/2017/03/29/182181_Dell_KB212B_Keyboard__799/20%Monthly2017-03-29 17:09
http://www.hotnewdeal.com/2017/03/29/182180_SYW_ShopYourWay_two_1_1000_point_doorbuster_i/20%Monthly2017-03-29 16:48
http://www.hotnewdeal.com/2017/03/29/182179_13_Dell_XPS_Laptop_Sleeve_8_after_12_Slickdeals/20%Monthly2017-03-29 16:48
http://www.hotnewdeal.com/2017/03/29/182178_Free_Popcorn_Promotion__Regal_LA_Live_California/20%Monthly2017-03-29 16:40
http://www.hotnewdeal.com/2017/03/29/182177_Bluedio_N2_Bluetooth_Sports_Earphones_689__free/20%Monthly2017-03-29 16:33
http://www.hotnewdeal.com/2017/03/29/182176_2Pack_Kit_of_Edimax_Gemini_RE11_AC1200_Wireless_R/20%Monthly2017-03-29 16:33
http://www.hotnewdeal.com/2017/03/29/182175_Litchi_Sous_Vide_Precision_Cooker_Immersion_Circul/20%Monthly2017-03-29 16:24
http://www.hotnewdeal.com/2017/03/29/182174_24V_250_LEDs_50M164FT_Dimmable_Lights_String_for_/20%Monthly2017-03-29 16:24
http://www.hotnewdeal.com/2017/03/29/182173_11Day_Trip_to_Beijing_Shanghai_Mt_Huangshan_a/20%Monthly2017-03-29 16:17
http://www.hotnewdeal.com/2017/03/29/182172_Walmart_Child_of_Mine_by_Carters_Baby_Girls_Hoo/20%Monthly2017-03-29 16:12
http://www.hotnewdeal.com/2017/03/29/182171_Amazon_Daily_Deal_Zmodo_720p_HD_WiFi_Wireless_Hom/20%Monthly2017-03-29 16:08
http://www.hotnewdeal.com/2017/03/29/182170_Citizen_EcoDrive_Mens_CA059082A_Chronograph_Spo/20%Monthly2017-03-29 16:08
http://www.hotnewdeal.com/2017/03/29/182169_3_pack_Amazon_Echo_Dot_Alexa_2nd_gen_for_130/20%Monthly2017-03-29 16:08
http://www.hotnewdeal.com/2017/03/29/182168_Pokemon_Cards_24_Off__Sun__Moon_Elite_Trainer_B/20%Monthly2017-03-29 15:48
http://www.hotnewdeal.com/2017/03/29/182167_Ninja_BL610_Professional_Blender_Refurbished__/20%Monthly2017-03-29 15:48
http://www.hotnewdeal.com/2017/03/29/182166_35__EVGA_600W_80_Certified_ATX_Power_Supply/20%Monthly2017-03-29 15:48
http://www.hotnewdeal.com/2017/03/29/182165_Triangle_Bulbs_4Pack_12W_PAR30_LED_Flood_Light_/20%Monthly2017-03-29 15:40
http://www.hotnewdeal.com/2017/03/29/182164_Nail_Polish_Essie_2_Revlon_2_ORLY_3__More_/20%Monthly2017-03-29 15:33
http://www.hotnewdeal.com/2017/03/29/182163_B1G2_Free_Audiobooks_at_eStories_plus_5_back_thro/20%Monthly2017-03-29 15:33
http://www.hotnewdeal.com/2017/03/29/182162_Amazon_has_Hipseat_Ergonomic_Baby_Carrier_3D_Mesh/20%Monthly2017-03-29 15:33
http://www.hotnewdeal.com/2017/03/29/182161_Arozzi_Monza_Series_Gaming_Chair__149__FS__New/20%Monthly2017-03-29 15:25
http://www.hotnewdeal.com/2017/03/29/182160_Belkin_N750_DB_Wireless_DualBand_USB_Adapter_20_/20%Monthly2017-03-29 15:25
http://www.hotnewdeal.com/2017/03/29/182158_Minion_Master_Free_on_Steam/20%Monthly2017-03-29 15:09
http://www.hotnewdeal.com/2017/03/29/182157_CVS_2_Day_Flash_Sale_Curbside_Pickup_Customers_Sa/20%Monthly2017-03-29 14:39
http://www.hotnewdeal.com/2017/03/29/182156_BOGO_Free_Coupon_for_Steak_Quesadilla_or_Steak_Bow/20%Monthly2017-03-29 14:39
http://www.hotnewdeal.com/2017/03/29/182155_IRIS_Open_Top_Litter_Box_with_Shield_and_Scoop_6/20%Monthly2017-03-29 14:39
http://www.hotnewdeal.com/2017/03/29/182154_Kohls_Stacking_Coupons_20_off__15_Off_Select_K/20%Monthly2017-03-29 14:32
http://www.hotnewdeal.com/2017/03/29/182153_JCrew_Factory_Extra_50_Off_Clearance_Mens_Ties/20%Monthly2017-03-29 14:32
http://www.hotnewdeal.com/2017/03/29/182152_Wilson_Adult_Super_Grip_Football_Receivers_Gloves_/20%Monthly2017-03-29 14:24
http://www.hotnewdeal.com/2017/03/29/182151_Levana_32000_Lila_24Inch_Digital_Video_Baby_Moni/20%Monthly2017-03-29 14:24
http://www.hotnewdeal.com/2017/03/29/182150_klipsch_X11_InEar_Headphones__black_4999_FS__/20%Monthly2017-03-29 14:17
http://www.hotnewdeal.com/2017/03/29/182149_GOOLOO_700A_18000mAh_Car_Battery_Charger_amp_Jum/20%Monthly2017-03-29 14:17
http://www.hotnewdeal.com/2017/03/29/182148_Dyson_V6_Fluffy_pro_vac_for_29999__3_free_tools/20%Monthly2017-03-29 14:17
http://www.hotnewdeal.com/2017/03/29/182147_Lucky_Brand_Pop_Up_Sale_Graphic_Tees_15_Jewelry/20%Monthly2017-03-29 14:17
http://www.hotnewdeal.com/2017/03/29/182146_Zojirushi_NSWAC10WD_55Cup_Micom_Rice_Cooker__/20%Monthly2017-03-29 14:12
http://www.hotnewdeal.com/2017/03/29/182145_Galaxy_S8_Best_Buy_Pre_Order_Promo/20%Monthly2017-03-29 14:08
http://www.hotnewdeal.com/2017/03/29/182144_Kohls_Stacking_Coupons_20_off_Sitewide__20_Off/20%Monthly2017-03-29 14:08
http://www.hotnewdeal.com/2017/03/29/182143_Lifetime_access_to_Pastebin_Pro__2995/20%Monthly2017-03-29 13:58
http://www.hotnewdeal.com/2017/03/29/182142_Frontier_100_Percent_Natural_Lump_Charcoal_34_lbs/20%Monthly2017-03-29 13:48
http://www.hotnewdeal.com/2017/03/29/182141_Ryobi_One_18v_LiIon_6tool_combo_kit_199_at_Ho/20%Monthly2017-03-29 13:48
http://www.hotnewdeal.com/2017/03/29/182140_Harman_Kardon_HKTS_20_51Channel_Surround_Sound_/20%Monthly2017-03-29 13:48
http://www.hotnewdeal.com/2017/03/29/182139_Kingpin_Bluray__VUDU_Digital_Copy_523_at_Wal/20%Monthly2017-03-29 13:47
http://www.hotnewdeal.com/2017/03/29/182138_Mega_Bloks_Star_Trek_USS_Enterprise_NCC1701_Co/20%Monthly2017-03-29 13:40
http://www.hotnewdeal.com/2017/03/29/182137_AVERA_49EQX10_49inch_2160p_4K_LED_Television__Ne/20%Monthly2017-03-29 13:40
http://www.hotnewdeal.com/2017/03/29/182136_Smith_Holt_Snow_Helmet_for_as_low_as_3170__FS/20%Monthly2017-03-29 13:39
http://www.hotnewdeal.com/2017/03/29/182135_Riley_Barrel_Arm_Chair__20_Kohls_Cash_22_color/20%Monthly2017-03-29 13:17
http://www.hotnewdeal.com/2017/03/29/182134_Chicago_to_Beijing_China_474_RT_on_Hainan_Airline/20%Monthly2017-03-29 13:09
http://www.hotnewdeal.com/2017/03/29/182133_Plex_Lifetime_Subscription_11999_Annual_3999/20%Monthly2017-03-29 13:09
http://www.hotnewdeal.com/2017/03/29/182132_CVS_100_for_90_via_eBay/20%Monthly2017-03-29 13:08
http://www.hotnewdeal.com/2017/03/29/182130_Dockers_Coupon_30_Off_Mens_Straight_Fit_Clean_/20%Monthly2017-03-29 12:56
http://www.hotnewdeal.com/2017/03/29/182129_Roll_for_The_Galaxy_Board_Game_3448_at_Amazon/20%Monthly2017-03-29 12:39
http://www.hotnewdeal.com/2017/03/29/182128_Home_Depot_Hampton_Bay_Belleville_7Piece_Padded_/20%Monthly2017-03-29 12:24
http://www.hotnewdeal.com/2017/03/29/182127_Panasonic_DMCGH4_Mirrorless_Digital_Camera_Body_/20%Monthly2017-03-29 12:24
http://www.hotnewdeal.com/2017/03/29/182126_Ecobee3_Thermostat_with_Sensor_WiFi_2nd_Generat/20%Monthly2017-03-29 12:08
http://www.hotnewdeal.com/2017/03/29/182124_Ryobi_1600_PSI_12GPM_Electric_Pressure_Washer_f/20%Monthly2017-03-29 12:08
http://www.hotnewdeal.com/2017/03/29/182123_Cannondale_2016_Bad_Boy_1_1103__REI_online/20%Monthly2017-03-29 12:08
http://www.hotnewdeal.com/2017/03/29/182122_10oz_Kicking_Horse_Coffee_454_Horse_Power_Whole_/20%Monthly2017-03-29 11:58
http://www.hotnewdeal.com/2017/03/29/182121_MotorGuide_Trolling_Motors_Walmart_Clearance_YMMV_/20%Monthly2017-03-29 11:58
http://www.hotnewdeal.com/2017/03/29/182120_iPhone_77_Plus_Phone_Case__Tempered_Glass_Screen/20%Monthly2017-03-29 11:40
http://www.hotnewdeal.com/2017/03/29/182119_GoPro_Hero4_Action_Camera_Refurb_Black_Edition_/20%Monthly2017-03-29 11:22
http://www.hotnewdeal.com/2017/03/29/182118_Home_Depot_Kingsford_186_lb_Charcoal_Briquettes/20%Monthly2017-03-29 11:09
http://www.hotnewdeal.com/2017/03/29/182117_LG_27UD58PB_27_4K_IPS_FREESYNC_Gaming_Monitor_/20%Monthly2017-03-29 11:09
http://www.hotnewdeal.com/2017/03/29/182116_San_Francisco_to_Beijing_China_Nonstop_on_United_A/20%Monthly2017-03-29 10:51
http://www.hotnewdeal.com/2017/03/29/182115_12Pack_Colgate_Double_Action_Toothbrushes_550_/20%Monthly2017-03-29 10:42
http://www.hotnewdeal.com/2017/03/29/182114_Floral_Lace_See_Through_Sl_Robe_sleepwear_for_72/20%Monthly2017-03-29 10:38
http://www.hotnewdeal.com/2017/03/29/182113_185_Motorola_Moto_G_Plus_5th_Generation/20%Monthly2017-03-29 10:27
http://www.hotnewdeal.com/2017/03/29/182112_Home_Depot_Scotts_Earthgro_2_cu_ft_Mulch_510/20%Monthly2017-03-29 10:19
http://www.hotnewdeal.com/2017/03/29/182111_Lodge_Cast_Iron_Skillets_40_Off/20%Monthly2017-03-29 10:19
http://www.hotnewdeal.com/2017/03/29/182110_Ozark_Trail_Hollow_Sky_Backpack_Daypack_Hydration/20%Monthly2017-03-29 10:19
http://www.hotnewdeal.com/2017/03/29/182109_Karcher_K3_Follow_Me_Universal_1700_PSI_Electric_P/20%Monthly2017-03-29 10:19
http://www.hotnewdeal.com/2017/03/29/182108_Baby_Jogger_2016_City_Mini_GT_Double_Stroller__Bl/20%Monthly2017-03-29 10:09
http://www.hotnewdeal.com/2017/03/29/182106_GoPro_HERO_Session_Bundle_with_The_Handler_Remote/20%Monthly2017-03-29 10:08
http://www.hotnewdeal.com/2017/03/29/182105_GE_ZWave_Wireless_Smart_Lighting_Control_Smart_To/20%Monthly2017-03-29 09:59
http://www.hotnewdeal.com/2017/03/29/182104_MiracleGro_075cu_ft_All_Purpose_Soil__200__/20%Monthly2017-03-29 09:59
http://www.hotnewdeal.com/2017/03/29/182103_Asus__173_Laptop__Intel_Core_i7__12GB_Memory_/20%Monthly2017-03-29 09:59
http://www.hotnewdeal.com/2017/03/29/182102_Coleman_Mount_Hersey_II_Fast_Pitch_8Person_Cabin_/20%Monthly2017-03-29 09:59
http://www.hotnewdeal.com/2017/03/29/182101_iClever_Himbox_HB01Min_Bluetooth_Receiver__Hands/20%Monthly2017-03-29 09:27
http://www.hotnewdeal.com/2017/03/29/182100_The_Legend_of_Zelda_Triforce_Heroes_Nintendo_3DS/20%Monthly2017-03-29 09:19
http://www.hotnewdeal.com/2017/03/29/182099_Street_Fighter_V_PS4_15__BattleField_4_Dishon/20%Monthly2017-03-29 09:10
http://www.hotnewdeal.com/2017/03/29/182098_Refurb_Dell_Inspiron_157568_2in1_156_4K_IPS_T/20%Monthly2017-03-29 09:10
http://www.hotnewdeal.com/2017/03/29/182096_3Step_Steel_Metal_Ladder_with_Paint_Tray__3499/20%Monthly2017-03-29 08:29
http://www.hotnewdeal.com/2017/03/29/182095_62Count_Persil_ProClean_PowerCaps_Original_Scent/20%Monthly2017-03-29 08:19
http://www.hotnewdeal.com/2017/03/29/182094_Lowes_Mulch_BrownBlackRed_2_each_YMMV_wsto/20%Monthly2017-03-29 08:08
http://www.hotnewdeal.com/2017/03/29/182093_Newegg_Biostar_B350GT5_Motherboard_for_Ryzen_104/20%Monthly2017-03-29 08:08
http://www.hotnewdeal.com/2017/03/29/182092_Select_Merrell_Shoes_Up_to_40_Off_Mens_Merrell/20%Monthly2017-03-29 07:59
http://www.hotnewdeal.com/2017/03/29/182091_Tick_Remover_Worlds_Simplest_Tick_Remover_27_/20%Monthly2017-03-29 07:59
http://www.hotnewdeal.com/2017/03/29/182090_Klipsch_r_115sw_deal_is_back_at_419_for_r_115sw_p/20%Monthly2017-03-29 07:09
http://www.hotnewdeal.com/2017/03/29/182089_Macys_Handbags_The_Sak_Lucia_Leather_Crossbody_8/20%Monthly2017-03-29 07:09
http://www.hotnewdeal.com/2017/03/29/182088_Rogue_One_A_Star_Wars_Story_BlurayDVD__Digital/20%Monthly2017-03-29 05:29
http://www.hotnewdeal.com/2017/03/29/182087_5_TB_Seagate_Backup_Plus_USB_30_Portable_External/20%Monthly2017-03-29 05:10
http://www.hotnewdeal.com/2017/03/29/182086_Kaspersky_Total_Security_2017_3_PCs__Key_Card_f/20%Monthly2017-03-29 04:09
http://www.hotnewdeal.com/2017/03/29/182085_Bosch_ROS10_Random_Orbital_Sander_and_Bosch_GSS20/20%Monthly2017-03-29 02:30
http://www.hotnewdeal.com/2017/03/29/182084_Big_Lots_20_off_coupon_for_Saturday_April_1_and_/20%Monthly2017-03-29 02:30
http://www.hotnewdeal.com/2017/03/29/182083_Nintendo_Switch_Gray_Joycons_66_Amazon/20%Monthly2017-03-29 02:10
http://www.hotnewdeal.com/2017/03/29/182082_BIC_America_12_in_475Watt_Front_Firing_Powered_S/20%Monthly2017-03-29 02:10
http://www.hotnewdeal.com/2017/03/29/182081_Bosch_20OE_ICON_Wiper_Blade__20_or_21_Pack_of_/20%Monthly2017-03-29 02:10
http://www.hotnewdeal.com/2017/03/29/182080_60_off_1_Item__Michaels__Online_or_In_Store__3/20%Monthly2017-03-29 01:30
http://www.hotnewdeal.com/2017/03/29/182079_Shimano_Fishing_Reels_Caenan_Baitcasting__Lure_/20%Monthly2017-03-29 01:30
http://www.hotnewdeal.com/2017/03/29/182078_Webroot_SecureAnywhere_AntiVirus_3_Device_1_Year_/20%Monthly2017-03-29 01:24
http://www.hotnewdeal.com/2017/03/29/182077_Telltale_Guardians_of_the_Galaxy_PS4_PSN_Preorder/20%Monthly2017-03-29 01:09
http://www.hotnewdeal.com/2017/03/29/182076_Kelloggs_CheezIt_Baked_Snack_Crackers_Original/20%Monthly2017-03-29 01:09
http://www.hotnewdeal.com/2017/03/28/182075_8TB_WD_My_Book_Desktop_USB_30_External_Hard_Drive/20%Monthly2017-03-28 23:42
http://www.hotnewdeal.com/2017/03/28/182074_Ring_Video_Doorbell_Pro_Camera_19999tax_AC__JC/20%Monthly2017-03-28 23:34
http://www.hotnewdeal.com/2017/03/28/182073_Irwin_Quick_Grip_Clamps_4_pack_2x_12_and_2x_6/20%Monthly2017-03-28 23:26
http://www.hotnewdeal.com/2017/03/28/182072_Wrigleys_Doublemint_Chewing_Gum_5Piece_Pack_40/20%Monthly2017-03-28 23:26
http://www.hotnewdeal.com/2017/03/28/182071_La_La_Land__Target_Exclusive_Bluray__DVD__Dig/20%Monthly2017-03-28 23:22
http://www.hotnewdeal.com/2017/03/28/182070_Disney_Store_30th_Anniversary_20_30_50_email_/20%Monthly2017-03-28 23:14
http://www.hotnewdeal.com/2017/03/28/182069_Extra_30_Off_Sitewide_Only_Natural_Pet_New_Custom/20%Monthly2017-03-28 23:09
http://www.hotnewdeal.com/2017/03/28/182068_BlizzardHearthStoneMammoth_Celebration_Daily_/20%Monthly2017-03-28 23:09
http://www.hotnewdeal.com/2017/03/28/182067_New_York_to_Milan_Italy_492_RT_on_Emirates_Airlin/20%Monthly2017-03-28 23:09
http://www.hotnewdeal.com/2017/03/28/182066_BenQ_Refurbished_Projectors_HT1075_487_HT2050_/20%Monthly2017-03-28 23:09
http://www.hotnewdeal.com/2017/03/28/182065_Novation_Launchpad_USB_MIDI_Controller_100__free/20%Monthly2017-03-28 22:56
http://www.hotnewdeal.com/2017/03/28/182064_3_in_1_WetDry_Electric_ShaverTrimmer__2694_AC/20%Monthly2017-03-28 22:47
http://www.hotnewdeal.com/2017/03/28/182063_Prime_Members_Kole_Imports_DC123_Stainless_Steel_/20%Monthly2017-03-28 22:39
http://www.hotnewdeal.com/2017/03/28/182062_Cheap_Diapers_4_packs_for_778_plus_tax_size_6_on/20%Monthly2017-03-28 22:39
http://www.hotnewdeal.com/2017/03/28/182061_Resistance_Band_Set_with_Door_Anchor_Ankle_Strap/20%Monthly2017-03-28 21:59
http://www.hotnewdeal.com/2017/03/28/182060_Papa_Murphys_XL_New_York_Style_Pizza_7_until_Apr/20%Monthly2017-03-28 21:48
http://www.hotnewdeal.com/2017/03/28/182059_Amoner_Wireless_Bluetooth_Sports_Headphones__12/20%Monthly2017-03-28 21:44
http://www.hotnewdeal.com/2017/03/28/182058_Dell_Insprion_15_i5568_2in1_156_1080P_Touch_i/20%Monthly2017-03-28 21:25
http://www.hotnewdeal.com/2017/03/28/182057_8oz_Annie_Chuns_Rice_Noodles_Pad_Thai_Pack_of/20%Monthly2017-03-28 21:09
http://www.hotnewdeal.com/2017/03/28/182056_Samsung_65_Inch_4K_Ultra_HD_Smart_TV_UN65KS8000F_U/20%Monthly2017-03-28 21:09
http://www.hotnewdeal.com/2017/03/28/182055_Toshiba_Canvio_Basics_30_HDTB330XK3CA_3_TB_Extern/20%Monthly2017-03-28 20:51
http://www.hotnewdeal.com/2017/03/28/182054_PS4_The_King_of_Fighters_XIV_Steelbook_Launch_Ed/20%Monthly2017-03-28 20:48
http://www.hotnewdeal.com/2017/03/28/182053_Monster_Hunter_3_Ultimate_Nintendo_3DS_1308_vi/20%Monthly2017-03-28 20:42
http://www.hotnewdeal.com/2017/03/28/182052_Super_Meat_Boy_149_PC__Steam/20%Monthly2017-03-28 20:39
http://www.hotnewdeal.com/2017/03/28/182051_Mini_CrockPot_at_Amazon_996_add_on_item/20%Monthly2017-03-28 20:32
http://www.hotnewdeal.com/2017/03/28/182050_Teac_UD503B_DualMonaural_USB_DAC_with_Headphone/20%Monthly2017-03-28 20:32
http://www.hotnewdeal.com/2017/03/28/182049_FREE_2_Tickets_to_Toyota_Grand_Prix_of_Long_Beach/20%Monthly2017-03-28 20:24
http://www.hotnewdeal.com/2017/03/28/182048_AllNew_Fire_HD_8_Tablet_8_HD_Display_WiFi_16/20%Monthly2017-03-28 20:24
http://www.hotnewdeal.com/2017/03/28/182047_Jurassic_Park_Ultimate_Trilogy_Region_Free_Blur/20%Monthly2017-03-28 20:18
http://www.hotnewdeal.com/2017/03/28/182046_Sportsman_1000Watt_Gasoline_Powered_Digital_Inve/20%Monthly2017-03-28 20:08
http://www.hotnewdeal.com/2017/03/28/182045_85_Degrees_Bakery_Coffee_Deal_in_California_Stores/20%Monthly2017-03-28 19:59
http://www.hotnewdeal.com/2017/03/28/182044_Muscle_Milk_Genuine_Protein_Powder_Chocolate_32g/20%Monthly2017-03-28 19:59
http://www.hotnewdeal.com/2017/03/28/182043_Netgear_Nighthawk_R6700_AC1750_Smart_Dual_Band_WiF/20%Monthly2017-03-28 19:48
http://www.hotnewdeal.com/2017/03/28/182042_6oz_Glade_Solid_Air_Freshener_Honeysuckle_Nectar/20%Monthly2017-03-28 19:40
http://www.hotnewdeal.com/2017/03/28/182041_Unitek_SingleBay_2535_SATA_HDDSSD_USB_31_T/20%Monthly2017-03-28 19:33
http://www.hotnewdeal.com/2017/03/28/182040_Prime_Members_Cuties_Baby_Diapers_Size_4_31Cou/20%Monthly2017-03-28 19:24
http://www.hotnewdeal.com/2017/03/28/182039_Prime_Members_AmazonBasics_133Inch_Laptop_Sleev/20%Monthly2017-03-28 18:56
http://www.hotnewdeal.com/2017/03/28/182038_Frys_New_Audio_Technica_ATHAD700X_open_back_head/20%Monthly2017-03-28 18:47
http://www.hotnewdeal.com/2017/03/28/182037_Papa_Johns_40_Off_Coupon_Off_Pizzas_CODE_PAPASLA/20%Monthly2017-03-28 18:32
http://www.hotnewdeal.com/2017/03/28/182035_Beyerdynamic_T1_2nd_Gen_Headphones_749_or_T5p_2nd/20%Monthly2017-03-28 18:24
http://www.hotnewdeal.com/2017/03/28/182034_Zombie_Army_Trilogy_Xbox_One_XBL_Sale_999_with_X/20%Monthly2017-03-28 18:24
http://www.hotnewdeal.com/2017/03/28/182033_24Ct_GoodSense_Allergy_MultiSymptom_Caplets_Coo/20%Monthly2017-03-28 18:08
http://www.hotnewdeal.com/2017/03/28/182032_Two_xBox_One_S_White_Wireless_Controller_Metal_Ge/20%Monthly2017-03-28 18:08
http://www.hotnewdeal.com/2017/03/28/182031_Starbuckscom_Receive_a_Siren_Stainless_Steel_Tum/20%Monthly2017-03-28 18:08
http://www.hotnewdeal.com/2017/03/28/182030_Super_YMMV_Clearance_Sams_Club_BM_Vizio_50_Inch/20%Monthly2017-03-28 17:48
http://www.hotnewdeal.com/2017/03/28/182029_back_in_stock__150_Southwest_Airlines_Gift_C/20%Monthly2017-03-28 17:48
http://www.hotnewdeal.com/2017/03/28/182028_Fitbit_Charge_2_Activity_Tracker__Heart_Rate_Wris/20%Monthly2017-03-28 17:41
http://www.hotnewdeal.com/2017/03/28/182027_Any_BitDefender_2017_Product_1999_Up_To_5_Devic/20%Monthly2017-03-28 17:41
http://www.hotnewdeal.com/2017/03/28/182026_Beats_Executive_Over_Ear_Headphones_75_ShopriteDe/20%Monthly2017-03-28 17:34
http://www.hotnewdeal.com/2017/03/28/182025_Lenovo_Flex_4_15_Full_HD_Touchscreen_2in1_Noteb/20%Monthly2017-03-28 17:19
http://www.hotnewdeal.com/2017/03/28/182024_New_PlayStation_4_Slim_500GB_Console_Uncharted_4Bu/20%Monthly2017-03-28 17:09
http://www.hotnewdeal.com/2017/03/28/182023_Green_Forrest_H96_Pro_Plus_Android_TV__Kodi_Box_/20%Monthly2017-03-28 17:09
http://www.hotnewdeal.com/2017/03/28/182022_Mens_Apparel_Greg_Norman_for_Tasso_Elba_Quarter/20%Monthly2017-03-28 17:09
http://www.hotnewdeal.com/2017/03/28/182021_TPLink_LB100_Smart_LED_Light_Bulb__1599_for_1s/20%Monthly2017-03-28 16:47
http://www.hotnewdeal.com/2017/03/28/182020_Rado_Mens_Hyperchrome_Automatic_Watch_795__free/20%Monthly2017-03-28 16:47
http://www.hotnewdeal.com/2017/03/28/182019_Dragons_Dogma_Dark_Arisen_only_1199_on_Steam/20%Monthly2017-03-28 16:47
http://www.hotnewdeal.com/2017/03/28/182018_PS4__Vita_Free_Theme_and_Avatars_A_Rose_in_the_T/20%Monthly2017-03-28 16:39
http://www.hotnewdeal.com/2017/03/28/182016_eBay_Flash_Coupon_15_off_75/20%Monthly2017-03-28 16:32
http://www.hotnewdeal.com/2017/03/28/182015_FFXIV_free_trial_with_no_time_limit_up_to_lv_35/20%Monthly2017-03-28 16:24
http://www.hotnewdeal.com/2017/03/28/182014_Google_Music_Free_2_Months/20%Monthly2017-03-28 16:17
http://www.hotnewdeal.com/2017/03/28/182013_Roland_Sands_Oxford_Womens_Leather_Motorcycle_Ja/20%Monthly2017-03-28 16:17
http://www.hotnewdeal.com/2017/03/28/182012_24Pack_IZZE_Sparkling_Juice_3Flavor_Variety_Pack/20%Monthly2017-03-28 16:17
http://www.hotnewdeal.com/2017/03/28/182011_Little_Golden_Books__Amazon__Variety_290_and_b/20%Monthly2017-03-28 15:59
http://www.hotnewdeal.com/2017/03/28/182010_30_oz_RTIC_Tumbler__Case_of_30_20250_Per_Case_/20%Monthly2017-03-28 15:48
http://www.hotnewdeal.com/2017/03/28/182009_Kershaw_Pico_Knife_1297_w_Free_Store_Pickup_or_/20%Monthly2017-03-28 15:25
http://www.hotnewdeal.com/2017/03/28/182008_Belkin_Wemo_mini_smart_plug__2_for_5098_shipped/20%Monthly2017-03-28 15:25
http://www.hotnewdeal.com/2017/03/28/182007_65Piece_3D_Jigsaw_Puzzle_Musical_LED_Ferris_Whee/20%Monthly2017-03-28 15:25
http://www.hotnewdeal.com/2017/03/28/182006_GoPro_Hero5_Session_4K_Waterproof_Action_Camera_2/20%Monthly2017-03-28 15:20
http://www.hotnewdeal.com/2017/03/28/182005_2Piece_Carters_Baby_Boy_or_Girl_Pant_and_Top_Set/20%Monthly2017-03-28 15:18
http://www.hotnewdeal.com/2017/03/28/182004_Revue_Thommen_Diver_GMT_Automatic_Watch_525__fre/20%Monthly2017-03-28 15:09
http://www.hotnewdeal.com/2017/03/28/182003_12Pack_Mr_Sketch_Assorted_Scent_Markers_403_w/20%Monthly2017-03-28 15:09
http://www.hotnewdeal.com/2017/03/28/182002_The_Witcher_3_Wild_Hunt__GoTY_Steam_2499/20%Monthly2017-03-28 15:08
http://www.hotnewdeal.com/2017/03/28/181999_JBL_Studio_590_floorstanding_loud_speakers_50_o/20%Monthly2017-03-28 14:47
http://www.hotnewdeal.com/2017/03/28/181998_TMobile_Tuesday_040417_Free_1_Year_MLBtv_prem/20%Monthly2017-03-28 14:47
http://www.hotnewdeal.com/2017/03/28/181997_Few_XMen_movies_at_Amazon_and_BB_788__799_/20%Monthly2017-03-28 14:47
http://www.hotnewdeal.com/2017/03/28/181996_PS_Plus_Member_Discounts_Skyrim_Special_Edition_2/20%Monthly2017-03-28 14:38
http://www.hotnewdeal.com/2017/03/28/181995_Viofo_A119_1440p_30fps_170_Wide_Angle_Car_DVR_Das/20%Monthly2017-03-28 14:32
http://www.hotnewdeal.com/2017/03/28/181994_General_Mills_Cereals_8913_oz_188__Free_2Day/20%Monthly2017-03-28 14:24
http://www.hotnewdeal.com/2017/03/28/181993_Opus_BTC3100_V22_Smart_Liion_Battery_Charger_2/20%Monthly2017-03-28 14:17
http://www.hotnewdeal.com/2017/03/28/181992_Netgear_Arlo_Pro_Wirefree_HD_Sec_2_Camera_35699_/20%Monthly2017-03-28 14:17
http://www.hotnewdeal.com/2017/03/28/181991_SentrySafe_PP1k_Portable_Pistol_Safe_Home_Depot_B/20%Monthly2017-03-28 14:07
http://www.hotnewdeal.com/2017/03/28/181990_PowerColor_Radeon_RX_470_4GB_Red_Dragon_Video_Card/20%Monthly2017-03-28 14:07
http://www.hotnewdeal.com/2017/03/28/181989_ASUS_TV500BG_Gamepad_Wireless_Gaming_Controller__/20%Monthly2017-03-28 13:58
http://www.hotnewdeal.com/2017/03/28/181988_Sharp_LC60N5100U_60_1080p_60Hz_LED_Smart_HDTV_3/20%Monthly2017-03-28 13:47
http://www.hotnewdeal.com/2017/03/28/181987_50_Neverkink_Pro_58_Commercial_Duty_Water_Hose_/20%Monthly2017-03-28 13:47
http://www.hotnewdeal.com/2017/03/28/181986_Enterprise_Florida_OneWay_Car_Rental_Special_From/20%Monthly2017-03-28 13:47
http://www.hotnewdeal.com/2017/03/28/181985_Groupon__60_voucher_towards_shoes_and_apparel_fo/20%Monthly2017-03-28 13:39
http://www.hotnewdeal.com/2017/03/28/181984_GSKILL_Aegis_32GB_2_x_16GB_DDR4_Desktop_Memory_/20%Monthly2017-03-28 13:39
http://www.hotnewdeal.com/2017/03/28/181983_Amazon_Mini_DisplayPort_to_HDMI_Adapter_065ft_/20%Monthly2017-03-28 13:32
http://www.hotnewdeal.com/2017/03/28/181982_QNAP_4_BAY_PCLOUD_NAS_DLNA_TS431P_for_24999/20%Monthly2017-03-28 13:24
http://www.hotnewdeal.com/2017/03/28/181981_199__Portable_Hand_Manual_USB_Emergency_Charger/20%Monthly2017-03-28 13:24
http://www.hotnewdeal.com/2017/03/28/181980_Extra_50_Off_Aukey_Bluetooth_Earphones_EPB23_7/20%Monthly2017-03-28 13:17
http://www.hotnewdeal.com/2017/03/28/181979_AliExpresscom_Sitewide_Coupon_Codes_8_off_20_/20%Monthly2017-03-28 13:17
http://www.hotnewdeal.com/2017/03/28/181978_Mesh_Office_Task_Chair_Green_for_4999_AC__FS/20%Monthly2017-03-28 13:17
http://www.hotnewdeal.com/2017/03/28/181977_Sony_MDRZX330BTB_Wireless_OnEar_Stereo_Headphon/20%Monthly2017-03-28 13:17
http://www.hotnewdeal.com/2017/03/28/181976_2x_4TB_Western_Digital_WD_RED_NAS_35_Hard_Drive_/20%Monthly2017-03-28 13:17
http://www.hotnewdeal.com/2017/03/28/181975_Sony_MDRXB70BT_Bluetooth_Wireless_InEar_Headphone/20%Monthly2017-03-28 13:17
http://www.hotnewdeal.com/2017/03/28/181974_Black__Decker_20Volt_MAX_LithiumIon_Drill__Dri/20%Monthly2017-03-28 13:08
http://www.hotnewdeal.com/2017/03/28/181973_Royal_Basmati_Rice_15Pound_Bag_at_Amazon_1199_/20%Monthly2017-03-28 12:55
http://www.hotnewdeal.com/2017/03/28/181972_Resident_Evil_PSN_Sale__RE_4_999_RE5_999/20%Monthly2017-03-28 12:55
http://www.hotnewdeal.com/2017/03/28/181971_18Count_Fiber_One_90_Calorie_Brownies_Mega_Pack_/20%Monthly2017-03-28 12:55
http://www.hotnewdeal.com/2017/03/28/181970_Fidget_Toy_Triangle_Hand_Spinner_Finger_Gyro__1/20%Monthly2017-03-28 12:55
http://www.hotnewdeal.com/2017/03/28/181969_Aeon_Labs_Aeotec_ZWave_Smart_Energy_Meter_1499_/20%Monthly2017-03-28 12:23
http://www.hotnewdeal.com/2017/03/28/181968_Lauren_Ralph_Lauren_Down_Alternative_Logo_Pillow_/20%Monthly2017-03-28 12:23
http://www.hotnewdeal.com/2017/03/28/181967_YMMV_30MM_Swagbucks__Bankamerideals_offer__Or/20%Monthly2017-03-28 12:23
http://www.hotnewdeal.com/2017/03/28/181966_Planet_Earth_II_4K_UHD_2699__Frys/20%Monthly2017-03-28 12:07
http://www.hotnewdeal.com/2017/03/28/181965_bundlestars_Dollar_Uber_Bundle_29_Steam_games/20%Monthly2017-03-28 12:07
http://www.hotnewdeal.com/2017/03/28/181964_Waterdrop_Refrigerator_Water_Filter_Replacements_/20%Monthly2017-03-28 11:58
http://www.hotnewdeal.com/2017/03/28/181963_MSI_GeForce_GTX_1080_TI_ARMOR_11G_OC_710__10_S/20%Monthly2017-03-28 11:47
http://www.hotnewdeal.com/2017/03/28/181962_4Pack_of_Babyganics_MineralBased_Baby_Sunscreen_/20%Monthly2017-03-28 11:32
http://www.hotnewdeal.com/2017/03/28/181961_Nordstrom_Rack_75_Off_Lucky_Brand_Leather_Handba/20%Monthly2017-03-28 11:32
http://www.hotnewdeal.com/2017/03/28/181960_Gismart_Piano_app_on_sale_for_010_normally_19/20%Monthly2017-03-28 11:17
http://www.hotnewdeal.com/2017/03/28/181959_Small_Appliances_Presto_Electric_Griddle_Bella_R/20%Monthly2017-03-28 11:08
http://www.hotnewdeal.com/2017/03/28/181958_Buy_1_Get_1_Free_Cellucor_C4_50X_PreWorkout_Suppl/20%Monthly2017-03-28 10:31
http://www.hotnewdeal.com/2017/03/28/181957_Linksys_RE4000W_N600_PRO_WiFi_Range_Extender__R/20%Monthly2017-03-28 10:23
http://www.hotnewdeal.com/2017/03/28/181956_90_Off_100_LED_10m33ft_2700K_Outdoor_Copper_Wi/20%Monthly2017-03-28 09:59
http://www.hotnewdeal.com/2017/03/28/181954_Forza_Horizon_3_Blizzard_Mountain_Expansion_Pack_/20%Monthly2017-03-28 09:40
http://www.hotnewdeal.com/2017/03/28/181953_Kohls_Up_to_80_off_Gold_Star_Clearance_Items__/20%Monthly2017-03-28 09:18
http://www.hotnewdeal.com/2017/03/28/181952_Lodge_Logic_1014_Cast_Iron_Skillet_1366__ship/20%Monthly2017-03-28 09:09
http://www.hotnewdeal.com/2017/03/28/181951_Canon_5179B002_EF_28mm_f28_IS_USM_WideAngle_Len/20%Monthly2017-03-28 08:56
http://www.hotnewdeal.com/2017/03/28/181950_iQunix_Zand_iPadTablet_PC_Stand_8_or_iQunix_Lyra/20%Monthly2017-03-28 08:47
http://www.hotnewdeal.com/2017/03/28/181949_PS_Vita_Digital_Codes_PlayStation_AllStars_Battl/20%Monthly2017-03-28 08:18
http://www.hotnewdeal.com/2017/03/28/181948_New_ADATA_Ultimate_SU800_3D_NAND_25_SSD_128GB__/20%Monthly2017-03-28 08:08
http://www.hotnewdeal.com/2017/03/28/181947_ECCO_Shoes_Up_to_40_off_at_Amazon_ECCO_Mens_New/20%Monthly2017-03-28 08:08
http://www.hotnewdeal.com/2017/03/28/181946_Corsair_Crystal_Series_460X__Tempered_Glass_ATX_M/20%Monthly2017-03-28 08:08
http://www.hotnewdeal.com/2017/03/28/181945_Mafia_III_PS4_or_Xbox_One_2399_via_Amazon/20%Monthly2017-03-28 08:08
http://www.hotnewdeal.com/2017/03/28/181944_AmazonBasics_Clear_Case_for_iPhone_7_Plus_185__/20%Monthly2017-03-28 07:59
http://www.hotnewdeal.com/2017/03/28/181943_Huffy_Disney_Frozen_Olaf_Inline_Scooter_10__free/20%Monthly2017-03-28 07:48
http://www.hotnewdeal.com/2017/03/28/181942_2Pcs_Fitbit_Flex_Charger__20cm_100cm_EveShine_/20%Monthly2017-03-28 06:08
http://www.hotnewdeal.com/2017/03/28/181941_Batman_The_Telltale_Series_PC_Digital_Download_/20%Monthly2017-03-28 04:03
http://www.hotnewdeal.com/2017/03/28/181940_Sony_DualShock_4_Wireless_Controller_for_PS4_Gla/20%Monthly2017-03-28 03:30
http://www.hotnewdeal.com/2017/03/28/181939_Dashboard_Cell_Phone_Mount_for_Smartphone_699__/20%Monthly2017-03-28 03:26
http://www.hotnewdeal.com/2017/03/28/181938_Toms_Mens_Alpargata_Canvas_Ankle_High_Canvas_Flat/20%Monthly2017-03-28 02:31
http://www.hotnewdeal.com/2017/03/28/181937_Augason_Farms_30Day_Emergency_Food_Storage_Supply/20%Monthly2017-03-28 02:31
http://www.hotnewdeal.com/2017/03/28/181936_8_Nike_Elite_Stripe_Boys_Basketball_Shorts_119/20%Monthly2017-03-28 02:10
http://www.hotnewdeal.com/2017/03/28/181935_Backlit_24GHz_Rechargeable_Wireless_Mini_Keyboard/20%Monthly2017-03-28 02:10
http://www.hotnewdeal.com/2017/03/28/181934_goodnessknows_Cranberry_Almond_Dark_Chocolate_Snac/20%Monthly2017-03-28 01:30
http://www.hotnewdeal.com/2017/03/28/181933_New_Samsung_Galaxy_S7_G930F_350/20%Monthly2017-03-28 01:30
http://www.hotnewdeal.com/2017/03/28/181932_Lexar_64GB_CompactFlash_Memory_Card_Professional_8/20%Monthly2017-03-28 01:09
http://www.hotnewdeal.com/2017/03/28/181931_Coleman_Road_Trip_Propane_Portable_Grill_LXE_127/20%Monthly2017-03-28 00:17
http://www.hotnewdeal.com/2017/03/28/181930_PNY_GeForce_GTX_1070_339_No_Tax_No_Shipping_New/20%Monthly2017-03-28 00:17
http://www.hotnewdeal.com/2017/03/28/181929_Addon_Item__Rubbermaid_Commercial_1957531_Aerosol/20%Monthly2017-03-28 00:17
http://www.hotnewdeal.com/2017/03/28/181928_HAM_RADIO__Baofeng_UV5R5_5W_DualBand_TwoWay_Ha/20%Monthly2017-03-28 00:00
http://www.hotnewdeal.com/2017/03/28/181927_ANEWKODI_600Mbps_Dual_Band_24G150Mbps5G433Mbp/20%Monthly2017-03-28 00:00
http://www.hotnewdeal.com/2017/03/27/181926_OMorc_Compression_Socks_Graduated_Compression_Soc/20%Monthly2017-03-27 23:56
http://www.hotnewdeal.com/2017/03/27/181925_New_listing_100_Cabelas_Gift_Card_For_Only_/20%Monthly2017-03-27 23:42
http://www.hotnewdeal.com/2017/03/27/181924_100_Airbnb_Gift_Card_for_only_90__Fast_Email_de/20%Monthly2017-03-27 23:42
http://www.hotnewdeal.com/2017/03/27/181923_Kaspersky_AntiVirus_2017_1_PC__Key_Card_for_Fr/20%Monthly2017-03-27 23:29
http://www.hotnewdeal.com/2017/03/27/181922_Nitecore_SC2_Superb_Charger_3A_Quick_Charge_1001/20%Monthly2017-03-27 23:29
http://www.hotnewdeal.com/2017/03/27/181921_Mad_Max_Anthology_Bluray_version_for_1889/20%Monthly2017-03-27 23:29
http://www.hotnewdeal.com/2017/03/27/181920_Lenovo_Ideapad_510_15_i56200U_8_GB_RAM_1_TB_H/20%Monthly2017-03-27 23:29
http://www.hotnewdeal.com/2017/03/27/181919_6Shelf_Commercial_Steel_Wire_82_Shelving_Rack_w/20%Monthly2017-03-27 23:20
http://www.hotnewdeal.com/2017/03/27/181917_CVS_Has_Free_Shipping_With_No_Minimum_Purchase__3/20%Monthly2017-03-27 22:39
http://www.hotnewdeal.com/2017/03/27/181916_Watch_Dogs_2_Deluxe_Edition_3999_PS4_XBox_One/20%Monthly2017-03-27 22:26
http://www.hotnewdeal.com/2017/03/27/181915_185oz_Glass_Water_Bottle__Nylon_Sleeve_8__Fr/20%Monthly2017-03-27 22:26
http://www.hotnewdeal.com/2017/03/27/181914_Dell_E310dw_Wireless_Mono_Black_and_White_Laser_Pr/20%Monthly2017-03-27 22:20
http://www.hotnewdeal.com/2017/03/27/181912_6Count_Energizer_CR123_3V_Photo_Lithium_Batterie/20%Monthly2017-03-27 22:00
http://www.hotnewdeal.com/2017/03/27/181911_FisherPrice_My_Little_Snugapuppy_Deluxe_Bouncer_/20%Monthly2017-03-27 21:49
http://www.hotnewdeal.com/2017/03/27/181910_30_off_50_at_HSNcom_with_Amex__Visa_Checkout_Y/20%Monthly2017-03-27 21:35
http://www.hotnewdeal.com/2017/03/27/181909_Dell_XPS_9560_Laptop_i77700HQ_4K_15_Touchscreen/20%Monthly2017-03-27 21:26
http://www.hotnewdeal.com/2017/03/27/181908_EZVIZ_Mini_O_720p_HD_WiFi_Home_Video_Monitoring_S/20%Monthly2017-03-27 21:19
http://www.hotnewdeal.com/2017/03/27/181907_Polar_H7_Heart_Rate_Monitor_Chest_Strap__3495_/20%Monthly2017-03-27 21:10
http://www.hotnewdeal.com/2017/03/27/181906_Netgear_Nighthawk_X4_AC2350_DualBand_WiFi_Gigabit/20%Monthly2017-03-27 20:48
http://www.hotnewdeal.com/2017/03/27/181904_WorkChoice_3ft_6Outlet_Indoor_Surge_500_Joules_/20%Monthly2017-03-27 20:19
http://www.hotnewdeal.com/2017/03/27/181903_irobot_braava_mop_380t_18999_amp_jet_240_109/20%Monthly2017-03-27 20:14
http://www.hotnewdeal.com/2017/03/27/181902_CrockPot_Lunch_Crock_Food_Warmer_Various_Colors/20%Monthly2017-03-27 20:09
http://www.hotnewdeal.com/2017/03/27/181901_New_Lenovo_Edge_2_80QF0006US_Intel_Core_i7_6th_Gen/20%Monthly2017-03-27 20:09
http://www.hotnewdeal.com/2017/03/27/181900_TARGET__Legend_of_Zelda_Breath_of_the_Wild__The_/20%Monthly2017-03-27 20:03
http://www.hotnewdeal.com/2017/03/27/181898_Onkyo_A9010_Integrated_Stereo_Amplifier_w_Dac__/20%Monthly2017-03-27 19:49
http://www.hotnewdeal.com/2017/03/27/181897_Walmart_Space_Heater_Clearance__Multiple_Models_/20%Monthly2017-03-27 19:42
http://www.hotnewdeal.com/2017/03/27/181896_Prime_Members_MCR_Safety_6300_SingleDipped_PVC_P/20%Monthly2017-03-27 19:19
http://www.hotnewdeal.com/2017/03/27/181895_Stila_Smudge_Pot_10_Brown_Only__Free_Shipping_/20%Monthly2017-03-27 18:57
http://www.hotnewdeal.com/2017/03/27/181894_SVS_PB1000_300_Watt_DSP_Controlled_10_Ported_Sub/20%Monthly2017-03-27 18:57
http://www.hotnewdeal.com/2017/03/27/181893_eLuxurySupply_USA_Made_Solid_Wood_Platform_Bed_Fra/20%Monthly2017-03-27 18:57
http://www.hotnewdeal.com/2017/03/27/181892_Groupon__One_month_subscription_to_FuboTV_premier/20%Monthly2017-03-27 18:57
http://www.hotnewdeal.com/2017/03/27/181891_Mcafee_IS_2017__3_PCs_Free_After_Rebate__ESET_NO/20%Monthly2017-03-27 18:42
http://www.hotnewdeal.com/2017/03/27/181890_Manfrotto_MTPIXIB_PIXI_Mini_Tripod_Black_16_Ama/20%Monthly2017-03-27 18:39
http://www.hotnewdeal.com/2017/03/27/181889_CyberPower_1325VA810W_Simulated_Sine_Wave_UPS_w_/20%Monthly2017-03-27 18:38
http://www.hotnewdeal.com/2017/03/27/181888_Sony_MDR1A_High_Resolution_Stereo_Headphones_New/20%Monthly2017-03-27 18:08
http://www.hotnewdeal.com/2017/03/27/181887_TRENDnet_5Port_Gigabit_GREENnet_Switch_10__Free/20%Monthly2017-03-27 18:08
http://www.hotnewdeal.com/2017/03/27/181886_Ethernet_Cables_75ft_Cat_6_Flat_cable_9_50FT_7/20%Monthly2017-03-27 17:59
http://www.hotnewdeal.com/2017/03/27/181885_Prime_Members_24Pack_of_55oz_V8_100_Vegetable_/20%Monthly2017-03-27 17:39
http://www.hotnewdeal.com/2017/03/27/181884_LG_Electronics_OLED55B6P_Flat_55Inch_4K_Ultra_HD_/20%Monthly2017-03-27 17:39
http://www.hotnewdeal.com/2017/03/27/181883_Set_of_9_Star_Wars_Titanium_Series_Vehicles_w_Dis/20%Monthly2017-03-27 17:36
http://www.hotnewdeal.com/2017/03/27/181882_SEARS__Craftsman_13_Tool_Box_with_tray_OR_13_/20%Monthly2017-03-27 17:27
http://www.hotnewdeal.com/2017/03/27/181881_HP_Laptop_EliteBook_Folio_1020_G1_Intel_Core_M_5Y7/20%Monthly2017-03-27 17:27
http://www.hotnewdeal.com/2017/03/27/181880_Canon_Rebel_DSLR_Camera_Gadget_Bag_15__free_ship/20%Monthly2017-03-27 17:19
http://www.hotnewdeal.com/2017/03/27/181879_Chicco_Stack_3in1_Highchair_Modmint__8999_S/20%Monthly2017-03-27 17:09
http://www.hotnewdeal.com/2017/03/27/181878_Dirty_Harry_Collection_on_Bluray_for_1637/20%Monthly2017-03-27 17:09
http://www.hotnewdeal.com/2017/03/27/181877_Panasonic_ESLA63S_Arc4_Mens_Electric_Razor_4B/20%Monthly2017-03-27 17:09
http://www.hotnewdeal.com/2017/03/27/181876_AMD_R7_1800X_for_40999_FS_AC_via_eBay/20%Monthly2017-03-27 16:57
http://www.hotnewdeal.com/2017/03/27/181875_Pioneer_Andrew_Jones_Designed_Dolby_Atmos_Bookshel/20%Monthly2017-03-27 16:56
http://www.hotnewdeal.com/2017/03/27/181874_Dick_Martin_Sports_MASSC9_Safety_Cone_9_High__/20%Monthly2017-03-27 16:56
http://www.hotnewdeal.com/2017/03/27/181873_Asus_ROG_PG348Q_34Inch_Ultrawide_QHD_Swift_Curve/20%Monthly2017-03-27 16:56
http://www.hotnewdeal.com/2017/03/27/181872_Sams_Club_Pampers_Baby_Wipes_2400_ct_for_4194/20%Monthly2017-03-27 16:56
http://www.hotnewdeal.com/2017/03/27/181871_Asus_ROG_Swift_PG348Q_34_Ultrawide_QuadHD_3440_x/20%Monthly2017-03-27 16:40
http://www.hotnewdeal.com/2017/03/27/181870_Fender_American_Special_Stratocaster_HSS_Electric_/20%Monthly2017-03-27 16:18
http://www.hotnewdeal.com/2017/03/27/181869_Hape_All_Seasons_Kids_Wooden_Doll_House_Furnished/20%Monthly2017-03-27 16:08
http://www.hotnewdeal.com/2017/03/27/181868_Amazon_Prime_Members_89_Kindle_Paperwhite_Eread/20%Monthly2017-03-27 15:59
http://www.hotnewdeal.com/2017/03/27/181867_Samsung_UN65KS8000_65Inch_4K_Ultra_HD_Smart_LED_T/20%Monthly2017-03-27 15:48
http://www.hotnewdeal.com/2017/03/27/181866_1TB_Samsung_PM961_M2_PCI_Express_30_Gen_3_x4_NVM/20%Monthly2017-03-27 15:41
http://www.hotnewdeal.com/2017/03/27/181865_cricket_wireless_sim__target_499_BM_YMMV/20%Monthly2017-03-27 15:41
http://www.hotnewdeal.com/2017/03/27/181864_Newegg_20_off_Netgear_Arlo_security_cameras_and_k/20%Monthly2017-03-27 15:40
http://www.hotnewdeal.com/2017/03/27/181863_12Roll_Angel_Soft_Double_Rolls_Bath_Tissue_2Ply/20%Monthly2017-03-27 15:40
http://www.hotnewdeal.com/2017/03/27/181862_Yamaha_RXV581_72Ch_x_80_Watts_4K_Network_AV_Re/20%Monthly2017-03-27 15:40
http://www.hotnewdeal.com/2017/03/27/181860_Contigo_SnapSeal_Byron_Vacuum_Insulated_Stainless_/20%Monthly2017-03-27 15:35
http://www.hotnewdeal.com/2017/03/27/181859_Do_It_Yourself_Magazine_899yr/20%Monthly2017-03-27 15:24
http://www.hotnewdeal.com/2017/03/27/181858_Lenovo_Laptop_156_AMD_A129700P_8GB_DDR4_RAM_/20%Monthly2017-03-27 15:17
http://www.hotnewdeal.com/2017/03/27/181857_Possible_20Pack_of_3M_ScotchBrite_Hand_Pad__Ult/20%Monthly2017-03-27 15:09
http://www.hotnewdeal.com/2017/03/27/181856_ASUS_ROG_Strix_GL502VSWS71_Intel_i77700HQ_GTX_10/20%Monthly2017-03-27 15:09
http://www.hotnewdeal.com/2017/03/27/181855_2_x_11lbs_Impact_Whey_Protein__Free_05lb_Creatin/20%Monthly2017-03-27 15:09
http://www.hotnewdeal.com/2017/03/27/181854_Shark_Professional_Steam_Pocket_Mop_5940fs_Hom/20%Monthly2017-03-27 15:08
http://www.hotnewdeal.com/2017/03/27/181853_Intel_Core_i77700_21999_with_coupon_code/20%Monthly2017-03-27 14:55
http://www.hotnewdeal.com/2017/03/27/181852_HP_Refurbished_Monitors_Omen_32_QHD_22999_HP_/20%Monthly2017-03-27 14:47
http://www.hotnewdeal.com/2017/03/27/181850_Amazon_has_Wacom_Intuos_Comic_Pen_and_Touch_anime_/20%Monthly2017-03-27 14:38
http://www.hotnewdeal.com/2017/03/27/181849_Trident_Gum_Single_Packs_50_off_Target_Cartwheel_/20%Monthly2017-03-27 14:38
http://www.hotnewdeal.com/2017/03/27/181848_ThinkGeek_Free_Shipping_on_orders_25/20%Monthly2017-03-27 14:31
http://www.hotnewdeal.com/2017/03/27/181847_Anker_PowerPort_5_40W8A_5Port_Desktop_USB_Charge/20%Monthly2017-03-27 14:31
http://www.hotnewdeal.com/2017/03/27/181846_Kindle_Spy_Secrets_That_Can_Save_Your_Life_19/20%Monthly2017-03-27 14:31
http://www.hotnewdeal.com/2017/03/27/181845_Dymatize_elite_xt_protein_44lbs_2293_FS/20%Monthly2017-03-27 14:23
http://www.hotnewdeal.com/2017/03/27/181844_Amazon_Fire_7_QuadCore_8GB_AlexaEnabled_Tablet_/20%Monthly2017-03-27 14:17
http://www.hotnewdeal.com/2017/03/27/181843_Chivalry_Medieval_Warfare__FREE__Steam/20%Monthly2017-03-27 14:17
http://www.hotnewdeal.com/2017/03/27/181842_Select_Walmart_stores_BM_299_Nikon_Black_D3300_D/20%Monthly2017-03-27 14:17
http://www.hotnewdeal.com/2017/03/27/181841_Turtle_Beach_Earforce_i60_Wireless_Gaming_Headset_/20%Monthly2017-03-27 14:16
http://www.hotnewdeal.com/2017/03/27/181840_AMEX_Offer_Spend_30_or_more_and_Get_10_back_on_H/20%Monthly2017-03-27 14:16
http://www.hotnewdeal.com/2017/03/27/181839_Work_Sharp_Knife_Sharpener__Ken_Onion_Edition_10/20%Monthly2017-03-27 14:16
http://www.hotnewdeal.com/2017/03/27/181838_PSA_Titanfall_2_New_DLC_Free_33017_Colony_Rema/20%Monthly2017-03-27 14:08
http://www.hotnewdeal.com/2017/03/27/181837_White_Xbox_One_S_Controller_and_Metal_Gear_Solid_P/20%Monthly2017-03-27 14:07
http://www.hotnewdeal.com/2017/03/27/181836_CORSAIR_Vengeance_LPX_16GB_2_x_8GB_DDR4_3200_for/20%Monthly2017-03-27 14:07
http://www.hotnewdeal.com/2017/03/27/181835_Nike_All_Field_30_Football_1123_Size_9_Nike_/20%Monthly2017-03-27 14:07
http://www.hotnewdeal.com/2017/03/27/181834_Neat_Solutions_Washcloths_12Pack_278__Target/20%Monthly2017-03-27 14:07
http://www.hotnewdeal.com/2017/03/27/181833_TCP_25W_Equivalent_3W_LED_Decorative_Torpedo_Lig/20%Monthly2017-03-27 14:07
http://www.hotnewdeal.com/2017/03/27/181832_Sonic_Boom_Fire__Ice_Nintendo_3DS_1332_via_A/20%Monthly2017-03-27 13:58
http://www.hotnewdeal.com/2017/03/27/181831_Milwaukee_M18_12quot_Impact_Kit_199_Home_Depo/20%Monthly2017-03-27 13:58
http://www.hotnewdeal.com/2017/03/27/181830_Ann_Taylor_Extra_50_Off_Clearance_Striped_Sleeve/20%Monthly2017-03-27 13:47
http://www.hotnewdeal.com/2017/03/27/181829_Target_Elder_Scrolls_Skyrim_Special_Edition_PS4_/20%Monthly2017-03-27 13:39
http://www.hotnewdeal.com/2017/03/27/181828_Chandelier_Lighting_Clearance_at_Lowes_YMMV/20%Monthly2017-03-27 12:55
http://www.hotnewdeal.com/2017/03/27/181827_Craftsman_BoltOn_Accesories_Impact_jigsaw_cutt/20%Monthly2017-03-27 12:46
http://www.hotnewdeal.com/2017/03/27/181826_10_off_Two_Tickets_for_Mindgamers_Movie_Ticket_/20%Monthly2017-03-27 12:38
http://www.hotnewdeal.com/2017/03/27/181825_Costco__Sunter_Tower_Fan_Combo__2999/20%Monthly2017-03-27 12:37
http://www.hotnewdeal.com/2017/03/27/181824_Bathroom_Vanity_Lights_at_Lowes__13_Save_507/20%Monthly2017-03-27 12:37
http://www.hotnewdeal.com/2017/03/27/181823_M18_18Volt_LithiumIon_12_in_Cordless_HighTorq/20%Monthly2017-03-27 12:22
http://www.hotnewdeal.com/2017/03/27/181822_Various_Fishing_Rods_Reels_Kayak_Supplies_and_Ge/20%Monthly2017-03-27 12:22
http://www.hotnewdeal.com/2017/03/27/181821_Doom_PC_Digital_Download_1229_Tom_Clancys_Ra/20%Monthly2017-03-27 12:22
http://www.hotnewdeal.com/2017/03/27/181820_Pebble_Time_Smartwatch__Black_3999_Free_Shippin/20%Monthly2017-03-27 12:15
http://www.hotnewdeal.com/2017/03/27/181819_Nike_Strike_PL_Soccer_Ball_Size_5_1873_Nike_P/20%Monthly2017-03-27 12:15
http://www.hotnewdeal.com/2017/03/27/181818_ZTE_Trek_2_K88_for_48_at_ebay_using_coupon_code/20%Monthly2017-03-27 12:06
http://www.hotnewdeal.com/2017/03/27/181817_6pm_Additional_20_off_Already_Reduced_Spring_S/20%Monthly2017-03-27 12:06
http://www.hotnewdeal.com/2017/03/27/181816_Ryzen_7_1700_24999_after_promo_code__ebaycom/20%Monthly2017-03-27 11:38
http://www.hotnewdeal.com/2017/03/27/181815_Lowescom_only__True_Temper_20in_Poly_Snow_Shove/20%Monthly2017-03-27 11:23
http://www.hotnewdeal.com/2017/03/27/181814_50_Uber_Gift_Card_for_only_45__Fast_Email_deliv/20%Monthly2017-03-27 11:16
http://www.hotnewdeal.com/2017/03/27/181813_GamesPlanet_PCDD_Spring_Sale__Day_1__Dark_Souls_/20%Monthly2017-03-27 11:16
http://www.hotnewdeal.com/2017/03/27/181812_Denon_AVRS720W_72_Channel_Full_4K_Ultra_HD_AV_Re/20%Monthly2017-03-27 11:16
http://www.hotnewdeal.com/2017/03/27/181811_RTIC_30_Soft_Side_65_each_or_2_for_100__Rodeo_H/20%Monthly2017-03-27 10:54
http://www.hotnewdeal.com/2017/03/27/181810_Macys_Mens_Dress_Shirts_Alfani_RED_or_Performanc/20%Monthly2017-03-27 10:45
http://www.hotnewdeal.com/2017/03/27/181809_HTC_Vive__GTX_1060_6gb_video_card_839__Free_Shi/20%Monthly2017-03-27 10:30
http://www.hotnewdeal.com/2017/03/27/181808_Kindle_Anathem_by_Neal_Stephenson_Anansi_Boys_by/20%Monthly2017-03-27 10:30
http://www.hotnewdeal.com/2017/03/27/181807_DeWalt_DW745_10_Compact_Job_Site_Table_Saw__1/20%Monthly2017-03-27 10:15
http://www.hotnewdeal.com/2017/03/27/181806_Target_C9_Champion_Balance_Ball_Medium_Includes/20%Monthly2017-03-27 09:46
http://www.hotnewdeal.com/2017/03/27/181805_Star_Wars_Rebellion_Board_Game_for_6202/20%Monthly2017-03-27 09:31
http://www.hotnewdeal.com/2017/03/27/181804_Angel_Soft_2Ply_Big_Rolls_Bath_Tissue_24_RollsP/20%Monthly2017-03-27 09:16
http://www.hotnewdeal.com/2017/03/27/181803_Monster_Hunter_4_Ultimate_Nintendo_3DS_1469_vi/20%Monthly2017-03-27 08:54
http://www.hotnewdeal.com/2017/03/27/181802_Nintendo_Pikachu_Yellow_Edition_New_Nintendo_3DS_X/20%Monthly2017-03-27 08:54
http://www.hotnewdeal.com/2017/03/27/181801_APC_850VA_BackUPS_Battery_Backup__Surge_Protecto/20%Monthly2017-03-27 08:30
http://www.hotnewdeal.com/2017/03/27/181800_30Count_Scott_ChooseASheet_Mega_Roll_Paper_Towe/20%Monthly2017-03-27 08:22
http://www.hotnewdeal.com/2017/03/27/181798_Hybrid_Protection_Cover_Case_for_iPhone_6s6_rugge/20%Monthly2017-03-27 07:58
http://www.hotnewdeal.com/2017/03/27/181797_Select_Disney_Infinity_Figures_Darth_Vader_Darth/20%Monthly2017-03-27 07:47
http://www.hotnewdeal.com/2017/03/27/181796_48_NutriGrain_Kelloggs_Cereal_Bars_1056_as_lo/20%Monthly2017-03-27 07:23
http://www.hotnewdeal.com/2017/03/27/181795_Craftsman_HarleyDavidson_3_Drawer_Portable_Tool_/20%Monthly2017-03-27 07:16
http://www.hotnewdeal.com/2017/03/27/181794_Street_Fighter_V_PS4_15_AC__Deus_Ex_Mankind_D/20%Monthly2017-03-27 06:06
http://www.hotnewdeal.com/2017/03/27/181793_V8_Fusion_Energy_955_AFTER_coupon__15_SS_Amaz/20%Monthly2017-03-27 02:07
http://www.hotnewdeal.com/2017/03/27/181792_Panasonic_Lumix_G85_4K_Camera_with_1260mm_OIS_Len/20%Monthly2017-03-27 02:07
http://www.hotnewdeal.com/2017/03/27/181791_Good_Sense_Almond_Toppings_Honey_Roasted_with_Cran/20%Monthly2017-03-27 02:03
http://www.hotnewdeal.com/2017/03/27/181790_Black__Decker_09_Cu_Ft_900_Watt_Microwave_Oven/20%Monthly2017-03-27 02:03
http://www.hotnewdeal.com/2017/03/27/181789_LG_60_Full_HD_1080p_Plasma_HDTV_600Hz_60PB5600_/20%Monthly2017-03-27 01:27
http://www.hotnewdeal.com/2017/03/27/181788_TMobiles_Premium_Device_Protection_PDP__JUMP/20%Monthly2017-03-27 01:27
http://www.hotnewdeal.com/2017/03/27/181787_Refurbished_DeWalt_XR_Brushless_Drill_and_Driver_K/20%Monthly2017-03-27 01:27
http://www.hotnewdeal.com/2017/03/27/181786_BBQ_Pro_3_Burner_LP_Gas_Grill_with_Side_Burner_for/20%Monthly2017-03-27 01:07
http://www.hotnewdeal.com/2017/03/27/181785_YMMV_WiiU_PowerA_Sidekick_Controller__Walmart_BM/20%Monthly2017-03-27 01:06
http://www.hotnewdeal.com/2017/03/27/181784_50_zBack_in_Shopyourway_Points_on_Select_DeWalt_T/20%Monthly2017-03-27 01:03
http://www.hotnewdeal.com/2017/03/27/181783_4Pack_of_27oz_Degree_Men_Dry_Protection_Antiper/20%Monthly2017-03-27 00:14
http://www.hotnewdeal.com/2017/03/27/181782_Lenovo_20GL0000US_Thinkpad_13_Chromebook_133_Not/20%Monthly2017-03-27 00:11
http://www.hotnewdeal.com/2017/03/26/181781_100_count_Velcro_Reusable_SelfGripping_Cable_Ties/20%Monthly2017-03-26 23:57
http://www.hotnewdeal.com/2017/03/26/181780_Buy_a_65_Gamestop_Gift_Card_and_get_additional_1/20%Monthly2017-03-26 23:38
http://www.hotnewdeal.com/2017/03/26/181779_Nuna_Pipa_Infant_car_seat_in_Blackberry_color_200/20%Monthly2017-03-26 23:38
http://www.hotnewdeal.com/2017/03/26/181778_2017_Model_Vizio_ESeries_55_4K_Home_Theater_Di/20%Monthly2017-03-26 23:28
http://www.hotnewdeal.com/2017/03/26/181777_klipsch_khc6_ceiling_speakers_for_78pr_frys_prom/20%Monthly2017-03-26 23:23
http://www.hotnewdeal.com/2017/03/26/181775_Harman_Kardon_Esquire_Mini_COACH_Limited_Edition_B/20%Monthly2017-03-26 23:16
http://www.hotnewdeal.com/2017/03/26/181774_Arcteryx_Arenite_Jacket_2_Colors_11773__fs_/20%Monthly2017-03-26 22:54
http://www.hotnewdeal.com/2017/03/26/181773_Karcher_G_2700_Performance_Series_2700_PSI_Gas_Pre/20%Monthly2017-03-26 22:54
http://www.hotnewdeal.com/2017/03/26/181772_DeWalt_DCK423D2_20V_Max_4Tool_Combo_Kit__Filler_/20%Monthly2017-03-26 22:44
http://www.hotnewdeal.com/2017/03/26/181771_APC_7Outlet_SurgeArrest_1440J_Surge_Protector_w_/20%Monthly2017-03-26 22:44
http://www.hotnewdeal.com/2017/03/26/181770_Samsung_Gear_S3_46mm_Smartwatch_Frontier_or_Class/20%Monthly2017-03-26 22:15
http://www.hotnewdeal.com/2017/03/26/181769_Sony_PlayStation_4_500GB_Slim_Uncharted_Bundle_20/20%Monthly2017-03-26 21:57
http://www.hotnewdeal.com/2017/03/26/181768_Amazon__Ranphy_Silicon_Makeup_Brush_Cleaning_Pad_/20%Monthly2017-03-26 21:57
http://www.hotnewdeal.com/2017/03/26/181767_NEW_WG3051_WORX_8_Amp_14_Electric_Chain_Saw_36_/20%Monthly2017-03-26 21:46
http://www.hotnewdeal.com/2017/03/26/181766_4_Glow_Sticks_25Pack_176_Walmart/20%Monthly2017-03-26 21:38
http://www.hotnewdeal.com/2017/03/26/181765_Costcocom_is_selling_the_Herman_Miller_Eames_Loun/20%Monthly2017-03-26 21:31
http://www.hotnewdeal.com/2017/03/26/181764_32GB_iPad_for_99_when_you_purchase_an_iPhone_on_N/20%Monthly2017-03-26 21:31
http://www.hotnewdeal.com/2017/03/26/181763_Quartet_17_x_23_Cork_Bulletin_Board_Oak_Finish/20%Monthly2017-03-26 21:07
http://www.hotnewdeal.com/2017/03/26/181762_Signatures_Kirkland_Starbucks_Bean_Coffee_Medium/20%Monthly2017-03-26 20:54
http://www.hotnewdeal.com/2017/03/26/181761_Sunbeam_King_Size_XpressHeat_Heating_Pad_Green_1/20%Monthly2017-03-26 20:15
http://www.hotnewdeal.com/2017/03/26/181759_1_year_PS_Plus_Sony_Playstation_4799_or_less__A/20%Monthly2017-03-26 19:47
http://www.hotnewdeal.com/2017/03/26/181758_12Pack_169oz_Ito_En_Tea_Oi_Ocha_Bold_Green_Tea_/20%Monthly2017-03-26 19:47
http://www.hotnewdeal.com/2017/03/26/181757_Intel_i57400_CPU_and_Asus_ROG_Strix_B250F_Gaming_/20%Monthly2017-03-26 19:43
http://www.hotnewdeal.com/2017/03/26/181756_Prime_Members_AmazonBasics_133Inch_Laptop_Sleev/20%Monthly2017-03-26 19:16
http://www.hotnewdeal.com/2017/03/26/181755_i77700k_Kaby_Lake_GTX1070_240GBSSD_8GB_DDR4_Gamin/20%Monthly2017-03-26 19:04
http://www.hotnewdeal.com/2017/03/26/181754_Tmobile_upgrade_Iphone_77_Plus_from_costco_get_/20%Monthly2017-03-26 18:44
http://www.hotnewdeal.com/2017/03/26/181752_CAP_Barbell_FlatInclineDecline_Bench_Brown_40/20%Monthly2017-03-26 18:22
http://www.hotnewdeal.com/2017/03/26/181751_Addon_Item_Union_2Quart_Gray_Elephant_Watering_/20%Monthly2017-03-26 17:57
http://www.hotnewdeal.com/2017/03/26/181750_Lowes__Garden_Treasures_Sandyfield_5Piece_Steel_/20%Monthly2017-03-26 17:56
http://www.hotnewdeal.com/2017/03/26/181749_AUDEZE_LCD4_Headphones__iFi_Pro_iCAN_Headphone_A/20%Monthly2017-03-26 17:46
http://www.hotnewdeal.com/2017/03/26/181748_Adguard_Premium_Lifetime_Subscription_for_2_Andro/20%Monthly2017-03-26 17:46
http://www.hotnewdeal.com/2017/03/26/181747_Singer_Polyester_Thread_Assorted_Colors_177__/20%Monthly2017-03-26 17:37
http://www.hotnewdeal.com/2017/03/26/181746_24Pack_of_8oz_V8_VFusion_100_Juice_Strawberry_/20%Monthly2017-03-26 17:22
http://www.hotnewdeal.com/2017/03/26/181745_24Pack_10oz_Tropicana_Ruby_Red_Grapefruit_Juice_/20%Monthly2017-03-26 17:07
http://www.hotnewdeal.com/2017/03/26/181744_4Pack_32oz_Reach_Complete_Care_8In1_Plus_White/20%Monthly2017-03-26 16:14
http://www.hotnewdeal.com/2017/03/26/181743_PFChangs_Coupon_for_Takeouts_via_Online_Order_20/20%Monthly2017-03-26 16:06
http://www.hotnewdeal.com/2017/03/26/181741_Columbia_Mens_Ascender_Softshell_Jacket__Graphit/20%Monthly2017-03-26 15:56
http://www.hotnewdeal.com/2017/03/26/181740_UE_Roll_2_bluetooth_portable_speaker_for_5499_/20%Monthly2017-03-26 15:54
http://www.hotnewdeal.com/2017/03/26/181739_Tokyo_Twilight_Ghost_Hunters_Daybreak_Special_Gig/20%Monthly2017-03-26 15:45
http://www.hotnewdeal.com/2017/03/26/181738_Sing_BluRayDVDDigital_1999_plus_1020_in_SYW/20%Monthly2017-03-26 15:45
http://www.hotnewdeal.com/2017/03/26/181737_FisherPrice_Little_People_Toys__Buy_1_get_1_Free/20%Monthly2017-03-26 15:30
http://www.hotnewdeal.com/2017/03/26/181736_Hot_Wheels_Ultimate_Garage_Playset_With_Car_Wash_5/20%Monthly2017-03-26 15:06
http://www.hotnewdeal.com/2017/03/26/181735_Logitech_G602_3999__Best_Buy_Again/20%Monthly2017-03-26 15:04
http://www.hotnewdeal.com/2017/03/26/181734_Bright_Baby_Touch_and_Feel_Board_Books_249__fre/20%Monthly2017-03-26 14:27
http://www.hotnewdeal.com/2017/03/26/181733_New_13Gallon_TouchFree_Sensor_Automatic_Stainles/20%Monthly2017-03-26 13:56
http://www.hotnewdeal.com/2017/03/26/181732_145oz_Sylvias_Mixed_Greens_Pack_of_12__30/20%Monthly2017-03-26 13:56
http://www.hotnewdeal.com/2017/03/26/181731_100_BP_Gas_Gift_Card_For_93_100_speedway_GC_fo/20%Monthly2017-03-26 13:22
http://www.hotnewdeal.com/2017/03/26/181730_Insignia_Wired_Controller_for_NES_Classic_Edition_/20%Monthly2017-03-26 13:15
http://www.hotnewdeal.com/2017/03/26/181729_Target_Chicago_Cutlery_Wellington_3_Piece_Knife_S/20%Monthly2017-03-26 13:06
http://www.hotnewdeal.com/2017/03/26/181728_Prime_Members_Hanes_Mens_6Pack_FreshIQ_Cushion_/20%Monthly2017-03-26 12:44
http://www.hotnewdeal.com/2017/03/26/181727_BH_Moto_G4_Plus_64GBSamsung_Level_U_PRO_Wireles/20%Monthly2017-03-26 12:29
http://www.hotnewdeal.com/2017/03/26/181726_8_Ounce_Botttle_Lubegard_75200_Zer0_Pool_and_Spa_L/20%Monthly2017-03-26 12:27
http://www.hotnewdeal.com/2017/03/26/181725_Adidas_Mens_CLIMALITE_Shockwave_Quarter_Zip_Jacke/20%Monthly2017-03-26 12:14
http://www.hotnewdeal.com/2017/03/26/181724_playstation_VR_PSVR__free_game_399_shipped_with_/20%Monthly2017-03-26 12:03
http://www.hotnewdeal.com/2017/03/26/181723_Travelpro_Platinum_Magna_2_carryon_suitcase_for_/20%Monthly2017-03-26 11:45
http://www.hotnewdeal.com/2017/03/26/181722_65_Hisense_65H8C_4K_Smart_LED_HDTV/20%Monthly2017-03-26 11:45
http://www.hotnewdeal.com/2017/03/26/181721_DEWALT_Heavy_Duty_12_Single__Bevel_Compound_Mite/20%Monthly2017-03-26 11:15
http://www.hotnewdeal.com/2017/03/26/181720_Craftsman_NonSlip_Foam_Drawer_Liner_Roll__5_or/20%Monthly2017-03-26 10:29
http://www.hotnewdeal.com/2017/03/26/181719_24Pack_IZZE_Sparkling_Juice_3Flavor_Variety_Pack/20%Monthly2017-03-26 10:05
http://www.hotnewdeal.com/2017/03/26/181718_BH_Photo_Video_White_Moto_X_Pure_Edition_64GB_2/20%Monthly2017-03-26 09:57
http://www.hotnewdeal.com/2017/03/26/181716_Fossil_Mens_FS5121_Machine_Chronograph_Dark_Brown/20%Monthly2017-03-26 09:57
http://www.hotnewdeal.com/2017/03/26/181715_3Pack_of_35lb_Tidy_Cats_Clumping_Cat_Litter_Vari/20%Monthly2017-03-26 09:22
http://www.hotnewdeal.com/2017/03/26/181714_Kenmore_42_cu_ft_Stainless_Steel_Gas_Range_Oven/20%Monthly2017-03-26 09:06
http://www.hotnewdeal.com/2017/03/26/181713_Dr_Seuss_The_Lorax_Bluray__DVD__Digital_HD_/20%Monthly2017-03-26 08:54
http://www.hotnewdeal.com/2017/03/26/181712_Free_Sing_Lunchbox_with_purchase_of_Select_DVD_or_/20%Monthly2017-03-26 08:29
http://www.hotnewdeal.com/2017/03/26/181711_Walgreens_8x10_Photo_Print_Free__Free_InStore_/20%Monthly2017-03-26 08:29
http://www.hotnewdeal.com/2017/03/26/181710_Bedsure_18_Waterproof_Mattress_Protector_Twin_5/20%Monthly2017-03-26 07:06
http://www.hotnewdeal.com/2017/03/26/181709_27_Ounce_Trigger_Spray_Bottle__Weiman_Hardwood_Fl/20%Monthly2017-03-26 07:06
http://www.hotnewdeal.com/2017/03/26/181708_team_liquid_Razer_deathadder_chroma_and_mouse_pad_/20%Monthly2017-03-26 06:26
http://www.hotnewdeal.com/2017/03/26/181707_Craftsman_Tools_with_50_to_80_Back_in_Points_Cr/20%Monthly2017-03-26 05:27
http://www.hotnewdeal.com/2017/03/26/181705_Target_Apple_watch_series_1_42mm_15999_instore/20%Monthly2017-03-26 04:06
http://www.hotnewdeal.com/2017/03/26/181704_TODAY_ONLY__Sears__DeWalt_20V_MAX_Lithium_Ion_/20%Monthly2017-03-26 04:06
http://www.hotnewdeal.com/2017/03/26/181703_Coleman_2000018295_8Person_Instant_Tent_Black_1/20%Monthly2017-03-26 04:06
http://www.hotnewdeal.com/2017/03/26/181702_Starcraft_Brood_War_FREE_starting_next_week/20%Monthly2017-03-26 02:27
http://www.hotnewdeal.com/2017/03/26/181701_The_Iron_Giant_Signature_Edition_Bluray_599_/20%Monthly2017-03-26 02:06
http://www.hotnewdeal.com/2017/03/26/181700_Colgate_Extra_Clean_Toothbrush_Full_Head_Soft_6/20%Monthly2017-03-26 02:06
http://www.hotnewdeal.com/2017/03/26/181699_Slickdeals_Exclusive_Kohls_Mystery_Coupon_Up_to/20%Monthly2017-03-26 01:26
http://www.hotnewdeal.com/2017/03/26/181698_Fujifilm_Camera_Sale_XT1_Body_799_or_w_XF_185/20%Monthly2017-03-26 01:06
http://www.hotnewdeal.com/2017/03/26/181697_Bushnell_Powerview_Compact_Folding_Roof_Prism_Bino/20%Monthly2017-03-26 01:05
http://www.hotnewdeal.com/2017/03/26/181696_Jump_N_Carry_JNC_660_1700_Peak_Amp_12_Volt_Jump_St/20%Monthly2017-03-26 00:13
http://www.hotnewdeal.com/2017/03/25/181695_Gillette_Mach_3_Turbo_as_low_as_209__tax_AC__S/20%Monthly2017-03-25 23:31
http://www.hotnewdeal.com/2017/03/25/181694_Crayola_24_Count_Sidewalk_Chalk_247__Free_Prime/20%Monthly2017-03-25 23:30
http://www.hotnewdeal.com/2017/03/25/181693_Staples_weekly_ad__Staples_ream_1cent_ARAC_insto/20%Monthly2017-03-25 23:30
http://www.hotnewdeal.com/2017/03/25/181690_50297_PNY_GeForce_GTX_1080_8GB_XLR8_Gaming_Overc/20%Monthly2017-03-25 22:44
http://www.hotnewdeal.com/2017/03/25/181688_Single_Prong_Robe_Hook_Matte_Nickel_111__Free/20%Monthly2017-03-25 22:05
http://www.hotnewdeal.com/2017/03/25/181687_128oz_Napa_Valley_Naturals_Organic_Balsamic_Vinega/20%Monthly2017-03-25 21:56
http://www.hotnewdeal.com/2017/03/25/181685_7oz_Elmers_Liquid_School_Glue_144__Free_Prime_/20%Monthly2017-03-25 21:07
http://www.hotnewdeal.com/2017/03/25/181683_HP_Z420_Workstation_E51650_8GB_DDR3_250GB_HDD_/20%Monthly2017-03-25 20:54
http://www.hotnewdeal.com/2017/03/25/181682_48Count_4oz_Dove_Beauty_Bar_Sensitive_Skin_25/20%Monthly2017-03-25 20:45
http://www.hotnewdeal.com/2017/03/25/181681_2227_Kershaw_Speedsafe_3880BW_Thermite_Folding_K/20%Monthly2017-03-25 20:42
http://www.hotnewdeal.com/2017/03/25/181680_20Page_Shutterfly_8x8_Hardcover_Photo_Book_79/20%Monthly2017-03-25 20:37
http://www.hotnewdeal.com/2017/03/25/181679_Men_in_Black_3__Bluray_UltraViolet_3D_BlurayDV/20%Monthly2017-03-25 19:46
http://www.hotnewdeal.com/2017/03/25/181678_CLIF_CRUNCH__Granola_Bar__Chocolate_Peanut_Butte/20%Monthly2017-03-25 19:38
http://www.hotnewdeal.com/2017/03/25/181677_New_Oct_2016_15_Macbook_Pro_2070_No_Tax_outsid/20%Monthly2017-03-25 19:04
http://www.hotnewdeal.com/2017/03/25/181676_AOC_Monitor_28_4K_UHD_3840x2160_Res_Freesync_1ms/20%Monthly2017-03-25 18:54
http://www.hotnewdeal.com/2017/03/25/181674_Amazon_prime_onlyAmazonMens_Grooming_Sample_Box_/20%Monthly2017-03-25 18:15
http://www.hotnewdeal.com/2017/03/25/181673_Sunbeam_Heating_Pad_with_UltraHeatTechnology_523/20%Monthly2017-03-25 17:46
http://www.hotnewdeal.com/2017/03/25/181672_Amazon_ASUS_VG248QE_24quot_Full_HD_1920x1080_14/20%Monthly2017-03-25 17:23
http://www.hotnewdeal.com/2017/03/25/181671_Trianium_iphone_7_screen_protector__150_Free_Sh/20%Monthly2017-03-25 17:07
http://www.hotnewdeal.com/2017/03/25/181670_LG_Premier_53_Android_TracFone_90_70_with_Vis/20%Monthly2017-03-25 17:07
http://www.hotnewdeal.com/2017/03/25/181669_jackbox_for_Ps4_download_70_to_80_percent_off_st/20%Monthly2017-03-25 17:07
http://www.hotnewdeal.com/2017/03/25/181668_Saucony_Mens_6_Pack_Performance_NoShow_Socks_12/20%Monthly2017-03-25 16:54
http://www.hotnewdeal.com/2017/03/25/181667_Pottery_Barn_Rustic_Pine_Shelf_w_Hooks4425_FS/20%Monthly2017-03-25 16:45
http://www.hotnewdeal.com/2017/03/25/181666_DeWalt_DWS780_Miter_Saw__51500_with_an_addition/20%Monthly2017-03-25 16:15
http://www.hotnewdeal.com/2017/03/25/181665_PIXMA_MX492_WiFi_AllInOne_Compact_PrinterScanne/20%Monthly2017-03-25 16:03
http://www.hotnewdeal.com/2017/03/25/181664_Metal_Gear_Solid_V_Phantom_Pain_Xb1_75__Fina/20%Monthly2017-03-25 15:57
http://www.hotnewdeal.com/2017/03/25/181663_Canon_EOS_Rebel_T6_DSLR_2_Lens_Camera_Kit_with_Pro/20%Monthly2017-03-25 15:47
http://www.hotnewdeal.com/2017/03/25/181661_Valor_BD7_Power_Rack_with_Lat_Pull_Attachment_for/20%Monthly2017-03-25 15:13
http://www.hotnewdeal.com/2017/03/25/181659_Wolfenstein_The_Old_Blood_PC_Digital_Download_/20%Monthly2017-03-25 14:46
http://www.hotnewdeal.com/2017/03/25/181658_Gigabyte_GTX_1050_TI_4GB_Low_Profile_video_card_FS/20%Monthly2017-03-25 14:31
http://www.hotnewdeal.com/2017/03/25/181657_Star_Wars_The_Complete_Saga_Episodes_IVI_Blu/20%Monthly2017-03-25 14:23
http://www.hotnewdeal.com/2017/03/25/181656_128Pack_Avery_AllPurpose_Labels_white_for_98_/20%Monthly2017-03-25 13:47
http://www.hotnewdeal.com/2017/03/25/181655_Best_Buy__HP_Scpectre_X360_13_Late_2016_model_7th/20%Monthly2017-03-25 13:24
http://www.hotnewdeal.com/2017/03/25/181653_Dell_H625CDW_Multifunction_Color_Cloud_Laser_Prin/20%Monthly2017-03-25 13:08
http://www.hotnewdeal.com/2017/03/25/181652_1139_Gold_Toe_Mens_Cotton_Crew_Athletic_Sock_6/20%Monthly2017-03-25 13:08
http://www.hotnewdeal.com/2017/03/25/181651_Stainless_Steel_Ladle_189__Free_Prime_Shipping_/20%Monthly2017-03-25 12:32
http://www.hotnewdeal.com/2017/03/25/181650_Starbucks__5_for_10_eGift_Card_at_Groupon__TAR/20%Monthly2017-03-25 12:32
http://www.hotnewdeal.com/2017/03/25/181649_Elac_UniFi_UB5_Bookshelf_Speakers_399Pair_on_A/20%Monthly2017-03-25 12:23
http://www.hotnewdeal.com/2017/03/25/181648_2017_Free_National_Park_Days/20%Monthly2017-03-25 12:16
http://www.hotnewdeal.com/2017/03/25/181647_American_Eagle_Outfitters_Clearance_5060__Unti/20%Monthly2017-03-25 12:16
http://www.hotnewdeal.com/2017/03/25/181646_Fitbit__Charge_HR_Heart_Rate_blue_large_at_bestbu/20%Monthly2017-03-25 11:59
http://www.hotnewdeal.com/2017/03/25/181645_33oz_Cold_For_Men_Eau_De_Toilette_Spray__598/20%Monthly2017-03-25 11:58
http://www.hotnewdeal.com/2017/03/25/181644_WG518_WORX_12Amp_3in1_BlowerVacuumMulcher_Met/20%Monthly2017-03-25 11:48
http://www.hotnewdeal.com/2017/03/25/181643_Lenovo_V110_156_Laptop_Intel_Core_i36100U_4GB/20%Monthly2017-03-25 11:28
http://www.hotnewdeal.com/2017/03/25/181641_2331_Prime_Pampers_Swaddlers_Diapers_Size_3_180/20%Monthly2017-03-25 11:20
http://www.hotnewdeal.com/2017/03/25/181640_GCU_Members_Quantum_Break_Xbox_One_1599_ReCo/20%Monthly2017-03-25 11:09
http://www.hotnewdeal.com/2017/03/25/181639_315Count_Avery_34_Round_ColorCoding_Labels_1/20%Monthly2017-03-25 10:40
http://www.hotnewdeal.com/2017/03/25/181638_Acer_Spin_5_7th_Gen_Intel_i5_8GB_256GB_SSD_1080/20%Monthly2017-03-25 10:33
http://www.hotnewdeal.com/2017/03/25/181637_PS4_Digital_Downloads_God_of_War_III_Remastered_/20%Monthly2017-03-25 10:08
http://www.hotnewdeal.com/2017/03/25/181636_Hunter_Louden_46in_Premier_Bronze_Flush_Mount_Ind/20%Monthly2017-03-25 09:48
http://www.hotnewdeal.com/2017/03/25/181635_Buy_two_tickets_get_one_free_on_Fandango_with_Visa/20%Monthly2017-03-25 09:34
http://www.hotnewdeal.com/2017/03/25/181634_Amazon_Prime_Rewards_Visa_Signature_Card_Get_a_7/20%Monthly2017-03-25 09:33
http://www.hotnewdeal.com/2017/03/25/181633_9999_Torq_Torqx_Random_orbital_polisher_kit/20%Monthly2017-03-25 09:19
http://www.hotnewdeal.com/2017/03/25/181632_Its_Back_Canon_5D_Mark_IV_Grey_Market__2749/20%Monthly2017-03-25 08:47
http://www.hotnewdeal.com/2017/03/25/181631_15oz_Pepperidge_Farm_Milano_Cookie_Tub_Dark_Choc/20%Monthly2017-03-25 08:39
http://www.hotnewdeal.com/2017/03/25/181630_Portable_Digital_Tire_Inflator__Electric_12v_DC_P/20%Monthly2017-03-25 08:34
http://www.hotnewdeal.com/2017/03/25/181629_Juniors_SO_Ribbed_Henley_Tee_280_or_Womens_Tek/20%Monthly2017-03-25 08:12
http://www.hotnewdeal.com/2017/03/25/181628_Women_pajamas_starting_at_350_Walmart_free_Ship_/20%Monthly2017-03-25 07:18
http://www.hotnewdeal.com/2017/03/25/181627_HURRY_Energizer_123_Lithium_Battery_6Count_/20%Monthly2017-03-25 07:09
http://www.hotnewdeal.com/2017/03/25/181626_Plextor_1TB_NVME_PCIE_M2_Gen3x4_PX1TM8P3G_M8P__/20%Monthly2017-03-25 07:09
http://www.hotnewdeal.com/2017/03/25/181625_Best_Buy__Hasbro__Playmation_Marvel_Avengers_Gam/20%Monthly2017-03-25 06:09
http://www.hotnewdeal.com/2017/03/25/181624_Swagbucks_Schwans_Groceries__30_off_FREE_Del/20%Monthly2017-03-25 05:32
http://www.hotnewdeal.com/2017/03/25/181623_Universal_Windshield_Dashboard_120_inches_Long_Ar/20%Monthly2017-03-25 05:03
http://www.hotnewdeal.com/2017/03/25/181622_AudioTechnica_ATLP120_208_newegg/20%Monthly2017-03-25 04:29
http://www.hotnewdeal.com/2017/03/25/181621_Save_50_on_select_Olympus_Digital_SLR_Zuiko_lense/20%Monthly2017-03-25 04:08
http://www.hotnewdeal.com/2017/03/25/181620_Alamo__Drive_Out_Of_Florida_For_495Day/20%Monthly2017-03-25 02:09
http://www.hotnewdeal.com/2017/03/25/181619_Onkyo_TX_NR555_72_Channel_AV_Network_Receiver__/20%Monthly2017-03-25 01:30
http://www.hotnewdeal.com/2017/03/25/181618_Xenoblade_Chronicles_X_by_Nintendo_2997_at_games/20%Monthly2017-03-25 01:08
http://www.hotnewdeal.com/2017/03/25/181616_327_Aveeno_Daily_Moisturizing_Lotion_25_Fl_Oz/20%Monthly2017-03-25 01:08
http://www.hotnewdeal.com/2017/03/25/181615_Amazon_Family_Members_Exclusive_Pampers_Baby_Dry_/20%Monthly2017-03-25 01:08
http://www.hotnewdeal.com/2017/03/25/181614_DJI_Phantom_3_Professional_with_4K_Video_refurb_/20%Monthly2017-03-25 01:08
http://www.hotnewdeal.com/2017/03/25/181613_KitchenAid_KP26M1X_Pro_600_Stand_Mixer_315_with_K/20%Monthly2017-03-25 01:08
http://www.hotnewdeal.com/2017/03/25/181612_PSA_Amazon_will_collect_state_sales_taxes_nationw/20%Monthly2017-03-25 00:16
http://www.hotnewdeal.com/2017/03/24/181611_50Oz_Bestek_Double_Wall_Vacuum_Insulated_Stainles/20%Monthly2017-03-24 23:59
http://www.hotnewdeal.com/2017/03/24/181610_Oneida_20_Off_All_Glass_and_Metal_Bakeware__3_/20%Monthly2017-03-24 23:34
http://www.hotnewdeal.com/2017/03/24/181609_Denon_AVR_X4300H_for_799_Klipsch_RF82_II_for_2/20%Monthly2017-03-24 23:18
http://www.hotnewdeal.com/2017/03/24/181608_6Pack_of_50Piece_Mentos_Gum_Pure_Fresh_Mint_9/20%Monthly2017-03-24 22:41
http://www.hotnewdeal.com/2017/03/24/181607_Patriot_Torch_SE_25_256GB_SATA_III_SSD__62_wit/20%Monthly2017-03-24 22:41
http://www.hotnewdeal.com/2017/03/24/181606_Mackie_Mixers_Mackie_ProFX8v2_8Ch_120_Mackie_P/20%Monthly2017-03-24 22:41
http://www.hotnewdeal.com/2017/03/24/181605_Sigma_1750mm_f28_lens_for_Nikon_and_Canon__250/20%Monthly2017-03-24 22:33
http://www.hotnewdeal.com/2017/03/24/181604_Nike_Mens_Therma_Training_Hoodie_2625__free_sh/20%Monthly2017-03-24 22:33
http://www.hotnewdeal.com/2017/03/24/181603_GTBASSPRO_12_RECERTIFIED_Subwoofer_9999_fs_no_t/20%Monthly2017-03-24 22:00
http://www.hotnewdeal.com/2017/03/24/181602_LG_Electronics_OLED65B6P_65Inch_4K_Ultra_HD_Smart/20%Monthly2017-03-24 21:48
http://www.hotnewdeal.com/2017/03/24/181601_HTML5_Graphing__Data_Visualization_Cookbook_FREE/20%Monthly2017-03-24 21:48
http://www.hotnewdeal.com/2017/03/24/181600_Lightweight_5_tier_wire_utility_storage_rack_unit_/20%Monthly2017-03-24 21:44
http://www.hotnewdeal.com/2017/03/24/181599_Best_Buy_20_off_Open_Box_Major_Appliances_In_Stor/20%Monthly2017-03-24 21:18
http://www.hotnewdeal.com/2017/03/24/181598_Bag_of_100_4inch_Cable_Zip_Tie_133__Free_Prime/20%Monthly2017-03-24 20:39
http://www.hotnewdeal.com/2017/03/24/181597_iFi_micro_iDSD_Black_Label_Edition_39999_fs__ad/20%Monthly2017-03-24 20:39
http://www.hotnewdeal.com/2017/03/24/181596_CyberpowerPC_Cyber_C_Elite_300_MiniITX_i77700K_/20%Monthly2017-03-24 20:34
http://www.hotnewdeal.com/2017/03/24/181595_JJRC_H28C_RC_Quadcopter_Drone_with_20MP_Camera_2/20%Monthly2017-03-24 20:25
http://www.hotnewdeal.com/2017/03/24/181594_Rise_of_the_Tomb_Raider_20_Year_Celebration_PC_D/20%Monthly2017-03-24 20:18
http://www.hotnewdeal.com/2017/03/24/181593_Star_Wars_Decal_Set_1_with_DMA_code_from_Rogue_On/20%Monthly2017-03-24 20:18
http://www.hotnewdeal.com/2017/03/24/181592_Noosa_InStore_Coupon_for_Free_Noosa_Yoghurt/20%Monthly2017-03-24 19:59
http://www.hotnewdeal.com/2017/03/24/181591_Papa_Johns_50_Off_Coupon_Off_Pizzas_CODE_50DUNK/20%Monthly2017-03-24 19:49
http://www.hotnewdeal.com/2017/03/24/181590_Walmart_Ozark_Trail_45_Easy_Board_River_Tube_49/20%Monthly2017-03-24 19:36
http://www.hotnewdeal.com/2017/03/24/181589_Hyundai_offers_40_gift_card/20%Monthly2017-03-24 19:21
http://www.hotnewdeal.com/2017/03/24/181588_6PM_Womens_Kamik_Olivia_Charcoal_Boots_1799__F/20%Monthly2017-03-24 19:21
http://www.hotnewdeal.com/2017/03/24/181587_Polk_Signature_Speaker_Bundle_Pair_of_S50_Floors/20%Monthly2017-03-24 19:20
http://www.hotnewdeal.com/2017/03/24/181586_Denver_to_Los_Angeles_or_vice_versa_90_RT_on_Amer/20%Monthly2017-03-24 19:10
http://www.hotnewdeal.com/2017/03/24/181585_Pampers_Baby_Dry_Diapers_Size_2_222_Count_2815/20%Monthly2017-03-24 19:10
http://www.hotnewdeal.com/2017/03/24/181584_1089__deal_back_on_HP_OMEN_870090_Desktop_In/20%Monthly2017-03-24 18:56
http://www.hotnewdeal.com/2017/03/24/181583_Astro_Drone_6CH_24G_6Axis_with_2MP_HD_Camera_for/20%Monthly2017-03-24 18:47
http://www.hotnewdeal.com/2017/03/24/181582_Detroit_MI_or_Atlanta_GA_to_Aruba_329337_RT_Air/20%Monthly2017-03-24 18:47
http://www.hotnewdeal.com/2017/03/24/181581_Nutrisystem_100_eGift_Card_at_Costco_for_5499_/20%Monthly2017-03-24 18:47
http://www.hotnewdeal.com/2017/03/24/181580_Nintendo_Switch_back_in_stock_tomorrow_25_Mar_Toys/20%Monthly2017-03-24 18:08
http://www.hotnewdeal.com/2017/03/24/181578_Coleman_8_person_tent_Walmart_Reg_price_99_YMMV/20%Monthly2017-03-24 17:59
http://www.hotnewdeal.com/2017/03/24/181577_iXCC_3100mah_External_Battery_Charging_Case_for_iP/20%Monthly2017-03-24 17:59
http://www.hotnewdeal.com/2017/03/24/181576_iPhone_7_Plus_Battery_Case_on_sale_1999/20%Monthly2017-03-24 17:49
http://www.hotnewdeal.com/2017/03/24/181575_NetGear_Arlo_Pro_Security_System_w_1_HD_Camera_fo/20%Monthly2017-03-24 17:42
http://www.hotnewdeal.com/2017/03/24/181574_JEGS_Performance_LED_Flashlight_130_Lumens_2AA_/20%Monthly2017-03-24 17:34
http://www.hotnewdeal.com/2017/03/24/181572_Denon_72Ch_4K_AVRX2300W_AV_Receiver__Frys_Em/20%Monthly2017-03-24 17:09
http://www.hotnewdeal.com/2017/03/24/181571_Hertz_One_Way_from_FL_and_AZ_Mid_April_to_Mid_June/20%Monthly2017-03-24 17:09
http://www.hotnewdeal.com/2017/03/24/181570_PowerDrive_LLC_2000Watt_DC_to_AC_Power_Inverter_/20%Monthly2017-03-24 17:09
http://www.hotnewdeal.com/2017/03/24/181569_Digital_Movie_codes__Finding_Dory_10_Star_Wars_/20%Monthly2017-03-24 16:56
http://www.hotnewdeal.com/2017/03/24/181567_Phanteks_Enthoo_Evolv_Anthracite_Gray_140_Amazon/20%Monthly2017-03-24 16:56
http://www.hotnewdeal.com/2017/03/24/181566_March_Madness_Magazine_Sale_200_Titles_Mens_F/20%Monthly2017-03-24 16:56
http://www.hotnewdeal.com/2017/03/24/181565_32_Degrees_Mens_2pack_Cool_Tee_pack_for_8/20%Monthly2017-03-24 16:51
http://www.hotnewdeal.com/2017/03/24/181564_32GB_BLU_VIVO_5_Smartphone_55_4G_LTE_GSM_Unlock/20%Monthly2017-03-24 16:47
http://www.hotnewdeal.com/2017/03/24/181563_Graco_4ever_AllinOne_Car_Seat_170__Free_Shippi/20%Monthly2017-03-24 16:47
http://www.hotnewdeal.com/2017/03/24/181562_Mission_Impossible_Ghost_Protocol_Bluray__DVD/20%Monthly2017-03-24 16:47
http://www.hotnewdeal.com/2017/03/24/181561_Lenovo_Legion_Y520_Gaming_Laptop_i77700HQ_4GB_NVI/20%Monthly2017-03-24 16:24
http://www.hotnewdeal.com/2017/03/24/181560_10_Dominos_eGift_Card_for_5_at_Living_Social/20%Monthly2017-03-24 16:07
http://www.hotnewdeal.com/2017/03/24/181558_Insteon_Home_Automation_Starter_Kit__Monoprice__/20%Monthly2017-03-24 15:47
http://www.hotnewdeal.com/2017/03/24/181557_Samsung_Gear_S2_Classic_Water_Resistant_WiFi_Blue/20%Monthly2017-03-24 15:39
http://www.hotnewdeal.com/2017/03/24/181556_Manfrotto_Befree_One_Aluminum_UltraCompact_and_Li/20%Monthly2017-03-24 15:39
http://www.hotnewdeal.com/2017/03/24/181555_amiibo_Retro_3Pack__Only_at_GameStop__1097_F/20%Monthly2017-03-24 15:33
http://www.hotnewdeal.com/2017/03/24/181554_LG_27UD58B_27_4K_Ultra_HD_3840_x_2160_IPS_Free/20%Monthly2017-03-24 15:25
http://www.hotnewdeal.com/2017/03/24/181553_Amazon_Prime_Members_499_Digital_Movies_includin/20%Monthly2017-03-24 15:18
http://www.hotnewdeal.com/2017/03/24/181551_Michaels_Printable_Coupon_for_One_Regular_Priced_/20%Monthly2017-03-24 15:18
http://www.hotnewdeal.com/2017/03/24/181550_Salt_and_Sanctuary_Launches_March_28th_on_PSVita_/20%Monthly2017-03-24 15:08
http://www.hotnewdeal.com/2017/03/24/181549_Lenovo_Flex_4_156_Signature_Edition_2in1_FHD_I/20%Monthly2017-03-24 15:08
http://www.hotnewdeal.com/2017/03/24/181548_Brawny_PickaSize_Paper_Towels_16XL_1959_befo/20%Monthly2017-03-24 14:55
http://www.hotnewdeal.com/2017/03/24/181547_Vantrue_X2_25K_Super_HD_1440P_27_LCD_Car_Dashbo/20%Monthly2017-03-24 14:38
http://www.hotnewdeal.com/2017/03/24/181546_Panasonic_DMCG7_Mirrorless_Camera_w_1442mm_Lens/20%Monthly2017-03-24 14:23
http://www.hotnewdeal.com/2017/03/24/181545_Nioh_4019_with_season_pass_5359_season_pass_/20%Monthly2017-03-24 14:23
http://www.hotnewdeal.com/2017/03/24/181544_Amcrest__ProHD_Wireless_Camera_IP2M841B__63/20%Monthly2017-03-24 14:07
http://www.hotnewdeal.com/2017/03/24/181543_Kohls_Cardholders_Simple_Pleasures_Body_Care_Set_/20%Monthly2017-03-24 14:07
http://www.hotnewdeal.com/2017/03/24/181542_JBL_Studio_590_Loudspeakers_54999_each/20%Monthly2017-03-24 14:07
http://www.hotnewdeal.com/2017/03/24/181541_Corsair__Scimitar_RGB_MOBAMMO_Gaming_Mouse__Bla/20%Monthly2017-03-24 13:58
http://www.hotnewdeal.com/2017/03/24/181540_Killing_Floor_2_PC_Digital_Code_1499_via_Amazo/20%Monthly2017-03-24 13:58
http://www.hotnewdeal.com/2017/03/24/181539_RaleighDurham_NC_to_Paris_or_Spain_for_under_400/20%Monthly2017-03-24 13:47
http://www.hotnewdeal.com/2017/03/24/181538_Wilson_Profile_XLS_Mens_Golf_Package_Set_Red_Ri/20%Monthly2017-03-24 13:47
http://www.hotnewdeal.com/2017/03/24/181537_New_Microsoft_123_Surface_Pro_4_128GB_m3_MultiT/20%Monthly2017-03-24 13:47
http://www.hotnewdeal.com/2017/03/24/181536_Amazon_Family_Members_Pampers_Swaddlers_Diapers_/20%Monthly2017-03-24 13:39
http://www.hotnewdeal.com/2017/03/24/181535_Proozy_LifeStraw_Portable_Water_Filter__1399_P/20%Monthly2017-03-24 13:20
http://www.hotnewdeal.com/2017/03/24/181534_Moto_360_Sport_Smartwatch_White__9999_Black_10/20%Monthly2017-03-24 13:17
http://www.hotnewdeal.com/2017/03/24/181533_KitchenAid_KBMS1454BBL_24_Black_BuiltIn_Wall_Mic/20%Monthly2017-03-24 13:17
http://www.hotnewdeal.com/2017/03/24/181531_50_Taco_Bell_Gift_Cards_for_40_also_15_for_12_/20%Monthly2017-03-24 13:08
http://www.hotnewdeal.com/2017/03/24/181530_50_Nike_Gift_Card_Digital_Delivery__Bonus_10_/20%Monthly2017-03-24 13:08
http://www.hotnewdeal.com/2017/03/24/181529_Amazoncom_has_Sennheiser_HD_598_Cs_Closed_Back_He/20%Monthly2017-03-24 13:08
http://www.hotnewdeal.com/2017/03/24/181528_4Pack_of_500Count_QTips_Cotton_Swabs_844_or_L/20%Monthly2017-03-24 12:55
http://www.hotnewdeal.com/2017/03/24/181527_Killing_Floor_2_game_for_PC_at_Green_Man_Gaming__/20%Monthly2017-03-24 12:55
http://www.hotnewdeal.com/2017/03/24/181526_Converse_Kids_from_1498_Adults_Chuck_Taylor_All/20%Monthly2017-03-24 12:55
http://www.hotnewdeal.com/2017/03/24/181525_Xbox_One_Wireless_Controller_White_39__Free_Sh/20%Monthly2017-03-24 12:51
http://www.hotnewdeal.com/2017/03/24/181524_Amazon_250_or_less_wSS_for_METRx_NOS_Pumped_/20%Monthly2017-03-24 12:46
http://www.hotnewdeal.com/2017/03/24/181523_Crocs_Extra_50_Off_Clearance_Styles_Womens_from/20%Monthly2017-03-24 12:31
http://www.hotnewdeal.com/2017/03/24/181522_Nintendo_Switch__Amazon_299_Move_Quickly/20%Monthly2017-03-24 12:23
http://www.hotnewdeal.com/2017/03/24/181521_16GB_Black_Vue_DR650S_Series_2Channel_Dash_Camera/20%Monthly2017-03-24 12:23
http://www.hotnewdeal.com/2017/03/24/181520_Playstation_Store_Flash_Sale_Up_to_90_off_March_2/20%Monthly2017-03-24 12:16
http://www.hotnewdeal.com/2017/03/24/181519_The_Evil_Within__Season_Pass_PS4PSN__899/20%Monthly2017-03-24 12:07
http://www.hotnewdeal.com/2017/03/24/181517_Shark_Navigator_LiftAway_NV352_11342__Rotator_/20%Monthly2017-03-24 11:58
http://www.hotnewdeal.com/2017/03/24/181516_Sams_Club_has_Muscle_Rack_4Shelf_HeavyDuty_Steel/20%Monthly2017-03-24 11:47
http://www.hotnewdeal.com/2017/03/24/181515_Witcher_3_Wild_Hunt_Complete_Edition_PC_PS4_XB/20%Monthly2017-03-24 11:47
http://www.hotnewdeal.com/2017/03/24/181513_Corpse_Party_Nintendo_3DS_Digital_Download_199/20%Monthly2017-03-24 11:32
http://www.hotnewdeal.com/2017/03/24/181512_12Month_EA_Access_Subscription_Xbox_One_Digital_/20%Monthly2017-03-24 11:24
http://www.hotnewdeal.com/2017/03/24/181511_Scott_1000_Sheets_Per_Roll_Toilet_Paper_Bath_Tiss/20%Monthly2017-03-24 11:17
http://www.hotnewdeal.com/2017/03/24/181510_Camera_Creatures_Posing_Prop_1199__BH_Photo_w/20%Monthly2017-03-24 11:17
http://www.hotnewdeal.com/2017/03/24/181509_JCPenney_Friends__Family_Sale_Up_to_60_off__Ta/20%Monthly2017-03-24 11:17
http://www.hotnewdeal.com/2017/03/24/181508_Final_Fantasy_XV_Day_One_Edition_PS4_2851_on_Ama/20%Monthly2017-03-24 11:08
http://www.hotnewdeal.com/2017/03/24/181507_Diamondback_Bicycles_2016_Recoil_Complete_Full_Sus/20%Monthly2017-03-24 11:08
http://www.hotnewdeal.com/2017/03/24/181506_Kindle_Paperwhite_EReader_Used_Previous_Gen_fr/20%Monthly2017-03-24 11:08
http://www.hotnewdeal.com/2017/03/24/181505_HR_BLOCK_Tax_Software_DeluxeState_2016_Free_Pla/20%Monthly2017-03-24 10:55
http://www.hotnewdeal.com/2017/03/24/181504_Duluth_Mens_Buck_Naked_Underwear__16_with_free_/20%Monthly2017-03-24 10:23
http://www.hotnewdeal.com/2017/03/24/181503_Intex_Deluxe_Raised_Pillow_Rest_Air_Mattress_with_/20%Monthly2017-03-24 10:16
http://www.hotnewdeal.com/2017/03/24/181502_Samsung_70_Inch_4K_Ultra_HD_Smart_TV_UN70KU6300F_U/20%Monthly2017-03-24 10:07
http://www.hotnewdeal.com/2017/03/24/181501_Canon_G7_X_Mark_II_201MP_Digital_Camera__590__/20%Monthly2017-03-24 09:47
http://www.hotnewdeal.com/2017/03/24/181500_ETERNITY_for_Men_by_CALVIN_KLEIN_34_oz_edt_New_te/20%Monthly2017-03-24 09:24
http://www.hotnewdeal.com/2017/03/24/181499_600W_Zalman_LE_Series_Power_Supply_20__Free_Ship/20%Monthly2017-03-24 09:24
http://www.hotnewdeal.com/2017/03/24/181498_Acer_27_60hz_WQHD_screen_K272HUL_Ebmidpx__200_/20%Monthly2017-03-24 09:09
http://www.hotnewdeal.com/2017/03/24/181497_Prime_Exclusive_Preorder_Android_Nougat_Unlocked_/20%Monthly2017-03-24 08:47
http://www.hotnewdeal.com/2017/03/24/181496_Costco_Klymit_Static_V2_Sleeping_Pad_with_Pillow_/20%Monthly2017-03-24 08:32
http://www.hotnewdeal.com/2017/03/24/181495_Dell_Inspiron_15_Laptop_156_Screen_Intel_Cor/20%Monthly2017-03-24 08:25
http://www.hotnewdeal.com/2017/03/24/181494_Polaroid_Cube_HD_1080p_Lifestyle_Action_Video_Came/20%Monthly2017-03-24 07:48
http://www.hotnewdeal.com/2017/03/24/181492_Adobe_Photoshop_Elements_15__Premiere_Elements_15/20%Monthly2017-03-24 07:40
http://www.hotnewdeal.com/2017/03/24/181491_10_Patio_Offset_Hanging_Umbrella_3600__fs_eba/20%Monthly2017-03-24 07:26
http://www.hotnewdeal.com/2017/03/24/181490_MCR_My_Coke_Rewards__free_large_popcorn_at_AMC_Th/20%Monthly2017-03-24 07:19
http://www.hotnewdeal.com/2017/03/24/181489_Denon_AVRS510BT_52_Channel_Full_4K_Ultra_HD_AV_R/20%Monthly2017-03-24 07:09
http://www.hotnewdeal.com/2017/03/24/181488_Fiskars_21_Bow_Saw__415__Walmart/20%Monthly2017-03-24 06:03
http://www.hotnewdeal.com/2017/03/24/181487_8Bit_Link_Zelda_Series_amiibo_Wii_U__Walmart_B/20%Monthly2017-03-24 05:29
http://www.hotnewdeal.com/2017/03/24/181486_ASUS_Transformer_Book_Flip_TP301UA_133_Ultra_Sli/20%Monthly2017-03-24 05:24
http://www.hotnewdeal.com/2017/03/24/181484_Asus_Transformer_Book_Flip_133_1080P_IPS_Touch_/20%Monthly2017-03-24 04:29
http://www.hotnewdeal.com/2017/03/24/181483_Best_Buy__SanDisk__Ultra_Fit_128GB_USB_30_Type_/20%Monthly2017-03-24 04:08
http://www.hotnewdeal.com/2017/03/24/181482_5_Off_for_Rogue_One_on_FandangoNOW_1499_AC/20%Monthly2017-03-24 03:25
http://www.hotnewdeal.com/2017/03/24/181480_Logitech_Harmony_Smart_Control_w_Harmony_Hub_69/20%Monthly2017-03-24 02:10
http://www.hotnewdeal.com/2017/03/24/181479_Nike_Mens_Court_Lite_Tennis_Shoes_30__free_ship/20%Monthly2017-03-24 01:31
http://www.hotnewdeal.com/2017/03/24/181478_ATT_ZTE_Mobley_Unlimited_4G_LTE_20_per_month_YMM/20%Monthly2017-03-24 01:31
http://www.hotnewdeal.com/2017/03/24/181477_Nikon_D7200_refurb_w_1855mm_VR_II_Lens_720__8/20%Monthly2017-03-24 01:31
http://www.hotnewdeal.com/2017/03/24/181476_ASUS_ROG_156_IPS_960M_16GB_DDR4_i76700HQ_128SS/20%Monthly2017-03-24 01:31
http://www.hotnewdeal.com/2017/03/24/181475_Clarisonic_Mia2_Sonic_Cleansing_System__5_Brush/20%Monthly2017-03-24 01:31
http://www.hotnewdeal.com/2017/03/24/181474_ZELOTES_Ergonomic_Wired_Gamer_Mouse_7200DPI_High_/20%Monthly2017-03-24 01:24
http://www.hotnewdeal.com/2017/03/24/181473_Swagbucks_2Months_Gamefly_Video_Game_Rental_Serv/20%Monthly2017-03-24 01:10
http://www.hotnewdeal.com/2017/03/24/181472_Nike_Coupon_Additional_25_Off_Clearance__Free_S/20%Monthly2017-03-24 01:10
http://www.hotnewdeal.com/2017/03/24/181471_SummerGames_Bowling_Pass_3_Games_of_Bowling_Adul/20%Monthly2017-03-24 01:10
http://www.hotnewdeal.com/2017/03/24/181470_Loot_Anime_Crate_50_off_up_to_3_month_subscriptio/20%Monthly2017-03-24 01:09
http://www.hotnewdeal.com/2017/03/24/181469_2_Queen_Gel_Memory_Foam_Mattress_Topper_with_Cov/20%Monthly2017-03-24 01:09
http://www.hotnewdeal.com/2017/03/24/181468_Schwinn_Mens_Trailway_28700c_Hybrid_Bike__74/20%Monthly2017-03-24 00:17
http://www.hotnewdeal.com/2017/03/23/181467_Dell_UltraSharp_32_8K_Monitor_UP3218K_4999/20%Monthly2017-03-23 23:59
http://www.hotnewdeal.com/2017/03/23/181465_Jaybird_X2_Sport_Wireless_Bluetooth_Headphones_70/20%Monthly2017-03-23 23:43
http://www.hotnewdeal.com/2017/03/23/181464_VTech_3Handset_DECT_60_Expandable_Cordless_Phone/20%Monthly2017-03-23 23:20
http://www.hotnewdeal.com/2017/03/23/181463_Hamilton_Beach_Professional_6_Qt_Sous_Vide__Slow/20%Monthly2017-03-23 22:47
http://www.hotnewdeal.com/2017/03/23/181462_Atom_Movie_Ticket_Sabans_Power_Rangers_Free_Sel/20%Monthly2017-03-23 22:25
http://www.hotnewdeal.com/2017/03/23/181461_Nintendo_Switch_Pro_Controller_In_Stock_at_AAFES_/20%Monthly2017-03-23 22:25
http://www.hotnewdeal.com/2017/03/23/181460_Storm_Trooper_Keychain_010__free_shipping/20%Monthly2017-03-23 22:08
http://www.hotnewdeal.com/2017/03/23/181459_Oxford_NY_Mens_French_Terry_Hoodie_577_Prime_Sh/20%Monthly2017-03-23 21:50
http://www.hotnewdeal.com/2017/03/23/181458_sears_craftsman_c3_cordless_192v_12_impact_wren/20%Monthly2017-03-23 21:49
http://www.hotnewdeal.com/2017/03/23/181457_Duromax_4850EH_Hybrid_Portable_Dual_Fuel_Propane_/20%Monthly2017-03-23 21:42
http://www.hotnewdeal.com/2017/03/23/181456_Craftsman_Fiberglass_Long_Handle_Digging_Shovel__/20%Monthly2017-03-23 21:35
http://www.hotnewdeal.com/2017/03/23/181455_US_Mattress_Closeout_Sale_Sealy_Posturepedic_Quee/20%Monthly2017-03-23 21:26
http://www.hotnewdeal.com/2017/03/23/181454_150_Hansgrohe_Talis_M_Pull_Down_Kitchen_Faucet__/20%Monthly2017-03-23 21:19
http://www.hotnewdeal.com/2017/03/23/181453_XFX_Radeon_RX_480_8_GB_256Bit_GDDR5_PCI_Express_3/20%Monthly2017-03-23 21:13
http://www.hotnewdeal.com/2017/03/23/181452_USB_LED_Light_Strip_with_Velcro_tape_with_Remote_C/20%Monthly2017-03-23 21:09
http://www.hotnewdeal.com/2017/03/23/181451_314__FS_Nintendo_Switch_Screen_Protector_2x/20%Monthly2017-03-23 20:47
http://www.hotnewdeal.com/2017/03/23/181450_Quantum_Leap_The_Complete_Series_Bluray_3999/20%Monthly2017-03-23 20:47
http://www.hotnewdeal.com/2017/03/23/181449_Kleenguard_Liquid__Particle_Protection_Coveralls_/20%Monthly2017-03-23 20:17
http://www.hotnewdeal.com/2017/03/23/181448_Free_ticket_to_POwer_Rangers_Movie_through_ATOM_MO/20%Monthly2017-03-23 19:48
http://www.hotnewdeal.com/2017/03/23/181447_Free_Smart_Home_Consultation_in_Select_Areas_from_/20%Monthly2017-03-23 19:41
http://www.hotnewdeal.com/2017/03/23/181446_Vinyl_Free_18_Deep_Pocket_Waterproof_Mattress_Pro/20%Monthly2017-03-23 19:34
http://www.hotnewdeal.com/2017/03/23/181445_Amazon_Family_Members__Buy_3_select_sensitive_ski/20%Monthly2017-03-23 19:25
http://www.hotnewdeal.com/2017/03/23/181444_16GB_ZTE_Trek_2_HD_K88_WiFi_GSM_ATT_Unlocked_8_/20%Monthly2017-03-23 19:18
http://www.hotnewdeal.com/2017/03/23/181443_Mizuno_Mens_Wave_Rider_18_Running_Shoe_blackred/20%Monthly2017-03-23 19:18
http://www.hotnewdeal.com/2017/03/23/181442_Lululemon_Womens_Vinyasa_Wrap_29_Mens_Snap_Goo/20%Monthly2017-03-23 19:09
http://www.hotnewdeal.com/2017/03/23/181441_PSA_TMobile_changes_Prepaid_Plans_on_March_26_W/20%Monthly2017-03-23 19:09
http://www.hotnewdeal.com/2017/03/23/181440_KAWO_Interactive_Musical_Sound_Effect_Hammer_Toy/20%Monthly2017-03-23 19:09
http://www.hotnewdeal.com/2017/03/23/181439_Raisecom__10_off_already_discounted_Gift_Cards/20%Monthly2017-03-23 18:47
http://www.hotnewdeal.com/2017/03/23/181438_Bioshock_The_Collection_on_Humble_Bundle_for_14/20%Monthly2017-03-23 18:47
http://www.hotnewdeal.com/2017/03/23/181437_PlayStation_4_Slim_500GB_Console_Uncharted_4Bundle/20%Monthly2017-03-23 18:39
http://www.hotnewdeal.com/2017/03/23/181436_Nikon_D7200_242MP_Digital_SLR_Certified_Refurb_6/20%Monthly2017-03-23 18:39
http://www.hotnewdeal.com/2017/03/23/181435_Dell_Insprion_13_7378_2in1_133_1080P_IPS_Touch/20%Monthly2017-03-23 18:24
http://www.hotnewdeal.com/2017/03/23/181434_Poetic_Karbon_Shield_Slim_Fit_TPU_Case_for_LG_G6_o/20%Monthly2017-03-23 18:24
http://www.hotnewdeal.com/2017/03/23/181433_Muscle_Pharm_Combat_Cookies__Cream_Protein_Powder/20%Monthly2017-03-23 18:17
http://www.hotnewdeal.com/2017/03/23/181432_48_Hitachi_48C6_4K_UHD_LED_HDTV_24999__Free_Sh/20%Monthly2017-03-23 18:17
http://www.hotnewdeal.com/2017/03/23/181431_Bosch_45in_18Volt_Cordless_Angle_Grinder_3799/20%Monthly2017-03-23 17:59
http://www.hotnewdeal.com/2017/03/23/181430_51_Off_Multifunction_Large_Diaper_Tote_Bag_with_P/20%Monthly2017-03-23 17:59
http://www.hotnewdeal.com/2017/03/23/181429_HP_Spectre_x2_12a009nr_Detachable_Touch_Laptop_M5/20%Monthly2017-03-23 17:48
http://www.hotnewdeal.com/2017/03/23/181428_Price_mistake_Samsonite_28_Sahora_Brights_Spinne/20%Monthly2017-03-23 17:40
http://www.hotnewdeal.com/2017/03/23/181427_30count_Playtex_Nitrile_Gloves_143_or_lower__F/20%Monthly2017-03-23 17:40
http://www.hotnewdeal.com/2017/03/23/181426_HORI_Real_Arcade_Pro_4_Kai_for_PlayStation_4_Play/20%Monthly2017-03-23 17:40
http://www.hotnewdeal.com/2017/03/23/181425_Duck_Brand_Auto_Electrical_Tape__Single_Roll__88/20%Monthly2017-03-23 17:33
http://www.hotnewdeal.com/2017/03/23/181424_GIGABYTE_BRIX_GBBSi56200_Mini_Barebones_Kit_on_s/20%Monthly2017-03-23 17:25
http://www.hotnewdeal.com/2017/03/23/181423_Cardcash_Additional_6_off_Walgreens_up_to_1567/20%Monthly2017-03-23 17:25
http://www.hotnewdeal.com/2017/03/23/181422_Garmin_nuvi_67LM_7920_AC__FS/20%Monthly2017-03-23 17:18
http://www.hotnewdeal.com/2017/03/23/181421_Costco_Members_Samsung_55_8_Series_4K_SUHD_LED_L/20%Monthly2017-03-23 17:09
http://www.hotnewdeal.com/2017/03/23/181420_AudioTechnica_ATLP120USB_DirectDrive_Turntable/20%Monthly2017-03-23 16:56
http://www.hotnewdeal.com/2017/03/23/181419_DuPont_Tychem_Suit_1222_each_sold_in_pack_of_4_o/20%Monthly2017-03-23 16:47
http://www.hotnewdeal.com/2017/03/23/181418_Miami_to_Bogota_Colombia_299_RT_on_LATAM_Airline/20%Monthly2017-03-23 16:47
http://www.hotnewdeal.com/2017/03/23/181416_32GB_LG_G_Pad_X_80_V520_8_ATT_GSM_Unlocked_Tabl/20%Monthly2017-03-23 16:17
http://www.hotnewdeal.com/2017/03/23/181415_EveryDrop_Ice__Water_Refrigerator_Filter_3_1498/20%Monthly2017-03-23 16:17
http://www.hotnewdeal.com/2017/03/23/181414_Google_Home_Microcenter_for_99_instore_Pickup_onl/20%Monthly2017-03-23 16:08
http://www.hotnewdeal.com/2017/03/23/181413_Klipsch_ProMedia_21_THX_Speaker_System_w_Subwoof/20%Monthly2017-03-23 15:48
http://www.hotnewdeal.com/2017/03/23/181412_Acer_Small_Desktop_Computer_Intel_Core_i34170T_/20%Monthly2017-03-23 15:48
http://www.hotnewdeal.com/2017/03/23/181411_HP_Pavilion_25vx_25_IPS_LED_1080p_Backlit_Monitor_/20%Monthly2017-03-23 15:40
http://www.hotnewdeal.com/2017/03/23/181410_Samsung_Gear_VR_2016_Latest_Edition_Virtual_Realit/20%Monthly2017-03-23 15:40
http://www.hotnewdeal.com/2017/03/23/181409_Naturalizer_Coupon_30_Off_Sitewide_Handbags_and/20%Monthly2017-03-23 15:40
http://www.hotnewdeal.com/2017/03/23/181408_8Port_TPLINK_TLSG1008D_Unmanaged_Gigabit_Deskto/20%Monthly2017-03-23 15:33
http://www.hotnewdeal.com/2017/03/23/181407_Klipsch_12_300Watt_Home_Subwoofer_SUB12HG__1/20%Monthly2017-03-23 15:09
http://www.hotnewdeal.com/2017/03/23/181406_3TB_Hitachi_Ultrastar_7K4000_HUS724030ALE641_64MB_/20%Monthly2017-03-23 15:09
http://www.hotnewdeal.com/2017/03/23/181405_3Pack_of_Fruit_Of_The_Loom_Boxer_Briefs_in_L_or_X/20%Monthly2017-03-23 15:09
http://www.hotnewdeal.com/2017/03/23/181403_NETGEAR_Orbi_RBK50_HighPerformance_AC3000_TriBan/20%Monthly2017-03-23 15:04
http://www.hotnewdeal.com/2017/03/23/181402_Singer_Iron_On_Repair_Kit_152_w_Free_Walmart_Pi/20%Monthly2017-03-23 14:47
http://www.hotnewdeal.com/2017/03/23/181401_Boston_Market_buy_Individual_Meal__drink__get_in/20%Monthly2017-03-23 14:47
http://www.hotnewdeal.com/2017/03/23/181400_Disposable_Underarm_Dress_Shields_2pk_809_or_5p/20%Monthly2017-03-23 14:33
http://www.hotnewdeal.com/2017/03/23/181399_Hitachi_NR90GC2_Gas_Powered_Framing_Nailer_Grade_/20%Monthly2017-03-23 14:33
http://www.hotnewdeal.com/2017/03/23/181398_10Foot_USB_A_to_USB_B_Printer_Cable_169__Fre/20%Monthly2017-03-23 14:33
http://www.hotnewdeal.com/2017/03/23/181397_BESTEK_600A_Peak_10000mAh_Car_Battery_Charger__Ju/20%Monthly2017-03-23 14:24
http://www.hotnewdeal.com/2017/03/23/181396_Corsair_CX750M_750_Watt_ATX_Modular_Power_Supply_/20%Monthly2017-03-23 14:24
http://www.hotnewdeal.com/2017/03/23/181395_PCDD_Insurgency_for_Steam_100/20%Monthly2017-03-23 14:08
http://www.hotnewdeal.com/2017/03/23/181394_Zikee_Laptop_Sleeves_Starting_at_133_for_519_/20%Monthly2017-03-23 14:08
http://www.hotnewdeal.com/2017/03/23/181393_adidas_Golf_Extra_25_Off_Sale_Items__Extra_20_/20%Monthly2017-03-23 13:59
http://www.hotnewdeal.com/2017/03/23/181392_Bravely_Second_3DS_2000_brand_new_from_Nintendo_/20%Monthly2017-03-23 13:59
http://www.hotnewdeal.com/2017/03/23/181391_Disneys_Beauty_and_the_Beast_BluRay_10NF_3D_15/20%Monthly2017-03-23 13:59
http://www.hotnewdeal.com/2017/03/23/181390_Tilllys_50_Off_Sale_Coastal_Ride_Mens_Flannel_Sh/20%Monthly2017-03-23 13:27
http://www.hotnewdeal.com/2017/03/23/181389_Lotos_200_Amp_ACDC_TIG_Welder_with_Foot_Pedal_54/20%Monthly2017-03-23 13:26
http://www.hotnewdeal.com/2017/03/23/181388_PSA_Free_Titanfall_2_Trial_PS4/20%Monthly2017-03-23 13:09
http://www.hotnewdeal.com/2017/03/23/181387_12_Month_Xbox_Live_Gold_Membership_Xbox_One360_/20%Monthly2017-03-23 12:56
http://www.hotnewdeal.com/2017/03/23/181385_Backpacker_or_Outside_Magazine_499yr_Plus_Fre/20%Monthly2017-03-23 12:48
http://www.hotnewdeal.com/2017/03/23/181384_Bright_Starts_Lights__Sounds_Funpad_Musical_Toy_/20%Monthly2017-03-23 12:48
http://www.hotnewdeal.com/2017/03/23/181383_Top_Metal_Albums_in_iTunes_on_sale_499599/20%Monthly2017-03-23 12:40
http://www.hotnewdeal.com/2017/03/23/181382_Rockwell_RK7323_Blade_Runner_X2_Portable_Tabletop_/20%Monthly2017-03-23 12:33
http://www.hotnewdeal.com/2017/03/23/181381_Melitta_Cone_Filter_Coffeemaker_with_10_Cup_glass_/20%Monthly2017-03-23 12:33
http://www.hotnewdeal.com/2017/03/23/181380_Link_from_Ocarina_of_Time_Zelda_Series_amiibo_Wii/20%Monthly2017-03-23 12:25
http://www.hotnewdeal.com/2017/03/23/181379_Nike_Metcon_3_for_7595__Select_Colors_On_Sale_/20%Monthly2017-03-23 12:25
http://www.hotnewdeal.com/2017/03/23/181378_3_Pack_Portable_Outdoor_LED_Lantern_with_9_AA_Batt/20%Monthly2017-03-23 12:25
http://www.hotnewdeal.com/2017/03/23/181377_SYWR__Get_15_back_in_points_for_spending_30_at_/20%Monthly2017-03-23 12:25
http://www.hotnewdeal.com/2017/03/23/181376_UNLIMITED_Usenet_for_6_months_35_Yearly_60__Ne/20%Monthly2017-03-23 12:08
http://www.hotnewdeal.com/2017/03/23/181375_Mens_Adidas_Adilette_Training_Supercloud_Plus_Sli/20%Monthly2017-03-23 12:08
http://www.hotnewdeal.com/2017/03/23/181374_Lightning_Deal_47_Off_CellBee_Wireless_Bluetoot/20%Monthly2017-03-23 12:00
http://www.hotnewdeal.com/2017/03/23/181373_ShutterflyCustom_Phone_Case_999_Mouse_Pad_69/20%Monthly2017-03-23 11:59
http://www.hotnewdeal.com/2017/03/23/181372_Garadget__open_source_smart_garage_door_controlle/20%Monthly2017-03-23 11:59
http://www.hotnewdeal.com/2017/03/23/181371_Milwaukee_12v_fuel_brushless_drillimpact_set_169/20%Monthly2017-03-23 11:54
http://www.hotnewdeal.com/2017/03/23/181370_16ft_RGB_300_LED_Waterproof_LED_Light_Strip_333/20%Monthly2017-03-23 11:49
http://www.hotnewdeal.com/2017/03/23/181369_Xbox_Games_w_Gold_Ryse_Son_of_Rome__The_Walkin/20%Monthly2017-03-23 11:42
http://www.hotnewdeal.com/2017/03/23/181368_Haier_SWR_Pathfinder_Vacuum_Cleaner_Robot_87__fr/20%Monthly2017-03-23 11:41
http://www.hotnewdeal.com/2017/03/23/181367_Full_Motion_TV_Wall_Mount_for_1050_TVs_with_Til/20%Monthly2017-03-23 11:41
http://www.hotnewdeal.com/2017/03/23/181366_Ghostbusters_Answer_the_Call_Bluray_Includes_/20%Monthly2017-03-23 11:41
http://www.hotnewdeal.com/2017/03/23/181365_THERMOS_FOOGO_Vacuum_Insulated_Stainless_Steel_10/20%Monthly2017-03-23 11:41
http://www.hotnewdeal.com/2017/03/23/181363_Grand_Theft_Auto_V_Xbox_One_2799__Free_Shippi/20%Monthly2017-03-23 11:34
http://www.hotnewdeal.com/2017/03/23/181362_eBay_Home__Garden_Coupon_20_Off_25/20%Monthly2017-03-23 11:19
http://www.hotnewdeal.com/2017/03/23/181361_6_Upstar_ZP1024_4K_Ultra_HD_HDMI_Cable_with_Ethe/20%Monthly2017-03-23 11:19
http://www.hotnewdeal.com/2017/03/23/181360_Free_500_KrisFlyer_Miles__Singapore_Airlines_Freq/20%Monthly2017-03-23 11:19
http://www.hotnewdeal.com/2017/03/23/181359_Pentel_GraphGear_500_Automatic_Drafting_Pencil_Bla/20%Monthly2017-03-23 11:19
http://www.hotnewdeal.com/2017/03/23/181358_Target_Apple_watch_Series_1_38MM__42MM_on_Sale_/20%Monthly2017-03-23 11:10
http://www.hotnewdeal.com/2017/03/23/181357_5_Needle_Nose_Pliers_263__Free_Prime_Shipping_/20%Monthly2017-03-23 11:10
http://www.hotnewdeal.com/2017/03/23/181356_6Pack_Pentel_EnerGel_Deluxe_Gel_Ink_Pens_Colors_o/20%Monthly2017-03-23 10:56
http://www.hotnewdeal.com/2017/03/23/181355_Nikon_D5600_Digital_SLR_Camera__Nikkor_1855mm_VR/20%Monthly2017-03-23 10:48
http://www.hotnewdeal.com/2017/03/23/181354_Fire_Emblem_Echoes_Limited_Edition_for_3DS_48_shi/20%Monthly2017-03-23 10:43
http://www.hotnewdeal.com/2017/03/23/181353_Microsoft_123_Surface_Pro_4_128GB_i5_m3_Multi_To/20%Monthly2017-03-23 10:27
http://www.hotnewdeal.com/2017/03/23/181352_Black__Decker_16V_Max_LithiumIon_Cordless_Dust_B/20%Monthly2017-03-23 10:25
http://www.hotnewdeal.com/2017/03/23/181351_WiFi_7_Day_Smart_Programmable_Thermostat_Works_w/20%Monthly2017-03-23 10:18
http://www.hotnewdeal.com/2017/03/23/181350_LEGO_and_Knex_Sets_50_Off__Military_Only_MyN/20%Monthly2017-03-23 10:08
http://www.hotnewdeal.com/2017/03/23/181349_Oris_Big_Crown_Date_Pointer_Automatic_Watch_495_/20%Monthly2017-03-23 10:08
http://www.hotnewdeal.com/2017/03/23/181348_35M_Rigid_Borescope_Adjustable_Brightness_6LED_mi/20%Monthly2017-03-23 09:59
http://www.hotnewdeal.com/2017/03/23/181346_Shark_Professional_Steam_Pocket_Mop_refurbished_/20%Monthly2017-03-23 09:27
http://www.hotnewdeal.com/2017/03/23/181345_2_TB_Seagate_FireCuda_Gaming_SSHD_SATA_III_25_In/20%Monthly2017-03-23 09:19
http://www.hotnewdeal.com/2017/03/23/181344_West_Marine_has_Okuma_Fishing_Reels_and_Rods_40_o/20%Monthly2017-03-23 09:19
http://www.hotnewdeal.com/2017/03/23/181343_Dell__Inspiron_156_TouchScreen_Laptop__Intel_/20%Monthly2017-03-23 09:09
http://www.hotnewdeal.com/2017/03/23/181342_Schwinn_Interval_Jogging_Stroller_9988_wFS/20%Monthly2017-03-23 09:09
http://www.hotnewdeal.com/2017/03/23/181340_Home_Depot_Sportsman_generators_2000_watt_150_40/20%Monthly2017-03-23 08:56
http://www.hotnewdeal.com/2017/03/23/181339_Lenovo_IdeaPad_510s_Laptop_14_Screen_Intel_Co/20%Monthly2017-03-23 08:48
http://www.hotnewdeal.com/2017/03/23/181338_Bars_Leaks_Engine_Oil_Stop_Leak_Concentrate_151/20%Monthly2017-03-23 08:34
http://www.hotnewdeal.com/2017/03/23/181337_MetRX_Extreme_NOS_Pumped_Drink_12_count_add_on_ite/20%Monthly2017-03-23 08:08
http://www.hotnewdeal.com/2017/03/23/181336_Audible__2_books_for_1_credit_sale_through_3291/20%Monthly2017-03-23 08:08
http://www.hotnewdeal.com/2017/03/23/181335_Symantec_Norton_Security_5_PC_23_AC__ESET_Smart_/20%Monthly2017-03-23 07:48
http://www.hotnewdeal.com/2017/03/23/181334_750W_EVGA_SuperNOVA_750_G2_220G20750XR_80_GOLD/20%Monthly2017-03-23 07:19
http://www.hotnewdeal.com/2017/03/23/181333_Hitachi_10in_15Amp_Bevel_Compound_Miter_Saw_109/20%Monthly2017-03-23 07:10
http://www.hotnewdeal.com/2017/03/23/181332_Amazon_H9_24GHz_Backlit_Wireless_Keyboard_Mouse_R/20%Monthly2017-03-23 07:10
http://www.hotnewdeal.com/2017/03/23/181330_Digital_Game_Codes_Ratchet__Clank_Collection_Bun/20%Monthly2017-03-23 05:09
http://www.hotnewdeal.com/2017/03/23/181329_Dyson__V6_Total_Clean_Bagless_Cordless_Hand_Vac_/20%Monthly2017-03-23 04:30
http://www.hotnewdeal.com/2017/03/23/181328_Prime_eligible_TANGCHU_29_piece_Russian_Stainless/20%Monthly2017-03-23 04:30
http://www.hotnewdeal.com/2017/03/23/181327_4Pack_8_x_50_200_feet_VacuumSeal_Rolls_12_/20%Monthly2017-03-23 04:10
http://www.hotnewdeal.com/2017/03/23/181326_Craftsman_21_Bow_Saw_499__Free_Store_Pickup__/20%Monthly2017-03-23 04:09
http://www.hotnewdeal.com/2017/03/23/181325_Adobe_Photoshop_Elements_15__Premiere_Elements_15/20%Monthly2017-03-23 04:09
http://www.hotnewdeal.com/2017/03/23/181323_Logitech_MK270_FullSize_Wireless_Keyboard_and_Mou/20%Monthly2017-03-23 03:10
http://www.hotnewdeal.com/2017/03/23/181322_Prime_Nintendo_Pikachu_Yellow_Edition_New_Nintend/20%Monthly2017-03-23 03:10
http://www.hotnewdeal.com/2017/03/23/181321_price_error_1596_normal_75_for_Romance_Packag/20%Monthly2017-03-23 02:09
http://www.hotnewdeal.com/2017/03/23/181320_Vudu_HD_copies_by_scanning_DVDBluray_barcode_/20%Monthly2017-03-23 01:09
http://www.hotnewdeal.com/2017/03/23/181319_Lowes_Another_Wall_Tile_Deal_Save_75_YMMV/20%Monthly2017-03-23 01:09
http://www.hotnewdeal.com/2017/03/23/181318_Tokina_1228mm_f40_ATX_Pro_APSC_Lens_for_Canon/20%Monthly2017-03-23 01:09
http://www.hotnewdeal.com/2017/03/23/181317_CCI_Blazer_Brass_9mm_Luger_115_Grain_Full_Metal_Ja/20%Monthly2017-03-23 01:09
http://www.hotnewdeal.com/2017/03/23/181316_Just_Mobile_Phone_Cases_for_iPhone_6iPhone_6_Plus/20%Monthly2017-03-23 01:09
http://www.hotnewdeal.com/2017/03/23/181315_Samsung_27_Black_Curved_LED_1920x1080_144hz_169_/20%Monthly2017-03-23 01:09
http://www.hotnewdeal.com/2017/03/22/181314_Prime_Members_Optimum_Nutrition_and_BSN_Sample_Bo/20%Monthly2017-03-22 23:59
http://www.hotnewdeal.com/2017/03/22/181313_Klipsch_Reference_Speaker_Bundle_pair_Klipsch_R/20%Monthly2017-03-22 23:59
http://www.hotnewdeal.com/2017/03/22/181312_Reebok_Outlet_Coupon_for_Additional_50_Off__Men/20%Monthly2017-03-22 23:59
http://www.hotnewdeal.com/2017/03/22/181310_Mohu_MH110543_Leaf_Metro_Antenna/20%Monthly2017-03-22 23:19
http://www.hotnewdeal.com/2017/03/22/181309_30_Count_Zone_Perfect_Nutrition_Bars__Chocolate_M/20%Monthly2017-03-22 22:56
http://www.hotnewdeal.com/2017/03/22/181308_RGB_LED_TV_Backlighting_Kit__USB_powered__749_/20%Monthly2017-03-22 22:48
http://www.hotnewdeal.com/2017/03/22/181307_Atom_Tickets_Free_Power_Rangers_Movie_Ticket/20%Monthly2017-03-22 22:28
http://www.hotnewdeal.com/2017/03/22/181306_PlayStation_4_Slim_500GB_Console_COD_IW_Bundle_Re/20%Monthly2017-03-22 22:18
http://www.hotnewdeal.com/2017/03/22/181305_Mens_Ugly_Christmas_Sweater__3__Rue21/20%Monthly2017-03-22 22:08
http://www.hotnewdeal.com/2017/03/22/181304_California_Car_Duster_Original_Mini_Duster_or_Dash/20%Monthly2017-03-22 22:08
http://www.hotnewdeal.com/2017/03/22/181303_WindProof_Rain_Umbrella_Outdoor_Black_Umbrella_Fo/20%Monthly2017-03-22 22:08
http://www.hotnewdeal.com/2017/03/22/181302_Starbucks_Grande_Coffee__Sandwich_5/20%Monthly2017-03-22 21:59
http://www.hotnewdeal.com/2017/03/22/181301_Overwatch__Collectors_Edition__PC_6999_Amazon/20%Monthly2017-03-22 21:59
http://www.hotnewdeal.com/2017/03/22/181300_Cuisinart_EM100_15Bar_Stainless_Steel_Espresso_M/20%Monthly2017-03-22 21:59
http://www.hotnewdeal.com/2017/03/22/181299_Copper_Hand_Spinner_6__Free_shipping/20%Monthly2017-03-22 21:54
http://www.hotnewdeal.com/2017/03/22/181298_Home_Automation_Sale_up_to_66_off_for_Zigbee_/20%Monthly2017-03-22 21:48
http://www.hotnewdeal.com/2017/03/22/181297_Shimano_Curado_I_Series_LowProfile_Baitcast_Reel_/20%Monthly2017-03-22 21:40
http://www.hotnewdeal.com/2017/03/22/181296_Amazon_7199_Amcrest_ProHD_1080P_POE_Power_Over/20%Monthly2017-03-22 21:25
http://www.hotnewdeal.com/2017/03/22/181295_Free_Nike_Shirt_with_Nike_Plus_Account/20%Monthly2017-03-22 21:09
http://www.hotnewdeal.com/2017/03/22/181294_CYLEN_HOME__Memory_Foam_Bamboo_Charcoal_Infused_S/20%Monthly2017-03-22 21:09
http://www.hotnewdeal.com/2017/03/22/181293_CHOETECH_50W_6Port_USB_Charging_Station_w_2_QC_3/20%Monthly2017-03-22 20:48
http://www.hotnewdeal.com/2017/03/22/181292_3Pack_20_Gear_One_XLR_Microphone_Cables_Black_/20%Monthly2017-03-22 20:34
http://www.hotnewdeal.com/2017/03/22/181291_GCU_Members_Resident_Evil_7_Biohazard_PS4_or_Xb/20%Monthly2017-03-22 20:25
http://www.hotnewdeal.com/2017/03/22/181290_chrome_book_at_Walmart_49_dollars_ymmv/20%Monthly2017-03-22 19:59
http://www.hotnewdeal.com/2017/03/22/181289_Traditional_Medicinals_Organic_Nighty_Night_Tea_1/20%Monthly2017-03-22 19:59
http://www.hotnewdeal.com/2017/03/22/181288_Lumsing_60W_12A_6Port_USB_Desktop_Charger_6_ship/20%Monthly2017-03-22 19:48
http://www.hotnewdeal.com/2017/03/22/181287_20_Mule_Borax_Detergent_Booster__Household_Cleane/20%Monthly2017-03-22 19:48
http://www.hotnewdeal.com/2017/03/22/181286_Safeway_and_affiliates_free_items__YMMV/20%Monthly2017-03-22 19:41
http://www.hotnewdeal.com/2017/03/22/181285_Igloo_5Gallon_HeavyDuty_Beverage_Cooler_Orange_/20%Monthly2017-03-22 19:41
http://www.hotnewdeal.com/2017/03/22/181284_Just_Cause_3_PC_Digital_Download_1009_or_Less/20%Monthly2017-03-22 19:34
http://www.hotnewdeal.com/2017/03/22/181283_The_Settlers_of_Catan_5th_Edition_Base_Game__27/20%Monthly2017-03-22 19:34
http://www.hotnewdeal.com/2017/03/22/181282_Paladins_founders_pack_1299_w_Ps_plus/20%Monthly2017-03-22 19:26
http://www.hotnewdeal.com/2017/03/22/181281_Urban_Decay_Makeup_Setting_Spray_19_w_free_shipp/20%Monthly2017-03-22 19:20
http://www.hotnewdeal.com/2017/03/22/181280_13_gallon_trash_bags200_ct__Amazon__1299/20%Monthly2017-03-22 19:19
http://www.hotnewdeal.com/2017/03/22/181279_AudioTechnica_ATHCK323i_SonicFuel_Earbuds_with_M/20%Monthly2017-03-22 19:18
http://www.hotnewdeal.com/2017/03/22/181278_MSI_GT62VR_Dominator027_156_1080p_IPS_Display_/20%Monthly2017-03-22 18:47
http://www.hotnewdeal.com/2017/03/22/181277_Have_Your_Wine_and_Drink_It_Too_Oenophilia_Sport_/20%Monthly2017-03-22 18:39
http://www.hotnewdeal.com/2017/03/22/181276_Samsonite_Extra_40_Off_Select_Styles__Free_Ship/20%Monthly2017-03-22 18:39
http://www.hotnewdeal.com/2017/03/22/181275_Bundlestars_Dominator_Bundle_for_Steam_100/20%Monthly2017-03-22 18:39
http://www.hotnewdeal.com/2017/03/22/181274_Bosch_Distance_Plus_Oil_Filters_5_YMMV_BM_Walmar/20%Monthly2017-03-22 18:32
http://www.hotnewdeal.com/2017/03/22/181273_24Pack_of_5oz_Genova_Yellowfin_Tuna_in_Pure_Olive/20%Monthly2017-03-22 18:17
http://www.hotnewdeal.com/2017/03/22/181272_Philips_Sonicare_for_Kids_Bluetooth_Connected_Rech/20%Monthly2017-03-22 18:17
http://www.hotnewdeal.com/2017/03/22/181271_ScotchBrite_Disposable_Toilet_Scrubber_Cleaning_S/20%Monthly2017-03-22 18:08
http://www.hotnewdeal.com/2017/03/22/181270_Kohls_Cardholders_Womens_Free_Country_Hooded_Kni/20%Monthly2017-03-22 17:59
http://www.hotnewdeal.com/2017/03/22/181269_Craftsman_3_PC_PRY_BAR_SET_WITH_STRIKE_CAP_1899/20%Monthly2017-03-22 17:48
http://www.hotnewdeal.com/2017/03/22/181268_Spectrum_Time_Warner_100MBps_Internet__TV_Selec/20%Monthly2017-03-22 17:48
http://www.hotnewdeal.com/2017/03/22/181266_OMorc_Snorkel_Mask_180_Seaview_GoPro_Compatible_D/20%Monthly2017-03-22 17:09
http://www.hotnewdeal.com/2017/03/22/181265_Fargo_Season_2_Bluray_1740__Amazon/20%Monthly2017-03-22 16:56
http://www.hotnewdeal.com/2017/03/22/181264_Dell_Tradein__Get_100_GC_additional_to_trade_in/20%Monthly2017-03-22 16:56
http://www.hotnewdeal.com/2017/03/22/181263_Milwaukee_12v_fuel_brushless_drillimpact_set_169/20%Monthly2017-03-22 16:56
http://www.hotnewdeal.com/2017/03/22/181262_VIZIO_SmartCast_65_4K_Ultra_HD_Smart_LED_Home_T/20%Monthly2017-03-22 16:56
http://www.hotnewdeal.com/2017/03/22/181261_REI_Coop_ED_8_x_32_Waterproof_Binoculars_4683_f/20%Monthly2017-03-22 16:56
http://www.hotnewdeal.com/2017/03/22/181260_New_Ipad_at_Best_Buy/20%Monthly2017-03-22 16:39
http://www.hotnewdeal.com/2017/03/22/181259_AquaPure_3M_Drinking_Water_System_Filter_w_Tripl/20%Monthly2017-03-22 16:32
http://www.hotnewdeal.com/2017/03/22/181258_Deal_is_back__FREE_CPU_when_you_buy_Shuttle_SZ170/20%Monthly2017-03-22 16:17
http://www.hotnewdeal.com/2017/03/22/181257_Energizer_Hard_Case_Pro_200Lumen_Magnetic_Headlam/20%Monthly2017-03-22 16:08
http://www.hotnewdeal.com/2017/03/22/181256_Amazon_5_credit_for_Prime_Members_when_ordering_t/20%Monthly2017-03-22 16:04
http://www.hotnewdeal.com/2017/03/22/181255_2pk_Surge_Protectors_By_Globe__6_Swiveling_Outlet/20%Monthly2017-03-22 16:03
http://www.hotnewdeal.com/2017/03/22/181254_This_war_of_mine_iOS_game_for_199_Matching_the_/20%Monthly2017-03-22 15:59
http://www.hotnewdeal.com/2017/03/22/181253_COB_LED_Pen_Shaped_AAA_Work_Light_199__free_shi/20%Monthly2017-03-22 15:59
http://www.hotnewdeal.com/2017/03/22/181252_2Pack_Maybelline_New_York_Expert_Wear_Twin_Brow_a/20%Monthly2017-03-22 15:48
http://www.hotnewdeal.com/2017/03/22/181251_Premium_Comfort_VNeck_or_Crew_Tee_Various_Colors/20%Monthly2017-03-22 15:48
http://www.hotnewdeal.com/2017/03/22/181250_Cytosport_Muscle_Milk_Genuine_Protein_Powder_Vani/20%Monthly2017-03-22 15:48
http://www.hotnewdeal.com/2017/03/22/181249_Amazon_Get_A_Fire_TV_Stick_When_You_Buy_1_Month_o/20%Monthly2017-03-22 15:47
http://www.hotnewdeal.com/2017/03/22/181247_Nikon_35mm_f18G_AFS_DX_Lens_for_Nikon_Digital_S/20%Monthly2017-03-22 15:33
http://www.hotnewdeal.com/2017/03/22/181246_Stafford_Mens_Big__Tall_Travel_Performance_Dress/20%Monthly2017-03-22 15:32
http://www.hotnewdeal.com/2017/03/22/181245_New_Jet_Customers_ASUS_ROG_Strix_RX_470_OC_4GB_Gr/20%Monthly2017-03-22 15:32
http://www.hotnewdeal.com/2017/03/22/181244_HP_F310_Dash_Cam_Video_Camera_w_GPS_50NF/20%Monthly2017-03-22 15:24
http://www.hotnewdeal.com/2017/03/22/181243_Velvet_Quilt_Set_Twin_Full_Queen_King_w_Leaf/20%Monthly2017-03-22 15:24
http://www.hotnewdeal.com/2017/03/22/181242_REI_members__extra_20_off_on_full_priced_item_or/20%Monthly2017-03-22 15:17
http://www.hotnewdeal.com/2017/03/22/181241_St_Louis_Cardinals_Monthly_Eticket_for_30/20%Monthly2017-03-22 15:17
http://www.hotnewdeal.com/2017/03/22/181240_CUISINART_KITCHEN_APPLIANCE_DEALS_new__refurb_/20%Monthly2017-03-22 15:08
http://www.hotnewdeal.com/2017/03/22/181239_Kirkland_Signature_Allergy_Medicine_AllerTec_365/20%Monthly2017-03-22 15:08
http://www.hotnewdeal.com/2017/03/22/181238_Fast__Furious_7Movie_Collection_Region_Free_Blu/20%Monthly2017-03-22 14:55
http://www.hotnewdeal.com/2017/03/22/181236_85_OFF_Syberia_Steam_CD_Key_on_SCD_Key_105/20%Monthly2017-03-22 14:55
http://www.hotnewdeal.com/2017/03/22/181235_42999__Sharp_LC60N5100U_60_1080p_60Hz_LED_Sma/20%Monthly2017-03-22 14:51
http://www.hotnewdeal.com/2017/03/22/181234_Visonic_MCT340_E_Wireless_Door_Window_Sensor_Sams/20%Monthly2017-03-22 14:46
http://www.hotnewdeal.com/2017/03/22/181233_Convoy_L6_5000K_3800_Lumen_LED_Flashlight_51__Fr/20%Monthly2017-03-22 14:46
http://www.hotnewdeal.com/2017/03/22/181232_Multicolor_RGB_Backlit_FullSized_Blue_Switch_Mech/20%Monthly2017-03-22 14:38
http://www.hotnewdeal.com/2017/03/22/181231_Fancyfix_Non_adhesive_Frosted_Static_Cling_Glass_/20%Monthly2017-03-22 14:31
http://www.hotnewdeal.com/2017/03/22/181230_Samsung_Fast_Charge_Wireless_Charging_Stand_4999/20%Monthly2017-03-22 14:23
http://www.hotnewdeal.com/2017/03/22/181229_DesignSkin_Slider_Card_Holder_Cases_for_iPhone_77/20%Monthly2017-03-22 14:16
http://www.hotnewdeal.com/2017/03/22/181228_Audeze_Sale_iSINE_10_Inears__iFi_nano_iDSD_349/20%Monthly2017-03-22 14:16
http://www.hotnewdeal.com/2017/03/22/181227_Harman_Kardon_Onyx_Studio__Portable_Bluetooth_Spe/20%Monthly2017-03-22 13:58
http://www.hotnewdeal.com/2017/03/22/181226_Zen_Logic_ZLBBB_Bluetooth_Stereo_Boombox_White_/20%Monthly2017-03-22 13:58
http://www.hotnewdeal.com/2017/03/22/181225_Family_Handyman_799_per_year/20%Monthly2017-03-22 13:58
http://www.hotnewdeal.com/2017/03/22/181224_400_off_Apple_154_MacBook_Pro_with_Touch_Bar_L/20%Monthly2017-03-22 13:47
http://www.hotnewdeal.com/2017/03/22/181223_LG_65_Inch_4K_UHD_HDR_Dolby_Vision_3D_65UH8500/20%Monthly2017-03-22 13:47
http://www.hotnewdeal.com/2017/03/22/181222_54999_Dell_Inspiron_15_5000_Series_2in1_i7_8/20%Monthly2017-03-22 13:47
http://www.hotnewdeal.com/2017/03/22/181221_SiriusXM_Settlement__3_months_free__check_your_e/20%Monthly2017-03-22 13:32
http://www.hotnewdeal.com/2017/03/22/181220_50_off_select_varieties_of_Scotts_Turf_Builder_EZ/20%Monthly2017-03-22 13:23
http://www.hotnewdeal.com/2017/03/22/181219_Hamilton_Beach_2Liter_Professional_Deep_Fryer_for/20%Monthly2017-03-22 13:17
http://www.hotnewdeal.com/2017/03/22/181218_The_Childrens_Place_Long_Sleeve_Tees_199_sizes/20%Monthly2017-03-22 13:08
http://www.hotnewdeal.com/2017/03/22/181217_LG_G6_Glass_Screen_Protector_2Pack__096__Free/20%Monthly2017-03-22 12:46
http://www.hotnewdeal.com/2017/03/22/181216_Gap_Friends_and_Family_Sale_Coupon_for_Additional/20%Monthly2017-03-22 12:46
http://www.hotnewdeal.com/2017/03/22/181215_ExOfficio_GiveNGo_Boxer_Brief__MensTangoLarg/20%Monthly2017-03-22 12:38
http://www.hotnewdeal.com/2017/03/22/181214_3Foot_USB_20_Extension_Cable_126__Free_Prime_/20%Monthly2017-03-22 12:23
http://www.hotnewdeal.com/2017/03/22/181213_Free_AMC_Stubs_Premiere_membership_required_Movi/20%Monthly2017-03-22 12:16
http://www.hotnewdeal.com/2017/03/22/181212_GE_ZWave_Wireless_Outdoor_Light_Control_Module_2/20%Monthly2017-03-22 12:16
http://www.hotnewdeal.com/2017/03/22/181211_Lego_Worlds_PC_2499__Charity_Sale__100_bene/20%Monthly2017-03-22 12:07
http://www.hotnewdeal.com/2017/03/22/181210_Wiha_36291_Screwdriver_Set_Torx_6_Piece_1347_/20%Monthly2017-03-22 11:58
http://www.hotnewdeal.com/2017/03/22/181208_Asus_Radeon_RX_480_DualFan_OC_Edition_4GB_256Bit/20%Monthly2017-03-22 11:58
http://www.hotnewdeal.com/2017/03/22/181207_Ray_Bradbury_I_Sing_the_Body_Electric_And_Other_/20%Monthly2017-03-22 11:58
http://www.hotnewdeal.com/2017/03/22/181206_BELLA_Dual_Brew_Single_Serve_Coffee_Maker_K_Cup_/20%Monthly2017-03-22 11:39
http://www.hotnewdeal.com/2017/03/22/181205_Lowes__Centrex_Plastics_LLC_Commander_27Gallon_/20%Monthly2017-03-22 11:17
http://www.hotnewdeal.com/2017/03/22/181204_ELF_Spring_Warmth_Beauty_Bundle_Brush_Bronzer/20%Monthly2017-03-22 11:17
http://www.hotnewdeal.com/2017/03/22/181203_LectroFan_White_Noise_Machine_w_10_Fan__10_White/20%Monthly2017-03-22 11:17
http://www.hotnewdeal.com/2017/03/22/181202_Stage_Stores_5_Apparel_Sale_Mens_Weatherproof_R/20%Monthly2017-03-22 11:08
http://www.hotnewdeal.com/2017/03/22/181201_Assassins_Creed_Unity_Xbox_One_Digital_Download/20%Monthly2017-03-22 10:31
http://www.hotnewdeal.com/2017/03/22/181200_DOD_Boneshaker_Distortion_Guitar_Effects_Pedal__/20%Monthly2017-03-22 10:16
http://www.hotnewdeal.com/2017/03/22/181199_Corel_VideoStudio_X9_Ultimate_Boxed_2699__BH/20%Monthly2017-03-22 10:07
http://www.hotnewdeal.com/2017/03/22/181198_12Pack_of_25oz_Chicken_of_the_Sea_Premium_Skinl/20%Monthly2017-03-22 09:58
http://www.hotnewdeal.com/2017/03/22/181197_Sargent_Art_Premium_Coloring_Pencils_Pack_of_50_A/20%Monthly2017-03-22 09:58
http://www.hotnewdeal.com/2017/03/22/181196_Dishonored_2_PlayStation_4_or_Xbox_One_for_249/20%Monthly2017-03-22 09:58
http://www.hotnewdeal.com/2017/03/22/181195_DYMO_LabelManager_160_Handheld_Label_Maker_999_a/20%Monthly2017-03-22 09:47
http://www.hotnewdeal.com/2017/03/22/181194_Nonda_Quick_Charge_20_Smart_Car_Charger_w_Car_Lo/20%Monthly2017-03-22 09:47
http://www.hotnewdeal.com/2017/03/22/181193_Sony_72_Channel_Home_Theater_4K_AV_Receiver_STRD/20%Monthly2017-03-22 09:47
http://www.hotnewdeal.com/2017/03/22/181192_Never_Alone_Kisima_Ingitchuna_Xbox_One_Digital_D/20%Monthly2017-03-22 09:33
http://www.hotnewdeal.com/2017/03/22/181191_Killing_Floor_2_PS4__1999_plus_free_trial_on/20%Monthly2017-03-22 09:24
http://www.hotnewdeal.com/2017/03/22/181190_Superhot_PC_Digital_Download_105__BACK_IN_STO/20%Monthly2017-03-22 09:17
http://www.hotnewdeal.com/2017/03/22/181189_DEEPCOOL_Gamer_Storm_CAPTAIN_240EX_120mm_PWM_Fan_C/20%Monthly2017-03-22 09:17
http://www.hotnewdeal.com/2017/03/22/181188_Pampers_Swaddlers_Newborn_240_Diapers_12_packs_of/20%Monthly2017-03-22 09:08
http://www.hotnewdeal.com/2017/03/22/181187_FisherPrice_Think_N_Learn_Smart_Scan_Color_Chamel/20%Monthly2017-03-22 09:08
http://www.hotnewdeal.com/2017/03/22/181186_FoodSaver_V3240_Vacuum_Sealing_System__4999_AC_/20%Monthly2017-03-22 09:08
http://www.hotnewdeal.com/2017/03/22/181185_Avery_AllPurpose_Labels_98_cents__Free_Prime_Shi/20%Monthly2017-03-22 08:46
http://www.hotnewdeal.com/2017/03/22/181184_GE_ZWave_OnOff_Smart_Switch_2799__Free_Store_/20%Monthly2017-03-22 08:08
http://www.hotnewdeal.com/2017/03/22/181183_iXCC_SoftTouch_Plastic_Hard_Case_Cover_for_MacBoo/20%Monthly2017-03-22 07:54
http://www.hotnewdeal.com/2017/03/22/181181_iVanky_Nylon_Braided_35mm_Audio_Cable__Aux_Cord_/20%Monthly2017-03-22 07:09
http://www.hotnewdeal.com/2017/03/22/181180_Lenovo_ThinkCentre_M700_Tiny_PC_w_I58GB256GB_SS/20%Monthly2017-03-22 07:09
http://www.hotnewdeal.com/2017/03/22/181179_551Piece_LEGO_Speed_Champions_Porsche_911GT_Finis/20%Monthly2017-03-22 06:07
http://www.hotnewdeal.com/2017/03/22/181178_Gifted_Screening_for_4_for_free/20%Monthly2017-03-22 06:07
http://www.hotnewdeal.com/2017/03/22/181177_Melissa__Doug_Mollie_Ladybug_Flashlight_560_A/20%Monthly2017-03-22 05:29
http://www.hotnewdeal.com/2017/03/22/181176_Ebay_Virhuck_T915_RC_Drone_20/20%Monthly2017-03-22 05:24
http://www.hotnewdeal.com/2017/03/22/181175_6Pack_Pentel_EnerGel_Deluxe_Gel_Ink_Pens_Assorte/20%Monthly2017-03-22 04:30
http://www.hotnewdeal.com/2017/03/22/181174_KitchenAid__Professional_500_Series_Stand_Mixer_/20%Monthly2017-03-22 02:30
http://www.hotnewdeal.com/2017/03/22/181173_32GB_Sony_Xperia_XZ_52_Unlocked_Smartphone_430_/20%Monthly2017-03-22 02:29
http://www.hotnewdeal.com/2017/03/22/181172_Inexpensive_Between_123_and_200_Children_Boo/20%Monthly2017-03-22 02:09
http://www.hotnewdeal.com/2017/03/22/181171_Phanteks_Eclipse_Series_P400_PHEC416P_AG_Anthraci/20%Monthly2017-03-22 02:03
http://www.hotnewdeal.com/2017/03/22/181170_Free_19Lb_Arm__Hammer_Slide_Easy_Clean_Up_Multi/20%Monthly2017-03-22 01:09
http://www.hotnewdeal.com/2017/03/22/181169_Refurb_Dell_Precision_T3420_SFF_Server_Xeon_E3124/20%Monthly2017-03-22 01:09
http://www.hotnewdeal.com/2017/03/22/181168_BJs_Restaurant__Brewhouse_Coupon_for_Buy_One_Get/20%Monthly2017-03-22 01:09
http://www.hotnewdeal.com/2017/03/22/181167_Stacys_Pita_Chips_Cinnamon_Sugar_12_pack_733_oz_/20%Monthly2017-03-22 01:09
http://www.hotnewdeal.com/2017/03/22/181166_Rechargeable_arc_plasma_lighter_799/20%Monthly2017-03-22 01:08
http://www.hotnewdeal.com/2017/03/22/181165_20152017_F150_Truck_Husky_Rear_Wheel_Well_covers/20%Monthly2017-03-22 01:03
http://www.hotnewdeal.com/2017/03/21/181164_Prime_Members_15Lbs_Royal_Basmati_Rice_1139__/20%Monthly2017-03-21 23:59
http://www.hotnewdeal.com/2017/03/21/181163_15W_2A_Solar_Panel_Phone_Charger_3399_Amazon/20%Monthly2017-03-21 23:59
http://www.hotnewdeal.com/2017/03/21/181162_YMMV_Minn_Kota_C230_Trolling_motor_25/20%Monthly2017-03-21 23:49
http://www.hotnewdeal.com/2017/03/21/181161_Rhino_Wipe_Tote_System_With_75_Strong_Dry_Wipes_3/20%Monthly2017-03-21 23:41
http://www.hotnewdeal.com/2017/03/21/181160_Ridgid_Brushless_Compact_Hammer_Drill_w2_batterie/20%Monthly2017-03-21 23:41
http://www.hotnewdeal.com/2017/03/21/181159_HP_Slimline_Desktop_PC_Intel_Core_i56400T_QuadC/20%Monthly2017-03-21 23:34
http://www.hotnewdeal.com/2017/03/21/181158_Sony_PS4_Dualshock_4_Charging_Cradle__Original_J/20%Monthly2017-03-21 23:33
http://www.hotnewdeal.com/2017/03/21/181157_Certified_PreOwned_Lumia_650_for_099_with_Crick/20%Monthly2017-03-21 23:33
http://www.hotnewdeal.com/2017/03/21/181154_Acer_Aspire_E_Laptop_w_156_1920x1080_i77500U_/20%Monthly2017-03-21 22:42
http://www.hotnewdeal.com/2017/03/21/181153_43_Hisense_43CU6100_4K_UHD_Smart_LED_HDTV_Refurb/20%Monthly2017-03-21 22:39
http://www.hotnewdeal.com/2017/03/21/181152_LG_Ultra_short_throw_Projector_with_Embedded_Batte/20%Monthly2017-03-21 22:39
http://www.hotnewdeal.com/2017/03/21/181151_YITAMOTOR_Curved_52_300W_Offroad_Led_Light_Bar_fo/20%Monthly2017-03-21 22:32
http://www.hotnewdeal.com/2017/03/21/181150_Back_again__Amazon__Wonderful_Pistachios_Roaste/20%Monthly2017-03-21 21:59
http://www.hotnewdeal.com/2017/03/21/181149_Discovery_Kids_Canvas_TeePee_Gray_Chevron_394/20%Monthly2017-03-21 21:59
http://www.hotnewdeal.com/2017/03/21/181148_Dell_Inspiron_133_Touch_Screen_Laptop_i5_7th_Ge/20%Monthly2017-03-21 21:48
http://www.hotnewdeal.com/2017/03/21/181147_Unitek_Aluminum_USB_30_7In1_3Slot_Flash_Memory/20%Monthly2017-03-21 21:48
http://www.hotnewdeal.com/2017/03/21/181146_Logitech_915000230_Harmony_350_Universal_Remote_C/20%Monthly2017-03-21 21:39
http://www.hotnewdeal.com/2017/03/21/181145_Only_Natural_Pet_EasyRaw_Dehydrated_Dog_Food_4_fl/20%Monthly2017-03-21 21:39
http://www.hotnewdeal.com/2017/03/21/181143_OXA_12Inch_Canvas_Messenger_Bag_980_free_ship_p/20%Monthly2017-03-21 21:35
http://www.hotnewdeal.com/2017/03/21/181142_HP_Envy_13Y013_x360_2in1_Refurb__i77500U_1/20%Monthly2017-03-21 21:32
http://www.hotnewdeal.com/2017/03/21/181141_August_2nd_gen_smart_lock_HomeKit_compatible__/20%Monthly2017-03-21 20:55
http://www.hotnewdeal.com/2017/03/21/181140_Samsung_UN75KS9000_75_Class_KS9000_9Series_4K_SU/20%Monthly2017-03-21 20:16
http://www.hotnewdeal.com/2017/03/21/181139_30_off_deep_cleaning_on_Amazon/20%Monthly2017-03-21 19:48
http://www.hotnewdeal.com/2017/03/21/181138_Vena_vCommute_Wallet_Case_for_iPhone_77Plus6S6S/20%Monthly2017-03-21 19:32
http://www.hotnewdeal.com/2017/03/21/181136_Oregon_Scientific_SG268_Smart_Learning_Toy_Geopgra/20%Monthly2017-03-21 19:24
http://www.hotnewdeal.com/2017/03/21/181135_Tmobile_insider_hookup_giveaway_expires_331210/20%Monthly2017-03-21 19:08
http://www.hotnewdeal.com/2017/03/21/181134_60V_Snapper_outdoor_equipment_clearance_at_Walmart/20%Monthly2017-03-21 19:08
http://www.hotnewdeal.com/2017/03/21/181133_70_Vizio_E70E3_4K_UHD_SmartCast_LED_HDTV_Refurb/20%Monthly2017-03-21 18:55
http://www.hotnewdeal.com/2017/03/21/181132_Hoover_Spotless_Portable_Carpet__Upholstery_Clean/20%Monthly2017-03-21 18:55
http://www.hotnewdeal.com/2017/03/21/181131_Jetblue_Airlines__The_Big_Spring_Sale_Airfares_fr/20%Monthly2017-03-21 18:46
http://www.hotnewdeal.com/2017/03/21/181130_ESET_NOD32_Antivirus_2017__3_PCs_30_AC__Newegg/20%Monthly2017-03-21 18:38
http://www.hotnewdeal.com/2017/03/21/181129_197_Crest_Complete_MultiBenefit_Whitening_with_/20%Monthly2017-03-21 18:38
http://www.hotnewdeal.com/2017/03/21/181128_Audeze_LCD3_Headphones__iFi_Pro_iCan_Amplifier_/20%Monthly2017-03-21 18:31
http://www.hotnewdeal.com/2017/03/21/181127_6_Piece__Victorinox_Swiss_Cutlery_412Inch_Roun/20%Monthly2017-03-21 18:16
http://www.hotnewdeal.com/2017/03/21/181126_Adolfo_Milano_Mens_SlipOn_Dress_Shoes_3699__s/20%Monthly2017-03-21 18:16
http://www.hotnewdeal.com/2017/03/21/181125_Acer_Chromebook_156_2GB_RAM_16GB_storage_Scratch/20%Monthly2017-03-21 17:59
http://www.hotnewdeal.com/2017/03/21/181124_Acer_Aspire_XC705_Desktop_PC_with_Intel_Core_i34/20%Monthly2017-03-21 17:54
http://www.hotnewdeal.com/2017/03/21/181123_Walmart_iXCC_Wireless_Qi_Fast_Charging_Pad_for_Sa/20%Monthly2017-03-21 17:48
http://www.hotnewdeal.com/2017/03/21/181122_The_Berenstain_Bears_Paperback_starting_at_169_w/20%Monthly2017-03-21 17:48
http://www.hotnewdeal.com/2017/03/21/181121_11lbs_Impact_Whey_Protein_all_flavors__Creatine/20%Monthly2017-03-21 17:33
http://www.hotnewdeal.com/2017/03/21/181120_MyDigitalSSD_BP5_SuperSpeed_USB_30_UASP_External_/20%Monthly2017-03-21 17:26
http://www.hotnewdeal.com/2017/03/21/181119_Harman_Kardon_Aura_Factory_Recertified_Wireless_Bl/20%Monthly2017-03-21 16:56
http://www.hotnewdeal.com/2017/03/21/181118_Prima_Games__Nintendo_Star_Fox_Zero_Official_Game/20%Monthly2017-03-21 16:41
http://www.hotnewdeal.com/2017/03/21/181117_Secura_8100MC_1800W_Portable_Induction_Cooktop_Cou/20%Monthly2017-03-21 16:40
http://www.hotnewdeal.com/2017/03/21/181116_Dickies_JeansPants_Sale_Prices_starting_at_9_at_/20%Monthly2017-03-21 16:33
http://www.hotnewdeal.com/2017/03/21/181115_Petsmart_TODAY_ONLY_30_off_promo_code_select_it/20%Monthly2017-03-21 16:24
http://www.hotnewdeal.com/2017/03/21/181114_2x_Michelin_Stealth_Ultra_Windshield_Wiper_Blades_/20%Monthly2017-03-21 16:08
http://www.hotnewdeal.com/2017/03/21/181112_3M_5200_Marine_Grade_Sealant_and_Adhesive_10oz_/20%Monthly2017-03-21 16:08
http://www.hotnewdeal.com/2017/03/21/181111_Superhot_PC_Steam__1/20%Monthly2017-03-21 15:59
http://www.hotnewdeal.com/2017/03/21/181110_Dell_Inspiron_3250_Desktop_w_Keyboard__Mouse_In/20%Monthly2017-03-21 15:48
http://www.hotnewdeal.com/2017/03/21/181109_ProJect_Essential_II_turntable_for_200_at_BestBu/20%Monthly2017-03-21 15:48
http://www.hotnewdeal.com/2017/03/21/181108_3Piece_Hardside_Luggage_Spinners_Set_w_Builtin_/20%Monthly2017-03-21 15:40
http://www.hotnewdeal.com/2017/03/21/181107_Klipsch_R6_InEar_Bluetooth_Neckband_Black_Leathe/20%Monthly2017-03-21 15:33
http://www.hotnewdeal.com/2017/03/21/181106_TODAY_ONLY_5_Unlimited_Cup__Yogurtland/20%Monthly2017-03-21 15:26
http://www.hotnewdeal.com/2017/03/21/181105_Cardcash__Tim_Hortons_Giftcards__100_for_65_or/20%Monthly2017-03-21 15:19
http://www.hotnewdeal.com/2017/03/21/181104_VIZIO_65_Inch_4K_Ultra_HD_Smart_TV_M65D0_Ultra_HD/20%Monthly2017-03-21 15:13
http://www.hotnewdeal.com/2017/03/21/181103_AMAZON_Wolfgang_Puck_Coffee_Single_Serve_Cups_Va/20%Monthly2017-03-21 15:09
http://www.hotnewdeal.com/2017/03/21/181102_Spigen_Kuel_OneTap_AP12T_Universal_Car_Mount_Holde/20%Monthly2017-03-21 14:56
http://www.hotnewdeal.com/2017/03/21/181101_Kenko_DG_Auto_Extension_Tube_Set_for_the_Canon_EOS/20%Monthly2017-03-21 14:56
http://www.hotnewdeal.com/2017/03/21/181100_HP_F800X_Full_HD_with_Touch_Screen_Car_Camera_79/20%Monthly2017-03-21 14:56
http://www.hotnewdeal.com/2017/03/21/181099_Velocifire_VM01_104_Keys_Mechanical_Keyobard_with_/20%Monthly2017-03-21 14:47
http://www.hotnewdeal.com/2017/03/21/181098_Samsung_Gear_S2_Classic_Water_Resistant_WiFi_Blue/20%Monthly2017-03-21 14:39
http://www.hotnewdeal.com/2017/03/21/181097_Nine_Stars_132__21Gallon_Touchless_Automatic_M/20%Monthly2017-03-21 14:24
http://www.hotnewdeal.com/2017/03/21/181096_Home__Cook_Outlet_Rowenta_DW6080_Eco_Intelligenc/20%Monthly2017-03-21 14:12
http://www.hotnewdeal.com/2017/03/21/181095_100_laptoptradein_offer__officedepotcom/20%Monthly2017-03-21 13:59
http://www.hotnewdeal.com/2017/03/21/181094_Anker_1600_DPI_Ergonimic_Vertical_Wired_Mouse_13_/20%Monthly2017-03-21 13:59
http://www.hotnewdeal.com/2017/03/21/181093_12oz_Tim_Hortons_100_Arabica_Ground_Coffee_for_/20%Monthly2017-03-21 13:48
http://www.hotnewdeal.com/2017/03/21/181092_BWL_Led_bulbs_A21_15_Watt_100_Watt_Equivalent/20%Monthly2017-03-21 13:40
http://www.hotnewdeal.com/2017/03/21/181091_Dell_XPS_15_9550_156_4K_Touch_Laptop_I76700HQ_/20%Monthly2017-03-21 13:25
http://www.hotnewdeal.com/2017/03/21/181090_OLAXER_SC003_Shea_Butter_Moisturizing_Body_Lotion_/20%Monthly2017-03-21 13:25
http://www.hotnewdeal.com/2017/03/21/181089_Los_Angeles_to_Nice_France_564_RT_on_Virgin_Atlan/20%Monthly2017-03-21 13:18
http://www.hotnewdeal.com/2017/03/21/181088_7pcs_multifunction_Blackhead_and_Pimple_Remover_K/20%Monthly2017-03-21 13:18
http://www.hotnewdeal.com/2017/03/21/181087_Doom__Xbox_One_1799_AC__More__Newegg/20%Monthly2017-03-21 13:18
http://www.hotnewdeal.com/2017/03/21/181086_Motospeed_CK104_RGB_Mechanical_Blue_switch_Keyboar/20%Monthly2017-03-21 13:09
http://www.hotnewdeal.com/2017/03/21/181085_150_Southwest_Gift_Card_for_135_with_Email_Deliv/20%Monthly2017-03-21 13:09
http://www.hotnewdeal.com/2017/03/21/181084_Anker_PowerCore_10050mAh_QuickCharge_30__2999/20%Monthly2017-03-21 13:04
http://www.hotnewdeal.com/2017/03/21/181083_MEdge_Universal_Bluetooth_XL_Stealth_PRO_Keyboard/20%Monthly2017-03-21 12:56
http://www.hotnewdeal.com/2017/03/21/181082_NordVPN_annual_subscription_70_off_only_for_48_/20%Monthly2017-03-21 12:56
http://www.hotnewdeal.com/2017/03/21/181081_Philips_Hue_2nd_Gen_Light_Strip_White_and_Color_80/20%Monthly2017-03-21 12:47
http://www.hotnewdeal.com/2017/03/21/181080_Sony_SEL35F18__35mm_f18_Prime_Fixed_Lens__OPEN/20%Monthly2017-03-21 12:38
http://www.hotnewdeal.com/2017/03/21/181079_Kohls_Cardholders_Disney_Tsum_Tsum_Hooded_Towel_/20%Monthly2017-03-21 12:38
http://www.hotnewdeal.com/2017/03/21/181078_Utz_Pub_Mix_44oz_Barrel_387_via_Amazon_Addon/20%Monthly2017-03-21 12:38
http://www.hotnewdeal.com/2017/03/21/181077_Target_Dreambaby_Cabinet_Sliding_Locks__Silver_6/20%Monthly2017-03-21 12:24
http://www.hotnewdeal.com/2017/03/21/181076_Newegg_Computer_Cases_On_Sale/20%Monthly2017-03-21 12:24
http://www.hotnewdeal.com/2017/03/21/181075_Fitbit_Charge_2_100/20%Monthly2017-03-21 12:17
http://www.hotnewdeal.com/2017/03/21/181074_Southwest_Airlines_Nationwide_Airfare_Sale_as_low_/20%Monthly2017-03-21 12:17
http://www.hotnewdeal.com/2017/03/21/181073_Kohls_Cardholders_Mens_Croft__Barrow_Flannel_Bu/20%Monthly2017-03-21 12:08
http://www.hotnewdeal.com/2017/03/21/181072_Suncast_Weatherproof_Trash_Can_Shed__Reg_372_Cl/20%Monthly2017-03-21 12:08
http://www.hotnewdeal.com/2017/03/21/181071_12Piece_Reversible_Comforter_Sets_3750_All_Siz/20%Monthly2017-03-21 12:07
http://www.hotnewdeal.com/2017/03/21/181070_15TB_Seagate_Portable_USB_30_Hard_Drive_STEA150/20%Monthly2017-03-21 12:07
http://www.hotnewdeal.com/2017/03/21/181069_Asus__Zenbook_133_Laptop__i56200U__4GB_Memor/20%Monthly2017-03-21 11:58
http://www.hotnewdeal.com/2017/03/21/181068_Tim_Hortons_Single_Serve_Coffee_Cups_Original_Bl/20%Monthly2017-03-21 11:58
http://www.hotnewdeal.com/2017/03/21/181067_PSN_Only_on_PlayStation_Sale_Until_Dawn_999_/20%Monthly2017-03-21 11:47
http://www.hotnewdeal.com/2017/03/21/181066_AMD_Ryzen_1700x_Microcenter_36999__tax_instor/20%Monthly2017-03-21 11:09
http://www.hotnewdeal.com/2017/03/21/181065_Salt_Unrated_Deluxe_Extended_Edition_Bluray/20%Monthly2017-03-21 11:09
http://www.hotnewdeal.com/2017/03/21/181064_Super_Smash_Bros_or_Paper_Mario_Color_Splash_Nin/20%Monthly2017-03-21 10:47
http://www.hotnewdeal.com/2017/03/21/181063_Best_Buy__SanDisk__240GB_Internal_SATA_Solid_Sta/20%Monthly2017-03-21 10:25
http://www.hotnewdeal.com/2017/03/21/181062_PlayStation_DualShock_4_Wireless_Controller_Green/20%Monthly2017-03-21 10:18
http://www.hotnewdeal.com/2017/03/21/181061_The_Good_Earth_Trilogy_The_Good_Earth_Sons_and_/20%Monthly2017-03-21 10:17
http://www.hotnewdeal.com/2017/03/21/181060_Playstation_Plus_PS_12_month_physical_card_4199/20%Monthly2017-03-21 10:08
http://www.hotnewdeal.com/2017/03/21/181059_Refurbished_Roku_4_4K_UHD_Streaming_Media_Player_/20%Monthly2017-03-21 10:08
http://www.hotnewdeal.com/2017/03/21/181057_Dewalt_Flexvolt_Miter_Saw_549__Other_Flexvolt_De/20%Monthly2017-03-21 09:59
http://www.hotnewdeal.com/2017/03/21/181056_Double_Hammock_w_Space_Saving_Steel_Stand__Carry/20%Monthly2017-03-21 09:41
http://www.hotnewdeal.com/2017/03/21/181055_Milorganite_Organic_Fertilizer_36Lb_bag_699_/20%Monthly2017-03-21 09:26
http://www.hotnewdeal.com/2017/03/21/181054_Patriot_Torch_SE_256GB_25_Solid_State_Drive_SSD/20%Monthly2017-03-21 09:19
http://www.hotnewdeal.com/2017/03/21/181053_50_Microsoft_Xbox_Gift_Card_for_35__Rakuten_w_/20%Monthly2017-03-21 09:09
http://www.hotnewdeal.com/2017/03/21/181052_Lenovo_Outlet_Sale_N22_Chromebook_for_10914__M/20%Monthly2017-03-21 09:09
http://www.hotnewdeal.com/2017/03/21/181051_Amex_Offer_100_w_200_Purchase_at_UpWork/20%Monthly2017-03-21 09:09
http://www.hotnewdeal.com/2017/03/21/181050_Craftsman_18_Watering_Wand_for_499/20%Monthly2017-03-21 08:56
http://www.hotnewdeal.com/2017/03/21/181049_Digital_Kitchen_Food_Scale_Multifunction_11lb_5kg/20%Monthly2017-03-21 08:51
http://www.hotnewdeal.com/2017/03/21/181048_Clarisonic_50_Off_Sale_Mia_1_6450_Mia_2_845/20%Monthly2017-03-21 08:41
http://www.hotnewdeal.com/2017/03/21/181047_3M_03609_ScotchMount_12_x_5_Molding_Tape_271/20%Monthly2017-03-21 08:34
http://www.hotnewdeal.com/2017/03/21/181046_Kaspersky_Total_Security_2017__3_PCs_OR_McAfee_An/20%Monthly2017-03-21 08:25
http://www.hotnewdeal.com/2017/03/21/181045_NETGEAR_ProSAFE_16Port_Gigabit_Ethernet_Switch_G/20%Monthly2017-03-21 07:59
http://www.hotnewdeal.com/2017/03/21/181044_Taken_Wallet_Case_for_Galaxy_S6S7_edgeiphone_6_f/20%Monthly2017-03-21 07:54
http://www.hotnewdeal.com/2017/03/21/181043_Amazon_Prime_Now__5_future_credit_when_ordering_/20%Monthly2017-03-21 07:49
http://www.hotnewdeal.com/2017/03/21/181042_Walmart_Exclusive_Vinyl_Deals/20%Monthly2017-03-21 07:34
http://www.hotnewdeal.com/2017/03/21/181041_Mesh_Executive_Office_Task_Chair_Hot_Ergonomic_360/20%Monthly2017-03-21 07:21
http://www.hotnewdeal.com/2017/03/21/181040_BestOffice_High_Back_ModernErgonomic_Mesh_Office_/20%Monthly2017-03-21 07:09
http://www.hotnewdeal.com/2017/03/21/181039_Burts_Bees_Baby_Shampoo__Wash_Fragrance_Free_1/20%Monthly2017-03-21 06:08
http://www.hotnewdeal.com/2017/03/21/181038_35_off_iVAPO_Solid_Aluminum_Charging_Holder_for_A/20%Monthly2017-03-21 05:30
http://www.hotnewdeal.com/2017/03/21/181037_Dell_USBC_45W_Power_Adapter_Plus__20_Dell_eGift/20%Monthly2017-03-21 04:31
http://www.hotnewdeal.com/2017/03/21/181036_Set_of_2_Zero_Gravity_IndoorOutdoor_Patio_Chairs_/20%Monthly2017-03-21 04:10
http://www.hotnewdeal.com/2017/03/21/181035_HyperX_Cloud_Pro_Gaming_Headset__Silver_6399__/20%Monthly2017-03-21 04:03
http://www.hotnewdeal.com/2017/03/21/181034_Titanfall_2_PS4_25/20%Monthly2017-03-21 03:27
http://www.hotnewdeal.com/2017/03/21/181033_Easy_Mac_Triple_Cheese_4Count_Cups_Pack_of_6_/20%Monthly2017-03-21 03:09
http://www.hotnewdeal.com/2017/03/21/181032_12Month_Xbox_Live_Gold_Membership_Card_3999__F/20%Monthly2017-03-21 03:09
http://www.hotnewdeal.com/2017/03/21/181031_OxyLED_OxyWild_MD22_LED_Flashlight_599__Amazon/20%Monthly2017-03-21 02:31
http://www.hotnewdeal.com/2017/03/21/181030_3Pack_eBags_Slim_Packing_Cubes_Assorted_for_14/20%Monthly2017-03-21 02:31
http://www.hotnewdeal.com/2017/03/21/181029_GCU_Members_Dead_Rising_4_Xbox_One_or_Gears_of_/20%Monthly2017-03-21 02:11
http://www.hotnewdeal.com/2017/03/21/181028_Starts_32117_12AM_PST_Asics_Mens_or_Women/20%Monthly2017-03-21 02:11
http://www.hotnewdeal.com/2017/03/21/181027_Panasonic_Eneloop_32Pack_AAA_Rechargeable_Batter/20%Monthly2017-03-21 02:11
http://www.hotnewdeal.com/2017/03/21/181026_iTunes_100_GC_for_85__Email_Delivery/20%Monthly2017-03-21 02:04
http://www.hotnewdeal.com/2017/03/21/181025_Garnier_SkinActive_Moisture_Rescue_Refreshing_Gel/20%Monthly2017-03-21 01:31
http://www.hotnewdeal.com/2017/03/21/181024_DJI_Phantom_4__729_P3A__639_P3S__329_P3P_/20%Monthly2017-03-21 01:31
http://www.hotnewdeal.com/2017/03/21/181023_Amazon__2Pack_Mpow_Magnetic_Phone_Mount__Key_ho/20%Monthly2017-03-21 01:31
http://www.hotnewdeal.com/2017/03/21/181022_RainX_Car_Cover__Walmart_Clearance_BM_YMMV_Deal/20%Monthly2017-03-21 01:09
http://www.hotnewdeal.com/2017/03/21/181021_Samsung_Chromebook_Plus_419__Amazon_or_405_w_e/20%Monthly2017-03-21 01:09
http://www.hotnewdeal.com/2017/03/21/181020_Digital_Laser_Rangefinder_Scope_with_LCD_Screen_Di/20%Monthly2017-03-21 01:09
http://www.hotnewdeal.com/2017/03/21/181018_Kohls_Cardholders_Kids_Clothing__Shoes_Stackable/20%Monthly2017-03-21 00:17
http://www.hotnewdeal.com/2017/03/21/181017_6_Pack_Pentel_EnerGel_Deluxe_RTX_Pens_in_Assorted_/20%Monthly2017-03-21 00:00
http://www.hotnewdeal.com/2017/03/20/181016_Thrustmaster_T150_Force_Feedback_Racing_Wheel_139/20%Monthly2017-03-20 23:42
http://www.hotnewdeal.com/2017/03/20/181015_EF_24105mm_f4L_IS_USM_Refurbished__540__Tax_/20%Monthly2017-03-20 23:36
http://www.hotnewdeal.com/2017/03/20/181014_New__Free_3_SYWR_Instant_Points_for_150_Pick_Yo/20%Monthly2017-03-20 23:11
http://www.hotnewdeal.com/2017/03/20/181013_300_Gift_Card_Through_Target_for_All_iPhone_7s_S/20%Monthly2017-03-20 23:10
http://www.hotnewdeal.com/2017/03/20/181012_2TB_WD_My_Passport_USB_30_Portable_Hard_Drive_Va/20%Monthly2017-03-20 23:10
http://www.hotnewdeal.com/2017/03/20/181011_Tron_Legacy_Bluray_3D__Bluray__DVD__Digital_/20%Monthly2017-03-20 23:10
http://www.hotnewdeal.com/2017/03/20/181010_Xbox_Live_12_Month_Subscription__3000029000_Mi/20%Monthly2017-03-20 22:51
http://www.hotnewdeal.com/2017/03/20/181009_TPLink_AC1200_Gigabit_Wireless_WiFi_Router_Arch/20%Monthly2017-03-20 22:42
http://www.hotnewdeal.com/2017/03/20/181008_Yamaha_RXV377_51_Channel_AV_Receiver_145__Free/20%Monthly2017-03-20 22:28
http://www.hotnewdeal.com/2017/03/20/181007_TPLink_Archer_C5400_AC5400_Wireless_TriBand_Rout/20%Monthly2017-03-20 22:10
http://www.hotnewdeal.com/2017/03/20/181006_Generic_Color_Fidget_Cube_BlackRed_275__FS_/20%Monthly2017-03-20 21:44
http://www.hotnewdeal.com/2017/03/20/181005_18oz_Johnnys_Garlic_Spread_and_Seasoning_690_/20%Monthly2017-03-20 21:44
http://www.hotnewdeal.com/2017/03/20/181004_QCY_Q29_Bluetooth_Earphones_w_no_wires_30__free/20%Monthly2017-03-20 21:44
http://www.hotnewdeal.com/2017/03/20/181003_Intel_Core_i77700_4Core_Processor_360GHz_420G/20%Monthly2017-03-20 21:33
http://www.hotnewdeal.com/2017/03/20/181002_Live_again_Dell_S2825cdn_Color_Laser_AIO_Printer_/20%Monthly2017-03-20 21:29
http://www.hotnewdeal.com/2017/03/20/181001_TOSHIBA_2TB_Canvio_Basics_Portable_Hard_Drive_USB_/20%Monthly2017-03-20 21:20
http://www.hotnewdeal.com/2017/03/20/181000_295_Intel_Core_i77700K_Kaby_Lake_QuadCore_42_G/20%Monthly2017-03-20 21:10
http://www.hotnewdeal.com/2017/03/20/180999_Resident_Evil_Xbox_One__Super_Bundle_6_games_/20%Monthly2017-03-20 20:49
http://www.hotnewdeal.com/2017/03/20/180998_Mr_Coffee_Blade_Grinder_Coffee_Grinder_Black_or_/20%Monthly2017-03-20 20:49
http://www.hotnewdeal.com/2017/03/20/180997_San_Francisco_to_Las_Vegas_or_vice_versa_56_RT_or/20%Monthly2017-03-20 20:48
http://www.hotnewdeal.com/2017/03/20/180996_New_York_to_Chicago_or_Vice_Versa_78_RT_on_Spirit/20%Monthly2017-03-20 20:48
http://www.hotnewdeal.com/2017/03/20/180995_Kohls_Cardholders_2Pk_VCNY_Home_Madison_Curtain_/20%Monthly2017-03-20 20:48
http://www.hotnewdeal.com/2017/03/20/180994_BioBidet_Bidet_BB1000_elongated_or_round_299/20%Monthly2017-03-20 20:44
http://www.hotnewdeal.com/2017/03/20/180993_Rufurb_EVGA_GTX_1060_6gb_06GP46267RX__Free_/20%Monthly2017-03-20 20:20
http://www.hotnewdeal.com/2017/03/20/180990_VIZIO_50_Inch_4K_Ultra_HD_Smart_TV_M50D1__Xbox_O/20%Monthly2017-03-20 19:45
http://www.hotnewdeal.com/2017/03/20/180989_Intel_SSD_600p_Series_256GB_M2_2280_80mm_NVMe_P/20%Monthly2017-03-20 19:39
http://www.hotnewdeal.com/2017/03/20/180988_AMD_RYZEN_7_1700X_8Core_34_GHz_AM4_Socket_95W_fo/20%Monthly2017-03-20 19:39
http://www.hotnewdeal.com/2017/03/20/180987_Klipsch_ProMedia_21_THX_Certified_Speaker_System_/20%Monthly2017-03-20 19:38
http://www.hotnewdeal.com/2017/03/20/180986_90day_membership_trial_to_BJs_FREE/20%Monthly2017-03-20 19:28
http://www.hotnewdeal.com/2017/03/20/180985_Logitech_G700s_Rechargeable_Gaming_Mouse_3999/20%Monthly2017-03-20 19:20
http://www.hotnewdeal.com/2017/03/20/180984_Ritas_Italian_Ice__Free_Italian_Ice_Today_320_/20%Monthly2017-03-20 19:10
http://www.hotnewdeal.com/2017/03/20/180983_BAFX_Products_34t5_Bluetooth_OBDII_Scan_Tool_for_A/20%Monthly2017-03-20 19:10
http://www.hotnewdeal.com/2017/03/20/180982_Linksys_WRT_AC3200_Open_Source_DualBand_Gigabit_S/20%Monthly2017-03-20 19:10
http://www.hotnewdeal.com/2017/03/20/180981_Scott_Towels_Mega_Roll_Choose_A_Size_White_6_ct_/20%Monthly2017-03-20 18:57
http://www.hotnewdeal.com/2017/03/20/180980_Samsonite_Winfield_2_Fashion_Hardside_20_Spinner_/20%Monthly2017-03-20 18:49
http://www.hotnewdeal.com/2017/03/20/180979_16GB_ZTE_Trek_2_HD_K88_8_ATT_GSM_Unlocked_WiFi_T/20%Monthly2017-03-20 18:42
http://www.hotnewdeal.com/2017/03/20/180978_Acer_R11_116_Convertible_Touchscreen_Chromebook_/20%Monthly2017-03-20 18:27
http://www.hotnewdeal.com/2017/03/20/180977_2Pack_Xbox_One_S_White_Wireless_Controller__MGS/20%Monthly2017-03-20 18:26
http://www.hotnewdeal.com/2017/03/20/180976_Samsung_Gear_S2_Classic_Water_Resistant_WiFi_Blue/20%Monthly2017-03-20 18:18
http://www.hotnewdeal.com/2017/03/20/180975_LG_V20_64GB_4G_LTE_QuadCore_Dual_Rear_Camera_16M/20%Monthly2017-03-20 18:09
http://www.hotnewdeal.com/2017/03/20/180974_RayBan_Tech_Unisex_Polarized_CarbonFiber_Sunglas/20%Monthly2017-03-20 18:09
http://www.hotnewdeal.com/2017/03/20/180973_Nioh_PS4_35__Free_Shipping_w_MasterPass_Check/20%Monthly2017-03-20 17:59
http://www.hotnewdeal.com/2017/03/20/180972_Gretsch_Electromatic_Collection_CenterBlock_Elect/20%Monthly2017-03-20 17:59
http://www.hotnewdeal.com/2017/03/20/180971_Pandemic_The_Board_Game_iOS_Android/20%Monthly2017-03-20 17:49
http://www.hotnewdeal.com/2017/03/20/180970_Samsung_35mm_Earbud_Headset_with_InLine_Volume_C/20%Monthly2017-03-20 17:41
http://www.hotnewdeal.com/2017/03/20/180969_1TB_Microsoft_Xbox_One_S_Gears_of_War_4_Console_Bu/20%Monthly2017-03-20 17:41
http://www.hotnewdeal.com/2017/03/20/180968_Apple_MacBook_Air_133_LED__Intel_Core_i5__8GB_/20%Monthly2017-03-20 17:34
http://www.hotnewdeal.com/2017/03/20/180967_Uniden_DFR6_Super_Long_Range_RadarLaser_Detector_/20%Monthly2017-03-20 17:34
http://www.hotnewdeal.com/2017/03/20/180966_Corsair_Vengeance_K65_Compact_Mechanical_Gaming_Ke/20%Monthly2017-03-20 17:34
http://www.hotnewdeal.com/2017/03/20/180965_HPE_ProLiant_ML10_Gen9_Tower_Server_i36100_4GB_/20%Monthly2017-03-20 17:26
http://www.hotnewdeal.com/2017/03/20/180964_ANNKE_8Channel_HDTVI_1080P_Lite_Video_Security_S/20%Monthly2017-03-20 17:19
http://www.hotnewdeal.com/2017/03/20/180963_eBAY_15_OFF_75_COUPON/20%Monthly2017-03-20 17:09
http://www.hotnewdeal.com/2017/03/20/180962_HP_Printer_Deskjet_2132_Print_Copy_Scan_at_Walmart/20%Monthly2017-03-20 16:56
http://www.hotnewdeal.com/2017/03/20/180960_Baby_Einstein_Activity_Jumper_Special_Edition_Nei/20%Monthly2017-03-20 16:43
http://www.hotnewdeal.com/2017/03/20/180959_MSI_Z170A_Gaming_M5_Kaby_Lake_ready_LGA_1151_DDR/20%Monthly2017-03-20 16:39
http://www.hotnewdeal.com/2017/03/20/180958_15_and_25_off_on_selected_TPLink_networking_pro/20%Monthly2017-03-20 16:24
http://www.hotnewdeal.com/2017/03/20/180957_JBL_Clip_Factory_Recertified_Splashproof_Portabl/20%Monthly2017-03-20 15:59
http://www.hotnewdeal.com/2017/03/20/180956_Toys_R_Us__Toysrus__Free_shipping_on_all_items_a/20%Monthly2017-03-20 15:48
http://www.hotnewdeal.com/2017/03/20/180955_The_First_Years_Take__Toss_SpillProof_4Pack_of_/20%Monthly2017-03-20 15:48
http://www.hotnewdeal.com/2017/03/20/180954_Refurbished_Logitech_G930_Wireless_Gaming_Headset_/20%Monthly2017-03-20 15:40
http://www.hotnewdeal.com/2017/03/20/180953_Miami_to_Iceland_250_RT_on_WOW_Air_Nonstop_depar/20%Monthly2017-03-20 15:33
http://www.hotnewdeal.com/2017/03/20/180952_DLink_DIR865L_Wireless_AC1750_Dual_Band_Gigabit_/20%Monthly2017-03-20 15:25
http://www.hotnewdeal.com/2017/03/20/180951_Architectural_Digest_Print__Digital_595_per_y/20%Monthly2017-03-20 15:18
http://www.hotnewdeal.com/2017/03/20/180950_Boston_to_Bridgetown_Barbados_175_RT_on_American_/20%Monthly2017-03-20 14:56
http://www.hotnewdeal.com/2017/03/20/180949_Netgear_Nighthawk_X10__AD7200_80211acad_QuadSt/20%Monthly2017-03-20 14:55
http://www.hotnewdeal.com/2017/03/20/180948_Apple_Care_Sale_from_49_3_year_Macbook_Pro_15/20%Monthly2017-03-20 14:31
http://www.hotnewdeal.com/2017/03/20/180947_Targus__USB_TypeC_Universal_Charger_20_at_Best/20%Monthly2017-03-20 14:24
http://www.hotnewdeal.com/2017/03/20/180946_Weider_Pro_255_L_Slant_BoardAb_Bench_4597_Prime/20%Monthly2017-03-20 14:24
http://www.hotnewdeal.com/2017/03/20/180945_Kohls_Cardholders_Sonicare_SimplyClean_5_Pk_Repla/20%Monthly2017-03-20 14:18
http://www.hotnewdeal.com/2017/03/20/180943_Casio_Mens_MQ241E_Black_Resin_Watch_999/20%Monthly2017-03-20 14:17
http://www.hotnewdeal.com/2017/03/20/180942_DJI_Official_Refurbish_Phantom_3_Standard_329_Ph/20%Monthly2017-03-20 14:08
http://www.hotnewdeal.com/2017/03/20/180941_BLACKDECKER_LCS1020_20V_MAX_Lithium_Ion_Chainsaw/20%Monthly2017-03-20 14:08
http://www.hotnewdeal.com/2017/03/20/180940_Triangle_A19_LED_Bulb_Dimmable_1055_Lumens_5000K/20%Monthly2017-03-20 14:08
http://www.hotnewdeal.com/2017/03/20/180939_OralB_ProHealth_Stages_Disney_Princess_Power_Kid/20%Monthly2017-03-20 14:08
http://www.hotnewdeal.com/2017/03/20/180937_Razer_RGB_Keyboard__9999__many_other_skus_mic/20%Monthly2017-03-20 13:58
http://www.hotnewdeal.com/2017/03/20/180936_Kitchen_Aid_7__Cup_Food_Processor_with_ExactSlice/20%Monthly2017-03-20 13:47
http://www.hotnewdeal.com/2017/03/20/180935_Imalent_DN70_Rechargeable_Flashlight_w_3800Lm_Cre/20%Monthly2017-03-20 13:39
http://www.hotnewdeal.com/2017/03/20/180934_Verizon__Best_Buy_Has_256GB_iPhone_7_for_200_Off/20%Monthly2017-03-20 13:35
http://www.hotnewdeal.com/2017/03/20/180933_Square_Enix_Spring_2017_Surprise_Box_999_Steam_/20%Monthly2017-03-20 13:25
http://www.hotnewdeal.com/2017/03/20/180932_PlayDoh_Sets_Star_Wars_Luke_Skywalker_and_Snowtr/20%Monthly2017-03-20 13:24
http://www.hotnewdeal.com/2017/03/20/180931_VTech_Gallop__Rock_Learning_Pony_Interactive_Ride/20%Monthly2017-03-20 13:24
http://www.hotnewdeal.com/2017/03/20/180930_RAIDMAX_RX735AP_735W_ATX_12V_v23__EPS_12V_SLI_R/20%Monthly2017-03-20 13:24
http://www.hotnewdeal.com/2017/03/20/180929_Seagate_Backup_Plus_Slim_2TB_USB_30_Portable_Exte/20%Monthly2017-03-20 13:17
http://www.hotnewdeal.com/2017/03/20/180928_Minions_Bluray_3D__Bluray_DVD__Digital_HD_/20%Monthly2017-03-20 13:13
http://www.hotnewdeal.com/2017/03/20/180927_20000mAh_iXCC_USB_Power_Bank_15__Amazon/20%Monthly2017-03-20 13:08
http://www.hotnewdeal.com/2017/03/20/180926_Charles_Tyrwhitt_3_shirts__Tie_9995/20%Monthly2017-03-20 13:08
http://www.hotnewdeal.com/2017/03/20/180925_Ghostbusters_1__2_BluRay_Includes_Digital_Copy/20%Monthly2017-03-20 13:08
http://www.hotnewdeal.com/2017/03/20/180924_Hilton_Hotels_72_Hour_Sale_Up_to_20_Off_April__/20%Monthly2017-03-20 12:46
http://www.hotnewdeal.com/2017/03/20/180923_AMD_RYZEN_7_1700_8Core_Processor_30_GHz_37GHz_/20%Monthly2017-03-20 12:38
http://www.hotnewdeal.com/2017/03/20/180922_Amazon_Prime_Exclusive_Vinyl_Deals/20%Monthly2017-03-20 12:31
http://www.hotnewdeal.com/2017/03/20/180921_Cheaper_Than_Dirt_500_rounds_40_SW_150_w_free_/20%Monthly2017-03-20 12:31
http://www.hotnewdeal.com/2017/03/20/180920_Uno_card_game_286_at_Amazon_AddOn__lowest_pr/20%Monthly2017-03-20 12:16
http://www.hotnewdeal.com/2017/03/20/180919_Kohls_Cardholders_The_Big_One_Down_Alternative_Re/20%Monthly2017-03-20 12:16
http://www.hotnewdeal.com/2017/03/20/180918_Waterproof_Wireless_Doorbell_for_765_AC__Amazon/20%Monthly2017-03-20 12:16
http://www.hotnewdeal.com/2017/03/20/180917_Get_a_100_ToysRUs_Gift_Card_for_only_85__Emai/20%Monthly2017-03-20 12:07
http://www.hotnewdeal.com/2017/03/20/180916_DJI_Phantom_3_Pro_refurb_direct_from_DJI__579/20%Monthly2017-03-20 12:07
http://www.hotnewdeal.com/2017/03/20/180915_100Piece_Imaginarium_AllinOne_Wooden_Train_Tabl/20%Monthly2017-03-20 11:58
http://www.hotnewdeal.com/2017/03/20/180914_4Piece_Pilot_Automotive_All_Season_Rubber_Floor_M/20%Monthly2017-03-20 11:58
http://www.hotnewdeal.com/2017/03/20/180913_TaxAct_Premium_Bundle_Federal__State_10/20%Monthly2017-03-20 11:47
http://www.hotnewdeal.com/2017/03/20/180912_eBay_GC_deals_for__Best_Buy_iTunes_Cabelas_Do/20%Monthly2017-03-20 11:39
http://www.hotnewdeal.com/2017/03/20/180911_Emerson_Sensi_WiFi_thermostat_Works_with_Alexa_/20%Monthly2017-03-20 11:39
http://www.hotnewdeal.com/2017/03/20/180910_Best_Picture_Academy_Award_Winners_5Film_Collect/20%Monthly2017-03-20 11:32
http://www.hotnewdeal.com/2017/03/20/180909_Amazon_Lightning_Deal_Anker_6Pack_PowerLine_Mi/20%Monthly2017-03-20 11:08
http://www.hotnewdeal.com/2017/03/20/180908_15_back_in_Shop_Your_Way_SYW_points_for_30_pu/20%Monthly2017-03-20 11:08
http://www.hotnewdeal.com/2017/03/20/180907_10_for_20_of_Uber_eGift_Card_at_Groupon__INVITE/20%Monthly2017-03-20 10:46
http://www.hotnewdeal.com/2017/03/20/180906_Kindle__5_Robert_McCammon_Books_199299_Each_/20%Monthly2017-03-20 10:46
http://www.hotnewdeal.com/2017/03/20/180905_Lauren_Ralph_Lauren_Mens_ClassicFit_FlatFront_C/20%Monthly2017-03-20 10:38
http://www.hotnewdeal.com/2017/03/20/180904_Onkyo_TX_SR353_51_Channel_4K_Ultra_HD_AV_Receiver/20%Monthly2017-03-20 10:38
http://www.hotnewdeal.com/2017/03/20/180903_Humminbird_698ci_HD_SI_ChartplotterFishfinder_Com/20%Monthly2017-03-20 10:31
http://www.hotnewdeal.com/2017/03/20/180902_15feet_Frost_King_Foam_and_Foil_Pipe_Insulation_/20%Monthly2017-03-20 10:23
http://www.hotnewdeal.com/2017/03/20/180901_Sony_Core_Series_Speakers_50_Off_MSRP_Thru_325_/20%Monthly2017-03-20 10:22
http://www.hotnewdeal.com/2017/03/20/180900_Best_Buy__LG__21Channel_Soundbar_System_with_W/20%Monthly2017-03-20 10:16
http://www.hotnewdeal.com/2017/03/20/180899_Avery_Round_Color_Coding_Labels_Pack_of_315__11/20%Monthly2017-03-20 10:06
http://www.hotnewdeal.com/2017/03/20/180898_Life_is_Good_Womens_Long_Sleeve_Crusher_Tees_or_V/20%Monthly2017-03-20 09:58
http://www.hotnewdeal.com/2017/03/20/180897_Zotac_GeForce_GTX_1070_AMP_Edition_28499_at_Mic/20%Monthly2017-03-20 09:47
http://www.hotnewdeal.com/2017/03/20/180896_Stanley_Tool_Sets_10_off_50_145Piece_Stanley_M/20%Monthly2017-03-20 09:32
http://www.hotnewdeal.com/2017/03/20/180894_Urban_Decay_Smoked_Eyeshadow_Palette_20__Free_Sh/20%Monthly2017-03-20 09:04
http://www.hotnewdeal.com/2017/03/20/180892_128oz_Essential_Home_Bleach_1__Free_InStore_Pi/20%Monthly2017-03-20 08:55
http://www.hotnewdeal.com/2017/03/20/180891_TAG_Heuer_Mens_Racer_2_9223_901_Matte_Black_Sport_/20%Monthly2017-03-20 08:46
http://www.hotnewdeal.com/2017/03/20/180890_7Piece_Craftsman_Evolv_Combination_Wrench_Set_Me/20%Monthly2017-03-20 08:37
http://www.hotnewdeal.com/2017/03/20/180889_3M_Virtua_Polycarb_Safety_Glasses_093__Free_Pri/20%Monthly2017-03-20 08:22
http://www.hotnewdeal.com/2017/03/20/180888_DC_Shoes_Sale_on_Sale_30_off_1_Item_or_40_off_2/20%Monthly2017-03-20 08:07
http://www.hotnewdeal.com/2017/03/20/180887_Orlando_to_San_Francisco_or_Vice_Versa_186_RT_on_/20%Monthly2017-03-20 07:58
http://www.hotnewdeal.com/2017/03/20/180886_Pampers_Swaddlers_Size_1_216_CT_2047__Size_6/20%Monthly2017-03-20 07:47
http://www.hotnewdeal.com/2017/03/20/180885_Amazon_YumEarth_Organic_Lollipops_85_Ounce_Bag_/20%Monthly2017-03-20 07:39
http://www.hotnewdeal.com/2017/03/20/180884_LOWES_YMMV_Kobalt_Spartk_Plug_and_Feeler_Gauge_2/20%Monthly2017-03-20 07:23
http://www.hotnewdeal.com/2017/03/20/180883_Sennheiser__Audiophile_OvertheEar_Headphones__/20%Monthly2017-03-20 06:28
http://www.hotnewdeal.com/2017/03/20/180882_Kaspersky_AntiVirus_2017_1_PC__Key_Card_for_Fr/20%Monthly2017-03-20 06:07
http://www.hotnewdeal.com/2017/03/20/180881_Pottery_Barn_Marlo_Organic_Cotton_Shower_Curtain_/20%Monthly2017-03-20 06:07
http://www.hotnewdeal.com/2017/03/20/180880_Original_Xiaomi_Mijia_05mm_Sign_Pen_White/20%Monthly2017-03-20 05:07
http://www.hotnewdeal.com/2017/03/20/180879_Select_Gaming_Components__Accessories_Netgear_Ni/20%Monthly2017-03-20 04:08
http://www.hotnewdeal.com/2017/03/20/180878_Moto_2nd_Gen_Moto_360_Smartwatch_16999__19999/20%Monthly2017-03-20 04:08
http://www.hotnewdeal.com/2017/03/20/180877_Xbox_20_Gift_Card_1876_at_amazon/20%Monthly2017-03-20 03:08
http://www.hotnewdeal.com/2017/03/20/180875_Train_to_Busan_Digital_HD_Movie_099__Amazon/20%Monthly2017-03-20 02:29
http://www.hotnewdeal.com/2017/03/20/180874_36Count_Fiber_One_SoftBaked_Bars_Chocolate_Fudg/20%Monthly2017-03-20 02:29
http://www.hotnewdeal.com/2017/03/20/180873_Ryanair_1075_OW_Airfares_for_Flights_WITHIN_Euro/20%Monthly2017-03-20 02:29
http://www.hotnewdeal.com/2017/03/20/180872_Logitech__MX_Master_Wireless_Laser_Mouse__Black_/20%Monthly2017-03-20 02:24
http://www.hotnewdeal.com/2017/03/20/180871_The_Secret_Life_of_Pets_Max_Plush_Toy_099__Fre/20%Monthly2017-03-20 02:07
http://www.hotnewdeal.com/2017/03/20/180870_KitchenAid_KSMPRA_3_Piece_Pasta_Roller__Cutter_At/20%Monthly2017-03-20 02:07
http://www.hotnewdeal.com/2017/03/20/180869_Best_Buy_Dynex_Home_Vehicle_Portable_chargers_a/20%Monthly2017-03-20 02:07
http://www.hotnewdeal.com/2017/03/20/180868_Best_Buy__Insignia__AAAor_AA_Batteries_48Pack/20%Monthly2017-03-20 01:29
http://www.hotnewdeal.com/2017/03/20/180867_1oz_Maybelline_New_York_Dream_Pure_BB_Cream_Skin_C/20%Monthly2017-03-20 01:28
http://www.hotnewdeal.com/2017/03/20/180865_Under_Armour_Mens_Hoodies_from_1349_to_2249_An/20%Monthly2017-03-20 01:07
http://www.hotnewdeal.com/2017/03/20/180864_199_Lowepro_Ridge_30_Camera_Bag/20%Monthly2017-03-20 01:07
http://www.hotnewdeal.com/2017/03/20/180863_NCAA_Sport_Locker_72quot_H_x_12quot_W_x_18quo/20%Monthly2017-03-20 00:15
http://www.hotnewdeal.com/2017/03/20/180862_Sennheiser_HD_450_BTNC_Wireless_Bluetooth_Headpho/20%Monthly2017-03-20 00:15
http://www.hotnewdeal.com/2017/03/20/180861_New_York_Times_Bestsellers_on_Kindle_2__5_Tod/20%Monthly2017-03-20 00:15
http://www.hotnewdeal.com/2017/03/19/180860_HALO_SleepSack_MicroFleece_Swaddle_Baby_Blue_Pr/20%Monthly2017-03-19 23:47
http://www.hotnewdeal.com/2017/03/19/180859_ACER_PREDATOR_17X_gaming_laptop_173_75Hz_FHD_IP/20%Monthly2017-03-19 23:39
http://www.hotnewdeal.com/2017/03/19/180858_AUKEY_Waterproof_iPhone_Case_with_Armband_for_22/20%Monthly2017-03-19 23:24
http://www.hotnewdeal.com/2017/03/19/180857_The_App_for_exploring_the_Louvre_is_free_today_Ac/20%Monthly2017-03-19 23:08
http://www.hotnewdeal.com/2017/03/19/180856_Sony_STRDN1070_4k_receiver__Open_Box__Best_Buy_/20%Monthly2017-03-19 23:08
http://www.hotnewdeal.com/2017/03/19/180855_Red_Bull_Energy_Drink_84Ounce_Pack_of_24_283/20%Monthly2017-03-19 23:08
http://www.hotnewdeal.com/2017/03/19/180853_10Pack_of_247oz_Pocky_Biscuit_Stick_Chocolate/20%Monthly2017-03-19 22:07
http://www.hotnewdeal.com/2017/03/19/180852_9mm_CCI_Blazer_Brass_ammo_case_of_1000_18990_AR_/20%Monthly2017-03-19 21:39
http://www.hotnewdeal.com/2017/03/19/180851_Home_Depot__Empire_7_Aluminum_Rafter_Square_79/20%Monthly2017-03-19 21:17
http://www.hotnewdeal.com/2017/03/19/180850_Boston_to_New_Orleans_159_RT_on_United_Airlines_/20%Monthly2017-03-19 21:17
http://www.hotnewdeal.com/2017/03/19/180849_Swiffer_steamboost_mop_1999_Meijer_BM/20%Monthly2017-03-19 21:08
http://www.hotnewdeal.com/2017/03/19/180848_Scented_candles_17oz_glass_jar_various_scents_4/20%Monthly2017-03-19 20:55
http://www.hotnewdeal.com/2017/03/19/180847_ZShade_10x10_Instant_Canopy_3999__Free_Store/20%Monthly2017-03-19 20:38
http://www.hotnewdeal.com/2017/03/19/180846_GAP_Mens_Jeans_42_for_2_pairs_40_off_when_you_b/20%Monthly2017-03-19 20:31
http://www.hotnewdeal.com/2017/03/19/180845_Energizer_CR123A_Batteries_6_for_734_SS_Amazon/20%Monthly2017-03-19 20:31
http://www.hotnewdeal.com/2017/03/19/180844_Express_Clothing_White_Ivory_Embossed_Moto_Jacket_/20%Monthly2017-03-19 20:16
http://www.hotnewdeal.com/2017/03/19/180843_Target_Felton_Tufted_Loveseat__Threshold_42999_/20%Monthly2017-03-19 20:16
http://www.hotnewdeal.com/2017/03/19/180842_Brawny_PickaSize_Paper_Towels_16XL_Rolls_2029/20%Monthly2017-03-19 19:47
http://www.hotnewdeal.com/2017/03/19/180841_108Piece_DEWALT_Mechanics_Tool_Set_5997__Free_/20%Monthly2017-03-19 19:24
http://www.hotnewdeal.com/2017/03/19/180840_Hot_Wheels_Mega_Hauler_9__free_shipping_w_Prime/20%Monthly2017-03-19 19:08
http://www.hotnewdeal.com/2017/03/19/180838_Bose_Soundtouch_120_Home_Theater_System_499_at_T/20%Monthly2017-03-19 18:07
http://www.hotnewdeal.com/2017/03/19/180837_Nexbox_A95X_TV_Box_S905X_4K_2GB_DDR3_8GB_eMMC/20%Monthly2017-03-19 17:33
http://www.hotnewdeal.com/2017/03/19/180836_Legend_of_the_Guardians_The_Owls_of_GaHoole_Blu/20%Monthly2017-03-19 17:28
http://www.hotnewdeal.com/2017/03/19/180835_Playstation_Plus_12_months_4399/20%Monthly2017-03-19 17:08
http://www.hotnewdeal.com/2017/03/19/180834_Amazon_7199_Amcrest_ProHD_1080P_POE_Power_Over/20%Monthly2017-03-19 17:08
http://www.hotnewdeal.com/2017/03/19/180833_Craftsman_6Selection_Preset_Water_Timer_1499__/20%Monthly2017-03-19 17:08
http://www.hotnewdeal.com/2017/03/19/180832_David_Bowie_AKA_Space_Oddity_180_Gram_Vinyl_Amaz/20%Monthly2017-03-19 16:55
http://www.hotnewdeal.com/2017/03/19/180831_Acer_215_1920_x1080_LED_Monitor_60_FS__Best_Bu/20%Monthly2017-03-19 16:38
http://www.hotnewdeal.com/2017/03/19/180830_Amazon_58Ct_Quaker_Chewy_Granola_Bars_Chocolate_/20%Monthly2017-03-19 16:23
http://www.hotnewdeal.com/2017/03/19/180829_Verizon__Target_200_Gift_Card_for_New_Lines_10/20%Monthly2017-03-19 16:16
http://www.hotnewdeal.com/2017/03/19/180828_UTZ_Pub_Mix_44oz_Barrel__387_Amazon_Addon/20%Monthly2017-03-19 16:16
http://www.hotnewdeal.com/2017/03/19/180827_VIZIO__55_Class_5464_Diag__LED__2160p__S/20%Monthly2017-03-19 15:58
http://www.hotnewdeal.com/2017/03/19/180826_Free_10_gift_card_when_you_buy_3_items_from_Tide/20%Monthly2017-03-19 15:38
http://www.hotnewdeal.com/2017/03/19/180825_Sony_STRDH770_72_Receiver_200__AmazonBest_Buy/20%Monthly2017-03-19 15:32
http://www.hotnewdeal.com/2017/03/19/180824_Lego_Star_Wars_Reys_Speeder_75099_1164__Amazon/20%Monthly2017-03-19 15:17
http://www.hotnewdeal.com/2017/03/19/180822_Bird_seed_deal_20_lb_bag_of_FM_Browns_nowaste/20%Monthly2017-03-19 15:13
http://www.hotnewdeal.com/2017/03/19/180821_18_boxes_Puffs_Plus_Lotion_Facial_Tissues_124_pk_/20%Monthly2017-03-19 15:08
http://www.hotnewdeal.com/2017/03/19/180820_Hitman_The_Complete_First_Season_PC_Digital_Down/20%Monthly2017-03-19 14:23
http://www.hotnewdeal.com/2017/03/19/180819_Craftsman_3900_sq_ft_Turbo_Oscillating_Sprinkler/20%Monthly2017-03-19 14:22
http://www.hotnewdeal.com/2017/03/19/180818_Intel_Core_i57600K_CPU_and_Asus_PRIME_Z270AR_ATX/20%Monthly2017-03-19 14:19
http://www.hotnewdeal.com/2017/03/19/180816_Kohls_Cardholders_The_Big_One_Super_Soft_Plush_Bl/20%Monthly2017-03-19 14:16
http://www.hotnewdeal.com/2017/03/19/180815_Monoprice_Palette_Series_20_USBC_to_USB_A_6ft_C/20%Monthly2017-03-19 14:06
http://www.hotnewdeal.com/2017/03/19/180814_24Count_Sharpie_Permanent_Ultra_Fine_Point_or_Fin/20%Monthly2017-03-19 13:47
http://www.hotnewdeal.com/2017/03/19/180813_Womens_Microfleece_Animal_Onesie_Pajama__Bunny_/20%Monthly2017-03-19 13:35
http://www.hotnewdeal.com/2017/03/19/180812_Bluetooth_Portable_Speakers_for_699_AC__Amazon/20%Monthly2017-03-19 13:24
http://www.hotnewdeal.com/2017/03/19/180811_Amazon__DHP_Junior_Loft_Bunk_bed__80_w_Free_sh/20%Monthly2017-03-19 13:24
http://www.hotnewdeal.com/2017/03/19/180810_Kohls_Cardholders_5_or_4Pc_Fiestaware_Place_Sett/20%Monthly2017-03-19 13:17
http://www.hotnewdeal.com/2017/03/19/180809_Craftsman_9_Magnetic_Torpedo_Level_499__Free_S/20%Monthly2017-03-19 13:08
http://www.hotnewdeal.com/2017/03/19/180808_Akibas_Beat_PS4__2897_on_Amazon/20%Monthly2017-03-19 12:54
http://www.hotnewdeal.com/2017/03/19/180807_24Pack_of_07mm_BIC_Xtra_Sparkle_Mechanical_Penci/20%Monthly2017-03-19 12:16
http://www.hotnewdeal.com/2017/03/19/180806_Allen_Edmonds_factory_seconds_sale/20%Monthly2017-03-19 12:16
http://www.hotnewdeal.com/2017/03/19/180805_Coleman_Sundome_4_Person_Tent_Green_and_Navy_colo/20%Monthly2017-03-19 12:16
http://www.hotnewdeal.com/2017/03/19/180804_Star_Ocean_Integrity_and_Faithlessness_PS4__2/20%Monthly2017-03-19 12:06
http://www.hotnewdeal.com/2017/03/19/180803_Monoprice_15_sitewide_31917_only/20%Monthly2017-03-19 11:46
http://www.hotnewdeal.com/2017/03/19/180802_TPLink_Smart_WiFi_Light_Switch_HS200_2999_at/20%Monthly2017-03-19 11:43
http://www.hotnewdeal.com/2017/03/19/180801_Pokemon_3Movies_Limited_Edition_Steelbook_Collect/20%Monthly2017-03-19 11:17
http://www.hotnewdeal.com/2017/03/19/180800_The_RescuersDown_Under_35th_Anniversary_3Disc_/20%Monthly2017-03-19 11:07
http://www.hotnewdeal.com/2017/03/19/180799_Dewalt_Right_Angle_Drill_Attachment__999_Acehar/20%Monthly2017-03-19 10:16
http://www.hotnewdeal.com/2017/03/19/180798_LG__Watch_Style_Smartwatch_423mm_Stainless_Steel/20%Monthly2017-03-19 10:07
http://www.hotnewdeal.com/2017/03/19/180797_ChromaCast_Adjustable_Guitar_Stand_573__FS_w_P/20%Monthly2017-03-19 10:07
http://www.hotnewdeal.com/2017/03/19/180796_3TB_WD_Red_Network_NAS_Hard_Drive_Boxed_94Fr/20%Monthly2017-03-19 09:58
http://www.hotnewdeal.com/2017/03/19/180795_Best_Buy__50_TradeIn_Bonus_on_PS4_Xbox_One__N/20%Monthly2017-03-19 09:33
http://www.hotnewdeal.com/2017/03/19/180794_3Count_of_12oz_Starbucks_Whole_Bean_or_Ground_Cof/20%Monthly2017-03-19 09:33
http://www.hotnewdeal.com/2017/03/19/180793_Craftsman_2beam_SelfLeveling_Laser_Level_Sears_/20%Monthly2017-03-19 09:24
http://www.hotnewdeal.com/2017/03/19/180792_Lords_Of_The_Fallen_Digital_Deluxe_PC_136/20%Monthly2017-03-19 09:17
http://www.hotnewdeal.com/2017/03/19/180791_88162_Refurbished_VIZIO_70_Class_ESeries__4K_/20%Monthly2017-03-19 09:17
http://www.hotnewdeal.com/2017/03/19/180790_FIJI_Artesian_Water_15L_Bottles_Pack_of_12__/20%Monthly2017-03-19 09:08
http://www.hotnewdeal.com/2017/03/19/180789_Nanoleaf_Bloom_Super_Smart_Dimmable_LED_Bulb_699/20%Monthly2017-03-19 09:08
http://www.hotnewdeal.com/2017/03/19/180788_Scotts_Turf_Builder_23lb_Broadcast_Spreader__Low/20%Monthly2017-03-19 08:45
http://www.hotnewdeal.com/2017/03/19/180787_buy_1_get_1_50_off_select_coffee_KCup_pods_targ/20%Monthly2017-03-19 08:38
http://www.hotnewdeal.com/2017/03/19/180786_Apple_Watch_Band__Milanese_Loop_Mesh_Strap_with_M/20%Monthly2017-03-19 08:12
http://www.hotnewdeal.com/2017/03/19/180785_Craftsman_4Gallon_25_Peak_HP_WetDry_Vac__10_S/20%Monthly2017-03-19 07:48
http://www.hotnewdeal.com/2017/03/19/180783_Craftsman_7Pattern_RearTrigger_AquaGun_299__F/20%Monthly2017-03-19 07:25
http://www.hotnewdeal.com/2017/03/19/180782_Shrek_4_Movie_Collection_Bluray__Digital_HD_/20%Monthly2017-03-19 07:25
http://www.hotnewdeal.com/2017/03/19/180781_ThermaRest_NeoAir_All_Season_Mattress_Medium_/20%Monthly2017-03-19 07:16
http://www.hotnewdeal.com/2017/03/19/180780_ThermARest_NeoAir_Xlite_Reg_Campinghiking_sle/20%Monthly2017-03-19 07:13
http://www.hotnewdeal.com/2017/03/19/180779_Sharp_60_Full_HD_Smart_LED_TV__1080p_60Hz_LC/20%Monthly2017-03-19 06:07
http://www.hotnewdeal.com/2017/03/19/180778_The_Last_Naruto_the_Movie_Bluray__DVD_Combo_/20%Monthly2017-03-19 05:07
http://www.hotnewdeal.com/2017/03/19/180777_Amazoncom__Lenovo_Ideapad_510s_140_Laptop_Sil/20%Monthly2017-03-19 04:28
http://www.hotnewdeal.com/2017/03/19/180776_Targeted_YMMV_Extra_50_off_one_Local_Deal_at_G/20%Monthly2017-03-19 04:27
http://www.hotnewdeal.com/2017/03/19/180775_Northwest_Territory_9x7_Sierra_Dome_Tent_1999_/20%Monthly2017-03-19 04:07
http://www.hotnewdeal.com/2017/03/19/180774_Best_Buy_will_offer_a_100_rebate_at_launch_of_the/20%Monthly2017-03-19 04:07
http://www.hotnewdeal.com/2017/03/19/180773_Eddie_Bauer_Cloud_Layer_Pro_Mens_Fleece_Jacket_3/20%Monthly2017-03-19 04:07
http://www.hotnewdeal.com/2017/03/19/180771_Craftsman_Socket_Sets_25Piece_38_Drive_Impact_/20%Monthly2017-03-19 03:22
http://www.hotnewdeal.com/2017/03/19/180770_Craftsman_100_x_58_rubber_garden_hose_35_50_/20%Monthly2017-03-19 03:07
http://www.hotnewdeal.com/2017/03/19/180769_16Piece_Craftsman_Extreme_Grip_Screwdriver_Set_3/20%Monthly2017-03-19 02:28
http://www.hotnewdeal.com/2017/03/19/180768_Senchanting_Reusable_Thin_Adhesive_Silicone_Nipple/20%Monthly2017-03-19 02:24
http://www.hotnewdeal.com/2017/03/19/180767_GCU_Members_Borderlands_The_Handsome_Collection_/20%Monthly2017-03-19 02:06
http://www.hotnewdeal.com/2017/03/19/180766_Best_Buy__Logitech__K400_Plus_Wireless_Keyboard_/20%Monthly2017-03-19 02:06
http://www.hotnewdeal.com/2017/03/19/180765_50_Off_on_Microbiome_Plus_Gastrointestinal_Prebio/20%Monthly2017-03-19 02:03
http://www.hotnewdeal.com/2017/03/19/180764_LOWES_YMMV_Minwax_1gal_Wood_Finish_Penetrating_S/20%Monthly2017-03-19 01:27
http://www.hotnewdeal.com/2017/03/19/180763_Reno_911_The_Complete_Series_Amazon_Prime_2472_/20%Monthly2017-03-19 01:27
http://www.hotnewdeal.com/2017/03/19/180762_FloTool_11930MI_Heavy_Duty_Wheel_Chocks_Set_of_2_/20%Monthly2017-03-19 01:07
http://www.hotnewdeal.com/2017/03/19/180761_3INONE_Garage_Door_Lubricant_Spray_11_oz_for_2/20%Monthly2017-03-19 01:06
http://www.hotnewdeal.com/2017/03/19/180760_Roku_Stick_Streaming_Media_Player__20_FS_with_on/20%Monthly2017-03-19 01:06
http://www.hotnewdeal.com/2017/03/19/180759_Amazon_DualShock_4_Wireless_Controller_for_PlaySta/20%Monthly2017-03-19 01:06
http://www.hotnewdeal.com/2017/03/18/180757_Natural_Balance_LID_Dry_Dog_Food__Sweet_Potato__/20%Monthly2017-03-18 23:57
http://www.hotnewdeal.com/2017/03/18/180756_acer_23_monitor_g247hyl_1080p_widescreen_9999_af/20%Monthly2017-03-18 23:57
http://www.hotnewdeal.com/2017/03/18/180755_Takeya_Cold_Brew_Iced_Coffee_Maker_1Quart_Black/20%Monthly2017-03-18 23:46
http://www.hotnewdeal.com/2017/03/18/180754_TPLink_AC1200_WiFi_Range_Extender_Repeater_29/20%Monthly2017-03-18 23:37
http://www.hotnewdeal.com/2017/03/18/180753_Abu_Garcia_Silvermax_7ft_MH_Spinning_Rod_and_Reel_/20%Monthly2017-03-18 23:31
http://www.hotnewdeal.com/2017/03/18/180749_Kohls_Cardholders_Disney_Frozen_Clearance_Girls_/20%Monthly2017-03-18 22:21
http://www.hotnewdeal.com/2017/03/18/180748_Samsung_SM961_256GB_NVMe_SSD_11430__free_SH/20%Monthly2017-03-18 22:15
http://www.hotnewdeal.com/2017/03/18/180747_Lauren_Ralph_Lauren_Dress_Pants_3_for_4498__5_/20%Monthly2017-03-18 22:12
http://www.hotnewdeal.com/2017/03/18/180746_Alien_franchise_with_free_movie_certificate_for_Al/20%Monthly2017-03-18 21:56
http://www.hotnewdeal.com/2017/03/18/180745_Sceptre_U750CVU_75_Class__4K_Ultra_HD_LED_TV_/20%Monthly2017-03-18 21:45
http://www.hotnewdeal.com/2017/03/18/180744_Samsung_55_Class_KS800D_8000_Series_Refurb__4K/20%Monthly2017-03-18 21:45
http://www.hotnewdeal.com/2017/03/18/180743_Lipton_Pure_Leaf_Unsweetened_Iced_Tea_12_pk_185_/20%Monthly2017-03-18 21:30
http://www.hotnewdeal.com/2017/03/18/180742_IZOD_Uniform_Mens_Flat_Front_Twill_PantSlim__am/20%Monthly2017-03-18 21:22
http://www.hotnewdeal.com/2017/03/18/180741_Mens_adidas_NBA_Climalite_TShirt_various_teams/20%Monthly2017-03-18 21:06
http://www.hotnewdeal.com/2017/03/18/180740_Western_Digital_6_Terabyte_My_Book_For_14999_At_/20%Monthly2017-03-18 20:21
http://www.hotnewdeal.com/2017/03/18/180738_ASUS_Transformer_Gray_T102HA_Signature_Edition_2_i/20%Monthly2017-03-18 20:14
http://www.hotnewdeal.com/2017/03/18/180737_Select_Walmart_Stores_CharBroil_American_Gourmet/20%Monthly2017-03-18 19:07
http://www.hotnewdeal.com/2017/03/18/180736_Prime_Members_Hanes_Mens_Ultimate_Thermal_Pant_A/20%Monthly2017-03-18 17:57
http://www.hotnewdeal.com/2017/03/18/180735_Xbox_One_S_Battlefield_1_Special_Edition_Bundle_1/20%Monthly2017-03-18 17:57
http://www.hotnewdeal.com/2017/03/18/180734_eBags_Allura_22_hardside_polycarbonate_carryon_s/20%Monthly2017-03-18 17:38
http://www.hotnewdeal.com/2017/03/18/180733_Prime_Members_Mens_Turbo_Open_Bottom_Oxford_Nylo/20%Monthly2017-03-18 17:24
http://www.hotnewdeal.com/2017/03/18/180732_MSI_GeForce_GTX_1050_DirectX_12_GTX_1050_2G_OC_2GB/20%Monthly2017-03-18 17:23
http://www.hotnewdeal.com/2017/03/18/180731_Best_Buy__Apple__Apple_Watch_Series_2_42mm_Stain/20%Monthly2017-03-18 17:13
http://www.hotnewdeal.com/2017/03/18/180730_Catch_Me_If_You_Can_Kindle_book_2/20%Monthly2017-03-18 17:07
http://www.hotnewdeal.com/2017/03/18/180729_Military_Only_Exchange_has_the_Microsoft_Surface/20%Monthly2017-03-18 16:45
http://www.hotnewdeal.com/2017/03/18/180728_Walker_Edison_Soreno_3Piece_Corner_Desk_Black_wi/20%Monthly2017-03-18 16:22
http://www.hotnewdeal.com/2017/03/18/180727_Baby__Kids_Apparel_Clearance__Walmart_from_1/20%Monthly2017-03-18 16:22
http://www.hotnewdeal.com/2017/03/18/180726_54x78_Inch_Yellow_Santa_Claus_Rectangular_Non_Slip/20%Monthly2017-03-18 16:15
http://www.hotnewdeal.com/2017/03/18/180725_Lenovo_ThinkCentre_M700_Tiny__ThinkVision_T2224z_/20%Monthly2017-03-18 16:06
http://www.hotnewdeal.com/2017/03/18/180724_SAPPHIRE_NITRO_Radeon_RX_480_100406NT8GOCL_or_Powe/20%Monthly2017-03-18 15:57
http://www.hotnewdeal.com/2017/03/18/180723_Houston_to_Los_Angeles_or_Vice_Versa_106_RT_on_Un/20%Monthly2017-03-18 15:46
http://www.hotnewdeal.com/2017/03/18/180722_REI_has_mens_Under_Armour_Base_203040_long_/20%Monthly2017-03-18 15:32
http://www.hotnewdeal.com/2017/03/18/180721_Kabden_4LTactical_Waist_Leg_Pack_9_or_Kabden_3804/20%Monthly2017-03-18 15:32
http://www.hotnewdeal.com/2017/03/18/180720_12_Klipsch_Synergy_300Watt_Subwoofer_200__Free/20%Monthly2017-03-18 15:08
http://www.hotnewdeal.com/2017/03/18/180719_Refurbished_Roku_SE_Streaming_Media_Player_2710SE/20%Monthly2017-03-18 15:07
http://www.hotnewdeal.com/2017/03/18/180718_Costco_BM_Multy_Home_XR6_Sport_Rubber_Flooring_20/20%Monthly2017-03-18 14:55
http://www.hotnewdeal.com/2017/03/18/180717_Kohls_Cardholders_Dockers_Mens_Aviator_Sunglasse/20%Monthly2017-03-18 14:38
http://www.hotnewdeal.com/2017/03/18/180716_Kohls_Cardholders_Cuddl_Duds_Flannel_Sheet_Set__/20%Monthly2017-03-18 14:31
http://www.hotnewdeal.com/2017/03/18/180715_HR_BLOCK_Tax_Software_Deluxe_14__DeluxeState_/20%Monthly2017-03-18 14:31
http://www.hotnewdeal.com/2017/03/18/180714_HP_EliteBook_Folio_1020_G1_Intel_Core_M_5Y71_8_GB_/20%Monthly2017-03-18 14:12
http://www.hotnewdeal.com/2017/03/18/180713_Lego_Star_Wars_CarbonFreezing_Chamber_price_drop/20%Monthly2017-03-18 13:58
http://www.hotnewdeal.com/2017/03/18/180712_Roku_Express_Streaming_Media_Player_1999_Kohls/20%Monthly2017-03-18 13:39
http://www.hotnewdeal.com/2017/03/18/180711_Apple_Watch_Series_2_Save_100_on_Select_38mm_or_4/20%Monthly2017-03-18 13:24
http://www.hotnewdeal.com/2017/03/18/180710_Only_290FS_AMD_Ryzen_7_1700_Processor_8Core_30/20%Monthly2017-03-18 13:08
http://www.hotnewdeal.com/2017/03/18/180709_LifeStraw_Family_10_Water_Purifier4198/20%Monthly2017-03-18 13:08
http://www.hotnewdeal.com/2017/03/18/180708_KH_Cool_Bed_III_Cooling_Dog_Bed_17x24__624_/20%Monthly2017-03-18 12:55
http://www.hotnewdeal.com/2017/03/18/180707_Hamilton_Beach_Small_Appliances_4_for_32_after_re/20%Monthly2017-03-18 12:55
http://www.hotnewdeal.com/2017/03/18/180705_Old_Mother_Hubbard_Bitz_Natural_Crunchy_Dog_Traini/20%Monthly2017-03-18 12:47
http://www.hotnewdeal.com/2017/03/18/180704_Tronsmart_Quick_Charge_20_5_Port_USB_Charging_Sta/20%Monthly2017-03-18 12:46
http://www.hotnewdeal.com/2017/03/18/180703_Neat_Solutions_Washcloths_12Pack_278__Target/20%Monthly2017-03-18 12:32
http://www.hotnewdeal.com/2017/03/18/180702_Kohls_Cardholders_Cuddl_Duds_Premium_Sherpa_Blank/20%Monthly2017-03-18 12:32
http://www.hotnewdeal.com/2017/03/18/180701_3D_VR_Glasses_007plus_Virtual_Reality_Headset_for/20%Monthly2017-03-18 12:32
http://www.hotnewdeal.com/2017/03/18/180700_6Pack_of_27oz_Degree_Men_Dry_Protection_Antipers/20%Monthly2017-03-18 12:24
http://www.hotnewdeal.com/2017/03/18/180699_Car_Charger_Dual_USB_Qualcom_30_Quick_Charge_by_T/20%Monthly2017-03-18 12:24
http://www.hotnewdeal.com/2017/03/18/180697_Samsung_55_Class_4k_SUHD_Smart_LED_LCD_TV_UN55KS8/20%Monthly2017-03-18 11:59
http://www.hotnewdeal.com/2017/03/18/180696_QNAP_TS228US_2bay_Diskless_NAS_99_Frys_start/20%Monthly2017-03-18 11:59
http://www.hotnewdeal.com/2017/03/18/180695_Rxment_USB_LED_Strip_RGB_Waterproof_TV_Backlight_B/20%Monthly2017-03-18 11:48
http://www.hotnewdeal.com/2017/03/18/180694_Girls_418_Columbia_Three_Lakes_Lightweight_Fleece/20%Monthly2017-03-18 11:40
http://www.hotnewdeal.com/2017/03/18/180693_Samsung_UN65JU6700_65_Curved_4K_Ultra_HD_2160p_60/20%Monthly2017-03-18 11:33
http://www.hotnewdeal.com/2017/03/18/180692_PowerBeats_2_Wireless_BlackRed__79_with_Coupon_/20%Monthly2017-03-18 11:18
http://www.hotnewdeal.com/2017/03/18/180690_MSI_GeForce_GTX_1080_DUKE_OC_Edition_8GB_256Bit_G/20%Monthly2017-03-18 10:47
http://www.hotnewdeal.com/2017/03/18/180689_65_Samsung_UN65KU6290FXZA_4K_Smart_UHD_HDTV_850_/20%Monthly2017-03-18 10:39
http://www.hotnewdeal.com/2017/03/18/180688_Best_Buy_WD__Mainstream_1TB_Internal_Serial_ATA_/20%Monthly2017-03-18 10:25
http://www.hotnewdeal.com/2017/03/18/180687_Kohls_Cardholders_Mens_ONeill_Chaser_Snow_Goggl/20%Monthly2017-03-18 09:59
http://www.hotnewdeal.com/2017/03/18/180686_Daiwa_Samurai_X_Spinning_Fishing_Rod_and_Reel_Comb/20%Monthly2017-03-18 09:59
http://www.hotnewdeal.com/2017/03/18/180685_Bose_Sound_touch_130_Home_theater_system_for_944/20%Monthly2017-03-18 09:49
http://www.hotnewdeal.com/2017/03/18/180684_Old_Navy_Today_Only_Womens_Dresses_Or_Cardigans_/20%Monthly2017-03-18 09:43
http://www.hotnewdeal.com/2017/03/18/180683_12Pack_of_176oz_Altoids_Cinnamon_Mints_963__F/20%Monthly2017-03-18 09:35
http://www.hotnewdeal.com/2017/03/18/180682_Trojan_Lubricants_Arouses_and_Releases_3oz_3__/20%Monthly2017-03-18 09:35
http://www.hotnewdeal.com/2017/03/18/180681_Outdoor_Garden_Landscape_Laser_Light_Red_Green_an/20%Monthly2017-03-18 09:20
http://www.hotnewdeal.com/2017/03/18/180680_Haggar_Travel_Performance_Mens_TailoredFit_Suit_/20%Monthly2017-03-18 09:10
http://www.hotnewdeal.com/2017/03/18/180679_Kohls_Cardholders_Mens_adidas_Basics_1_Shorts_o/20%Monthly2017-03-18 08:19
http://www.hotnewdeal.com/2017/03/18/180678_Air_Asia_Offers/20%Monthly2017-03-18 08:09
http://www.hotnewdeal.com/2017/03/18/180677_breville_smart_oven_pro_refurb_170/20%Monthly2017-03-18 08:00
http://www.hotnewdeal.com/2017/03/18/180676_Nikon_2470mm_f28_F28_G_AFS_ED_ZoomNikkor_Len/20%Monthly2017-03-18 07:50
http://www.hotnewdeal.com/2017/03/18/180675_Mens_Croft__Barrow_Dress_Shirts_8_for_35_shippe/20%Monthly2017-03-18 07:29
http://www.hotnewdeal.com/2017/03/18/180674_65_Piece_Magnetic_Building_Blocks_Toys_for_2099_/20%Monthly2017-03-18 07:29
http://www.hotnewdeal.com/2017/03/18/180673_New_Balance_690v4_Mens_Running_Shoes_2309_Shipp/20%Monthly2017-03-18 06:30
http://www.hotnewdeal.com/2017/03/18/180672_12_pack_34_26oz_Dove_Advanced_Care_Antiperspir/20%Monthly2017-03-18 06:30
http://www.hotnewdeal.com/2017/03/18/180671_DJI_Phantom_3_Standard_Quadcopter_Drone_with_3Axi/20%Monthly2017-03-18 06:11
http://www.hotnewdeal.com/2017/03/18/180670_ILIFE_Robotic_Vacuums_V1_70_or_X5_100__free_sh/20%Monthly2017-03-18 06:10
http://www.hotnewdeal.com/2017/03/18/180669_Kaspersky_Internet_Security_2017_1_PC__Key_Card/20%Monthly2017-03-18 05:31
http://www.hotnewdeal.com/2017/03/18/180668_Waterproof_Gaming_Keyboard_2519_AC_Free_Shipping/20%Monthly2017-03-18 05:04
http://www.hotnewdeal.com/2017/03/18/180667_EZOPower_13000mAh_Power_Bank__pack_of_2__for_9/20%Monthly2017-03-18 03:10
http://www.hotnewdeal.com/2017/03/18/180666_29_off_Oittm_3_in_1_Bracket_Charging_Dock_4Por/20%Monthly2017-03-18 03:10
http://www.hotnewdeal.com/2017/03/18/180664_GoodSense_Allergy_MultiSymptom_Caplets_24ct_103/20%Monthly2017-03-18 03:10
http://www.hotnewdeal.com/2017/03/18/180663_Portable_Charger_20800mAh_Power_Bank_Ultra_High_Ca/20%Monthly2017-03-18 03:10
http://www.hotnewdeal.com/2017/03/18/180662_Magazine_Deals_Extreme_HowTo_699yr_Mens_Fit/20%Monthly2017-03-18 02:10
http://www.hotnewdeal.com/2017/03/18/180661_Travelling_Shockproof_Waterproof_Shoulder_Backpack/20%Monthly2017-03-18 02:10
http://www.hotnewdeal.com/2017/03/18/180660_3Count_of_145oz_Quaker_Oatmeal_Squares_Breakfast/20%Monthly2017-03-18 01:31
http://www.hotnewdeal.com/2017/03/18/180659_Free_22_oz_Can_of_Pedigree_Wet_Dog_Food_Assorted_/20%Monthly2017-03-18 01:24
http://www.hotnewdeal.com/2017/03/18/180658_Amazon_Kindle__The_Manchurian_Candidate_Kindle_/20%Monthly2017-03-18 01:09
http://www.hotnewdeal.com/2017/03/18/180657_Groupon_coupon_for_Restaurants_Massages_things_t/20%Monthly2017-03-18 01:03
http://www.hotnewdeal.com/2017/03/18/180656_Nintendo_Switch_Dock_Sock_Covers__10/20%Monthly2017-03-18 00:17
http://www.hotnewdeal.com/2017/03/18/180655_KZ_ZS3_Detachable_Design_HiFi_In_Ear_Stereo_Earpho/20%Monthly2017-03-18 00:17
http://www.hotnewdeal.com/2017/03/18/180654_Prime_Members_Dragon_Quest_Builders_PS4_3499_/20%Monthly2017-03-18 00:11
http://www.hotnewdeal.com/2017/03/17/180653_Amazon_Ca_The_Mummy_Ultimate_Trilogy_The_Mummy_/20%Monthly2017-03-17 23:50
http://www.hotnewdeal.com/2017/03/17/180652_Xiaomi_Mi_Note_2_57_inch_Global_Version_6GB_RAM_1/20%Monthly2017-03-17 23:43
http://www.hotnewdeal.com/2017/03/17/180651_2MP_Camera_Drone_TricopterFPV_with_8G4CH6axis/20%Monthly2017-03-17 23:43
http://www.hotnewdeal.com/2017/03/17/180650_57_Ooff_3Pack_iPhone_77_PlusGoogle_PixelPixe/20%Monthly2017-03-17 23:29
http://www.hotnewdeal.com/2017/03/17/180649_Select_by_Calphalon_10piece_stainless_cookware_se/20%Monthly2017-03-17 23:11
http://www.hotnewdeal.com/2017/03/17/180648_100_Glow_Stick_Bracelets_only_799/20%Monthly2017-03-17 22:59
http://www.hotnewdeal.com/2017/03/17/180647_WD_My_Book_6TB_USB_30_Desktop_Hard_Drive_WDBBGB00/20%Monthly2017-03-17 22:50
http://www.hotnewdeal.com/2017/03/17/180646_MutliFunction_8_in_1_Stainless_Steel_Folding_Pock/20%Monthly2017-03-17 22:35
http://www.hotnewdeal.com/2017/03/17/180645_World_of_Warcraft_Legion__Windows__3999/20%Monthly2017-03-17 21:39
http://www.hotnewdeal.com/2017/03/17/180644_Las_Vegas_to_Charlotte_NC_or_Vice_Versa_200_RT_on/20%Monthly2017-03-17 21:39
http://www.hotnewdeal.com/2017/03/17/180643_HM_MidSeason_Sale_prices_starting_at_4__free_s/20%Monthly2017-03-17 21:21
http://www.hotnewdeal.com/2017/03/17/180642_Tmobile_SyncUP_Drive_60_off_48_or_2month_EIP/20%Monthly2017-03-17 21:10
http://www.hotnewdeal.com/2017/03/17/180641_ThermalTake_Core_V21_mATX_Computer_Cube_Case_38AR/20%Monthly2017-03-17 21:04
http://www.hotnewdeal.com/2017/03/17/180640_Kohls_Cardholders_Choice_of_Kids_Disney__Star_War/20%Monthly2017-03-17 20:58
http://www.hotnewdeal.com/2017/03/17/180639_45ct_EsterC_Vitamin_C_Immune_Charge_Gummies_155/20%Monthly2017-03-17 20:49
http://www.hotnewdeal.com/2017/03/17/180637_Free_Lyft_Ride_up_to_20_in_Washington_DC_area_/20%Monthly2017-03-17 20:41
http://www.hotnewdeal.com/2017/03/17/180636_Footlocker_Up_to_40_Off_Nike_and_Jordan_Products/20%Monthly2017-03-17 20:41
http://www.hotnewdeal.com/2017/03/17/180632_10_off_on_refurbished_items_at_Nikon_usa/20%Monthly2017-03-17 20:09
http://www.hotnewdeal.com/2017/03/17/180631_WilliamSonoma_Premier_One_Day_Event__Up_To_75_O/20%Monthly2017-03-17 20:03
http://www.hotnewdeal.com/2017/03/17/180630_65_LG_65UH8500_4K_Super_UHD_HDR_Smart_LED_HDTV_1/20%Monthly2017-03-17 20:00
http://www.hotnewdeal.com/2017/03/17/180629_CHUWI_Hi10_Pro_Dual_Boot_2in1_Tablet_w_Detachab/20%Monthly2017-03-17 19:44
http://www.hotnewdeal.com/2017/03/17/180628_Amazon_Prime_Dr_Suess_Book__CD_Sets_from_376_S/20%Monthly2017-03-17 19:44
http://www.hotnewdeal.com/2017/03/17/180627_Etronic_M6_Self_Coiling_Combination_Bike_Cable_Loc/20%Monthly2017-03-17 19:36
http://www.hotnewdeal.com/2017/03/17/180626_Wienerschnitzel__Free_AllBeef_Dog_with_Chili_Wit/20%Monthly2017-03-17 19:26
http://www.hotnewdeal.com/2017/03/17/180625_Gander_Mountain_20_off_50/20%Monthly2017-03-17 18:57
http://www.hotnewdeal.com/2017/03/17/180624_Mass_Effect_2_and_3_DLC_Sale_50_off_XB360__XB1/20%Monthly2017-03-17 18:57
http://www.hotnewdeal.com/2017/03/17/180623_DREVO_84_Key_Backlit_Mechanical_Keyboard_Black_Re/20%Monthly2017-03-17 18:35
http://www.hotnewdeal.com/2017/03/17/180622_Antec_XBox_One_Cooler_or_SmartBean_BT_Receiver_Fre/20%Monthly2017-03-17 18:35
http://www.hotnewdeal.com/2017/03/17/180621_HP_OMEN_870090_i76700K_GeForce_GTX_GTX1080_8GB_/20%Monthly2017-03-17 18:27
http://www.hotnewdeal.com/2017/03/17/180620_The_Retrofit_Source_offers_15_OFF_sitewide_until/20%Monthly2017-03-17 18:27
http://www.hotnewdeal.com/2017/03/17/180619_Frys_Store_AD_319__320_Asus_GTX_1070_8GB_369/20%Monthly2017-03-17 18:27
http://www.hotnewdeal.com/2017/03/17/180618_GIGABYTE_GAX58USB3_LGA_1366_Intel_X58_USB_30_AT/20%Monthly2017-03-17 18:20
http://www.hotnewdeal.com/2017/03/17/180617_Carters_Long_Sleeve_One_Piece_Footed_Pajama_up_t/20%Monthly2017-03-17 18:09
http://www.hotnewdeal.com/2017/03/17/180616_Twitch_Prime_Members_Zombie_Night_Terror_PC_Digi/20%Monthly2017-03-17 18:00
http://www.hotnewdeal.com/2017/03/17/180615_Timbuk2_Snoop_Camera_Messenger_Bag_Small_Cordura/20%Monthly2017-03-17 17:49
http://www.hotnewdeal.com/2017/03/17/180614_Caribou_Coffee__31717__Buy_One_Get_One__Any_B/20%Monthly2017-03-17 17:36
http://www.hotnewdeal.com/2017/03/17/180613_Good_selection_of_Allen_Edmonds_at_Nordstrom_Rack_/20%Monthly2017-03-17 17:28
http://www.hotnewdeal.com/2017/03/17/180612_Lets_Look_at_Firefighters_Board_book_173__Am/20%Monthly2017-03-17 17:20
http://www.hotnewdeal.com/2017/03/17/180611_Elegoo_37in1_Sensor_Module_Kit_for_Arduino_225/20%Monthly2017-03-17 16:58
http://www.hotnewdeal.com/2017/03/17/180610_12LED_Solar_Powered_PIR_LED_Wall_Light_333__fr/20%Monthly2017-03-17 16:42
http://www.hotnewdeal.com/2017/03/17/180609_CyberpowerPC_StPats_Laptop_Deal_15_1080P_IPS_/20%Monthly2017-03-17 16:42
http://www.hotnewdeal.com/2017/03/17/180608_100_Lowes_Gift_Card_for_only_90__Via_Email_del/20%Monthly2017-03-17 16:42
http://www.hotnewdeal.com/2017/03/17/180607_Huawei_MateBook_Signature_Edition_12_1440P_IPS_To/20%Monthly2017-03-17 16:37
http://www.hotnewdeal.com/2017/03/17/180606_Irwin_tools_on_Sears_for_cheap_YMMV__order_onli/20%Monthly2017-03-17 16:33
http://www.hotnewdeal.com/2017/03/17/180605_Baby_Jogger_City_Select_double_stroller_2015_Ruby_/20%Monthly2017-03-17 16:33
http://www.hotnewdeal.com/2017/03/17/180604_300_off__Huawei_MateBook_Signature_Edition_2_in_/20%Monthly2017-03-17 16:33
http://www.hotnewdeal.com/2017/03/17/180603_Kohls_Cardholders_Toddler_Boys_Totes_Boots_7_B/20%Monthly2017-03-17 16:28
http://www.hotnewdeal.com/2017/03/17/180602_YMMV_5_Off_5_Movie_Purchase_at_Google_Play/20%Monthly2017-03-17 16:20
http://www.hotnewdeal.com/2017/03/17/180601_Kohls_Cardholders_Star_Wars_Clearance_Boys_Beani/20%Monthly2017-03-17 16:19
http://www.hotnewdeal.com/2017/03/17/180600_Samsung_Rechargeable_3D_Active_Glasses_2_Pack__/20%Monthly2017-03-17 16:19
http://www.hotnewdeal.com/2017/03/17/180599_Dell_Inspiron_17_5000_Laptop_175758_i35015U_/20%Monthly2017-03-17 16:09
http://www.hotnewdeal.com/2017/03/17/180598_Amcrest_ProHD_Outdoor_3Megapixel_2304_x_1296P_W/20%Monthly2017-03-17 16:08
http://www.hotnewdeal.com/2017/03/17/180597_TeraCopy_Pro_3__Lifetime_license_for_1247/20%Monthly2017-03-17 16:00
http://www.hotnewdeal.com/2017/03/17/180596_Lenovo_ZUK_Z2_50_Android_60_4GB_RAM_64GB_Storag/20%Monthly2017-03-17 16:00
http://www.hotnewdeal.com/2017/03/17/180595_KH_Manufacturing_Coolin_Pet_Cot_Medium__537_/20%Monthly2017-03-17 16:00
http://www.hotnewdeal.com/2017/03/17/180594_Kohls_Cardholders_Columbia_Fleece_Clearance_Kids/20%Monthly2017-03-17 16:00
http://www.hotnewdeal.com/2017/03/17/180593_Refurb_ASUS_ROG_G752VTRH71_173_Full_HD_i76700H/20%Monthly2017-03-17 15:49
http://www.hotnewdeal.com/2017/03/17/180592_Novation_Circuit_Groove_Box_w_Samples/20%Monthly2017-03-17 15:37
http://www.hotnewdeal.com/2017/03/17/180590_Wera_05028062001_Kraftform_Plus_3676_Torx_Screwdr/20%Monthly2017-03-17 15:10
http://www.hotnewdeal.com/2017/03/17/180589_BioShock_The_Collection_PC_Digital_Download_15/20%Monthly2017-03-17 14:56
http://www.hotnewdeal.com/2017/03/17/180587_BAGSMART_Travel_Cable_Organizer_bag_1469_AC__fu/20%Monthly2017-03-17 14:33
http://www.hotnewdeal.com/2017/03/17/180586_Stila_Cosmetics_St_Patricks_Day_Sale_Extra_20_/20%Monthly2017-03-17 14:33
http://www.hotnewdeal.com/2017/03/17/180585_Linksys_Velop_Triband_AC2200_Whole_Home_WiFi_Mesh/20%Monthly2017-03-17 14:25
http://www.hotnewdeal.com/2017/03/17/180584_Amazon_2997_Leeo_Smart_Alert_SmokeCO_Remote_Al/20%Monthly2017-03-17 14:25
http://www.hotnewdeal.com/2017/03/17/180583_2Pack_New_Compatible_Brother_TN630_TN660_Toner_Ca/20%Monthly2017-03-17 14:17
http://www.hotnewdeal.com/2017/03/17/180582_For_Kohls_Card_Members_Ninja_Coffee_Bar_SingleS/20%Monthly2017-03-17 14:17
http://www.hotnewdeal.com/2017/03/17/180581_BenQ_Refurb_Projector_Sale_HT1075_487_HT2050_5/20%Monthly2017-03-17 14:08
http://www.hotnewdeal.com/2017/03/17/180580_Pet_Cot_Canopy_249_Addon__amazon/20%Monthly2017-03-17 14:03
http://www.hotnewdeal.com/2017/03/17/180579_Seventh_Generation_Class_Action_Settlement/20%Monthly2017-03-17 14:00
http://www.hotnewdeal.com/2017/03/17/180578_PC_Digital_Download_Firewatch_999_Oxenfree_4/20%Monthly2017-03-17 13:59
http://www.hotnewdeal.com/2017/03/17/180577_CVScom__4pack_Burts_Bees_Beeswax_Lip_Balm_Mul/20%Monthly2017-03-17 13:48
http://www.hotnewdeal.com/2017/03/17/180576_Sams_Club_Online_1lb_Squirrel_Brand_Milk_Chocolate/20%Monthly2017-03-17 13:48
http://www.hotnewdeal.com/2017/03/17/180574_Juniors_SO_HighWaisted_Sweater_Leggings_for_21/20%Monthly2017-03-17 13:40
http://www.hotnewdeal.com/2017/03/17/180573_Shure_SE215K_Earphones__Shure_PGA48_Cardioid_Mic/20%Monthly2017-03-17 13:35
http://www.hotnewdeal.com/2017/03/17/180571_iFi_micro_iDSD_Headphone_Amp__Dac_Black_Label_Ed/20%Monthly2017-03-17 13:28
http://www.hotnewdeal.com/2017/03/17/180570_65_Samsung_UN65KS8000_4K_Smart_SUHD_HDR_1000_HDTV/20%Monthly2017-03-17 13:25
http://www.hotnewdeal.com/2017/03/17/180568_EVGA_GeForce_GTX_1080_SC_Gaming_8GB_256Bit_GDDR5X/20%Monthly2017-03-17 13:18
http://www.hotnewdeal.com/2017/03/17/180567_Rolling_Stones_Through_The_Past_Darkly_Big_Hits_/20%Monthly2017-03-17 13:18
http://www.hotnewdeal.com/2017/03/17/180566_Back_Dusktodawn_LED_Outdoor_Barn_Light_Photoce/20%Monthly2017-03-17 13:18
http://www.hotnewdeal.com/2017/03/17/180565_Amazon_AddOn_Wera_Kraftform_Plus_6_PH3_Lasertip/20%Monthly2017-03-17 13:09
http://www.hotnewdeal.com/2017/03/17/180564_Roundtrip_nonstop_flights_from_West_Coast_to_Barce/20%Monthly2017-03-17 12:47
http://www.hotnewdeal.com/2017/03/17/180563_Saks_Off_5th_Extra_20_Off_Clearance_Mens_Cole_H/20%Monthly2017-03-17 12:47
http://www.hotnewdeal.com/2017/03/17/180562_Oakland_or_Los_Angeles_to_Barcelona_Spain_256_RT_/20%Monthly2017-03-17 12:33
http://www.hotnewdeal.com/2017/03/17/180561_12_pack_34_22oz_Dove_Body_Wash_for_33_After_Di/20%Monthly2017-03-17 12:24
http://www.hotnewdeal.com/2017/03/17/180560_Huawei_Watch__Multiple_Styles_19999/20%Monthly2017-03-17 12:24
http://www.hotnewdeal.com/2017/03/17/180559_Kohls_Cardholders_OXO_Good_Grips_Carving__Cutti/20%Monthly2017-03-17 12:24
http://www.hotnewdeal.com/2017/03/17/180558_Costco_Acer_156_Chromebook_Intel_Celeron_1080/20%Monthly2017-03-17 12:17
http://www.hotnewdeal.com/2017/03/17/180557_Garmin_Edge_520_225_plus_tax_after_25_off_and_Fr/20%Monthly2017-03-17 12:17
http://www.hotnewdeal.com/2017/03/17/180556_Mission_Cables__8_USB_Power_Cable_for_Chromecast/20%Monthly2017-03-17 12:17
http://www.hotnewdeal.com/2017/03/17/180555_Smashburger_BOGO_Entree_Coupon__Valid_031617_to/20%Monthly2017-03-17 12:08
http://www.hotnewdeal.com/2017/03/17/180554_Amazon_Lightning_Deal__Regal_Cinemas_50_Gift_Car/20%Monthly2017-03-17 12:08
http://www.hotnewdeal.com/2017/03/17/180553_Disney_Princess_Favorites_Frozen_Musical_Lights_E/20%Monthly2017-03-17 12:08
http://www.hotnewdeal.com/2017/03/17/180552_Ebay_Bucks_8__BUYING_Mar_1719__SELLING_Mar_/20%Monthly2017-03-17 11:59
http://www.hotnewdeal.com/2017/03/17/180551_24oz_Easy_Off_Professional_Oven_and_Grill_Cleaner_/20%Monthly2017-03-17 11:59
http://www.hotnewdeal.com/2017/03/17/180550_Werner_24_ft_Aluminum_3Section_Compact_Extension/20%Monthly2017-03-17 11:59
http://www.hotnewdeal.com/2017/03/17/180549_Seventh_Generation_Buy_3_Get_40_mix_and_match_/20%Monthly2017-03-17 11:59
http://www.hotnewdeal.com/2017/03/17/180548_Gaming_Headset_for_PS4Xbox_One_Headphones_with_Mi/20%Monthly2017-03-17 11:48
http://www.hotnewdeal.com/2017/03/17/180547_Norwegian_airlines_flights_from_USA_to_Europe_from/20%Monthly2017-03-17 11:48
http://www.hotnewdeal.com/2017/03/17/180546_Portable_Generator_Power_Source_Power_Supply_220Wh/20%Monthly2017-03-17 11:32
http://www.hotnewdeal.com/2017/03/17/180545_Xbox_One_S_White_Controller__Metal_Gear_Solid_V_/20%Monthly2017-03-17 11:25
http://www.hotnewdeal.com/2017/03/17/180544_Free__Exiles_Android_Game_Playstore_no_IAP/20%Monthly2017-03-17 11:25
http://www.hotnewdeal.com/2017/03/17/180543_Buy_LG_G6_on_Sprint_and_get_Google_home_and_49_inc/20%Monthly2017-03-17 11:18
http://www.hotnewdeal.com/2017/03/17/180542_ExOfficio_Cargo_Pants__Mens_2673__ship_reic/20%Monthly2017-03-17 11:18
http://www.hotnewdeal.com/2017/03/17/180541_Los_Angeles_to_Maldives_808_or_834_RT_on_Etihad_/20%Monthly2017-03-17 11:18
http://www.hotnewdeal.com/2017/03/17/180540_Kohls_Cardholders_Mens_New_Balance_Softshell_Per/20%Monthly2017-03-17 10:56
http://www.hotnewdeal.com/2017/03/17/180539_ASUS_Radeon_RX_470_STRIX_OC_Edition_4GB_106_AR__/20%Monthly2017-03-17 10:47
http://www.hotnewdeal.com/2017/03/17/180538_Womens_Tek_Gear_Marled_Fleece_FullZip_Hoodie_5/20%Monthly2017-03-17 10:38
http://www.hotnewdeal.com/2017/03/17/180537_Dewalt_Max_XR_2_Tool_hammer_drillimpact_combo_2/20%Monthly2017-03-17 10:31
http://www.hotnewdeal.com/2017/03/17/180536_Graco_My_Ride_65_73_Targetcom/20%Monthly2017-03-17 10:31
http://www.hotnewdeal.com/2017/03/17/180535_Adult_Converse_All_Star_Chuck_Taylor_HighTop_Snea/20%Monthly2017-03-17 10:31
http://www.hotnewdeal.com/2017/03/17/180534_Kohlscom__The_Big_One_Microfiber_Pillow_StdQu/20%Monthly2017-03-17 10:31
http://www.hotnewdeal.com/2017/03/17/180533_Costco_Coupon_Mar_23_to_Apr_17/20%Monthly2017-03-17 10:07
http://www.hotnewdeal.com/2017/03/17/180532_Tiger_JBAT10U_55Cup_Uncooked_White_Micom_Rice/20%Monthly2017-03-17 10:07
http://www.hotnewdeal.com/2017/03/17/180531_Tory_Burch_Sale_Musee_Dress_59_Plaid_Knit_Balle/20%Monthly2017-03-17 10:07
http://www.hotnewdeal.com/2017/03/17/180530_Nike_Mens_Therma_Hoodie_swoosh_1650_Boys_KO/20%Monthly2017-03-17 09:58
http://www.hotnewdeal.com/2017/03/17/180529_Prime_2_Pack_3x3_Speed_Cube_Rubiks_cube_799/20%Monthly2017-03-17 09:58
http://www.hotnewdeal.com/2017/03/17/180528_Despicable_Me_Despicable_Me_2_or_The_Lorax_Blur/20%Monthly2017-03-17 09:54
http://www.hotnewdeal.com/2017/03/17/180527_Titleist_Pro_V1__V1x_buy_3_dozen_personalized_gol/20%Monthly2017-03-17 09:08
http://www.hotnewdeal.com/2017/03/17/180526_Amazon_One_Day_Launch_Deal__50_off_BLU_Life_One/20%Monthly2017-03-17 09:08
http://www.hotnewdeal.com/2017/03/17/180525_Puma_Mens_Redon_Move_Casual_Sneakers_15__340_/20%Monthly2017-03-17 08:55
http://www.hotnewdeal.com/2017/03/17/180524_Samsung_KU6290Series_40quotClass_UHD_Smart_LED/20%Monthly2017-03-17 08:55
http://www.hotnewdeal.com/2017/03/17/180521_Refurbished_DJI_Phantom_4_Quadcopter_Drone_with_4K/20%Monthly2017-03-17 08:23
http://www.hotnewdeal.com/2017/03/17/180520_The_Legend_of_Heroes_Trails_of_Cold_Steel_II_PS_/20%Monthly2017-03-17 08:23
http://www.hotnewdeal.com/2017/03/17/180519_Free_After_Rebate_Kaspersky_AntiVirus_2017__3_P/20%Monthly2017-03-17 08:16
http://www.hotnewdeal.com/2017/03/17/180518_Lenovo_110_156_Laptop_Intel_Core_i36100U_6GB_/20%Monthly2017-03-17 07:32
http://www.hotnewdeal.com/2017/03/17/180517_Klipsch_Reference_Series_X6i_InEar_Headphones_Bl/20%Monthly2017-03-17 07:32
http://www.hotnewdeal.com/2017/03/17/180516_Vudu_Today_Only_31717_50_or_more_off_select_t/20%Monthly2017-03-17 07:09
http://www.hotnewdeal.com/2017/03/17/180515_Avery_Permanent_Glue_Stic_026_oz_Pack_of_6_05/20%Monthly2017-03-17 07:09
http://www.hotnewdeal.com/2017/03/17/180514_Kids_Headphones_MindKoo_Foldable_Cat_Ear_Headphone/20%Monthly2017-03-17 07:08
http://www.hotnewdeal.com/2017/03/17/180513_Ipad_Mini_4_Refurbished_64gb_299__tax_and_shippi/20%Monthly2017-03-17 06:28
http://www.hotnewdeal.com/2017/03/17/180512_Sears__Irwin_OneHanded_Mini_Quick_Grip_6_Bar_C/20%Monthly2017-03-17 06:28
http://www.hotnewdeal.com/2017/03/17/180510_Elechomes_CHS2003_3HP_Blender_90__free_shipping/20%Monthly2017-03-17 04:28
http://www.hotnewdeal.com/2017/03/17/180509_TMobile_Customers_30_off_Local_Groupon_2_Fand/20%Monthly2017-03-17 04:08
http://www.hotnewdeal.com/2017/03/17/180508_32GB_Moto_Z_Play_Unlocked_4G_LTE_Smartphone_Refur/20%Monthly2017-03-17 03:10
http://www.hotnewdeal.com/2017/03/17/180507_Remington_HKVAC2000A_Vacuum_Haircut_Kit_2583__F/20%Monthly2017-03-17 03:10
http://www.hotnewdeal.com/2017/03/17/180504_Honolulu_Hawaii_to_Sydney_Australia_NONSTOP_for_4/20%Monthly2017-03-17 02:08
http://www.hotnewdeal.com/2017/03/17/180503_Magic_Cube_Stress_Reliever_for_233__Free_Shippi/20%Monthly2017-03-17 02:08
http://www.hotnewdeal.com/2017/03/17/180502_CVS_Is_Offering_Free_Shipping_With_No_Minimum_Purc/20%Monthly2017-03-17 01:09
http://www.hotnewdeal.com/2017/03/17/180501_EVGA_HYBRID_AllinOne_GTX_1080__1070_Water_Coole/20%Monthly2017-03-17 01:09
http://www.hotnewdeal.com/2017/03/17/180500_Rush_2112_40th_Anniversary_2_CDDVD_for_607__/20%Monthly2017-03-17 01:09
http://www.hotnewdeal.com/2017/03/17/180499_Highly_Rated_Sonicare_Essence_Rechargeable_Toothbr/20%Monthly2017-03-17 01:09
http://www.hotnewdeal.com/2017/03/17/180498_Newegg_Acer_Desktop_Computer_Intel_Core_i5_7th_Gen/20%Monthly2017-03-17 01:09
http://www.hotnewdeal.com/2017/03/17/180497_Ezviz_CV210_Husky_1080p_Outdoor_WiFi_Bullet_Came/20%Monthly2017-03-17 01:09
http://www.hotnewdeal.com/2017/03/17/180496_Rosewill_Stealth__ATX_Mid_Tower_Gaming_Computer_C/20%Monthly2017-03-17 01:03
http://www.hotnewdeal.com/2017/03/17/180495_Disgaea_5_Alliance_of_Vengeance_2999_at_gamesto/20%Monthly2017-03-17 00:16
http://www.hotnewdeal.com/2017/03/17/180494_Logitech_PRO_Keyboard_Case_for_Samsung_Galaxy_Pro_/20%Monthly2017-03-17 00:16
http://www.hotnewdeal.com/2017/03/16/180493_2_Amex_Offers_Spend_100_at_1800PetMeds_and_Get/20%Monthly2017-03-16 23:48
http://www.hotnewdeal.com/2017/03/16/180492_Taotronics_Bluetooth_Magnetic_Sport_Headphones_10/20%Monthly2017-03-16 23:18
http://www.hotnewdeal.com/2017/03/16/180491_60_Vizio_M60D1_4K_UHD_HDR_120Hz_IPS_LED_Smart_Ho/20%Monthly2017-03-16 23:09
http://www.hotnewdeal.com/2017/03/16/180490_Frys__Klipsch_10_SpunCopper_Cerametallic_Subwoo/20%Monthly2017-03-16 23:04
http://www.hotnewdeal.com/2017/03/16/180489_Tenergy_Syma_X11C_4_Channel_24Ghz_RC_Quadcopter_w/20%Monthly2017-03-16 22:47
http://www.hotnewdeal.com/2017/03/16/180485_Acer_Aspire_E_156_Laptop_i37100U_1080p_4GB_D/20%Monthly2017-03-16 22:24
http://www.hotnewdeal.com/2017/03/16/180484_Uniden_PRO505XL_40Channel_Bearcat_Compact_CB_Radi/20%Monthly2017-03-16 22:17
http://www.hotnewdeal.com/2017/03/16/180483_33_Home_Depot_Husky_54_Piece_Pass_Thru_Mechanic_S/20%Monthly2017-03-16 22:08
http://www.hotnewdeal.com/2017/03/16/180482_PS4_Slim_500GB_Uncharted_Bundle_w_Madden_2017_235/20%Monthly2017-03-16 21:59
http://www.hotnewdeal.com/2017/03/16/180481_LEGO_Creator_Lakeside_Lodge_31048_1899/20%Monthly2017-03-16 21:48
http://www.hotnewdeal.com/2017/03/16/180480_CyberpowerPC_VR_XPLORER_X7HK_173_1080P_GSynC_IP/20%Monthly2017-03-16 21:33
http://www.hotnewdeal.com/2017/03/16/180479_VIZIO_50_Inch_4K_Ultra_HD_Smart_TV_M50D1_Ultra_HD/20%Monthly2017-03-16 21:24
http://www.hotnewdeal.com/2017/03/16/180478_10_Dunkin_Donuts_eGift_Card_5_At_Living_Social_/20%Monthly2017-03-16 21:18
http://www.hotnewdeal.com/2017/03/16/180477_Tribesigns_Computer_Desk_47_9699_Free_Shipping/20%Monthly2017-03-16 20:46
http://www.hotnewdeal.com/2017/03/16/180476_Green_Forrest_H96_Pro_Plus_Android_TV__Kodi_Box_/20%Monthly2017-03-16 20:32
http://www.hotnewdeal.com/2017/03/16/180475_Official_Nintendo_Switch_Carrying_Case__Screen_Pr/20%Monthly2017-03-16 20:24
http://www.hotnewdeal.com/2017/03/16/180474_Asus_Zenbook_UX305CAUBM1_133_1080P_IPS_M36Y30/20%Monthly2017-03-16 20:23
http://www.hotnewdeal.com/2017/03/16/180473_PlayDoh_Mickey_Mouse_Clubhouse_Tools_Set__498_/20%Monthly2017-03-16 20:07
http://www.hotnewdeal.com/2017/03/16/180471_Samsonite_MIGHTlight_Ultralightweight_Spinner_Lug/20%Monthly2017-03-16 19:39
http://www.hotnewdeal.com/2017/03/16/180470_Call_of_Duty_Dragonfly_WiFi_Drone_with_Camera_Walm/20%Monthly2017-03-16 19:24
http://www.hotnewdeal.com/2017/03/16/180469_Fender_Classic_Design_CD60CE_AcousticElectric_Gu/20%Monthly2017-03-16 19:17
http://www.hotnewdeal.com/2017/03/16/180468_EOS_80D_EFS_1855mm_f3556_IS_STM_Kit_Refurbis/20%Monthly2017-03-16 19:17
http://www.hotnewdeal.com/2017/03/16/180467_Amcrest_QCAM_8Channel_1080P_NVR_POE_Security_Syst/20%Monthly2017-03-16 19:08
http://www.hotnewdeal.com/2017/03/16/180464_FoodSaver_V2861_Flip_Up_Vacuum_Sealing_System_Cin/20%Monthly2017-03-16 18:55
http://www.hotnewdeal.com/2017/03/16/180462_55_LG_55UH6150_4K_HDR_Smart_TV__150_Dell_eGift_/20%Monthly2017-03-16 18:46
http://www.hotnewdeal.com/2017/03/16/180461_Bluetooth_FM_Transmitter_Radio_Car_Kit_w_USB_Char/20%Monthly2017-03-16 18:46
http://www.hotnewdeal.com/2017/03/16/180460_Street_Fighter_V_1499/20%Monthly2017-03-16 18:31
http://www.hotnewdeal.com/2017/03/16/180459_Intel_Core_i77700K_Kaby_Lake_QuadCore_42_GHz_LG/20%Monthly2017-03-16 18:23
http://www.hotnewdeal.com/2017/03/16/180458_AMD_RYZEN_7_1700X_8Core_34_GHz_Desktop_Processor/20%Monthly2017-03-16 18:07
http://www.hotnewdeal.com/2017/03/16/180457_Nike_Air_Zoom_Pegasus_33_Running_Shoes_6598_40/20%Monthly2017-03-16 17:32
http://www.hotnewdeal.com/2017/03/16/180456_Classic_Brands_Queen_Adjustable_Comfort_Bed_Base_w/20%Monthly2017-03-16 17:32
http://www.hotnewdeal.com/2017/03/16/180455_Uggcom_Closet_Sale_Womens_Slippers_from_32_Co/20%Monthly2017-03-16 17:28
http://www.hotnewdeal.com/2017/03/16/180453_Brenthaven_Collins_Slim_Briefcase_new_model_30_/20%Monthly2017-03-16 17:17
http://www.hotnewdeal.com/2017/03/16/180452_EZVIZ_Husky_HD_1080p_Video_Security_Camera_16GB_M/20%Monthly2017-03-16 16:46
http://www.hotnewdeal.com/2017/03/16/180451_Sharp_SPC800_Quartz_Analog_Twin_Bell_Alarm_Clock_/20%Monthly2017-03-16 16:39
http://www.hotnewdeal.com/2017/03/16/180450_adidas_Mens_Techfit_Base_Apparel_Elbow_Length_Sl/20%Monthly2017-03-16 16:32
http://www.hotnewdeal.com/2017/03/16/180449_CVS_10_for_20_gift_card_from_Groupon_invite_only/20%Monthly2017-03-16 16:17
http://www.hotnewdeal.com/2017/03/16/180447_1Year_ShopRunner_Membership_Trial_Free/20%Monthly2017-03-16 16:08
http://www.hotnewdeal.com/2017/03/16/180446_Horizon_Zero_Dawn_Collectors_Edition_for_PS4_back/20%Monthly2017-03-16 15:36
http://www.hotnewdeal.com/2017/03/16/180445_Intel_Skull_Canyon_NUC6i7KYK_Core_i7_NUC__8GB_DDR/20%Monthly2017-03-16 15:10
http://www.hotnewdeal.com/2017/03/16/180444_3Magazine_Bundle_Entrepreneur__INC__Fast_Compa/20%Monthly2017-03-16 14:57
http://www.hotnewdeal.com/2017/03/16/180443_AudioTechnica_SonicFuel_InEar_Headphones_with_Mi/20%Monthly2017-03-16 14:48
http://www.hotnewdeal.com/2017/03/16/180442_Nikon_AF_FX_NIKKOR_85mm_f18G_Fixed_Lens_with_Aut/20%Monthly2017-03-16 14:40
http://www.hotnewdeal.com/2017/03/16/180441_Mens_Altra_Instinct_35_Trail_Running_Shoe_5173/20%Monthly2017-03-16 14:32
http://www.hotnewdeal.com/2017/03/16/180440_Free_2_Visa_Digital_Reward_w_Canada_Dry_Soda_Pur/20%Monthly2017-03-16 14:18
http://www.hotnewdeal.com/2017/03/16/180439_Shoprite_Samsung_UN40KU6300_40inch_4K_Smart_LED_T/20%Monthly2017-03-16 14:17
http://www.hotnewdeal.com/2017/03/16/180438_Nordstrom_Rack_Extra_25_Off_Winter_ClearanceMen/20%Monthly2017-03-16 14:08
http://www.hotnewdeal.com/2017/03/16/180437_Verizon_Smart_Rewards_Members_10_Verizon_Wireles/20%Monthly2017-03-16 13:59
http://www.hotnewdeal.com/2017/03/16/180436_Amazon_10_off_all_purchases_address_change_coupon/20%Monthly2017-03-16 13:40
http://www.hotnewdeal.com/2017/03/16/180435_Polk_MagniFi_One_Sound_Bar_w_Wireless_Subwoofer_/20%Monthly2017-03-16 13:36
http://www.hotnewdeal.com/2017/03/16/180434_100Ft_Cat_6_Flat_Ethernet_Cable_white_11__25ft/20%Monthly2017-03-16 13:34
http://www.hotnewdeal.com/2017/03/16/180433_10_off_two_rides_in_Lyft/20%Monthly2017-03-16 13:26
http://www.hotnewdeal.com/2017/03/16/180432_36_in_6Drawer_Tool_Chest_Blue_Body_Black_Drawers/20%Monthly2017-03-16 13:26
http://www.hotnewdeal.com/2017/03/16/180431_Muscle_Rack_5Shelf_HeavyDuty_Steel_Shelving_48/20%Monthly2017-03-16 13:19
http://www.hotnewdeal.com/2017/03/16/180430_BlazBlue_Central_Fiction_Limited_Edition_PS4_4/20%Monthly2017-03-16 13:19
http://www.hotnewdeal.com/2017/03/16/180429_Pampers_Baby_Dry_Newborn_104_diapers_1554__Am/20%Monthly2017-03-16 13:09
http://www.hotnewdeal.com/2017/03/16/180428_Target_Starbucks_25_Off_Frappucino_Cartwheel_Off/20%Monthly2017-03-16 13:09
http://www.hotnewdeal.com/2017/03/16/180427_Macys_bareMinerals_Double_Up_Mini_Lash_Mascara_D/20%Monthly2017-03-16 13:09
http://www.hotnewdeal.com/2017/03/16/180426_Wooden_U_Shape_Headphone_Stand_1028_or_MetalPla/20%Monthly2017-03-16 13:09
http://www.hotnewdeal.com/2017/03/16/180425_VIZIO_50_Inch_4K_Ultra_HD_Smart_TV_M50D1_899__30/20%Monthly2017-03-16 12:56
http://www.hotnewdeal.com/2017/03/16/180424_Shoprite_Delivers_Xbox_One_S_500GB_Battlefield_w_/20%Monthly2017-03-16 12:56
http://www.hotnewdeal.com/2017/03/16/180423_28_Dell_S2817QR_4K_Ultra_HD_LED_Monitor__Free_Gi/20%Monthly2017-03-16 12:47
http://www.hotnewdeal.com/2017/03/16/180422_Xbox_One_Chatpad__Chat_Headset__2249__FS_w_P/20%Monthly2017-03-16 12:33
http://www.hotnewdeal.com/2017/03/16/180421_6Pack_of_6Count_Cascadian_Farm_Organic_Chewy_Gra/20%Monthly2017-03-16 12:24
http://www.hotnewdeal.com/2017/03/16/180420_Aukey_Quick_Charge_Qualcomm_30_Car_Charger_2_for_/20%Monthly2017-03-16 12:24
http://www.hotnewdeal.com/2017/03/16/180419_Mountain_Hardwear_Extra_50_off_Select_Adult_Appa/20%Monthly2017-03-16 11:59
http://www.hotnewdeal.com/2017/03/16/180418_DEADHubba_Bubba_Original_Bubble_Gum_Tape_2_ounc/20%Monthly2017-03-16 11:48
http://www.hotnewdeal.com/2017/03/16/180417_Ricoh_SP_C250DN_Wireless_Duplex_Color_Laser_Printe/20%Monthly2017-03-16 11:48
http://www.hotnewdeal.com/2017/03/16/180416_HP__173_Laptop__Intel_Core_i5__8GB_Memory__1/20%Monthly2017-03-16 11:48
http://www.hotnewdeal.com/2017/03/16/180415_4K_Ultra_HD_Movies_Suicide_Squad_Steelbook_John/20%Monthly2017-03-16 11:34
http://www.hotnewdeal.com/2017/03/16/180414_520__FS_NuGlass_Nintendo_Switch_Tempered_Glass_/20%Monthly2017-03-16 11:25
http://www.hotnewdeal.com/2017/03/16/180413_DBPower_3Color_LED_Backlit_Gaming_Keyboard_949/20%Monthly2017-03-16 11:18
http://www.hotnewdeal.com/2017/03/16/180412_Amazon_Red_Robin_50_Gift_Card_for_40_PRIME_EAR/20%Monthly2017-03-16 11:18
http://www.hotnewdeal.com/2017/03/16/180411_Drawn_To_Death_is_Free_for_PS_Plus_Members_This_Ap/20%Monthly2017-03-16 11:18
http://www.hotnewdeal.com/2017/03/16/180410_Bosch_Evolution_Wiper_Blades__1628__799_plu/20%Monthly2017-03-16 11:09
http://www.hotnewdeal.com/2017/03/16/180409_REI_Coop_Plaid_Fleece_Blanket_1539__ship_rei/20%Monthly2017-03-16 11:09
http://www.hotnewdeal.com/2017/03/16/180408_Mpow_CD_Slot_Car_Mount_Holder_for_Smartphones_8/20%Monthly2017-03-16 11:09
http://www.hotnewdeal.com/2017/03/16/180406_Logitech_Harmony_Ultimate_Home_Remote_14999/20%Monthly2017-03-16 10:47
http://www.hotnewdeal.com/2017/03/16/180405_Enemy_at_the_Gates_The_Battle_for_Stalingrad_Kin/20%Monthly2017-03-16 10:39
http://www.hotnewdeal.com/2017/03/16/180404_Purex_Liquid_Laundry_Detergent_Baby_75_Oz_50_Lo/20%Monthly2017-03-16 10:32
http://www.hotnewdeal.com/2017/03/16/180403_ASRock_H170MITXDL_Mini_ITX_Intel_Motherboard_53/20%Monthly2017-03-16 10:24
http://www.hotnewdeal.com/2017/03/16/180402_Staples_Weekly_Ad_319325_20_off_GAP_Brand_Gif/20%Monthly2017-03-16 10:08
http://www.hotnewdeal.com/2017/03/16/180401_Academy_Sports_Hot_Deals__25_off_ALL_Rod_Reel_/20%Monthly2017-03-16 10:08
http://www.hotnewdeal.com/2017/03/16/180400_Home_Depot_Tool_Kits_Black_and_Decker_4_pc_20V_co/20%Monthly2017-03-16 10:08
http://www.hotnewdeal.com/2017/03/16/180399_8Port_Netgear_ProSAFE_Unmanaged_Metal_Gigabit_Swi/20%Monthly2017-03-16 09:59
http://www.hotnewdeal.com/2017/03/16/180398_ESET_Smart_Security_2016__3_PCs__FREE_Xbox_Wired/20%Monthly2017-03-16 09:59
http://www.hotnewdeal.com/2017/03/16/180396_Graco_Car_SeatHigh_ChairStrollers_Sale_Blossom_/20%Monthly2017-03-16 09:48
http://www.hotnewdeal.com/2017/03/16/180395_Mirroring360_Sender_Basic_Android_App_Free_for_lim/20%Monthly2017-03-16 09:41
http://www.hotnewdeal.com/2017/03/16/180394_PUMA_Sale__Clearance__Extra_20_off_w_Coupon_C/20%Monthly2017-03-16 09:34
http://www.hotnewdeal.com/2017/03/16/180393_Stainless_Steel_Fishing_Pliers_with_Aluminum_Jaws_/20%Monthly2017-03-16 09:25
http://www.hotnewdeal.com/2017/03/16/180392_WiFi_Adapter_AC600_Dual_Band_24GHz_150Mbps5GHz/20%Monthly2017-03-16 09:08
http://www.hotnewdeal.com/2017/03/16/180391_Eddie_Bauer_Stowaway_Packable_Sling_Bag_various_c/20%Monthly2017-03-16 09:08
http://www.hotnewdeal.com/2017/03/16/180390_Amazon_Smile_donating_5_on_purchases_today_only_/20%Monthly2017-03-16 08:55
http://www.hotnewdeal.com/2017/03/16/180389_Batman_Arkham_Knight_PS4_Digital_Code_999_via/20%Monthly2017-03-16 08:55
http://www.hotnewdeal.com/2017/03/16/180388_Polo_Boys_Cotton_Mesh_LongSleeve_Polo_699W5/20%Monthly2017-03-16 08:46
http://www.hotnewdeal.com/2017/03/16/180387_Google_Play_Train_to_Busan_HD__099/20%Monthly2017-03-16 07:58
http://www.hotnewdeal.com/2017/03/16/180386_Pebble_Steel_Smartwatch_43__Ebay_FS_Its_Blac/20%Monthly2017-03-16 07:58
http://www.hotnewdeal.com/2017/03/16/180385_Xbox_One_S_1TB_Halo_Wars_2_Bundle_plus_Extra_Contr/20%Monthly2017-03-16 07:33
http://www.hotnewdeal.com/2017/03/16/180384_FAR_Risen_2_Final_Fantasy_XIV_PS3__Metal_Gear/20%Monthly2017-03-16 07:33
http://www.hotnewdeal.com/2017/03/16/180383_KREG_KMA3200_Shelf_Pin_Drilling_Jig_2334__Amazo/20%Monthly2017-03-16 07:10
http://www.hotnewdeal.com/2017/03/16/180382_Logan_Bluray__DVD__Digital_HD_Best_Buy_Exclus/20%Monthly2017-03-16 06:29
http://www.hotnewdeal.com/2017/03/16/180381_Disney_Movie_Rewards_Tangled_and_Big_Hero_6_BluRa/20%Monthly2017-03-16 06:29
http://www.hotnewdeal.com/2017/03/16/180380_Apple__MacBook_Air_Latest_Model__133_Displa/20%Monthly2017-03-16 06:08
http://www.hotnewdeal.com/2017/03/16/180379_EVGA_GeForce_GTX_1080_8GB_Hybrid_Gaming_Video_Card/20%Monthly2017-03-16 06:08
http://www.hotnewdeal.com/2017/03/16/180378_Konami_Pro_Evolution_Soccer_2015_PS4_or_XB1_NBA/20%Monthly2017-03-16 06:08
http://www.hotnewdeal.com/2017/03/16/180377_Etekcity_3Level_Wireless_Dimmable_Color_LED_Desk_/20%Monthly2017-03-16 06:08
http://www.hotnewdeal.com/2017/03/16/180376_CyberPower_CP1000PFCLCD_PFC_Sinewave_UPS_System_an/20%Monthly2017-03-16 04:29
http://www.hotnewdeal.com/2017/03/16/180375_Vansky_Indoor_HDTV_Antenna_w_50Mile_Range__Deta/20%Monthly2017-03-16 04:08
http://www.hotnewdeal.com/2017/03/16/180374_Elegant_Home_Fashions_Neal_Collection_Mirrored_Med/20%Monthly2017-03-16 03:09
http://www.hotnewdeal.com/2017/03/16/180373_Liquid_Chalkboard_Markers_Pens_with_40_Chalkboard_/20%Monthly2017-03-16 03:03
http://www.hotnewdeal.com/2017/03/16/180372_Harbor_Freight_Class_Action_Settlement__Get_cash_/20%Monthly2017-03-16 02:08
http://www.hotnewdeal.com/2017/03/16/180371_Anker_GlassGuard_iPhone_7_Screen_Protector_ONLY_0/20%Monthly2017-03-16 02:08
http://www.hotnewdeal.com/2017/03/16/180370_Opus_BTC3100_V22_Smart_Liion_Battery_Charger_2/20%Monthly2017-03-16 01:29
http://www.hotnewdeal.com/2017/03/16/180369_4_Motion_Activated_Flexible_LED_Light_Strip_w_Ti/20%Monthly2017-03-16 01:29
http://www.hotnewdeal.com/2017/03/16/180368_Ultimate_Guitar_Tabs__Chords/20%Monthly2017-03-16 01:07
http://www.hotnewdeal.com/2017/03/16/180367_KM8_PRO_TV__Kodi_Box_Android_60_S912_Octa_Core/20%Monthly2017-03-16 01:07
http://www.hotnewdeal.com/2017/03/15/180364_BEATS_Solo3_Black_150__WALMART/20%Monthly2017-03-15 23:39
http://www.hotnewdeal.com/2017/03/15/180363_Americas_Best_Contacts_and_Eyeglasses_5_years_of/20%Monthly2017-03-15 23:39
http://www.hotnewdeal.com/2017/03/15/180362_JJRC_H20W_24G_Drone_Realtime_RC_Quadcopter_Blue/20%Monthly2017-03-15 23:20
http://www.hotnewdeal.com/2017/03/15/180361_Bose_251_Wall_Mount_Outdoor_Environmental_Speakers/20%Monthly2017-03-15 23:17
http://www.hotnewdeal.com/2017/03/15/180360_18oz_AllBran_Cereal_Complete_Wheat_Pack_of_2/20%Monthly2017-03-15 22:46
http://www.hotnewdeal.com/2017/03/15/180359_Disney_Cars_Daredevil_McQueen_Vehicle_198__Fre/20%Monthly2017-03-15 22:46
http://www.hotnewdeal.com/2017/03/15/180358_Husky_12in_Tool_Wall_YMMV/20%Monthly2017-03-15 22:46
http://www.hotnewdeal.com/2017/03/15/180357_Terry_Waterproof_Mattress_Protector_twinfullquee/20%Monthly2017-03-15 22:38
http://www.hotnewdeal.com/2017/03/15/180355_Buy_LG_G6_and_get_Google_home_and_TV__200_trade_/20%Monthly2017-03-15 22:23
http://www.hotnewdeal.com/2017/03/15/180354_Walmart_YMMV_Apple_Watch_Sport_42mm_Aluminum_Case_/20%Monthly2017-03-15 22:16
http://www.hotnewdeal.com/2017/03/15/180353_PECHAM_Extra_Large_XXL_Gaming_Desk_Mouse_Pad_3mm_T/20%Monthly2017-03-15 21:48
http://www.hotnewdeal.com/2017/03/15/180352_Camerons_Organic_Whole_Bean_Coffee_French_Roast/20%Monthly2017-03-15 21:40
http://www.hotnewdeal.com/2017/03/15/180351_Pebble_Smartwatch_for_iPhone_and_Android_Devices_/20%Monthly2017-03-15 21:40
http://www.hotnewdeal.com/2017/03/15/180350_Alex_Toys_Little_Hands_Ready_Set_School_for_1143/20%Monthly2017-03-15 21:40
http://www.hotnewdeal.com/2017/03/15/180349_Microsoft_Surface_Pro_3_Certified_Refurbished_6/20%Monthly2017-03-15 21:33
http://www.hotnewdeal.com/2017/03/15/180348_Escort_Passport_S55_Radar_and_Laser_Detector_109_/20%Monthly2017-03-15 21:33
http://www.hotnewdeal.com/2017/03/15/180347_TurboTax_Home__Business_2016_Tax_Software_Federal/20%Monthly2017-03-15 21:20
http://www.hotnewdeal.com/2017/03/15/180346_Antibacterial_Ointment_Creams_Effective_Remove_Pso/20%Monthly2017-03-15 21:20
http://www.hotnewdeal.com/2017/03/15/180345_Dell_27_widescreen_1920x1080_IPS_LEDLCD_monito/20%Monthly2017-03-15 21:09
http://www.hotnewdeal.com/2017/03/15/180344_Ralph_Lauren_Coupon_30_Off_Select_Styles_Active/20%Monthly2017-03-15 21:09
http://www.hotnewdeal.com/2017/03/15/180343_Girls_Cat__Jack_Skinny_Jean_Medium_Wash_486/20%Monthly2017-03-15 20:46
http://www.hotnewdeal.com/2017/03/15/180342_MacyS_Extra_30_off_Baby_Cloths_from_209_Tod/20%Monthly2017-03-15 20:46
http://www.hotnewdeal.com/2017/03/15/180341_imaginext_transforming_bat_mobile__Amazon_911/20%Monthly2017-03-15 20:31
http://www.hotnewdeal.com/2017/03/15/180340_Moana_Little_Golden_Book_Hardcover__Amazon__2/20%Monthly2017-03-15 20:23
http://www.hotnewdeal.com/2017/03/15/180339_Watch_Dogs_Season_Pass_Xbox_One_8__Amazoncom/20%Monthly2017-03-15 20:23
http://www.hotnewdeal.com/2017/03/15/180337_Samsung_UN65KS8500_Curved_65Inch_4K_Ultra_HD_Smar/20%Monthly2017-03-15 19:58
http://www.hotnewdeal.com/2017/03/15/180336_Oneidas_Spring_Tent_Sale_Up_to_80_Off__Additio/20%Monthly2017-03-15 19:58
http://www.hotnewdeal.com/2017/03/15/180335_Assorted_Richard_Scary_Board_Books_for_199_each_/20%Monthly2017-03-15 19:58
http://www.hotnewdeal.com/2017/03/15/180334_Moana_ReadAlong_Storybook_paperback__CD_373_/20%Monthly2017-03-15 19:39
http://www.hotnewdeal.com/2017/03/15/180333_SAMSUNG_850_EVO_25_250GB_SATA_III_3D_Vertical_I/20%Monthly2017-03-15 19:32
http://www.hotnewdeal.com/2017/03/15/180332_Wisconsin_Badgers_Kids_Football_Jersey_624_size/20%Monthly2017-03-15 19:32
http://www.hotnewdeal.com/2017/03/15/180331_Zinus_Responsive_Memory_Foam_10_Inch_Queen_16149/20%Monthly2017-03-15 19:24
http://www.hotnewdeal.com/2017/03/15/180330_Hometown_Buffet_Ryans_Country__Old_Country_Bu/20%Monthly2017-03-15 19:17
http://www.hotnewdeal.com/2017/03/15/180329_Buy_an_LG_G6_Youll_Get_a_Free_Google_Home/20%Monthly2017-03-15 19:17
http://www.hotnewdeal.com/2017/03/15/180328_Fender_Standard_Dimension_IV_Bass_Guitar_400__fr/20%Monthly2017-03-15 18:55
http://www.hotnewdeal.com/2017/03/15/180327_70_Vizio_E70E3_4K_Ultra_HD_Smart_LED_Home_Theate/20%Monthly2017-03-15 18:31
http://www.hotnewdeal.com/2017/03/15/180325_Pixio_PX277_27In_2560x1440_144Hz_AMD_FreeSync_IPS/20%Monthly2017-03-15 18:22
http://www.hotnewdeal.com/2017/03/15/180324_Graco_Modes_Travel_System_Davis__PRIMES_ONLY_2/20%Monthly2017-03-15 18:16
http://www.hotnewdeal.com/2017/03/15/180323_Apple_Wireless_Aluminum_Bluetooth_Macbook_Compact_/20%Monthly2017-03-15 18:07
http://www.hotnewdeal.com/2017/03/15/180322_Surface_Pro_4_Intel_Core_M_128GB_Bundle_with_Wind/20%Monthly2017-03-15 17:38
http://www.hotnewdeal.com/2017/03/15/180321_Lenovo_Phab_2_32GB_64_Smartphone_Unlocked_Cham/20%Monthly2017-03-15 17:17
http://www.hotnewdeal.com/2017/03/15/180320_WeMo_LED_Lighting_Starter_Set_4999/20%Monthly2017-03-15 17:08
http://www.hotnewdeal.com/2017/03/15/180319_Charmin_Essentials_Toilet_Paper_24_Giant_Rolls_So/20%Monthly2017-03-15 16:46
http://www.hotnewdeal.com/2017/03/15/180318_Kodiak_Canvas_Tent_Deluxe_model_10x14_400_us/20%Monthly2017-03-15 16:46
http://www.hotnewdeal.com/2017/03/15/180316_Virgin_Mobile_Samsung_Galaxy_J7_with_70_of_Servic/20%Monthly2017-03-15 15:58
http://www.hotnewdeal.com/2017/03/15/180315_Only_Natural_Pet_Coupon_20_Off__Only_Natural_Pe/20%Monthly2017-03-15 15:46
http://www.hotnewdeal.com/2017/03/15/180314_Los_Angeles_San_Francisco_New_York_to_Manila_Phili/20%Monthly2017-03-15 15:24
http://www.hotnewdeal.com/2017/03/15/180313_Medela_Breastmilk_Storage_Solution_1912__ship_/20%Monthly2017-03-15 15:20
http://www.hotnewdeal.com/2017/03/15/180311_Maybelline_New_York_Great_Lash_Curved_Brush_Washab/20%Monthly2017-03-15 14:55
http://www.hotnewdeal.com/2017/03/15/180310_REI_Osprey_Rev_6_Hydration_Pack_3744_Osprey_Re/20%Monthly2017-03-15 14:55
http://www.hotnewdeal.com/2017/03/15/180309_Kiplingers_Personal_Finance_Magazine_599_per_ye/20%Monthly2017-03-15 14:55
http://www.hotnewdeal.com/2017/03/15/180308_Tekken_7_Collectors_Edition__Price_error__60/20%Monthly2017-03-15 14:46
http://www.hotnewdeal.com/2017/03/15/180307_Nike_Mavrk_Mens_Polarized_Sunglasses_38__free_s/20%Monthly2017-03-15 14:46
http://www.hotnewdeal.com/2017/03/15/180306_Sennheiser_MKH416_Short_Shotgun_Interference_Tube/20%Monthly2017-03-15 14:42
http://www.hotnewdeal.com/2017/03/15/180305_Amazon_Superbad_Unrated_Extended_Edition_Bluray_/20%Monthly2017-03-15 14:31
http://www.hotnewdeal.com/2017/03/15/180304_Klipsch_R20B_Bluetooth_Soundbar_with_Wireless_Sub/20%Monthly2017-03-15 14:31
http://www.hotnewdeal.com/2017/03/15/180303_BlueMagic_900_Carpet_Stain__Spot_Lifter_22oz_fo/20%Monthly2017-03-15 14:17
http://www.hotnewdeal.com/2017/03/15/180302_Nitecore_EC21_Flashlight_w_Nightvision_Mode_24_/20%Monthly2017-03-15 13:59
http://www.hotnewdeal.com/2017/03/15/180301_Roku_Premiere_UHD_Streaming_Player_65Frys_wema/20%Monthly2017-03-15 13:47
http://www.hotnewdeal.com/2017/03/15/180300_Cree_XPE_Q5_AA_Zoomable_LED_Flashlight_2_free_shi/20%Monthly2017-03-15 13:08
http://www.hotnewdeal.com/2017/03/15/180299_Jericho_The_Complete_Series_DVD_1497__Free_I/20%Monthly2017-03-15 12:56
http://www.hotnewdeal.com/2017/03/15/180298_PacSun_Denim_Jeans_Sale_for_MenWomen_various_sty/20%Monthly2017-03-15 12:56
http://www.hotnewdeal.com/2017/03/15/180296_Wireless_Remote_Control_Doorbell_with_10_Different/20%Monthly2017-03-15 12:47
http://www.hotnewdeal.com/2017/03/15/180295_Canon_EOS_Rebel_T6_with_1855mm_75300mm_SD_card/20%Monthly2017-03-15 12:39
http://www.hotnewdeal.com/2017/03/15/180294_50_off_raisins_Dole_California_Golden_Raisins_12/20%Monthly2017-03-15 12:39
http://www.hotnewdeal.com/2017/03/15/180293_Kingston_FURY_32GB_2_x_16GB_DDR42133_Memory_14/20%Monthly2017-03-15 12:39
http://www.hotnewdeal.com/2017/03/15/180292_Saks_OFF_5th_Extra_20_OFF_Clearance_Mens_Revers/20%Monthly2017-03-15 12:39
http://www.hotnewdeal.com/2017/03/15/180291_ASUS_GeForce_GTX_1050_2GB_PHOENIX_Fan_Edition_Vide/20%Monthly2017-03-15 12:38
http://www.hotnewdeal.com/2017/03/15/180290_Dell_Inspiron_13_Signature_Edition_616/20%Monthly2017-03-15 12:27
http://www.hotnewdeal.com/2017/03/15/180287_Fossil_Keely_Colorblock_Leather_Wristlet_1225_A/20%Monthly2017-03-15 12:16
http://www.hotnewdeal.com/2017/03/15/180286_Graco_Soothing_System_Glider_Baby_Swing_Abbington/20%Monthly2017-03-15 11:59
http://www.hotnewdeal.com/2017/03/15/180285_Zotac_GTX_1080_for_41000_on_Amazoncom/20%Monthly2017-03-15 11:47
http://www.hotnewdeal.com/2017/03/15/180284_AMD_RYZEN_7_1700_8Core_30_GHz_37_GHz_Turbo_YD/20%Monthly2017-03-15 11:33
http://www.hotnewdeal.com/2017/03/15/180283_BenQ_BL3200PT_32Inch_2560x1440_QHD_Monitor_350_W/20%Monthly2017-03-15 11:24
http://www.hotnewdeal.com/2017/03/15/180282_Refurb_2pack_TPLink_WiFi_Smart_Plug_with_Ener/20%Monthly2017-03-15 11:09
http://www.hotnewdeal.com/2017/03/15/180281_New_Lenovo_ThinkPad_Yoga_11eG3_w_Intel_Quad_Core/20%Monthly2017-03-15 11:09
http://www.hotnewdeal.com/2017/03/15/180280_Lauren_Ralph_Lauren_ClassicFit_FlatFront_Corduro/20%Monthly2017-03-15 11:09
http://www.hotnewdeal.com/2017/03/15/180279_65_LG_65UH9500_Super_UHD_HDR_240Hz_4K_Ultra_Slim_/20%Monthly2017-03-15 10:42
http://www.hotnewdeal.com/2017/03/15/180277_Amazon__VTech_Touch_and_Learn_Activity_Desk__Use/20%Monthly2017-03-15 10:32
http://www.hotnewdeal.com/2017/03/15/180276_Starbuckscom_Receive_15_E_Gift_Card_With_50_Pu/20%Monthly2017-03-15 10:25
http://www.hotnewdeal.com/2017/03/15/180275_Acronis_Disk_Director_12_Free_after_30_Rebate_Fr/20%Monthly2017-03-15 10:24
http://www.hotnewdeal.com/2017/03/15/180274_Recording_King_Dirty_30s_Harmonella_OOO_Acoustic_/20%Monthly2017-03-15 10:18
http://www.hotnewdeal.com/2017/03/15/180273_1080p_Wireless_IP_Motion_Detection_Night_Vision_Se/20%Monthly2017-03-15 10:17
http://www.hotnewdeal.com/2017/03/15/180272_Leviathan_Wakes_The_Expanse_Book_1_Kindle_Editio/20%Monthly2017-03-15 10:08
http://www.hotnewdeal.com/2017/03/15/180271_GoPro_Hero_4_Silver_199_Session_105_FS_Refurbis/20%Monthly2017-03-15 09:59
http://www.hotnewdeal.com/2017/03/15/180270_Wombat_Child_Board_Book__Free_shipping_with_prime/20%Monthly2017-03-15 09:59
http://www.hotnewdeal.com/2017/03/15/180269_EVEN_LESS_Stanley_15Amp_Battery_Charger_w_40/20%Monthly2017-03-15 09:59
http://www.hotnewdeal.com/2017/03/15/180268_50_Miles_Long_Range_TV_HD_Antenna_With_Amplifier_S/20%Monthly2017-03-15 09:59
http://www.hotnewdeal.com/2017/03/15/180267_Xbox_one_Controller__Halo_5_Guardians__4999/20%Monthly2017-03-15 09:33
http://www.hotnewdeal.com/2017/03/15/180266_Skylanders_Imaginators_Crash_Bandicoot_Thumpin_Wh/20%Monthly2017-03-15 09:32
http://www.hotnewdeal.com/2017/03/15/180265_ZOTAC_GeForce_GTX_1080_Mini_ZTP10800H10P_8GB_G/20%Monthly2017-03-15 09:24
http://www.hotnewdeal.com/2017/03/15/180264_Polo_Ralph_Lauren_Tussah_Silk_4349/20%Monthly2017-03-15 09:17
http://www.hotnewdeal.com/2017/03/15/180263_XFX_Radeon_RS_RX_480_RX480P4LFB6_4GB_Graphics_car/20%Monthly2017-03-15 08:56
http://www.hotnewdeal.com/2017/03/15/180262_6Pack_Pace__Prego_Ready_Meals__As_Low_As_698_/20%Monthly2017-03-15 08:47
http://www.hotnewdeal.com/2017/03/15/180261_Amazoncom_has_Philips_Sonicare_2_Series_Plaque_Co/20%Monthly2017-03-15 08:47
http://www.hotnewdeal.com/2017/03/15/180260_868_AmazonBasics_4Piece_Packing_Cube_Set__2_Me/20%Monthly2017-03-15 08:16
http://www.hotnewdeal.com/2017/03/15/180258_Final_Fantasy_XV_PS4_or_Xbox_One_3499_via_Amaz/20%Monthly2017-03-15 07:47
http://www.hotnewdeal.com/2017/03/15/180257_Employees_Must_Wash_Hands_sign_131__Free_Prime_/20%Monthly2017-03-15 07:17
http://www.hotnewdeal.com/2017/03/15/180256_Craftsman_3900_sq_ft_Turbo_Oscillating_Sprinkler/20%Monthly2017-03-15 06:08
http://www.hotnewdeal.com/2017/03/15/180255_Certified_Refurbished_ASUS_Zenbook_UX303UBUH74T/20%Monthly2017-03-15 05:08
http://www.hotnewdeal.com/2017/03/15/180254_Cricket_Rewards_315_only_5_Walmart_gift_card_for/20%Monthly2017-03-15 04:09
http://www.hotnewdeal.com/2017/03/15/180253_Vantrue_Upgraded_N1_Full_HD_1080p_HDR_15_LCD_Car/20%Monthly2017-03-15 04:09
http://www.hotnewdeal.com/2017/03/15/180252_OUTERDO_Ghillie_Suits_3D_Leafy_Camo_Suits_Woodland/20%Monthly2017-03-15 03:25
http://www.hotnewdeal.com/2017/03/15/180251_CyberpowerPC_Zeus_Mini_EVO_mATX_i77700K_Liquid_C/20%Monthly2017-03-15 03:09
http://www.hotnewdeal.com/2017/03/15/180250_Moonmini_iPhone_7__7_Phone_Cases_Starting_at_2/20%Monthly2017-03-15 03:09
http://www.hotnewdeal.com/2017/03/15/180249_Conair_Oval_Shaped_DoubleSided_Lighted_Makeup_Mir/20%Monthly2017-03-15 02:09
http://www.hotnewdeal.com/2017/03/15/180248_Planters_Cashew_Halves_and_Pieces_made_with_Pure_S/20%Monthly2017-03-15 01:32
http://www.hotnewdeal.com/2017/03/15/180247_Boston_to_Iceland_230_RT_on_WOW_Air_April_depart/20%Monthly2017-03-15 01:32
http://www.hotnewdeal.com/2017/03/15/180246_Teclast_Tbook_16_Power_Tablet_PC_Android_60_x7Z/20%Monthly2017-03-15 01:13
http://www.hotnewdeal.com/2017/03/15/180245_Wemo_Mini_Smart_Plug_WiFi_Enabled_Works_with_Am/20%Monthly2017-03-15 01:13
http://www.hotnewdeal.com/2017/03/15/180244_58_Wide_Water_Resistant_Grill_Cover_1291_AC_FS/20%Monthly2017-03-15 01:13
http://www.hotnewdeal.com/2017/03/15/180243_Contigo_Shake__Go_Fit_Shaker_Bottle_28oz_Black_/20%Monthly2017-03-15 00:11
http://www.hotnewdeal.com/2017/03/15/180242_OKeeffes_Working_Hands__Healthy_Feet_Combinatio/20%Monthly2017-03-15 00:01
http://www.hotnewdeal.com/2017/03/15/180241_The_Shack_by_William_P_Young__47_stars_in_12529/20%Monthly2017-03-15 00:01
http://www.hotnewdeal.com/2017/03/14/180240_Polo_Ralph_Lauren_Mens_Estate_Rib_Half_Zip_Sweate/20%Monthly2017-03-14 23:50
http://www.hotnewdeal.com/2017/03/14/180239_Martinson_Coffee_Donut_Shop_Blend_48_Single_Serv/20%Monthly2017-03-14 23:49
http://www.hotnewdeal.com/2017/03/14/180238_Walmart_Baby_Toddler_Boys_Garanimals_Cargo_Pants_/20%Monthly2017-03-14 23:49
http://www.hotnewdeal.com/2017/03/14/180237_30_Off_Refrigerator_Water_Filter_Replacements_for/20%Monthly2017-03-14 23:20
http://www.hotnewdeal.com/2017/03/14/180236_Marineland_75_Gallon_Aquarium_Majesty_Ensemble__/20%Monthly2017-03-14 22:57
http://www.hotnewdeal.com/2017/03/14/180235_Star_Wars_The_Force_Awakens_Elite_Series_Die_Cast/20%Monthly2017-03-14 22:57
http://www.hotnewdeal.com/2017/03/14/180234_buy_1_get_1_free_power_ranger_movie_tickets/20%Monthly2017-03-14 22:57
http://www.hotnewdeal.com/2017/03/14/180233_4G_4CH_6Axis_Gyro_Super_Power_RC_Quadcopter_CF_M/20%Monthly2017-03-14 22:41
http://www.hotnewdeal.com/2017/03/14/180232_Planet_Earth_2_4K_HDR_3_Disc_set_3999_Best_buy_/20%Monthly2017-03-14 22:36
http://www.hotnewdeal.com/2017/03/14/180231_Sport_Action_Camera_Ultra_HD_4K_16MP_WiFi_2_LCD_W/20%Monthly2017-03-14 22:31
http://www.hotnewdeal.com/2017/03/14/180230_Lenovo_Flex_4_14_Laptop_i7_6500U_512GB_SSD_8GB/20%Monthly2017-03-14 22:19
http://www.hotnewdeal.com/2017/03/14/180229_DuaFire_Digital_UltraThin_Indoor_HDTV_Antenna_25/20%Monthly2017-03-14 22:19
http://www.hotnewdeal.com/2017/03/14/180228_Dewalt_DW734_Planer_at_Acme_Tools_for_New_Customer/20%Monthly2017-03-14 22:19
http://www.hotnewdeal.com/2017/03/14/180227_Urbuds_1399_X1_Bluetooth_41_Earphone_with_metal/20%Monthly2017-03-14 22:09
http://www.hotnewdeal.com/2017/03/14/180226_FEIYUE__03_112_24G_Full_Scale_4WD_Desert_RC_Off/20%Monthly2017-03-14 21:50
http://www.hotnewdeal.com/2017/03/14/180225_Dove_Beauty_Bar_Sensitive_Skin_4oz_48_Bars_16_/20%Monthly2017-03-14 21:43
http://www.hotnewdeal.com/2017/03/14/180224_ADATA_SU800_128GB_3DNAND_25_Inch_SATA_III_Solid_/20%Monthly2017-03-14 21:36
http://www.hotnewdeal.com/2017/03/14/180223_Microsoft_123_Surface_Pro_4_128GB_SSD_4GB_RAM/20%Monthly2017-03-14 21:36
http://www.hotnewdeal.com/2017/03/14/180222_Panasonic_Eneloop_AA_2100_Cycle_NiMH_PreCharged_/20%Monthly2017-03-14 21:35
http://www.hotnewdeal.com/2017/03/14/180221_Lowes_and_Home_Depot_11_off_promo_313__318/20%Monthly2017-03-14 21:19
http://www.hotnewdeal.com/2017/03/14/180220_Kanto_Powered_HiFi_Desktop_Speakers__Black_557/20%Monthly2017-03-14 21:09
http://www.hotnewdeal.com/2017/03/14/180219_Nikon_AFS_NIKKOR_70300mm_f4556_G_EDIF_VR_Te/20%Monthly2017-03-14 20:39
http://www.hotnewdeal.com/2017/03/14/180218_BestMassage_Full_Body_Shiatsu_Massage_Chair__600/20%Monthly2017-03-14 20:39
http://www.hotnewdeal.com/2017/03/14/180217_Lumina_Full_HD_1080P_ZoomSeries_Ultra_Wide_Angle_/20%Monthly2017-03-14 20:22
http://www.hotnewdeal.com/2017/03/14/180216_Berkley_Vanish_Fluorocarbon_8lb_250_yards_2/20%Monthly2017-03-14 20:00
http://www.hotnewdeal.com/2017/03/14/180215_Aveeno_Daily_Moisturizing_Body_Yogurt_Lotion_Apri/20%Monthly2017-03-14 20:00
http://www.hotnewdeal.com/2017/03/14/180214_5Port_Sabrent_Quick_Charge_30_Desktop_USB_Charge/20%Monthly2017-03-14 19:50
http://www.hotnewdeal.com/2017/03/14/180213_Kingsford_Charcoal_Water_Smoker__Clearance_at_Wal/20%Monthly2017-03-14 19:50
http://www.hotnewdeal.com/2017/03/14/180212_Earths_Best_Organic_Stage_1_My_First_Veggies_Var/20%Monthly2017-03-14 19:38
http://www.hotnewdeal.com/2017/03/14/180210_Whirlpool__Cabrio_48_Cu_Ft_model_WTW7300DW_for/20%Monthly2017-03-14 18:48
http://www.hotnewdeal.com/2017/03/14/180209_REI_Womens_Sorel_Tivoli_High_II_Boot_5987_Men/20%Monthly2017-03-14 18:42
http://www.hotnewdeal.com/2017/03/14/180208_Mizuno_Mens_or_Womens_Wave_Sayanora_or_Wave_Lege/20%Monthly2017-03-14 18:35
http://www.hotnewdeal.com/2017/03/14/180207_Washington_Boston_Chicago_or_New_York_to_Helsink/20%Monthly2017-03-14 18:27
http://www.hotnewdeal.com/2017/03/14/180206_24Pack_Planters_Nut_Variety_Pack_25lbs_total_/20%Monthly2017-03-14 18:00
http://www.hotnewdeal.com/2017/03/14/180204_HP_Pavilion_x360_15bk193ms_156_1080P_IPS_Touch/20%Monthly2017-03-14 18:00
http://www.hotnewdeal.com/2017/03/14/180203_Gears_of_War_4_XB1_Digital_Download_2999_Watc/20%Monthly2017-03-14 17:54
http://www.hotnewdeal.com/2017/03/14/180202_Living_Social_Escapes__Up_to_20_off_Promo_Code_f/20%Monthly2017-03-14 17:38
http://www.hotnewdeal.com/2017/03/14/180200_Basics_Minimalist_Wallet_1299__free_shipping/20%Monthly2017-03-14 17:28
http://www.hotnewdeal.com/2017/03/14/180199_Rogue_One_A_Star_Wars_Story_Bluray__DVD__Digi/20%Monthly2017-03-14 17:28
http://www.hotnewdeal.com/2017/03/14/180198_Pair_of_Klipsch_R24F_Floorstanding_Speakers_w_Kl/20%Monthly2017-03-14 17:28
http://www.hotnewdeal.com/2017/03/14/180197_6_TB_Toshiba_X300_35_SATA_III_7200_RPM_Hard_Driv/20%Monthly2017-03-14 17:20
http://www.hotnewdeal.com/2017/03/14/180195_Best_Garden_Long_Handle_Tools__497_each_shipped/20%Monthly2017-03-14 17:10
http://www.hotnewdeal.com/2017/03/14/180194_NuFace_White_Mini_Facial_Toning_Device_9499_FS/20%Monthly2017-03-14 17:10
http://www.hotnewdeal.com/2017/03/14/180193_Western_Digital_Elements_1TB_Portable_External_Har/20%Monthly2017-03-14 16:56
http://www.hotnewdeal.com/2017/03/14/180191_Samsung_level_box_mini__Silver_2999Tax_FS/20%Monthly2017-03-14 16:47
http://www.hotnewdeal.com/2017/03/14/180190_ASUS_Rampage_V_Extreme_LGA_2011v3_Intel_X99_Mothe/20%Monthly2017-03-14 16:47
http://www.hotnewdeal.com/2017/03/14/180189_Gigabyte_GAZ170XUD3_rev_10_LGA_1151_Intel_Z1/20%Monthly2017-03-14 16:47
http://www.hotnewdeal.com/2017/03/14/180188_LEGO_PC_Games_Batman_Avengers_Starwars_Redeeme/20%Monthly2017-03-14 16:38
http://www.hotnewdeal.com/2017/03/14/180187_JayBird_X2_Sport_InEar_Headphones_with_Bluetooth_/20%Monthly2017-03-14 16:34
http://www.hotnewdeal.com/2017/03/14/180186_Annies_Macaroni_and_Cheese_Bunny_Pasta_with_Yumm/20%Monthly2017-03-14 16:26
http://www.hotnewdeal.com/2017/03/14/180185_25_Papa_Johns_eGift_Card_for_only_20__Email_de/20%Monthly2017-03-14 16:25
http://www.hotnewdeal.com/2017/03/14/180184_LD_Products_shoprunner_10Off20_along_with_Am/20%Monthly2017-03-14 16:12
http://www.hotnewdeal.com/2017/03/14/180183_Taotronics_Pulse_X_14w_Bluetooth_Speaker_16_at_Am/20%Monthly2017-03-14 16:09
http://www.hotnewdeal.com/2017/03/14/180182_Gamefly_Used_Game_Sale__Mirrors_Edge_Catalyst_9/20%Monthly2017-03-14 16:08
http://www.hotnewdeal.com/2017/03/14/180181_Inateck_Laptop_Sleeves_Starting_at_6__Free_Shipp/20%Monthly2017-03-14 16:08
http://www.hotnewdeal.com/2017/03/14/180180_TPLink_AC3150_Wireless_WiFi_Gigabit_Router_with_/20%Monthly2017-03-14 15:48
http://www.hotnewdeal.com/2017/03/14/180179_Chevron_Techron_Plus_Fuel_System_BOGO_AC_2x12oz_4/20%Monthly2017-03-14 15:40
http://www.hotnewdeal.com/2017/03/14/180178_LG_OLED55C6P_Curved_55Inch_4K_Ultra_HD_Smart_OLED/20%Monthly2017-03-14 15:40
http://www.hotnewdeal.com/2017/03/14/180177_Blaze_Pizza_314_off_any_pizza_from_315331/20%Monthly2017-03-14 15:36
http://www.hotnewdeal.com/2017/03/14/180176_Gameflycom_Under_20_blowout_sale_Deus_EX_999/20%Monthly2017-03-14 15:36
http://www.hotnewdeal.com/2017/03/14/180175_Bluetooth_On_Ear_Sport_Headphones_wmic_986_71/20%Monthly2017-03-14 15:27
http://www.hotnewdeal.com/2017/03/14/180174_Nikon_D750_DSLR_243MP_FX_Camera_Body_Refurbish/20%Monthly2017-03-14 15:19
http://www.hotnewdeal.com/2017/03/14/180173_LG_Electronics_OLED65E6P_2799_ebay_ielectrica/20%Monthly2017-03-14 15:19
http://www.hotnewdeal.com/2017/03/14/180172_50Pack_Optical_Quantum_25_GB_6X_BDR_Media_Spindl/20%Monthly2017-03-14 15:19
http://www.hotnewdeal.com/2017/03/14/180171_ZOTAC_GeForce_GTX_1060_Mini_6GB_Video_Card_215Mi/20%Monthly2017-03-14 15:09
http://www.hotnewdeal.com/2017/03/14/180170_Olee_Sleep_13_Inch_Box_Top_Hybrid_Gel_Infused_Memo/20%Monthly2017-03-14 15:09
http://www.hotnewdeal.com/2017/03/14/180169_Oneida_Ultimate_Dust_Deputy_UDD_for_Festool_Vacu/20%Monthly2017-03-14 15:09
http://www.hotnewdeal.com/2017/03/14/180168_Jetcom_20_off_2_Pampers_or_Luvs__Free_Shippin/20%Monthly2017-03-14 14:48
http://www.hotnewdeal.com/2017/03/14/180167_6499_Thermaltake_Core_P3_SE_Black_ATX_Open_Frame/20%Monthly2017-03-14 14:40
http://www.hotnewdeal.com/2017/03/14/180166_LG_Laundry_Pedestal_instore_Frys_1413_Cherry_r/20%Monthly2017-03-14 14:34
http://www.hotnewdeal.com/2017/03/14/180165_Westinghouse_WD43FC2380_43_1080p_Smart_LED_TV_19/20%Monthly2017-03-14 14:34
http://www.hotnewdeal.com/2017/03/14/180164_PSN_NA__Paladins_Avatars_Smite_Avatars_ADK_DAMA/20%Monthly2017-03-14 14:26
http://www.hotnewdeal.com/2017/03/14/180163_Sprint_Samsung_Galaxy_S7_for_1999__Month_for_24/20%Monthly2017-03-14 14:18
http://www.hotnewdeal.com/2017/03/14/180162_20_Off_Recon_15_Active_Backpack_8571__Free_Sh/20%Monthly2017-03-14 14:03
http://www.hotnewdeal.com/2017/03/14/180161_Lands_End_Extra_314_Off_Sale_Items_Today_Only/20%Monthly2017-03-14 13:49
http://www.hotnewdeal.com/2017/03/14/180160_Samsung_HWJ8500RZA_91_soundbar_449__Best_Buy/20%Monthly2017-03-14 13:49
http://www.hotnewdeal.com/2017/03/14/180159_Perry_Ellis_Shirt_Sale_Oxford_Roll_Sleeve_Shirt_/20%Monthly2017-03-14 13:42
http://www.hotnewdeal.com/2017/03/14/180158_Nintendo_Switch_Pro_Controller_In_Stock__AMAZON_/20%Monthly2017-03-14 13:35
http://www.hotnewdeal.com/2017/03/14/180157_G1WCB_27_1080P_Full_HD_Car_DVR__Mirror_Camera_/20%Monthly2017-03-14 13:35
http://www.hotnewdeal.com/2017/03/14/180156_Polar_A360_Fitness_Tracker_with_WristBased_Heart_/20%Monthly2017-03-14 13:35
http://www.hotnewdeal.com/2017/03/14/180155_Pacific_Coast_Double_Down_Surround_Pillows_3150/20%Monthly2017-03-14 13:34
http://www.hotnewdeal.com/2017/03/14/180154_12Pack_of_72Count_Cuties_Baby_Wipes_Soft_Pack_U/20%Monthly2017-03-14 13:26
http://www.hotnewdeal.com/2017/03/14/180153_Bare_Necessities_Extra_30_Off_Clearance_Today_On/20%Monthly2017-03-14 13:26
http://www.hotnewdeal.com/2017/03/14/180152_Shutterfly_8_x_8_Hardcover_Photo_Book_8_Shipped/20%Monthly2017-03-14 13:26
http://www.hotnewdeal.com/2017/03/14/180151_Actiontec_AV500_Powerline_4Port_Hub_Kit_for_129/20%Monthly2017-03-14 13:18
http://www.hotnewdeal.com/2017/03/14/180150_Batman_Sale_This_Week_On_The_Playstation_Store/20%Monthly2017-03-14 12:56
http://www.hotnewdeal.com/2017/03/14/180149_Samsung_Galaxy_TabPro_S_2in1_12_2160x1440_Touch/20%Monthly2017-03-14 12:39
http://www.hotnewdeal.com/2017/03/14/180148_Lenovo_Z5075_Signature_Edition_Laptop__314__Mi/20%Monthly2017-03-14 12:39
http://www.hotnewdeal.com/2017/03/14/180147_VUDU_Mix__Match_Sale_5_Films_HDX_Download_for_/20%Monthly2017-03-14 12:25
http://www.hotnewdeal.com/2017/03/14/180146_Another_World_20th_Anniversary_Edition_PC_149/20%Monthly2017-03-14 12:08
http://www.hotnewdeal.com/2017/03/14/180145_iTD_Gear_Universal_Smart_Phone_Car_Vent_Mount_for_/20%Monthly2017-03-14 11:59
http://www.hotnewdeal.com/2017/03/14/180144_400W_Corsair_VS400_80Plus_Power_Supply_12ARNeweg/20%Monthly2017-03-14 11:59
http://www.hotnewdeal.com/2017/03/14/180143_Charmin_Ultra_Soft_Toilet_Paper_Bath_Tissue_Mega/20%Monthly2017-03-14 11:37
http://www.hotnewdeal.com/2017/03/14/180142_1325_VA_810_Watts_CyberPower_Pure_Sine_Wave_10O/20%Monthly2017-03-14 11:37
http://www.hotnewdeal.com/2017/03/14/180141_Levis_Womens_515_Bootcut_Jean_scenis_vista_13/20%Monthly2017-03-14 11:36
http://www.hotnewdeal.com/2017/03/14/180140_LG_55_Inch_4K_Ultra_HD_Smart_TV_55UH7700_UHD_TV__/20%Monthly2017-03-14 11:36
http://www.hotnewdeal.com/2017/03/14/180139_Macys_VIP_Sale_Up_to_additional_30_off_Mens_I/20%Monthly2017-03-14 11:20
http://www.hotnewdeal.com/2017/03/14/180137_Monoprice_Above_Fireplace_Pull_Down_Full_Motion_TV/20%Monthly2017-03-14 11:10
http://www.hotnewdeal.com/2017/03/14/180136_Stormy_Kromer_USA_Made_Hats__Apparel__Best_Deal_/20%Monthly2017-03-14 11:10
http://www.hotnewdeal.com/2017/03/14/180135_Asus_6x_USB_20_External_Portable_BluRay_Writer_w/20%Monthly2017-03-14 11:10
http://www.hotnewdeal.com/2017/03/14/180134_Logitech_m720_Triathlon_MultiComputer_Wireless_Mo/20%Monthly2017-03-14 11:10
http://www.hotnewdeal.com/2017/03/14/180133_OralB_Replacement_Brush_Heads_3ct_Dual_Clean_/20%Monthly2017-03-14 10:57
http://www.hotnewdeal.com/2017/03/14/180132_Mad_Catz_TE2_arcade_fightstick_PS4_PS3__Street_F/20%Monthly2017-03-14 10:48
http://www.hotnewdeal.com/2017/03/14/180131_5988_Graco_Pack_n_Play_Playard_with_Change_n_C/20%Monthly2017-03-14 10:48
http://www.hotnewdeal.com/2017/03/14/180130_Dorco_USA_Mens_Razors_Pace_Trial_Pack_1_Handle_/20%Monthly2017-03-14 10:42
http://www.hotnewdeal.com/2017/03/14/180129_Mens_New_Balance_3040_2999_with_1_shipping/20%Monthly2017-03-14 10:38
http://www.hotnewdeal.com/2017/03/14/180128_VIZIO_70_Inch_4K_Ultra_HD_TV_E70E3_1299__400_D/20%Monthly2017-03-14 10:38
http://www.hotnewdeal.com/2017/03/14/180127_Outdoor_Amplified_150mi_range_digital_HDTV_Antenna/20%Monthly2017-03-14 10:34
http://www.hotnewdeal.com/2017/03/14/180126_Sams_Club_Disney_150_multipack_350_gift_car/20%Monthly2017-03-14 10:26
http://www.hotnewdeal.com/2017/03/14/180125_Syba_25_SATA_HDDSSD_External_USB_30_Enclosure/20%Monthly2017-03-14 10:26
http://www.hotnewdeal.com/2017/03/14/180124_Macys_Beauty_15_Off_Most_Items_35_Estee_Lauder/20%Monthly2017-03-14 10:18
http://www.hotnewdeal.com/2017/03/14/180123_35_OFF_video_games__Newegg/20%Monthly2017-03-14 10:08
http://www.hotnewdeal.com/2017/03/14/180122_Alpine_Mens_Reversible_Belts__only_1199_shippe/20%Monthly2017-03-14 10:08
http://www.hotnewdeal.com/2017/03/14/180121_Refurbished_125_Dell_Latitude_E7270_Laptop_In/20%Monthly2017-03-14 10:03
http://www.hotnewdeal.com/2017/03/14/180120_Canon_15_off_Select_Refurbished_Products/20%Monthly2017-03-14 09:59
http://www.hotnewdeal.com/2017/03/14/180119_Nikon_AFS_Micro_NIKKOR_60mm_f28G_ED_Lens__359/20%Monthly2017-03-14 09:59
http://www.hotnewdeal.com/2017/03/14/180118_Digital_Game_Codes_PS3_Odin_Sphere_PS2_Classic/20%Monthly2017-03-14 09:49
http://www.hotnewdeal.com/2017/03/14/180117_Aeropostale_Clearance_80_off__25_off_Coupon_G/20%Monthly2017-03-14 09:42
http://www.hotnewdeal.com/2017/03/14/180115_Pandora_Premium_Rolling_Out_This_Week_sign_up_for/20%Monthly2017-03-14 09:33
http://www.hotnewdeal.com/2017/03/14/180114_Global_Shores_16_x_16_in_Collection_Mirror_Clock_/20%Monthly2017-03-14 09:33
http://www.hotnewdeal.com/2017/03/14/180113_JET_Geared_Head_Horizontal_Bandsaw_41310/20%Monthly2017-03-14 09:20
http://www.hotnewdeal.com/2017/03/14/180112_Newegg_gift_card__9_off__Groupon/20%Monthly2017-03-14 08:42
http://www.hotnewdeal.com/2017/03/14/180111_Villa_Italian_Kitchen_Whole_Neapolitan_Cheese_Pizz/20%Monthly2017-03-14 08:42
http://www.hotnewdeal.com/2017/03/14/180109_Select_TPLink_Networking_Products_Up_to_30_Off/20%Monthly2017-03-14 08:25
http://www.hotnewdeal.com/2017/03/14/180107_Craftsman_Compound_Action_Hedge_Shear_1099__Fre/20%Monthly2017-03-14 08:25
http://www.hotnewdeal.com/2017/03/14/180106_HTC_Vive__free_RX480_4GB_Video_Card/20%Monthly2017-03-14 08:18
http://www.hotnewdeal.com/2017/03/14/180105_902_Aveeno_Daily_Moisturizing_Body_Yogurt_Lotion/20%Monthly2017-03-14 08:18
http://www.hotnewdeal.com/2017/03/14/180104_1245999_Xbox_One__360__Windows_Digital_Sal/20%Monthly2017-03-14 07:33
http://www.hotnewdeal.com/2017/03/14/180103_Skullcandy_Uproar_Wireless_Bluetooth_Headphones_/20%Monthly2017-03-14 07:09
http://www.hotnewdeal.com/2017/03/14/180102_GROUPON_10_for_TOYS_R_US_20_eGift_Card/20%Monthly2017-03-14 07:09
http://www.hotnewdeal.com/2017/03/14/180101_Worldnect_Dual_Charging_Stand_PlayStation_4_for_/20%Monthly2017-03-14 07:09
http://www.hotnewdeal.com/2017/03/14/180100_Too_Faced_Love_Palette_Eyeshadow_25_free_shipping/20%Monthly2017-03-14 07:09
http://www.hotnewdeal.com/2017/03/14/180099_Target_Safety_1st_Write_Temp_3_In_1_Digital_Therm/20%Monthly2017-03-14 07:09
http://www.hotnewdeal.com/2017/03/14/180098_Up_to_40_off_StorageOrganization_30_Steel_Shev/20%Monthly2017-03-14 06:29
http://www.hotnewdeal.com/2017/03/14/180096_American_Pie_Unrated_4Movie_Collection_Bluray/20%Monthly2017-03-14 03:09
http://www.hotnewdeal.com/2017/03/14/180095_Logitech_MK570_Comfort_Wave_Wireless_Keyboard_and_/20%Monthly2017-03-14 03:09
http://www.hotnewdeal.com/2017/03/14/180094_LG_65_Inch_4K_Ultra_HD_Smart_TV_65UH8500_3D_UHD_TV/20%Monthly2017-03-14 02:29
http://www.hotnewdeal.com/2017/03/14/180093_The_Corner_Bakery_BOGO_Free_Panini_or_Sandwich_Mar/20%Monthly2017-03-14 02:09
http://www.hotnewdeal.com/2017/03/14/180092_Persona_5__Yusuke_Kitagawa_Special_Theme__Avatar/20%Monthly2017-03-14 01:30
http://www.hotnewdeal.com/2017/03/14/180091_Syma_Spring_Forward_Sale_Syma_X5SC_3149__FS/20%Monthly2017-03-14 01:30
http://www.hotnewdeal.com/2017/03/14/180090_Nike_Tailwind_Swift_Mens_Sunglasses_EV0916_063_3/20%Monthly2017-03-14 01:24
http://www.hotnewdeal.com/2017/03/14/180089_PowerEdge_R230_Rack_Server_Xeon_E31220_v5_CPU_8/20%Monthly2017-03-14 01:09
http://www.hotnewdeal.com/2017/03/14/180088_ANEWKODI_T8_24GHz_Mini_Wireless_Touchpad_Keyboard/20%Monthly2017-03-14 01:09
http://www.hotnewdeal.com/2017/03/14/180087_236_Samsung_S24D300HL_1080p_LED_Monitor_95__fr/20%Monthly2017-03-14 01:09
http://www.hotnewdeal.com/2017/03/13/180086_Zinus_Upholstered_Button_Tufted_Platform_Bed_wFoo/20%Monthly2017-03-13 23:59
http://www.hotnewdeal.com/2017/03/13/180085_Thomas__Friends_TrackMaster_Railway_Builder_Bucke/20%Monthly2017-03-13 23:40
http://www.hotnewdeal.com/2017/03/13/180084_NETGEAR_Nighthawk_X6_AC3200_TriBand_WiFi_Router_/20%Monthly2017-03-13 23:35
http://www.hotnewdeal.com/2017/03/13/180083_100_Southwest_Airlines_Gift_Card_for_only_90__S/20%Monthly2017-03-13 23:27
http://www.hotnewdeal.com/2017/03/13/180082_750W_Rosewill_Quark750_80_Platinum_Full_Modular_/20%Monthly2017-03-13 23:21
http://www.hotnewdeal.com/2017/03/13/180081_U571_Bluray_599_at_Amazoncom/20%Monthly2017-03-13 22:56
http://www.hotnewdeal.com/2017/03/13/180080_Fidget_Toy_Hand_Spinner_for_299__Free_Shipping/20%Monthly2017-03-13 22:48
http://www.hotnewdeal.com/2017/03/13/180079_70_Vizio_E70E3_4K_UHD_SmartCast_LED_HDTV_Refurb/20%Monthly2017-03-13 22:48
http://www.hotnewdeal.com/2017/03/13/180077_Amazon__Emarth_Mechanical_Keyboard_USB_Wired_Gam/20%Monthly2017-03-13 22:48
http://www.hotnewdeal.com/2017/03/13/180076_Groupon_Extra_20_off_Things_To_Do_Spa_Restaura/20%Monthly2017-03-13 22:42
http://www.hotnewdeal.com/2017/03/13/180075_Cosmopolitan_Las_Vegas_5_Star_Hotel_6085nt_Ma/20%Monthly2017-03-13 22:36
http://www.hotnewdeal.com/2017/03/13/180074_iKayaa_Faux_Leather_Folding_Storage_Ottoman_Foot_S/20%Monthly2017-03-13 22:36
http://www.hotnewdeal.com/2017/03/13/180073_Bundle_Stars_Spring_Sale_Valkyria_Chronicles_43/20%Monthly2017-03-13 22:27
http://www.hotnewdeal.com/2017/03/13/180072_Many_power_supply_deals_Corsair_VS_600W_80_Certi/20%Monthly2017-03-13 22:20
http://www.hotnewdeal.com/2017/03/13/180071_KKmoon_H264_10MP_HD_720P_Mini_IP_Camera_1845_/20%Monthly2017-03-13 22:19
http://www.hotnewdeal.com/2017/03/13/180070_Buy_a_65_Gamestop_Gift_Card_and_get_additional_1/20%Monthly2017-03-13 22:19
http://www.hotnewdeal.com/2017/03/13/180069_IHOMECOOKER_4PC_Silicone_Christmas_Baking_Mold_Set/20%Monthly2017-03-13 22:19
http://www.hotnewdeal.com/2017/03/13/180068_Pure_Leaf_Iced_Tea_Sweet_Tea_Real_Brewed_Black_T/20%Monthly2017-03-13 22:08
http://www.hotnewdeal.com/2017/03/13/180067_iFi_Pro_iCAN_Headphone_Amplifier_129900_fs__ad/20%Monthly2017-03-13 21:59
http://www.hotnewdeal.com/2017/03/13/180066_Makita_SP6000J1_612_Plunge_Circular_Saw_w_55_/20%Monthly2017-03-13 21:59
http://www.hotnewdeal.com/2017/03/13/180065_Pieology_314_pizzapie_for_joining_eClub_valid_/20%Monthly2017-03-13 21:48
http://www.hotnewdeal.com/2017/03/13/180064_6Count_of_4oz_Dove_MenCare_Body_and_Face_Bar_Ex/20%Monthly2017-03-13 21:48
http://www.hotnewdeal.com/2017/03/13/180063_TPLINK_HS100_WiFi_Enabled_Smart_Plug_for_2299_/20%Monthly2017-03-13 21:43
http://www.hotnewdeal.com/2017/03/13/180062_4_Pc_Induction_Cooking_System_35_Walmart_BM_was_/20%Monthly2017-03-13 21:41
http://www.hotnewdeal.com/2017/03/13/180061_Samsung_Gear_S3_Frontier_REFURBISHED__23999__t/20%Monthly2017-03-13 21:25
http://www.hotnewdeal.com/2017/03/13/180059_Target_Mead_Wide_Ruled__College_Ruled_70_Sheet_N/20%Monthly2017-03-13 21:09
http://www.hotnewdeal.com/2017/03/13/180058_NETGEAR_Nighthawk_R6700_AC1750_Smart_Dual_Band_WiF/20%Monthly2017-03-13 21:09
http://www.hotnewdeal.com/2017/03/13/180057_Halter_ED600_Preassembled_Height_Adjustable_Desk_/20%Monthly2017-03-13 20:56
http://www.hotnewdeal.com/2017/03/13/180056_ONKYO_TXNR757_72Channel_Network_AV_Receiver_d/20%Monthly2017-03-13 20:56
http://www.hotnewdeal.com/2017/03/13/180055_LastMinuteTravelcom_LMTClubcom_Membership_FREE/20%Monthly2017-03-13 20:47
http://www.hotnewdeal.com/2017/03/13/180054_30_off_selected_LEGOs_at_ToysRUs_w_code_LEGO30/20%Monthly2017-03-13 20:39
http://www.hotnewdeal.com/2017/03/13/180053_Squier_by_Fender_Vintage_Modified_Baritone_Jazzmas/20%Monthly2017-03-13 20:32
http://www.hotnewdeal.com/2017/03/13/180052_Nunn_Bush_Mens_Glenwood_Leather_Loafers_1359__/20%Monthly2017-03-13 20:08
http://www.hotnewdeal.com/2017/03/13/180051_eLuxurySupply_Extra_Plush_Fitted_Waterproof_Mattre/20%Monthly2017-03-13 20:08
http://www.hotnewdeal.com/2017/03/13/180050_Old_Navy_40_off_everything__over_25_free_shippi/20%Monthly2017-03-13 19:59
http://www.hotnewdeal.com/2017/03/13/180049_Bridgestone_Tires__Costco_70_Off/20%Monthly2017-03-13 19:59
http://www.hotnewdeal.com/2017/03/13/180048_6Pack_of_50Piece_Mentos_Gum_Pure_Fresh_Mint_or_/20%Monthly2017-03-13 19:59
http://www.hotnewdeal.com/2017/03/13/180046_Samsung_Gear_VR_2016v__4997_TMobile/20%Monthly2017-03-13 19:25
http://www.hotnewdeal.com/2017/03/13/180045_LG_55UH7700_55_4K_Smart_LED_TV__100_GC_797__n/20%Monthly2017-03-13 19:18
http://www.hotnewdeal.com/2017/03/13/180044_Lysol_All_Purpose_Cleaner_32oz_Spray_6_for_916_/20%Monthly2017-03-13 19:18
http://www.hotnewdeal.com/2017/03/13/180043_500GB_PlayStation_4_Slim_Uncharted_4_A_Thiefs_En/20%Monthly2017-03-13 19:09
http://www.hotnewdeal.com/2017/03/13/180042_Stanley_4in1_Pocket_Screwdriver_for_139_on_Ama/20%Monthly2017-03-13 19:09
http://www.hotnewdeal.com/2017/03/13/180041_Asus_Zenbook_Flip_UX360CAAH51T_133_1080P_IPS_To/20%Monthly2017-03-13 18:56
http://www.hotnewdeal.com/2017/03/13/180040_2017_Intel_Core_i37100_3M_39_GHz_LGA_1151_Deskto/20%Monthly2017-03-13 18:56
http://www.hotnewdeal.com/2017/03/13/180039_Gilt_City_Voucher_35_Off_JCrew_Factory_Coupon_f/20%Monthly2017-03-13 18:47
http://www.hotnewdeal.com/2017/03/13/180038_Sony_MDRXB70BTB_Wireless_InEar_Headphone_48__F/20%Monthly2017-03-13 18:25
http://www.hotnewdeal.com/2017/03/13/180037_Escort_RedLine_DualAntenna_Radar_Detector_379__/20%Monthly2017-03-13 18:25
http://www.hotnewdeal.com/2017/03/13/180036_Dyson_Home_Cleaning_Kit_2900_sss_eligible__amaz/20%Monthly2017-03-13 18:18
http://www.hotnewdeal.com/2017/03/13/180035_Diaper_Genie_Refills_for_Diaper_Genie_Diaper_Pails/20%Monthly2017-03-13 17:59
http://www.hotnewdeal.com/2017/03/13/180034_Dell_KM117_Wireless_Keyboard__Mouse_10_Quill_/20%Monthly2017-03-13 17:48
http://www.hotnewdeal.com/2017/03/13/180033_Muscle_Milk_Genuine_Protein_Powder_Vanilla_Crme/20%Monthly2017-03-13 17:41
http://www.hotnewdeal.com/2017/03/13/180032_BenQ_Refurb_Monitors_22_MGW2265HM_72_27_EW277/20%Monthly2017-03-13 17:33
http://www.hotnewdeal.com/2017/03/13/180031_10_back_in_Shop_Your_Way_SYW_points_for_25_pu/20%Monthly2017-03-13 17:25
http://www.hotnewdeal.com/2017/03/13/180030_WD__Elements_1TB_External_USB_30_Portable_Hard_D/20%Monthly2017-03-13 17:25
http://www.hotnewdeal.com/2017/03/13/180029_Papa_Johns_50_off_pizza_code_PAPA/20%Monthly2017-03-13 17:25
http://www.hotnewdeal.com/2017/03/13/180027_Levis_Warehouse_Event_Up_To_75_Off_Closeout_Sty/20%Monthly2017-03-13 17:09
http://www.hotnewdeal.com/2017/03/13/180026_Dell_XPS_8910_Desktop_i76700_16GB_DDR4_1TB_HDD/20%Monthly2017-03-13 16:47
http://www.hotnewdeal.com/2017/03/13/180025_Refurbished_Monoprice_Pro_Audio_15watt_1x12_Combo/20%Monthly2017-03-13 16:42
http://www.hotnewdeal.com/2017/03/13/180024_DeWalt_DWS780_12Inch_Double_Bevel_Sliding_Compoun/20%Monthly2017-03-13 16:39
http://www.hotnewdeal.com/2017/03/13/180023_100Pack_Velcro_Reusable_SelfGripping_Cable_Ties_/20%Monthly2017-03-13 16:39
http://www.hotnewdeal.com/2017/03/13/180022_6Port_Aukey_USB_Charger_with_Dual_Quick_Charge_3/20%Monthly2017-03-13 16:39
http://www.hotnewdeal.com/2017/03/13/180021_Oster_13_Cu_Ft_1100_Watt_Microwave_Oven__Black/20%Monthly2017-03-13 16:31
http://www.hotnewdeal.com/2017/03/13/180019_A_Discovery_of_Witches_All_Souls_Trilogy_Book_1/20%Monthly2017-03-13 16:19
http://www.hotnewdeal.com/2017/03/13/180018_6Gallon_Behrens_Galvanized_Steel_LockingLid_Can_/20%Monthly2017-03-13 16:09
http://www.hotnewdeal.com/2017/03/13/180017_Cooler_Master_HAF_XB_2_EVO_Cube_style_computer_cas/20%Monthly2017-03-13 16:09
http://www.hotnewdeal.com/2017/03/13/180016_Dominos_Pizza__Buy_One_Get_One_Free__31317__/20%Monthly2017-03-13 15:58
http://www.hotnewdeal.com/2017/03/13/180015_Call_of_Duty_Infinite_Warfare_PS4_2049_at_Ama/20%Monthly2017-03-13 15:47
http://www.hotnewdeal.com/2017/03/13/180014_Battlefield_1_Early_Enlister_Deluxe_Edition__Xbox/20%Monthly2017-03-13 15:47
http://www.hotnewdeal.com/2017/03/13/180013_16GB_ZTE_Trek_2_HD_K88_8_ATT_GSM_Unlocked_WiFi_T/20%Monthly2017-03-13 15:32
http://www.hotnewdeal.com/2017/03/13/180012_Schick_Hydro_Silk_Razor_for_Women_Handle_w_2_Raz/20%Monthly2017-03-13 15:17
http://www.hotnewdeal.com/2017/03/13/180011_Cole_Haan__Extra_40_Off_Sale/20%Monthly2017-03-13 15:13
http://www.hotnewdeal.com/2017/03/13/180010_DeWalt_VariableSpeed_Orbital_Jigsaw_for_6499_g/20%Monthly2017-03-13 15:08
http://www.hotnewdeal.com/2017/03/13/180009_Spigen_Kuel_AP230T_Universal_CD_Slot_Car_Mount_Hol/20%Monthly2017-03-13 14:55
http://www.hotnewdeal.com/2017/03/13/180008_Yurbuds_C9_Inspire_100_for_Women_C9_Reflective_Lin/20%Monthly2017-03-13 14:55
http://www.hotnewdeal.com/2017/03/13/180007_Lego_Worlds_PC_1509_cdkeyscom_activate_on_Ste/20%Monthly2017-03-13 14:51
http://www.hotnewdeal.com/2017/03/13/180006_Lumsing_6Port_USB_Desktop_Charger_749_FS_wPrim/20%Monthly2017-03-13 14:46
http://www.hotnewdeal.com/2017/03/13/180005_New_BeyerDynamic_DT_770_Headphones_16_ohm__Ideal_/20%Monthly2017-03-13 14:46
http://www.hotnewdeal.com/2017/03/13/180004_LG_OLED_55_OLED55B6P_99993_Reconditioned_999/20%Monthly2017-03-13 14:39
http://www.hotnewdeal.com/2017/03/13/180003_BenQ_W1070_1080p_3D_Home_Theater_Projector_499__/20%Monthly2017-03-13 14:38
http://www.hotnewdeal.com/2017/03/13/180002_Powdercitycom_Store_Closing_Sale__50off_Cleara/20%Monthly2017-03-13 14:32
http://www.hotnewdeal.com/2017/03/13/180001_New_Customers_TaxAct_Federal__State_Tax_Services/20%Monthly2017-03-13 14:32
http://www.hotnewdeal.com/2017/03/13/180000_Big_Lots_15_off_Entire_Site__FS_on_99/20%Monthly2017-03-13 14:32
http://www.hotnewdeal.com/2017/03/13/179999_Werner_2Step_225lb_Grey_Steel_Step_Stool_ladder_/20%Monthly2017-03-13 14:32
http://www.hotnewdeal.com/2017/03/13/179998_Cuisinart_ICE30BC_Ice_Cream_Maker_and_Freezer_Bow/20%Monthly2017-03-13 14:27
http://www.hotnewdeal.com/2017/03/13/179997_Soyan_133_Inches_MacBook_Air__Pro_Retina_Leather/20%Monthly2017-03-13 14:23
http://www.hotnewdeal.com/2017/03/13/179996_Hanes_Big_Girls_Bikini_Assortment_Colors_may_va/20%Monthly2017-03-13 14:19
http://www.hotnewdeal.com/2017/03/13/179995_Ulak_Case_Sale_iPhone_6_Plus__6s_Plus_250_iPh/20%Monthly2017-03-13 14:16
http://www.hotnewdeal.com/2017/03/13/179994_AMD_RYZEN_7_1800X_8Core_36_GHz_40_GHz_Turbo_S/20%Monthly2017-03-13 14:16
http://www.hotnewdeal.com/2017/03/13/179993_Toshiba_Envoy_2_Messenger_Bag__Free_Accessories_f/20%Monthly2017-03-13 13:39
http://www.hotnewdeal.com/2017/03/13/179992_elago_W3_apple_watch_stand_white_color_only_959_/20%Monthly2017-03-13 13:39
http://www.hotnewdeal.com/2017/03/13/179991_Fine_Homebuilding_Magazine_999_per_year/20%Monthly2017-03-13 13:39
http://www.hotnewdeal.com/2017/03/13/179990_New_York_to_Milan_Italy_490_RT_on_Emirates_Airlin/20%Monthly2017-03-13 13:32
http://www.hotnewdeal.com/2017/03/13/179989_Square_Enix_PCDD_Rise_of_the_Tomb_Raider_20_Year/20%Monthly2017-03-13 13:31
http://www.hotnewdeal.com/2017/03/13/179988_A_Night_at_the_Opera_Highlights__5_hours_of_Ope/20%Monthly2017-03-13 13:31
http://www.hotnewdeal.com/2017/03/13/179987_Audio_Technica_ATLP60BT_Fully_Automatic_Wireless/20%Monthly2017-03-13 13:23
http://www.hotnewdeal.com/2017/03/13/179986_Xbox_One_S_1_TB_Console__Battlefield_1_Special_Ed/20%Monthly2017-03-13 13:23
http://www.hotnewdeal.com/2017/03/13/179985_100_BP_Gas_Gift_Card_For_93__FREE_Mail_Delivery/20%Monthly2017-03-13 13:07
http://www.hotnewdeal.com/2017/03/13/179984_Monster_Hunter_Generations_Nintendo_3DS_1999_/20%Monthly2017-03-13 12:37
http://www.hotnewdeal.com/2017/03/13/179983_100_Cabelas_Gift_Card_For_Only_80__FREE_Mail_/20%Monthly2017-03-13 12:30
http://www.hotnewdeal.com/2017/03/13/179981_HeavyDuty_Waterproof_BBQ_Gas_Grill_Cover_for_19/20%Monthly2017-03-13 12:15
http://www.hotnewdeal.com/2017/03/13/179980_Onyx_Studio_2_Factory_Recertified_Wireless_Speaker/20%Monthly2017-03-13 12:06
http://www.hotnewdeal.com/2017/03/13/179979_Sunburst_USB_C_to_USB_C_2M__2__Free_Shipping/20%Monthly2017-03-13 11:57
http://www.hotnewdeal.com/2017/03/13/179978_21499_HUAWEI_Honor_6x_55_12MP_Dual_camera_3GB/20%Monthly2017-03-13 11:57
http://www.hotnewdeal.com/2017/03/13/179977_Super_Mario_Brothers_Collectors_Edition_Magnets_/20%Monthly2017-03-13 11:38
http://www.hotnewdeal.com/2017/03/13/179976_Get_a_100_Lowes_Gift_Card_for_only_90__Via_Ema/20%Monthly2017-03-13 11:31
http://www.hotnewdeal.com/2017/03/13/179975_Animal_Crossing_Amiibo_Festival_for_Wii_U__3_Pack/20%Monthly2017-03-13 11:31
http://www.hotnewdeal.com/2017/03/13/179974_Klipsch_Reference_R20B_soundbar_and_wireless_subw/20%Monthly2017-03-13 11:31
http://www.hotnewdeal.com/2017/03/13/179972_Osprey_Farpoint_55_Travel_Backpack_13500_Amazon/20%Monthly2017-03-13 11:23
http://www.hotnewdeal.com/2017/03/13/179971_Dell_Samsung_65_Inch_4K_Ultra_HD_Smart_TV_UN65KS8/20%Monthly2017-03-13 11:16
http://www.hotnewdeal.com/2017/03/13/179970_XtremeGuard_Sale_ScreenFull_Body_Protectors__Mo/20%Monthly2017-03-13 11:16
http://www.hotnewdeal.com/2017/03/13/179969_Microsoft_Surface_Pro_3_Tablet_12_256_GB_Intel_Co/20%Monthly2017-03-13 11:16
http://www.hotnewdeal.com/2017/03/13/179968_6Count_Colgate_Extra_Clean_Full_Head_Toothbrushes/20%Monthly2017-03-13 11:16
http://www.hotnewdeal.com/2017/03/13/179967_SkyBell_HD_Silver_WiFi_Video_Doorbell_145/20%Monthly2017-03-13 11:16
http://www.hotnewdeal.com/2017/03/13/179966_Canon_Glossy_Photo_Paper_Buy_1_Get_9_Free__50C/20%Monthly2017-03-13 11:07
http://www.hotnewdeal.com/2017/03/13/179965_Omron_10_Series_Bluetooth_Smart_Upper_Arm_Blood_Pr/20%Monthly2017-03-13 11:07
http://www.hotnewdeal.com/2017/03/13/179964_30Count_of_1375oz_Lays_Kettle_Chips_Variety_Pac/20%Monthly2017-03-13 10:54
http://www.hotnewdeal.com/2017/03/13/179963_Digital_Kitchen_Scale_Multifunction_Food_Scale_11/20%Monthly2017-03-13 10:54
http://www.hotnewdeal.com/2017/03/13/179962_LG__29_IPS_LCD_HD_219_UltraWide_Monitor_19999/20%Monthly2017-03-13 10:45
http://www.hotnewdeal.com/2017/03/13/179961_Buy_2_Jimmy_Dean_Breakfast_Tyson_or_SF_Corn_Dog_p/20%Monthly2017-03-13 10:14
http://www.hotnewdeal.com/2017/03/13/179960_Bandai_Gundam_Freedom_20_1100_MG_Model_Kit_35_/20%Monthly2017-03-13 10:14
http://www.hotnewdeal.com/2017/03/13/179959_2Pack_of_NETIS_WF2120_150Mbps_Wireless_N_NANO_US/20%Monthly2017-03-13 09:57
http://www.hotnewdeal.com/2017/03/13/179958_Honda_Mower_Sale_Up_to_150_Off__Extra_1_Year_Wa/20%Monthly2017-03-13 09:31
http://www.hotnewdeal.com/2017/03/13/179957_ATT_GoPhone__LG_Phoenix_2_4G_LTE_with_16GB_Memor/20%Monthly2017-03-13 09:31
http://www.hotnewdeal.com/2017/03/13/179956_Home_Depot_Mini_Drywall_2_X_4_scaffold_97_ce/20%Monthly2017-03-13 08:15
http://www.hotnewdeal.com/2017/03/13/179955_Amazoncom__Similac_Sensitive_Infant_Powder_Formu/20%Monthly2017-03-13 07:57
http://www.hotnewdeal.com/2017/03/13/179954_05oz_Little_Remedies_Saline_SprayDrops_for_Noses/20%Monthly2017-03-13 06:28
http://www.hotnewdeal.com/2017/03/13/179953_Xtra_Lasting_ScentSations_2x_Concentrated_Liquid_L/20%Monthly2017-03-13 06:28
http://www.hotnewdeal.com/2017/03/13/179952_1Year_Sams_Club_Membership__10_eGift_Card_30_/20%Monthly2017-03-13 06:28
http://www.hotnewdeal.com/2017/03/13/179951_iPhone_SE_ATT_NEXTVerizonSprint_Monthly_Payment/20%Monthly2017-03-13 05:27
http://www.hotnewdeal.com/2017/03/13/179950_iOttie_Easy_One_Touch_Car_Mount_One_Touch_2_Mini/20%Monthly2017-03-13 05:06
http://www.hotnewdeal.com/2017/03/13/179949_Hisense_6565H8C_LED_2160p_Smart_4K_Ultra_HDTV_w/20%Monthly2017-03-13 04:27
http://www.hotnewdeal.com/2017/03/13/179948_1TB_WD_My_Passport_Ultra_USB_3020_Portable_Hard/20%Monthly2017-03-13 03:21
http://www.hotnewdeal.com/2017/03/13/179947_Nongshim_Shin_Big_Bowl_Noodle_Soup_Gourmet_Spicy/20%Monthly2017-03-13 03:06
http://www.hotnewdeal.com/2017/03/13/179946_Amazon_Addon_Item_64oz_Kikkoman_Soy_Sauce_5_Ba/20%Monthly2017-03-13 03:06
http://www.hotnewdeal.com/2017/03/13/179944_Duracell_Battery_Quantum_Alkaline_AA_24Pack_or_A/20%Monthly2017-03-13 01:03
http://www.hotnewdeal.com/2017/03/12/179943_Craftsman_12_HP_Chain_Drive_Garage_Door_Opener_1/20%Monthly2017-03-12 22:54
http://www.hotnewdeal.com/2017/03/12/179942_HotHands_Hand_Warmer_10Pack_250/20%Monthly2017-03-12 22:37
http://www.hotnewdeal.com/2017/03/12/179941_HR_BLOCK_Tax_Software_30_coupon_Premium__Busin/20%Monthly2017-03-12 22:30
http://www.hotnewdeal.com/2017/03/12/179940_BACK_Stanley_BC15BS_15_Amp_Bench_Battery_Charge/20%Monthly2017-03-12 21:57
http://www.hotnewdeal.com/2017/03/12/179939_Gladiator_6_ft_Hardwood_Top_Adjustable_Height_Wor/20%Monthly2017-03-12 21:47
http://www.hotnewdeal.com/2017/03/12/179938_Amazoncom__35_off_2448_Ct_Martison_Coffee_Kcu/20%Monthly2017-03-12 21:47
http://www.hotnewdeal.com/2017/03/12/179937_Klean_Strip_Kerosene_1K_Heater_Fuel_5_YMMV/20%Monthly2017-03-12 21:47
http://www.hotnewdeal.com/2017/03/12/179935_Amazon_AddOn_Item_Ematic_Extendable_Selfie_Stick/20%Monthly2017-03-12 21:24
http://www.hotnewdeal.com/2017/03/12/179934_12Ct_of_160Count_Kleenex_Everyday_Facial_Tissues/20%Monthly2017-03-12 20:38
http://www.hotnewdeal.com/2017/03/12/179933_EGO_21_in_56Volt_LithiumIon_Cordless_Battery_Se/20%Monthly2017-03-12 20:37
http://www.hotnewdeal.com/2017/03/12/179932_Nikon_55200mm_lens_2500_ymmv/20%Monthly2017-03-12 20:37
http://www.hotnewdeal.com/2017/03/12/179931_AmazonBasics_11Inch_Felt_Laptop_Sleeve__Light_Gr/20%Monthly2017-03-12 20:34
http://www.hotnewdeal.com/2017/03/12/179930_Lego_Batman_Movie_The_Batmobile_70905_4496/20%Monthly2017-03-12 20:30
http://www.hotnewdeal.com/2017/03/12/179929_logitech_M705_wireless_mouse_1999_BestBuy/20%Monthly2017-03-12 19:57
http://www.hotnewdeal.com/2017/03/12/179928_Asics_T742N_Trail_Running_Shoes_2999__FS/20%Monthly2017-03-12 19:43
http://www.hotnewdeal.com/2017/03/12/179927_Amazon_12Pack_169oz_Ito_En_Tea_Oi_Ocha_Green_T/20%Monthly2017-03-12 19:38
http://www.hotnewdeal.com/2017/03/12/179926_Hamilton_Beach_Breakfast_Sandwich_Maker__Walmart_/20%Monthly2017-03-12 19:31
http://www.hotnewdeal.com/2017/03/12/179925_Room_Magic_Mike_The_Iron_Giant_and_more__1_Dig/20%Monthly2017-03-12 19:31
http://www.hotnewdeal.com/2017/03/12/179924_Lenovo_Ideapad_510_Laptop_Intel_Core_i56200U_15/20%Monthly2017-03-12 19:16
http://www.hotnewdeal.com/2017/03/12/179923_Target_4X_Sensodyne_Toothpaste_Mix_n_Match__20/20%Monthly2017-03-12 19:07
http://www.hotnewdeal.com/2017/03/12/179922_Battleborn_PC_Digital_Download__DLC_294_AC__/20%Monthly2017-03-12 19:07
http://www.hotnewdeal.com/2017/03/12/179921_Little_Golden_Book_The_Gingerbread_Man_for_210_F/20%Monthly2017-03-12 18:54
http://www.hotnewdeal.com/2017/03/12/179920_Lenovo_23Inch_FHD_LEDLit_169_Widescreen_Monitor/20%Monthly2017-03-12 18:54
http://www.hotnewdeal.com/2017/03/12/179919_Monoprice_15Watt_1x12_Guitar_Combo_Tube_Amplifie/20%Monthly2017-03-12 18:37
http://www.hotnewdeal.com/2017/03/12/179918_Keebler_Fudge_Shoppe_Coconut_Dream_Cookies_4_85_o/20%Monthly2017-03-12 17:57
http://www.hotnewdeal.com/2017/03/12/179917_ASUS_ZenBook_Flip_UX360CAUBM1T_Signature_Edition_/20%Monthly2017-03-12 17:46
http://www.hotnewdeal.com/2017/03/12/179915_30Piece_Food_Network_Tap_Room_Glassware_Set_212/20%Monthly2017-03-12 17:07
http://www.hotnewdeal.com/2017/03/12/179914_Netis_E1_300Mbps_Wireless_N_Range_Extender_from_/20%Monthly2017-03-12 16:45
http://www.hotnewdeal.com/2017/03/12/179913_Lenovo_ThinkPad_116_Chromebook_Intel_Celeron_N3/20%Monthly2017-03-12 16:42
http://www.hotnewdeal.com/2017/03/12/179912_Avery_Permanent_Glue_Stic_Pack_of_18__222_w/20%Monthly2017-03-12 16:37
http://www.hotnewdeal.com/2017/03/12/179911_Hyundai__Test_Drive_Any_Car__Get_40_Amazon_Tar/20%Monthly2017-03-12 16:37
http://www.hotnewdeal.com/2017/03/12/179909_Denver_to_Los_Angeles_or_vice_versa_106_RT_on_Del/20%Monthly2017-03-12 16:14
http://www.hotnewdeal.com/2017/03/12/179908_Starbucks_in_Target_25_off_blended_beverages_Toda/20%Monthly2017-03-12 16:14
http://www.hotnewdeal.com/2017/03/12/179907_Las_Vegas_to_New_York_or_Vice_Versa_226_RT_on_Jet/20%Monthly2017-03-12 16:14
http://www.hotnewdeal.com/2017/03/12/179906_Samsung_KU6300_55_4K_Smart_Ultra_HD_TV_UN55KU629/20%Monthly2017-03-12 15:56
http://www.hotnewdeal.com/2017/03/12/179905_Craftsman_Fiberglass_Long_Handle_Digging_Shovel_1/20%Monthly2017-03-12 15:15
http://www.hotnewdeal.com/2017/03/12/179904_1Day_Only_Tiger_JBAT10U_55Cup_Uncooked_Mico/20%Monthly2017-03-12 15:13
http://www.hotnewdeal.com/2017/03/12/179903_Intel_i57600K_CPU_and_Asus_TUF_Z270_Mark_2_Mother/20%Monthly2017-03-12 15:13
http://www.hotnewdeal.com/2017/03/12/179902_879__Aibocn_10000mAh_Power_Bank_Portable_Charge/20%Monthly2017-03-12 15:06
http://www.hotnewdeal.com/2017/03/12/179901_Newegg__CORSAIR_Vengeance_LPX_16GB_2_x_8GB_DDR4/20%Monthly2017-03-12 15:06
http://www.hotnewdeal.com/2017/03/12/179900_ARRIS_SURFboard_SB6141_DOCSIS_30_Cable_Modem_Use/20%Monthly2017-03-12 14:53
http://www.hotnewdeal.com/2017/03/12/179899_eBags_Professional_Slim_Laptop_Backpack_6719/20%Monthly2017-03-12 14:53
http://www.hotnewdeal.com/2017/03/12/179898_Klipsch_R4B_soundbar__Frys_for_148__FREE_ship/20%Monthly2017-03-12 14:29
http://www.hotnewdeal.com/2017/03/12/179897_RAVPower_26800mAh_Portable_ChargerPower_Bank_55A/20%Monthly2017-03-12 13:46
http://www.hotnewdeal.com/2017/03/12/179896_HP_Instant_Ink__10_months_of_free_ink/20%Monthly2017-03-12 13:38
http://www.hotnewdeal.com/2017/03/12/179895_Prime_Members_Pink_Platinum_Girls_Hat_Glove_Scar/20%Monthly2017-03-12 13:35
http://www.hotnewdeal.com/2017/03/12/179894_Garmin_Forerunner_10_GPS_Watch_PinkWhite_40_Am/20%Monthly2017-03-12 13:20
http://www.hotnewdeal.com/2017/03/12/179893_BenQ_DLP_HD_1080p_Projector_W1070__3D_Home_Thea/20%Monthly2017-03-12 13:15
http://www.hotnewdeal.com/2017/03/12/179892_New_Microsoft_Surface_Pro_3_12_i54300U_256GB_8GB/20%Monthly2017-03-12 12:44
http://www.hotnewdeal.com/2017/03/12/179891_Womens_Microfleece_Pajama_Sets_on_amazon_starting/20%Monthly2017-03-12 12:30
http://www.hotnewdeal.com/2017/03/12/179890_25Pack_DeWalt_2_Phillips_Insert_Bit_Tip_265__/20%Monthly2017-03-12 11:46
http://www.hotnewdeal.com/2017/03/12/179889_PET360__Dog_Food_and_more_25_off_free_ship_over/20%Monthly2017-03-12 11:46
http://www.hotnewdeal.com/2017/03/12/179888_100Piece_Craftsman_SpeedLok_Impact_Drill_and_Dri/20%Monthly2017-03-12 11:46
http://www.hotnewdeal.com/2017/03/12/179887_Denon_AVRS510_HDCP_22_4K_Receiver_229/20%Monthly2017-03-12 11:46
http://www.hotnewdeal.com/2017/03/12/179885_Craftsman_208Piece_Ultimate_Screwdriver_Bit_Set_/20%Monthly2017-03-12 11:46
http://www.hotnewdeal.com/2017/03/12/179884_Herman_Miller_Authentic_Eames_Lounge_Chair_and_Ott/20%Monthly2017-03-12 11:46
http://www.hotnewdeal.com/2017/03/12/179881_Aeropostale_80_off_Clearance_Plus_Extra_20_off/20%Monthly2017-03-12 11:45
http://www.hotnewdeal.com/2017/03/12/179880_UTZ_Pub_Mix_44oz_Barrel__452_Amazon_Addon/20%Monthly2017-03-12 09:56
http://www.hotnewdeal.com/2017/03/12/179879_Hampton_Bay_3Shelf_Standard_Bookcase_black_for_/20%Monthly2017-03-12 09:56
http://www.hotnewdeal.com/2017/03/12/179878_HR_Block_Tax_Software_Deluxe__State_2016__Refu/20%Monthly2017-03-12 09:06
http://www.hotnewdeal.com/2017/03/12/179877_Frys_Email_Exclusive_Select_Bluray_Movies_199_/20%Monthly2017-03-12 09:06
http://www.hotnewdeal.com/2017/03/12/179876_Clarks_Mens_Guard_Top_Waterproof_Boot_45_Rockpo/20%Monthly2017-03-12 09:06
http://www.hotnewdeal.com/2017/03/12/179875_Official_Nintendo_Switch_Carrying_Case_1999/20%Monthly2017-03-12 08:53
http://www.hotnewdeal.com/2017/03/12/179874_Dell_C1760NW_Wireless_Color_Laser_Printer_75Stap/20%Monthly2017-03-12 08:29
http://www.hotnewdeal.com/2017/03/12/179873_Huggies_Pull_Up_Diapers_for_1320_with_Amazon_Fam/20%Monthly2017-03-12 08:21
http://www.hotnewdeal.com/2017/03/12/179872_Vansky_Bike_Mount_Phone_Vansky_Bike_Phone_Mount_B/20%Monthly2017-03-12 08:21
http://www.hotnewdeal.com/2017/03/12/179871_Refurbished_JVC_55_Class__4K_Ultra_HD_LED_TV__/20%Monthly2017-03-12 07:37
http://www.hotnewdeal.com/2017/03/12/179870_4tier_black_shelf_Storage_Rack_Home_Depot__999_/20%Monthly2017-03-12 05:05
http://www.hotnewdeal.com/2017/03/12/179869_GCU_Members_World_of_Final_Fantasy_PS4_2399_/20%Monthly2017-03-12 04:05
http://www.hotnewdeal.com/2017/03/12/179868_40_Samsung_UN40KU6290_4K_UHD_HDR_Smart_LED_HDTV_/20%Monthly2017-03-12 03:08
http://www.hotnewdeal.com/2017/03/12/179866_Dallas_to_Washington_DC_or_Vice_Versa_on_Virgin_Am/20%Monthly2017-03-12 03:08
http://www.hotnewdeal.com/2017/03/12/179865_Asrock_Z270M_Pro_4_Motherboard_and_Phanteks_P400_C/20%Monthly2017-03-12 01:05
http://www.hotnewdeal.com/2017/03/12/179864_SoftSheenCarson_Magic_Skin_Conditioning_Shaving_P/20%Monthly2017-03-12 01:05
http://www.hotnewdeal.com/2017/03/11/179863_2_Pflueger_President_Spinning_Reels_for_7186_Ama/20%Monthly2017-03-11 23:59
http://www.hotnewdeal.com/2017/03/11/179862_Xperia_X_270_Xperia_XA_187__BH_Photo/20%Monthly2017-03-11 23:48
http://www.hotnewdeal.com/2017/03/11/179861_Kmart__Russell_Stover_Bowline_Chocolate_Box_ass/20%Monthly2017-03-11 23:39
http://www.hotnewdeal.com/2017/03/11/179860_be_quiet_Pure_Base_600_Silver_ATX_Mid_Tower_Cas/20%Monthly2017-03-11 23:24
http://www.hotnewdeal.com/2017/03/11/179859_New_World_video_game_by_Amazon_MMORPG_pre_order_fr/20%Monthly2017-03-11 22:37
http://www.hotnewdeal.com/2017/03/11/179858_Proscan_pled6090_60_led_35000_at_BJs_instore/20%Monthly2017-03-11 22:27
http://www.hotnewdeal.com/2017/03/11/179857_Thrunite_Ti5T_titanium_alloy_Cree_XPL_LED_flash/20%Monthly2017-03-11 22:22
http://www.hotnewdeal.com/2017/03/11/179856_RTIC_30oz_750_plus_tax_Prime_eligible_lightning_/20%Monthly2017-03-11 21:57
http://www.hotnewdeal.com/2017/03/11/179855_VIZIO_60__Full_HD_LED_TV__1080p_60Hz_D60nE3/20%Monthly2017-03-11 21:06
http://www.hotnewdeal.com/2017/03/11/179854_1699_Conair__Flex_LED_Illumination_Mirror__Teal/20%Monthly2017-03-11 20:51
http://www.hotnewdeal.com/2017/03/11/179853_ABS_Vortex_Harbinger_ALI109_Core_i56402P_8GB_DDR/20%Monthly2017-03-11 20:42
http://www.hotnewdeal.com/2017/03/11/179852_Optimum_Nutrition_Gold_Standard_PreWorkout_with_C/20%Monthly2017-03-11 20:29
http://www.hotnewdeal.com/2017/03/11/179851_70_Vizio_E70E3_4K_Ultra_HD_Smart_LED_Home_Theate/20%Monthly2017-03-11 20:21
http://www.hotnewdeal.com/2017/03/11/179850_MartinLogan_Vision_51Channel_Soundbar_Home_Theat/20%Monthly2017-03-11 20:21
http://www.hotnewdeal.com/2017/03/11/179849_Sprayway_Glass_Cleaner_19_oz_Cans_Pack_of_4_75/20%Monthly2017-03-11 20:12
http://www.hotnewdeal.com/2017/03/11/179848_Prime_Members_Beistle_54597_Pirate_Ship_Centerpie/20%Monthly2017-03-11 20:05
http://www.hotnewdeal.com/2017/03/11/179847_Prime_Members_Ematic_Selfie_Stick__Black_65_cent/20%Monthly2017-03-11 19:30
http://www.hotnewdeal.com/2017/03/11/179845_SAPPHIRE_NITRO_Radeon_RX_480_DirectX_12_4GB_256Bi/20%Monthly2017-03-11 19:13
http://www.hotnewdeal.com/2017/03/11/179844_17oz_EAS_Myoplex_ReadyToDrink_Protein_Shake_R/20%Monthly2017-03-11 19:07
http://www.hotnewdeal.com/2017/03/11/179843_ZEALOT_H7_Wireless_Bluetooth_Headphones_with_Neckb/20%Monthly2017-03-11 18:51
http://www.hotnewdeal.com/2017/03/11/179842_KitchenAid_KHM512_5Speed_Hand_Mixer_aqua_or_grey/20%Monthly2017-03-11 18:05
http://www.hotnewdeal.com/2017/03/11/179841_Werner_3Step_250lb_Grey_Steel_Step_Stool_for_37/20%Monthly2017-03-11 17:35
http://www.hotnewdeal.com/2017/03/11/179840_32oz_Febreze_Extra_Strength_Pet_Odor_Eliminator_2/20%Monthly2017-03-11 17:35
http://www.hotnewdeal.com/2017/03/11/179839_Nature_Made_Vitamin_D3_softgels_100ct_232__FS/20%Monthly2017-03-11 17:34
http://www.hotnewdeal.com/2017/03/11/179838_Perrier_LOrange__30_pack__1290_after_SS/20%Monthly2017-03-11 17:15
http://www.hotnewdeal.com/2017/03/11/179837_LEGO_Technic_42054_CLAAS_XERION_5000_TRAC_VC__11/20%Monthly2017-03-11 17:15
http://www.hotnewdeal.com/2017/03/11/179836_ChromaCast_CCMINIGS_Universal_Folding_Guitar_Stan/20%Monthly2017-03-11 16:36
http://www.hotnewdeal.com/2017/03/11/179835_Wilton_Mini_Squeeze_Bottles_6Oz_Pack_of_2_15/20%Monthly2017-03-11 16:14
http://www.hotnewdeal.com/2017/03/11/179834_Kaspersky_Total_Security_2017_5_Devices__1_Year_/20%Monthly2017-03-11 15:13
http://www.hotnewdeal.com/2017/03/11/179833_Musicians_Gear_Electric_Acoustic_and_Bass_Guitar/20%Monthly2017-03-11 15:08
http://www.hotnewdeal.com/2017/03/11/179832_TPLink_8Port_Gigabit_Ethernet_Web_Managed_Easy_S/20%Monthly2017-03-11 15:04
http://www.hotnewdeal.com/2017/03/11/179831_Seattle_to_Kailua_Kona_Hawaii_or_Vice_Versa_362_R/20%Monthly2017-03-11 14:45
http://www.hotnewdeal.com/2017/03/11/179830_Fantastic_Beasts_and_Where_to_Find_Them__Magical_/20%Monthly2017-03-11 14:37
http://www.hotnewdeal.com/2017/03/11/179829_Lowes_Concrete_Patio_Paver_Stone_Square_12x12/20%Monthly2017-03-11 14:30
http://www.hotnewdeal.com/2017/03/11/179828_Large_KH_Heated_Cat_Bed__18_at_Amazon_normally/20%Monthly2017-03-11 14:30
http://www.hotnewdeal.com/2017/03/11/179827_176Lbs_Impact_Whey_Isolate_unflavored_87__Fr/20%Monthly2017-03-11 14:22
http://www.hotnewdeal.com/2017/03/11/179826_Graco_LiteRider_Click_Connect_Travel_System__Snug/20%Monthly2017-03-11 14:22
http://www.hotnewdeal.com/2017/03/11/179825_Running_Shoes_starting_at_30__jackrabbitcom/20%Monthly2017-03-11 14:15
http://www.hotnewdeal.com/2017/03/11/179824_San_Diego_to_Manila_Philippines_565_on_Japan_Airl/20%Monthly2017-03-11 13:57
http://www.hotnewdeal.com/2017/03/11/179823_Costco_Tires_Online_Michelin_Tires_70_discount__/20%Monthly2017-03-11 13:46
http://www.hotnewdeal.com/2017/03/11/179822_12Month_EA_Access_Subscription_Xbox_One_Digital_/20%Monthly2017-03-11 13:38
http://www.hotnewdeal.com/2017/03/11/179821_Four_Michelin_Tires_at_Costco_70_off_and_001_In/20%Monthly2017-03-11 13:38
http://www.hotnewdeal.com/2017/03/11/179819_Brooks_Adrenaline_GTS_16_Running_Shoes_in_SilverB/20%Monthly2017-03-11 13:23
http://www.hotnewdeal.com/2017/03/11/179818_3Count_of_145oz_Quaker_Oatmeal_Squares_Breakfast/20%Monthly2017-03-11 13:16
http://www.hotnewdeal.com/2017/03/11/179817_Free_Large_3Topping_Pizza_25_Papa_Points_with_/20%Monthly2017-03-11 13:07
http://www.hotnewdeal.com/2017/03/11/179816_61qt_of_Mobil_1_2699_free_shipping_Costcocom_M/20%Monthly2017-03-11 12:54
http://www.hotnewdeal.com/2017/03/11/179815_2TB_Seagate_FireCuda_Gaming_SSHD_2TB_25_Hybrid_H/20%Monthly2017-03-11 12:37
http://www.hotnewdeal.com/2017/03/11/179814_FoodSaver_Quick_Marinator__1199__Tax_with_Free/20%Monthly2017-03-11 12:30
http://www.hotnewdeal.com/2017/03/11/179813_Tmobile_sim_4_at_Amazon/20%Monthly2017-03-11 12:22
http://www.hotnewdeal.com/2017/03/11/179812_Prime_Members_GOJO_628206_Fast_Wipes_Hand_Cleani/20%Monthly2017-03-11 11:58
http://www.hotnewdeal.com/2017/03/11/179811_Refurb_Asus_RTAC68P_AC1900_DualBand_Wireless_Gig/20%Monthly2017-03-11 11:58
http://www.hotnewdeal.com/2017/03/11/179810_Ethernet_Cable_Cat6_50_Ft_Black_Flat_with_Cable_Cl/20%Monthly2017-03-11 11:47
http://www.hotnewdeal.com/2017/03/11/179809_Best_Buy_HMDX__Chill_Portable_Bluetooth_Speaker_/20%Monthly2017-03-11 11:31
http://www.hotnewdeal.com/2017/03/11/179808_3Ct_of_8oz_Colgate_Cavity_Protection_Toothpaste_/20%Monthly2017-03-11 11:23
http://www.hotnewdeal.com/2017/03/11/179807_Frys_Store_AD_312_313_Intel_i37350k_159_Cor/20%Monthly2017-03-11 11:23
http://www.hotnewdeal.com/2017/03/11/179806_Versace_V1969_Abbigliamento_Sportivo_SRL_Deluxe_Fo/20%Monthly2017-03-11 11:23
http://www.hotnewdeal.com/2017/03/11/179805_Disney_Store_Coupon_Buy_1_Get_One_50_Off_Sitewid/20%Monthly2017-03-11 11:16
http://www.hotnewdeal.com/2017/03/11/179804_10_cup_Melitta_Cone_Filter_Pourover_Coffeemaker_/20%Monthly2017-03-11 11:07
http://www.hotnewdeal.com/2017/03/11/179803_Deltran_Battery_Tender_Plus_125_amp_chargermaint/20%Monthly2017-03-11 11:07
http://www.hotnewdeal.com/2017/03/11/179802_APC_6Outlet_Surgearrest_Surge_Protector_Power_Str/20%Monthly2017-03-11 10:30
http://www.hotnewdeal.com/2017/03/11/179801_EasyAcc_10000mAh_Smart_Power_Bank__1279_Amazon/20%Monthly2017-03-11 10:15
http://www.hotnewdeal.com/2017/03/11/179800_8_Pin_Lightning_to_USB_Cable_6ft__3_Pack_799_at/20%Monthly2017-03-11 09:31
http://www.hotnewdeal.com/2017/03/11/179799_499_Apple_Watch_Series_2_42mm_Stainless_Steel_1/20%Monthly2017-03-11 09:16
http://www.hotnewdeal.com/2017/03/11/179798_Best_Buy__Keurig__K15_SingleServe_Coffee_Maker_/20%Monthly2017-03-11 08:45
http://www.hotnewdeal.com/2017/03/11/179797_Dell_XPS_15_9560_156_Laptop__159999__Silver/20%Monthly2017-03-11 07:57
http://www.hotnewdeal.com/2017/03/11/179796_Plantronics_RIG_Flex_35mm_White_Gaming_Headset_w/20%Monthly2017-03-11 07:57
http://www.hotnewdeal.com/2017/03/11/179795_YMMV_Cheap_64GB_SD_card_from_SONY_SAMSUNG_and_/20%Monthly2017-03-11 07:57
http://www.hotnewdeal.com/2017/03/11/179794_Burberry_Touch_for_Men_34oz_Eau_de_Toilette_Spr/20%Monthly2017-03-11 07:16
http://www.hotnewdeal.com/2017/03/11/179793_Linksys_AE6000_Dual_Band__AC_USB_Wireless_Adapter/20%Monthly2017-03-11 06:06
http://www.hotnewdeal.com/2017/03/11/179792_iRULU_P4_LED_HD_Projector_Native_Resolution_800_X/20%Monthly2017-03-11 05:27
http://www.hotnewdeal.com/2017/03/11/179791_236_ViewSonic_VX2452_1920x1080_2ms_TN_HDMI_LED_G/20%Monthly2017-03-11 05:07
http://www.hotnewdeal.com/2017/03/11/179790_Ebay_Apmex_SPECIALPRICE1ozValcambiSuisseGold/20%Monthly2017-03-11 04:07
http://www.hotnewdeal.com/2017/03/11/179789_MarthaWindow_RodPocket_Sheer_Window_Panel_from_2/20%Monthly2017-03-11 03:07
http://www.hotnewdeal.com/2017/03/11/179788_Prime_Members_24Ct_Viva_ChooseASheet_Big_Roll_/20%Monthly2017-03-11 02:28
http://www.hotnewdeal.com/2017/03/11/179787_JJRC_H26W_24G_Drone_Realtime_RC_Quadcopter_579/20%Monthly2017-03-11 02:28
http://www.hotnewdeal.com/2017/03/11/179786_Jurassic_Park_Trilogy_Bluray__899/20%Monthly2017-03-11 02:28
http://www.hotnewdeal.com/2017/03/11/179785_PSN_Weekly_Deals__Daylight_374__Valley_799/20%Monthly2017-03-11 02:28
http://www.hotnewdeal.com/2017/03/11/179784_ASUS_UN65UM022M_VivoMini_Barebones_PC_with_7th_Ge/20%Monthly2017-03-11 02:28
http://www.hotnewdeal.com/2017/03/11/179783_Onkyo_TXNR656_72Channel_Network_AV_Receiver__/20%Monthly2017-03-11 01:28
http://www.hotnewdeal.com/2017/03/11/179782_Little_Giant_813_Plank_2462_Free_Shipping/20%Monthly2017-03-11 00:16
http://www.hotnewdeal.com/2017/03/11/179781_Intel_NUC_Kit_NUC6i3SYK_220__Free_Shipping__Ama/20%Monthly2017-03-11 00:15
http://www.hotnewdeal.com/2017/03/11/179780_Harman_Kardon_AVR_2700_71channel_AV_receiver_w/20%Monthly2017-03-11 00:15
http://www.hotnewdeal.com/2017/03/10/179779_Lysol_Disinfectant_Spray_Crisp_Linen_19_oz_Pack/20%Monthly2017-03-10 23:58
http://www.hotnewdeal.com/2017/03/10/179778_Heat_Shrink_Butt_Connectors_Kit_200pcs_2210GA_Wat/20%Monthly2017-03-10 23:32
http://www.hotnewdeal.com/2017/03/10/179777_ASUS_Dualfan_Radeon_RX_460_2GB_OC_Edition_AMD_Gam/20%Monthly2017-03-10 23:23
http://www.hotnewdeal.com/2017/03/10/179776_40_Graco_SimpleSwitch_Convertible_High_Chair_and_/20%Monthly2017-03-10 23:08
http://www.hotnewdeal.com/2017/03/10/179775_REFURBISHED_ASUS_Desktop_PC_VivoPC_Intel_Core_i7/20%Monthly2017-03-10 22:55
http://www.hotnewdeal.com/2017/03/10/179774_C130_MX3_24GHz_Mini_Wireless_Remote_Keyboard_Mous/20%Monthly2017-03-10 22:55
http://www.hotnewdeal.com/2017/03/10/179773_Los_Angeles_to_Chongqing_or_Chengdu_China_478_RT_/20%Monthly2017-03-10 22:55
http://www.hotnewdeal.com/2017/03/10/179772_BestMassage_BMEC06C_Electric_Full_Body_Shiatsu_Ma/20%Monthly2017-03-10 21:54
http://www.hotnewdeal.com/2017/03/10/179771_750W_Thermaltake_Toughpower_TPD0750M_80_Gold_Sem/20%Monthly2017-03-10 21:54
http://www.hotnewdeal.com/2017/03/10/179770_Up_to_50_off_Bliss_Spa_Bath__Body_and_Skincare_/20%Monthly2017-03-10 21:17
http://www.hotnewdeal.com/2017/03/10/179769_ATT_Samsung_Galaxy_S7_394_and_S7_Edge_494__Sam/20%Monthly2017-03-10 20:56
http://www.hotnewdeal.com/2017/03/10/179768_Xiaomi_Air_12_laptop_125_IPS_Screen_Intel_m36/20%Monthly2017-03-10 20:56
http://www.hotnewdeal.com/2017/03/10/179767_The_FoodSaver_FM2000_Vacuum_Sealing_System_for_3/20%Monthly2017-03-10 20:42
http://www.hotnewdeal.com/2017/03/10/179766_10_Piece_Craft_Wood_Log_Slices105__Free_Shipp/20%Monthly2017-03-10 20:38
http://www.hotnewdeal.com/2017/03/10/179765_Jetcom_New_Customers__15_Off_Makita_Tools_5Pi/20%Monthly2017-03-10 19:48
http://www.hotnewdeal.com/2017/03/10/179764_Smartthings_compatible_windowdoor_sensor_699_m/20%Monthly2017-03-10 19:35
http://www.hotnewdeal.com/2017/03/10/179763_Original_General_Electric_MWF_Refrigerator_Water_F/20%Monthly2017-03-10 19:24
http://www.hotnewdeal.com/2017/03/10/179762_NET10_30Day_SIM_Activation_Kit/20%Monthly2017-03-10 19:18
http://www.hotnewdeal.com/2017/03/10/179761_Bath__Body_Works_Select_Aromatherapy_Body_Care_6/20%Monthly2017-03-10 19:18
http://www.hotnewdeal.com/2017/03/10/179759_My_Arcade_GamePad_Classic_1499__Wireless_Contro/20%Monthly2017-03-10 19:08
http://www.hotnewdeal.com/2017/03/10/179758_5_Credit_with_a_5_Reorder_on_Alexa/20%Monthly2017-03-10 18:46
http://www.hotnewdeal.com/2017/03/10/179757_Fallout_4__PC_Steam_Key_1379/20%Monthly2017-03-10 18:34
http://www.hotnewdeal.com/2017/03/10/179755_Gymboree_Boys_Down_Jacket_Blue__from_9xx__A/20%Monthly2017-03-10 18:07
http://www.hotnewdeal.com/2017/03/10/179754_Kylie_Cosmetics_Dupe_Froomer_16_Colors_Waterproof/20%Monthly2017-03-10 17:58
http://www.hotnewdeal.com/2017/03/10/179753_Boston_to_Madrid_Spain_380_RT_on_One_World_Allian/20%Monthly2017-03-10 17:47
http://www.hotnewdeal.com/2017/03/10/179752_AudioTechnica_LP60BT_Bluetooth_Turntable__Klipsc/20%Monthly2017-03-10 17:24
http://www.hotnewdeal.com/2017/03/10/179751_Maybelline_New_York_Volume_Express_Colossal_Cat_Ey/20%Monthly2017-03-10 17:17
http://www.hotnewdeal.com/2017/03/10/179750_Gillette_Simply_Venus_Refillable_3_Blade_Razor_wit/20%Monthly2017-03-10 17:17
http://www.hotnewdeal.com/2017/03/10/179749_Allegiant_Air_72_Hour_Flight_Sale_with_Promo_Codes/20%Monthly2017-03-10 17:17
http://www.hotnewdeal.com/2017/03/10/179747_BonTon_Up_to_Additional_25_Off_Clearance__Free_/20%Monthly2017-03-10 17:08
http://www.hotnewdeal.com/2017/03/10/179746_ASICS_Womens_GELFit_Sana_2_Training_Shoes_2240/20%Monthly2017-03-10 16:55
http://www.hotnewdeal.com/2017/03/10/179745_Home_Basics_Glass_Bowl_Set_1_Disney_Movies_Digi/20%Monthly2017-03-10 16:55
http://www.hotnewdeal.com/2017/03/10/179744_A_lot_of_power_supply_deals_EVGA_450W_80_Bronze_/20%Monthly2017-03-10 16:46
http://www.hotnewdeal.com/2017/03/10/179743_Micro_USB_3_Foot_Sync__Charge_Cable_1__Free_Shi/20%Monthly2017-03-10 16:15
http://www.hotnewdeal.com/2017/03/10/179742_Walmart_Sharper_Image_Adult_Memory_Foam_Slipper_/20%Monthly2017-03-10 15:58
http://www.hotnewdeal.com/2017/03/10/179741_Amazon_21_Kidde_BatteryOperated_Combination_Smo/20%Monthly2017-03-10 15:58
http://www.hotnewdeal.com/2017/03/10/179740_MSI_Radeon_RX_480_4GB_Video_Card_144AR_Newegg/20%Monthly2017-03-10 15:58
http://www.hotnewdeal.com/2017/03/10/179739_Warner_182_DIY_Series_Flex_Putty_Knife_114Inch/20%Monthly2017-03-10 15:39
http://www.hotnewdeal.com/2017/03/10/179738_PNY__LEGO_Brick_32GB_USB_20_Type_A_Flash_Drive_o/20%Monthly2017-03-10 15:23
http://www.hotnewdeal.com/2017/03/10/179737_McDonalds_Big_Mac__FiletoFish_for_179_Los_An/20%Monthly2017-03-10 15:17
http://www.hotnewdeal.com/2017/03/10/179736_New_Lenovo_Ideapad_700_156_IPS_Full_HD_Laptop_Co/20%Monthly2017-03-10 15:08
http://www.hotnewdeal.com/2017/03/10/179735_A29_Moscow_Mule_100__Solid_Pure_Copper_Unlined_Mu/20%Monthly2017-03-10 15:08
http://www.hotnewdeal.com/2017/03/10/179734_Electric_FullBody_Shiatsu_Massage_Chair_Foot_Roll/20%Monthly2017-03-10 15:08
http://www.hotnewdeal.com/2017/03/10/179733_Walmart_Pampers_Swaddlers_Size_6_100_count__2/20%Monthly2017-03-10 15:08
http://www.hotnewdeal.com/2017/03/10/179732_Ultrasone_900i_for_19999_after_MIR_with_free_shi/20%Monthly2017-03-10 14:46
http://www.hotnewdeal.com/2017/03/10/179731_Hitman_The_Complete_First_Season_PS4_PSN_2999/20%Monthly2017-03-10 14:46
http://www.hotnewdeal.com/2017/03/10/179730_Dicks_Sporting_Goods__NFL_MLB_NHL_NBA__20_o/20%Monthly2017-03-10 14:46
http://www.hotnewdeal.com/2017/03/10/179729_Tales_of_Zestiria_PC_Digital_Download_1062_via/20%Monthly2017-03-10 14:46
http://www.hotnewdeal.com/2017/03/10/179728_My_Fitness_Warehouse_3pack_Pure_Colon_Cleanse_1/20%Monthly2017-03-10 14:31
http://www.hotnewdeal.com/2017/03/10/179727_Linksys_EA3500_DualBand_N750_Router_with_Gigabit_/20%Monthly2017-03-10 14:27
http://www.hotnewdeal.com/2017/03/10/179726_DiscountMags_The_Almost_Never_Sale/20%Monthly2017-03-10 14:23
http://www.hotnewdeal.com/2017/03/10/179725_Prime_members_Mommys_Helper_Toilet_Seat_LidLok_/20%Monthly2017-03-10 14:16
http://www.hotnewdeal.com/2017/03/10/179724_Rado_DStar_Automatic_Watch_499__free_shipping/20%Monthly2017-03-10 14:08
http://www.hotnewdeal.com/2017/03/10/179723_28_Samsung_U28E590D_3840x2160_4K_UHD_1ms_TN_HDMI_/20%Monthly2017-03-10 14:07
http://www.hotnewdeal.com/2017/03/10/179722_Dell_XPS_X8900_i76700_16GB_2TB_HDD_GTX_745_for_5/20%Monthly2017-03-10 13:58
http://www.hotnewdeal.com/2017/03/10/179721_Free__Angry_Birds_Star_Wars_HD_Android_Playstore/20%Monthly2017-03-10 13:47
http://www.hotnewdeal.com/2017/03/10/179720_Teclast_X5_Pro_2in1_Tablet_M37Y30_8GB_RAM_25/20%Monthly2017-03-10 13:47
http://www.hotnewdeal.com/2017/03/10/179719_Free_Champion_Breed_56_oz_Dog_Treats_Assorted_V/20%Monthly2017-03-10 13:47
http://www.hotnewdeal.com/2017/03/10/179718_GoPhone_upgrades_their_45__65_plans_40__60_/20%Monthly2017-03-10 13:24
http://www.hotnewdeal.com/2017/03/10/179717_NETGEAR_Nighthawk_AC1750_Smart_Dual_Band_WiFi_Rout/20%Monthly2017-03-10 13:17
http://www.hotnewdeal.com/2017/03/10/179716_Swap_Fire_for_Nintendo_Wii_U_is_FREE_in_the_Ninten/20%Monthly2017-03-10 13:17
http://www.hotnewdeal.com/2017/03/10/179715_3_Philosophy_16_oz_Shower_Gels__6_pc_Gift_Set_36/20%Monthly2017-03-10 13:17
http://www.hotnewdeal.com/2017/03/10/179714_RCA_65_120Hz_FULL_HD_LED_28424/20%Monthly2017-03-10 13:17
http://www.hotnewdeal.com/2017/03/10/179713_FTL_Faster_Than_Light_PC_Digital_Download___2/20%Monthly2017-03-10 13:17
http://www.hotnewdeal.com/2017/03/10/179712_Nordstrom_Rack_Up_to_70_off_Urban_Decay__247_L/20%Monthly2017-03-10 13:08
http://www.hotnewdeal.com/2017/03/10/179711_Extra_25_off_clearance_items__rei__exp_32020/20%Monthly2017-03-10 12:55
http://www.hotnewdeal.com/2017/03/10/179710_PCDD_Tom_Clancys_Rainbow_Six_Siege_PC__1167_A/20%Monthly2017-03-10 12:47
http://www.hotnewdeal.com/2017/03/10/179709_New_Xbox_One_S_1TB_Console__Gears_of_War_4_Bundle/20%Monthly2017-03-10 12:32
http://www.hotnewdeal.com/2017/03/10/179708_TMobile_Free_Samsung_Galaxy_S7_or_S7_edge_after_t/20%Monthly2017-03-10 12:32
http://www.hotnewdeal.com/2017/03/10/179707_Fractal_Design_Define_R5_Titanium_Windowed_Silent_/20%Monthly2017-03-10 12:32
http://www.hotnewdeal.com/2017/03/10/179706_Boost_Mobile_iPhone_5S_16GB_9999_GoldSilver_In_/20%Monthly2017-03-10 12:17
http://www.hotnewdeal.com/2017/03/10/179705_8Port_Netgear_ProSAFE_Essentials_Edition_Unmanage/20%Monthly2017-03-10 12:17
http://www.hotnewdeal.com/2017/03/10/179704_adidas_Mens_Galaxy_Elite_Running_Shoes_30__free/20%Monthly2017-03-10 12:16
http://www.hotnewdeal.com/2017/03/10/179703_1_digital_movie_rentals__Amazon_Video__Train_to/20%Monthly2017-03-10 12:08
http://www.hotnewdeal.com/2017/03/10/179702_Dell_Microsoft_Wireless_3000_Optical_Mouse_for_/20%Monthly2017-03-10 12:07
http://www.hotnewdeal.com/2017/03/10/179701_Black__Decker_20V_Max_LithiumIon_Cordless_Hand_V/20%Monthly2017-03-10 12:07
http://www.hotnewdeal.com/2017/03/10/179700_NES_classic_5999_at_best_buy_instock_right_now/20%Monthly2017-03-10 11:59
http://www.hotnewdeal.com/2017/03/10/179699_NES_Classic_back_in_stock_at_BestBuycom/20%Monthly2017-03-10 11:59
http://www.hotnewdeal.com/2017/03/10/179698_Seiko_SARB033_and_SARB035_Automatic_watch_250_eb/20%Monthly2017-03-10 11:59
http://www.hotnewdeal.com/2017/03/10/179697_Silver_Bullet_free_on_iOS_for_iPad_and_iphone_this/20%Monthly2017-03-10 11:59
http://www.hotnewdeal.com/2017/03/10/179696_Refurbished_Corsair_K70_Vengeance_Red_LED_Backlit_/20%Monthly2017-03-10 11:59
http://www.hotnewdeal.com/2017/03/10/179695_2016_Macbook_Pro_13_w_Touch_Bar__1499__Micro_C/20%Monthly2017-03-10 11:58
http://www.hotnewdeal.com/2017/03/10/179694_COFFEEBOXX_Jobsite_Coffee_Maker_14999/20%Monthly2017-03-10 11:18
http://www.hotnewdeal.com/2017/03/10/179693_TorGuard_Sale_50_off_VPN_Service_2999_per_yea/20%Monthly2017-03-10 11:09
http://www.hotnewdeal.com/2017/03/10/179692_OralB_Pro_5000_SmartSeries_Power_Rechargeable_Ele/20%Monthly2017-03-10 10:38
http://www.hotnewdeal.com/2017/03/10/179691_Noot_iPhone_6S_Plus_workout_armband_099/20%Monthly2017-03-10 10:32
http://www.hotnewdeal.com/2017/03/10/179690_Uppababy_Vista_2015_417437_or_Cruz_2015_263__/20%Monthly2017-03-10 10:07
http://www.hotnewdeal.com/2017/03/10/179689_5194_Tfal_C067SC_Metallics_Nonstick_ThermoSpot/20%Monthly2017-03-10 09:59
http://www.hotnewdeal.com/2017/03/10/179688_New_Garmin_VIRB_Elite_16_MP_Action_Camera__1499/20%Monthly2017-03-10 09:59
http://www.hotnewdeal.com/2017/03/10/179687_Chanel_Coco_Mademoiselle_Eau_de_Parfum_34oz_80_/20%Monthly2017-03-10 09:44
http://www.hotnewdeal.com/2017/03/10/179686_FREE_Trial_Steep_Xbox_PS4_PC_March_1012/20%Monthly2017-03-10 09:40
http://www.hotnewdeal.com/2017/03/10/179685_Mountain_Steals_Up_to_50_Off_The_North_Face_Arc/20%Monthly2017-03-10 09:40
http://www.hotnewdeal.com/2017/03/10/179684_Samsung_Galaxy_Gear_360_VR_Camera__TigerDirectco/20%Monthly2017-03-10 09:18
http://www.hotnewdeal.com/2017/03/10/179683_Monoprice_Select_Series_Various_TV_Wall_Mounts_v/20%Monthly2017-03-10 08:56
http://www.hotnewdeal.com/2017/03/10/179682_Vera_Bradley_E_Reader_Sleeve_499_Neoprene_Table/20%Monthly2017-03-10 08:56
http://www.hotnewdeal.com/2017/03/10/179680_24_pack_of_35_oz_Chicken__Beef_CESAR_Puppy_Wet_D/20%Monthly2017-03-10 08:34
http://www.hotnewdeal.com/2017/03/10/179679_Armor_All_Quicksilver_Wheel_and_Tire_Cleaner_Free_/20%Monthly2017-03-10 08:25
http://www.hotnewdeal.com/2017/03/10/179678_Sabrent_6Pack_22AWG_Premium_3ft_Micro_USB_Cable/20%Monthly2017-03-10 08:18
http://www.hotnewdeal.com/2017/03/10/179677_Twitch_Prime_Members_Hard_Reset_Redux_PC_Digital/20%Monthly2017-03-10 07:48
http://www.hotnewdeal.com/2017/03/10/179676_CATALYST__Pre_Workout__Recovery_IntraPost__12/20%Monthly2017-03-10 07:34
http://www.hotnewdeal.com/2017/03/10/179675_Garmin_VivoActive_HR_GPSEnabled_Active_Fitness_HR/20%Monthly2017-03-10 07:10
http://www.hotnewdeal.com/2017/03/10/179674_GCU_Members_Super_Mario_3D_Land_New_Super_Mario_/20%Monthly2017-03-10 07:09
http://www.hotnewdeal.com/2017/03/10/179673_Refurbished_DJI_Phantom_3_Professional_4K_UHD_Vide/20%Monthly2017-03-10 06:29
http://www.hotnewdeal.com/2017/03/10/179672_Pans_Labyrinth_Bluray__Digital_HD_With_UltraVi/20%Monthly2017-03-10 06:29
http://www.hotnewdeal.com/2017/03/10/179671_WD_Red_Network_NAS_4TB_Internal_SATA_Hard_Drive_/20%Monthly2017-03-10 05:31
http://www.hotnewdeal.com/2017/03/10/179670_60_off_iVAPO_Apple_Watch_Series_2_Case_38mm42mm_/20%Monthly2017-03-10 05:31
http://www.hotnewdeal.com/2017/03/10/179669_Roundup_133Gallon_ReadytoUse_Max_Control_Veget/20%Monthly2017-03-10 05:09
http://www.hotnewdeal.com/2017/03/10/179668_Enkeeo_Wired_Bike_Computer_Bicycle_Speedometer_Bik/20%Monthly2017-03-10 05:03
http://www.hotnewdeal.com/2017/03/10/179667_KitchenAid_Expandable_Colander_1316__free_store/20%Monthly2017-03-10 04:09
http://www.hotnewdeal.com/2017/03/10/179666_Free_Wildflower_seeds_from_Honey_Nut_Cheerios_to_b/20%Monthly2017-03-10 02:31
http://www.hotnewdeal.com/2017/03/10/179665_16GB_Motorola_Moto_G4_Play_Verizon_Wireless_Prepai/20%Monthly2017-03-10 02:11
http://www.hotnewdeal.com/2017/03/10/179664_AMD_FX8300_Vishera_8Core_33_GHz_CPU__Ashes_of_/20%Monthly2017-03-10 02:07
http://www.hotnewdeal.com/2017/03/10/179663_NEW_ASUS_Laptop_156_Intel_i5_6300HQ_940MX_8_GB_D/20%Monthly2017-03-10 02:04
http://www.hotnewdeal.com/2017/03/10/179662_NuWave_3qt_Digital_Air_Fryer__10_in_Kohls_Cash/20%Monthly2017-03-10 01:32
http://www.hotnewdeal.com/2017/03/10/179661_Avera_55EQX_55_4K_Ultra_HD_2160p_60Hz_LED_HDTV_4/20%Monthly2017-03-10 01:32
http://www.hotnewdeal.com/2017/03/10/179660_Harbor_Freight_Pittsburgh_Rapid_Pump_3_Ton_Heavy_D/20%Monthly2017-03-10 01:10
http://www.hotnewdeal.com/2017/03/10/179659_Cellucor_CorPerformance_Gainer_Supplement_Protein/20%Monthly2017-03-10 01:10
http://www.hotnewdeal.com/2017/03/10/179658_Frontier_Airlines_One_Way_Airfares_as_low_as_29_/20%Monthly2017-03-10 01:06
http://www.hotnewdeal.com/2017/03/10/179657_2_pack_Link_Depot_6_ft_HDMI_249__FS__REFURB_Up/20%Monthly2017-03-10 01:03
http://www.hotnewdeal.com/2017/03/10/179656_Logitech_Combo__MK360_Wireless_Keyboard__Mouse_f/20%Monthly2017-03-10 00:18
http://www.hotnewdeal.com/2017/03/10/179655_The_Body_Shop_British_Rose_Exfoliating_Soap_35_O/20%Monthly2017-03-10 00:03
http://www.hotnewdeal.com/2017/03/10/179654_MAudio_CTRL49_Controller_Keyboard_19999_stupid/20%Monthly2017-03-10 00:03
http://www.hotnewdeal.com/2017/03/09/179653_Food_Network_5pc_Nonstick_Bakeware_Set_1316__/20%Monthly2017-03-09 23:51
http://www.hotnewdeal.com/2017/03/09/179652_449Qt_Oxo_Good_Grips_Salad_Spinner_1605__free/20%Monthly2017-03-09 23:51
http://www.hotnewdeal.com/2017/03/09/179651_60_Vizio_M60D1_4K_UHD_120Hz_IPS_LED_Smart_Home_T/20%Monthly2017-03-09 23:51
http://www.hotnewdeal.com/2017/03/09/179650_Steinhausen_Mens_Altdorf_Swiss_Quartz_Stainless_S/20%Monthly2017-03-09 23:51
http://www.hotnewdeal.com/2017/03/09/179649_SiliconDust_HDHomeRun_Extend_HDTC2USM_HD_Streami/20%Monthly2017-03-09 23:43
http://www.hotnewdeal.com/2017/03/09/179648_OXO_Good_Grips_Smooth_Edge_Can_Opener_13__free_s/20%Monthly2017-03-09 23:38
http://www.hotnewdeal.com/2017/03/09/179647_Kids_Character_Twin_Size_Sheet_Sets_Star_Wars_Pr/20%Monthly2017-03-09 23:24
http://www.hotnewdeal.com/2017/03/09/179646_Portable_Automatic_Bubble_Machine_Maker_for_Kids_P/20%Monthly2017-03-09 23:18
http://www.hotnewdeal.com/2017/03/09/179645_TAMRON_AFB018N700_18200mm_Di_II_VC_AllInOne_Zo/20%Monthly2017-03-09 23:18
http://www.hotnewdeal.com/2017/03/09/179644_Visiontek_Radeon_RX_480_8GB_Video_Card_190MicroC/20%Monthly2017-03-09 23:12
http://www.hotnewdeal.com/2017/03/09/179643_Martha_Stewart_Living_Storage_Bench_3839_Free_Sh/20%Monthly2017-03-09 22:59
http://www.hotnewdeal.com/2017/03/09/179642_Running_Warehouse_extra_20_off_select_sale_shoes/20%Monthly2017-03-09 22:50
http://www.hotnewdeal.com/2017/03/09/179641_2Pack_Snowkids_66Ft_USB_Type_C_to_A_Nylon_Braide/20%Monthly2017-03-09 22:39
http://www.hotnewdeal.com/2017/03/09/179640_3_Pack_of_6FT_Nylon_Braided_Lightning_Cable_779_/20%Monthly2017-03-09 22:35
http://www.hotnewdeal.com/2017/03/09/179639_Ninja_Master_Prep_Professional_2761__free_store/20%Monthly2017-03-09 22:18
http://www.hotnewdeal.com/2017/03/09/179638_Mint_Unlimited_Talk__Text_2GB_LTE_15_per_month/20%Monthly2017-03-09 22:08
http://www.hotnewdeal.com/2017/03/09/179637_20_Off_All_Tumi_Products_at_Bloomingdales/20%Monthly2017-03-09 21:59
http://www.hotnewdeal.com/2017/03/09/179636_Kids_Chapter_Books_as_low_as_249__50_discount/20%Monthly2017-03-09 21:49
http://www.hotnewdeal.com/2017/03/09/179635_Nike_air_zoom_odyssey_2_running_shoes_60_60_off/20%Monthly2017-03-09 21:27
http://www.hotnewdeal.com/2017/03/09/179634_Vangogo_180_View_Snorkel_Mask_Full_Face_Easybreat/20%Monthly2017-03-09 21:27
http://www.hotnewdeal.com/2017/03/09/179632_Hand_spinner_Fidget_Toy_399FS/20%Monthly2017-03-09 21:09
http://www.hotnewdeal.com/2017/03/09/179631_DuroMax_XP4850EH_Hybrid_Portable_Dual_Fuel_Propane/20%Monthly2017-03-09 20:47
http://www.hotnewdeal.com/2017/03/09/179630_Sony_PlayStation_4_Slim_500GB_Console_Uncharted_4_/20%Monthly2017-03-09 20:42
http://www.hotnewdeal.com/2017/03/09/179629_Resident_Evil_7_Biohazard__PS4_or_Xbox_One__3/20%Monthly2017-03-09 20:34
http://www.hotnewdeal.com/2017/03/09/179628_New_Swych_Customers_10_Playstation_Network_Card_/20%Monthly2017-03-09 20:25
http://www.hotnewdeal.com/2017/03/09/179627_Prime_Members_Kenneth_Cole_New_York_Mens_WoolBl/20%Monthly2017-03-09 20:25
http://www.hotnewdeal.com/2017/03/09/179626_iPhone_7_Plus_case_099_Amazon_Free_Shipping/20%Monthly2017-03-09 20:08
http://www.hotnewdeal.com/2017/03/09/179625_Costco__Kirkland_Signature_Mens_Tailored_Fit_and/20%Monthly2017-03-09 20:08
http://www.hotnewdeal.com/2017/03/09/179624_Halo_Wars_2_Xbox_One__3499__FS__ebaycom/20%Monthly2017-03-09 20:08
http://www.hotnewdeal.com/2017/03/09/179623_Seiko_SUR147_Mens_Dress_Watch_59__free_shipping/20%Monthly2017-03-09 19:59
http://www.hotnewdeal.com/2017/03/09/179622_Puma_Womens_Narita_v3_Heathered_Running_Shoes_20/20%Monthly2017-03-09 19:59
http://www.hotnewdeal.com/2017/03/09/179621_27_Dell_S2716DGR_2560x1440_144Hz_GSync_Gaming_Mon/20%Monthly2017-03-09 19:49
http://www.hotnewdeal.com/2017/03/09/179620_215_HP_22es_1920x1080p_IPS_LED_Monitor_5999__/20%Monthly2017-03-09 19:41
http://www.hotnewdeal.com/2017/03/09/179619_Crosley_Radio_Executive_USB_Turntable_3849/20%Monthly2017-03-09 19:41
http://www.hotnewdeal.com/2017/03/09/179618_Walmart_TY_Girls_Beanie_Boo__Shopkins_Slippers_fr/20%Monthly2017-03-09 19:41
http://www.hotnewdeal.com/2017/03/09/179617_The_Passenger_TA_Reed_Infinity_Loop_Premium_And/20%Monthly2017-03-09 19:26
http://www.hotnewdeal.com/2017/03/09/179614_Los_Angeles_to_Hilo_Hawaii_353_RT_on_Hawaiian_air/20%Monthly2017-03-09 19:19
http://www.hotnewdeal.com/2017/03/09/179613_24_AOC_E2425SWD_Black_1920x1080_5ms_GTG_TN_Pane/20%Monthly2017-03-09 19:13
http://www.hotnewdeal.com/2017/03/09/179612_Samsung_128GB_microSDXC_EVO_Memory_Card_with_Adapt/20%Monthly2017-03-09 19:09
http://www.hotnewdeal.com/2017/03/09/179611_FoodSaver_V4445_Remanufactured_6719__tax_free_/20%Monthly2017-03-09 18:56
http://www.hotnewdeal.com/2017/03/09/179610_AllClad_Factory_Seconds_Sale__Extra_10_Off__Fr/20%Monthly2017-03-09 18:47
http://www.hotnewdeal.com/2017/03/09/179609_Apple__EarPods_with_Lightning_Connector_Model_MM/20%Monthly2017-03-09 18:47
http://www.hotnewdeal.com/2017/03/09/179608_Opus_BTC3100_V22_Smart_Battery_Charger_28__fre/20%Monthly2017-03-09 18:39
http://www.hotnewdeal.com/2017/03/09/179607_Arrival_or_Inferno_rental_on_PSN_Playstation_Netwo/20%Monthly2017-03-09 18:32
http://www.hotnewdeal.com/2017/03/09/179606_Tumicom_Sitewide_Sale__20_off/20%Monthly2017-03-09 18:24
http://www.hotnewdeal.com/2017/03/09/179605_Ives_by_Schlage_Door_Stop_068__Free_Prime_Shipp/20%Monthly2017-03-09 18:18
http://www.hotnewdeal.com/2017/03/09/179604_CardCashcom_Extra_5_off_McDonalds_Dunkin_Don/20%Monthly2017-03-09 18:17
http://www.hotnewdeal.com/2017/03/09/179603_Amazon__Orbi_Router_plus_Satellite_285/20%Monthly2017-03-09 17:59
http://www.hotnewdeal.com/2017/03/09/179602_Finding_Dory_and_Nemo_Bandai_Model_Kits__219_AD/20%Monthly2017-03-09 17:59
http://www.hotnewdeal.com/2017/03/09/179601_Amazon_Music__Mozart_Complete_String_Quartets_an/20%Monthly2017-03-09 17:59
http://www.hotnewdeal.com/2017/03/09/179600_Citizen_EcoDrive_Mens_Blue_Angels_World_AT_Stai/20%Monthly2017-03-09 17:40
http://www.hotnewdeal.com/2017/03/09/179599_Acoustimass_6_Series_V_home_theater_speaker_system/20%Monthly2017-03-09 17:10
http://www.hotnewdeal.com/2017/03/09/179598_Hitachi_C10FCH2_15Amp_10inch_Single_Bevel_Compou/20%Monthly2017-03-09 17:10
http://www.hotnewdeal.com/2017/03/09/179597_Sucker_Punch_Bluray__Digital_HD_With_UltraViole/20%Monthly2017-03-09 17:04
http://www.hotnewdeal.com/2017/03/09/179596_Intel_NUC6i3SYK_Core_i3_NUC__Crucial_8GB_2_x_4GB/20%Monthly2017-03-09 16:47
http://www.hotnewdeal.com/2017/03/09/179595_Yamaha_FJX720SC_6_String_Solid_Spruce_Top_Acoustic/20%Monthly2017-03-09 16:26
http://www.hotnewdeal.com/2017/03/09/179594_22_Dell_S2216H_1920x1080_Monitor_60_after_50_Sl/20%Monthly2017-03-09 16:08
http://www.hotnewdeal.com/2017/03/09/179593_20_Captain_Toad_Treasure_Tracker__Amiibo_Wii_U_/20%Monthly2017-03-09 16:08
http://www.hotnewdeal.com/2017/03/09/179592_HP_F310_Dash_Cam_Video_Camera_with_24_Display__/20%Monthly2017-03-09 16:08
http://www.hotnewdeal.com/2017/03/09/179591_polaroid_Bluetooth_Wireless_Stereo_Amplifier_Speak/20%Monthly2017-03-09 15:59
http://www.hotnewdeal.com/2017/03/09/179590_TPLINK_Archer_T8E_AC1750_DualBand_PCI_Express_Wi/20%Monthly2017-03-09 15:59
http://www.hotnewdeal.com/2017/03/09/179589_Single_Ream_HP_Paper__Multipurpose_Ultra_Poly_Wra/20%Monthly2017-03-09 15:49
http://www.hotnewdeal.com/2017/03/09/179588_Playstation_Network_PSN_10_Card_for_7_at_PCgam/20%Monthly2017-03-09 15:49
http://www.hotnewdeal.com/2017/03/09/179587_XFX_Radeon_RX_480_8_GB_256Bit_GDDR5_PCI_Express_3/20%Monthly2017-03-09 15:49
http://www.hotnewdeal.com/2017/03/09/179586_OralB_Genius_Electric_Powerbrush_Bluetooth__Extr/20%Monthly2017-03-09 15:43
http://www.hotnewdeal.com/2017/03/09/179585_Michael_Kors_Slim_Saffiano_Sleeve_for_13_Macbook_/20%Monthly2017-03-09 15:42
http://www.hotnewdeal.com/2017/03/09/179584_Prime_Members_ZzzQuil_Nighttime_Sleep_Aid_Warmin/20%Monthly2017-03-09 15:09
http://www.hotnewdeal.com/2017/03/09/179583_The_Big_One_Essential_Mattress_Pad_Full_Size_w_/20%Monthly2017-03-09 15:09
http://www.hotnewdeal.com/2017/03/09/179582_40_Westinghouse_WD40FX1170_LED_1080P_HDTV_120__/20%Monthly2017-03-09 15:09
http://www.hotnewdeal.com/2017/03/09/179580_Prime_Eligible_12_piece_makeup_brush_set_66/20%Monthly2017-03-09 15:04
http://www.hotnewdeal.com/2017/03/09/179579_Verizon_Wireless__FiOS_Customers_Stream_FiOS_Mob/20%Monthly2017-03-09 14:56
http://www.hotnewdeal.com/2017/03/09/179578_Xiaomi_Piston_In_Ear_Earphones_Fresh_Version_333/20%Monthly2017-03-09 14:56
http://www.hotnewdeal.com/2017/03/09/179577_KIND_Breakfast_Bars_Peanut_Butter_Gluten_Free_1/20%Monthly2017-03-09 14:47
http://www.hotnewdeal.com/2017/03/09/179576_The_Childrens_Place_St_Patricks_Day_Tees_Toddlers/20%Monthly2017-03-09 14:47
http://www.hotnewdeal.com/2017/03/09/179575_MAD_Magazine_3Years_for_2499/20%Monthly2017-03-09 14:38
http://www.hotnewdeal.com/2017/03/09/179574_Newegg_is_Offering_FREE_CPU_when_you_buy_Shuttle_S/20%Monthly2017-03-09 14:35
http://www.hotnewdeal.com/2017/03/09/179573_300W_BESTEK_DC_12V_to_110V_AC_PowerInverter__31A/20%Monthly2017-03-09 14:35
http://www.hotnewdeal.com/2017/03/09/179572_Refuge_by_The_Oracle__FREE_MP3_album__Google_P/20%Monthly2017-03-09 14:35
http://www.hotnewdeal.com/2017/03/09/179570_Samsung_Fast_Charge_Car_Charger_Dual_Port_1191_F/20%Monthly2017-03-09 14:19
http://www.hotnewdeal.com/2017/03/09/179569_Silicone_Smart_Wrist_Watch_Strap_for_Xiaomi_Miband/20%Monthly2017-03-09 14:08
http://www.hotnewdeal.com/2017/03/09/179568_959_Apple__215_Refurbished_iMac_with_Retina_4/20%Monthly2017-03-09 13:59
http://www.hotnewdeal.com/2017/03/09/179567_ASICS_Mens_ENDURANT_Running_Shoes_24_AC__free_s/20%Monthly2017-03-09 13:49
http://www.hotnewdeal.com/2017/03/09/179566_128GB_Axiom_Class_10_SDXC_Memory_Card_3999_w_Fr/20%Monthly2017-03-09 13:49
http://www.hotnewdeal.com/2017/03/09/179565_Cellucor_C4_50x_BOGO_for_3599__FREE_SHIPPING/20%Monthly2017-03-09 13:49
http://www.hotnewdeal.com/2017/03/09/179564_Acer_Aspire_R_15_2in1_Laptop_Intel_Core_i57200/20%Monthly2017-03-09 13:40
http://www.hotnewdeal.com/2017/03/09/179563_US_Mattress_Factory_Rollback_Sale_Simmons_Beautyr/20%Monthly2017-03-09 13:40
http://www.hotnewdeal.com/2017/03/09/179562_10Count_mberry_Miracle_Fruit_Tablets_for_999__/20%Monthly2017-03-09 13:36
http://www.hotnewdeal.com/2017/03/09/179561_28__24_Pack_Acoustic_Panels_Studio_Soundproofing/20%Monthly2017-03-09 13:36
http://www.hotnewdeal.com/2017/03/09/179560_LaView_LVKNT982A42W4_8_Channel_NVR_PoE_IP_Securit/20%Monthly2017-03-09 13:36
http://www.hotnewdeal.com/2017/03/09/179559_Grand_Theft_Auto_V_PC_Download_2499__Newegg/20%Monthly2017-03-09 13:36
http://www.hotnewdeal.com/2017/03/09/179558_Daniel_Tigers_Neighborhood_Board_Books__Starting/20%Monthly2017-03-09 13:19
http://www.hotnewdeal.com/2017/03/09/179557_Refurb_Acer_Aspire_Predator_Desktop_PC_Intel_Cor/20%Monthly2017-03-09 13:19
http://www.hotnewdeal.com/2017/03/09/179556_Bonton_offers_Yellow_dot_flash_sale__extra_30_of/20%Monthly2017-03-09 13:19
http://www.hotnewdeal.com/2017/03/09/179555_Mario_Tennis_Open_Wii_U_Brand_New__25_via_Nint/20%Monthly2017-03-09 13:10
http://www.hotnewdeal.com/2017/03/09/179554_25_Dell_U2515H_2560x1440_IPS_Monitor__175_Dell_/20%Monthly2017-03-09 13:10
http://www.hotnewdeal.com/2017/03/09/179553_Pioneer_DJ_Controller_Sale_DDJSB2_2ch_200_PLX/20%Monthly2017-03-09 13:10
http://www.hotnewdeal.com/2017/03/09/179552_Rokinon_14mm_F28_Ultra_Wide_Lens_Canon_or_Sony_N/20%Monthly2017-03-09 13:10
http://www.hotnewdeal.com/2017/03/09/179551_Addon_Item_Stanley_4in1_Pocket_Screwdriver_1/20%Monthly2017-03-09 12:57
http://www.hotnewdeal.com/2017/03/09/179550_Dell_Inspiron_i55655850GRY_156_1080P_Touch_Lapt/20%Monthly2017-03-09 12:47
http://www.hotnewdeal.com/2017/03/09/179549_Nextbook_Ares_8_Tablet_16GB_Intel_Atom_Z3735G__W/20%Monthly2017-03-09 12:35
http://www.hotnewdeal.com/2017/03/09/179548_Walmart_Baby__Toddler_2__3Pc_Outfits_Healthtex/20%Monthly2017-03-09 12:34
http://www.hotnewdeal.com/2017/03/09/179547_Carpet_Fresh_10oz_Fragrance_Morning_Rain_scent/20%Monthly2017-03-09 12:34
http://www.hotnewdeal.com/2017/03/09/179546_Choice_Hotels__Stay_Two_Separate_Nights_and_Get_O/20%Monthly2017-03-09 12:27
http://www.hotnewdeal.com/2017/03/09/179545_Lenovo_Flex_4_14_Full_HD_Touchscreen_Notebook_Cor/20%Monthly2017-03-09 12:23
http://www.hotnewdeal.com/2017/03/09/179544_Samsung_Fast_Charge_Wireless_Charging_Stand_White/20%Monthly2017-03-09 12:23
http://www.hotnewdeal.com/2017/03/09/179543_Full_Body_Zero_Gravity_Shiatsu_Electric_Massage_Ch/20%Monthly2017-03-09 12:09
http://www.hotnewdeal.com/2017/03/09/179542_Room_HD_Movie_Rental_on_Google_play__099/20%Monthly2017-03-09 12:08
http://www.hotnewdeal.com/2017/03/09/179541_Braun_Series_7_790cc4_Cordless_Electric_Foil_Shav/20%Monthly2017-03-09 12:00
http://www.hotnewdeal.com/2017/03/09/179540_Walmart_kids_clearance_sale_Baby__Toddler_appare/20%Monthly2017-03-09 12:00
http://www.hotnewdeal.com/2017/03/09/179539_64_GB_Huawei_Honor_8_Unlocked_Android_Smartphone_/20%Monthly2017-03-09 11:59
http://www.hotnewdeal.com/2017/03/09/179538_Storage_Deals_240_GB_SanDisk_Z410_25_SATA_III_O/20%Monthly2017-03-09 11:59
http://www.hotnewdeal.com/2017/03/09/179537_Lowes_Mulch_Sale_200/20%Monthly2017-03-09 11:49
http://www.hotnewdeal.com/2017/03/09/179536_ebay__20_off_on_all_fashion__beauty_coupon_C20H/20%Monthly2017-03-09 11:41
http://www.hotnewdeal.com/2017/03/09/179535_Optimum_Nutrition_Gold_Standard_PreWorkout_Fruit/20%Monthly2017-03-09 11:41
http://www.hotnewdeal.com/2017/03/09/179534_Cuisinart_DBM8_Supreme_Grind_Automatic_Conical_Bu/20%Monthly2017-03-09 11:36
http://www.hotnewdeal.com/2017/03/09/179533_Cut_your_Taxes_in_half__by_Harak_Gala_CPA__aweso/20%Monthly2017-03-09 11:28
http://www.hotnewdeal.com/2017/03/09/179531_Assassins_Creed_Unity_Xbox_One_Digital_Download/20%Monthly2017-03-09 11:20
http://www.hotnewdeal.com/2017/03/09/179530_JBL_Clip_Splashproof_Portable_Bluetooth_Speaker_/20%Monthly2017-03-09 10:57
http://www.hotnewdeal.com/2017/03/09/179529_OralB_8000_Electric_Tooth_with_Bluetooth_currentl/20%Monthly2017-03-09 10:38
http://www.hotnewdeal.com/2017/03/09/179528_PC_Parts_430W_Corsair_CX430_80_Bronze_Active_PFC/20%Monthly2017-03-09 10:35
http://www.hotnewdeal.com/2017/03/09/179527_KOHLS_BM_10_off_25_printable_coupon_for_savings/20%Monthly2017-03-09 10:18
http://www.hotnewdeal.com/2017/03/09/179526_Dell_Latitude_13_GVY32_Intel_Core_M_5Y71_120_GHz/20%Monthly2017-03-09 10:18
http://www.hotnewdeal.com/2017/03/09/179525_New_Lenovo_ThinkPad_Yoga_11Eg3_Convertible_Notebo/20%Monthly2017-03-09 10:08
http://www.hotnewdeal.com/2017/03/09/179524_Walgreens_Coupon_8x10_Photo_Enlargement_Print_/20%Monthly2017-03-09 10:08
http://www.hotnewdeal.com/2017/03/09/179523_29_AOC_Q2963PQ_UltraWide_2560x1080_5ms_IPS_HDMI_L/20%Monthly2017-03-09 10:08
http://www.hotnewdeal.com/2017/03/09/179521_Motorcycle_Tire_Rebates_for_2017/20%Monthly2017-03-09 09:59
http://www.hotnewdeal.com/2017/03/09/179520_Dunkin_Donuts_5_for_10_eGift_Card_at_Livingsoci/20%Monthly2017-03-09 09:37
http://www.hotnewdeal.com/2017/03/09/179519_Class_Action_GTs_Kombucha__upto_35_with_no_pro/20%Monthly2017-03-09 09:37
http://www.hotnewdeal.com/2017/03/09/179518_New_Swagbucks_customers__Get_a_30_gift_card_FREE/20%Monthly2017-03-09 09:37
http://www.hotnewdeal.com/2017/03/09/179517_Quest_cereal_bars_15_bars_1990_free_shipping/20%Monthly2017-03-09 09:27
http://www.hotnewdeal.com/2017/03/09/179516_6Pack_60W_Equivalent_TCP_A19_Daylight_NonDimmabl/20%Monthly2017-03-09 09:19
http://www.hotnewdeal.com/2017/03/09/179515_Melissa__Doug_Secret_Decoder_Books__198__AMAZ/20%Monthly2017-03-09 09:09
http://www.hotnewdeal.com/2017/03/09/179514_Samsung_4K_blu_ray_UHD_player_REFURB_w_1_year_w/20%Monthly2017-03-09 09:09
http://www.hotnewdeal.com/2017/03/09/179513_DeLonghi_50Pint_Dehumidifier_with_Patented_Pump_/20%Monthly2017-03-09 09:09
http://www.hotnewdeal.com/2017/03/09/179512_65_inch_haier_4k_tv_529_with_tax_YMMW_store_avail/20%Monthly2017-03-09 09:09
http://www.hotnewdeal.com/2017/03/09/179511_Groupon_coupon_for_Restaurants_Massages_things_t/20%Monthly2017-03-09 08:56
http://www.hotnewdeal.com/2017/03/09/179510_Health_warrior_protein_bar_12_pack_1367_free_s/20%Monthly2017-03-09 08:08
http://www.hotnewdeal.com/2017/03/09/179509_Gatorade_protein_bars_12_pack_1364_free_shippi/20%Monthly2017-03-09 08:08
http://www.hotnewdeal.com/2017/03/09/179507_StarCraft_II_Wings_of_Liberty_or_Heart_of_the_Swa/20%Monthly2017-03-09 07:59
http://www.hotnewdeal.com/2017/03/09/179506_Nitecore_TUBE_LED_Keychain_Light_black_6__free/20%Monthly2017-03-09 07:59
http://www.hotnewdeal.com/2017/03/09/179505_Long_Range_Wireless_Thermometer__Dual_Probe__29/20%Monthly2017-03-09 07:59
http://www.hotnewdeal.com/2017/03/09/179504_LG_34UM58PA_Black_34_2560x1080_IPS_LED_Monitor_/20%Monthly2017-03-09 07:49
http://www.hotnewdeal.com/2017/03/09/179503_Kaspersky_Internet_Security_2017_3_PCs_Kaspersk/20%Monthly2017-03-09 07:35
http://www.hotnewdeal.com/2017/03/09/179502_Costco_Members_Netgear_Orbi_Home_AC3000_TriBand_/20%Monthly2017-03-09 07:35
http://www.hotnewdeal.com/2017/03/09/179501_Danmaku_Unlimited_2_Free_normally_499_Android_/20%Monthly2017-03-09 07:20
http://www.hotnewdeal.com/2017/03/09/179500_49_Sony_2160p__Smart__4K_Ultra_HD_TV_39999__/20%Monthly2017-03-09 07:09
http://www.hotnewdeal.com/2017/03/09/179499_Loot_Vault_Mystery_TShirt_Sale__595_plus_Free_/20%Monthly2017-03-09 07:09
http://www.hotnewdeal.com/2017/03/09/179498_Beats_Solo_3_Wireless_Headphones_Matte_Black_only/20%Monthly2017-03-09 05:29
http://www.hotnewdeal.com/2017/03/09/179497_SanDisk__Ultra_256GB_USB_30_Type_A_Flash_Drive_/20%Monthly2017-03-09 05:09
http://www.hotnewdeal.com/2017/03/09/179496_Nostalgia_Electrics_ShakeN_Pop_Popcorn_Popper_4/20%Monthly2017-03-09 03:26
http://www.hotnewdeal.com/2017/03/09/179495_Walmart_Stores_Get_a_4_Vudu_Movie_Code_w_Purcha/20%Monthly2017-03-09 01:31
http://www.hotnewdeal.com/2017/03/09/179494_Under_Armour_Mens_HeatGear_Sonic_Fitted_Shirt_14/20%Monthly2017-03-09 01:30
http://www.hotnewdeal.com/2017/03/09/179493_Apple_Macbook_Pro_133_2015_i5_8GB_128GB__/20%Monthly2017-03-09 01:09
http://www.hotnewdeal.com/2017/03/09/179492_Sony_Xperia_XZ__Unlocked_Smartphone__32GB__Mine/20%Monthly2017-03-09 01:09
http://www.hotnewdeal.com/2017/03/09/179491_New_Open_Box_Dell_Inspiron_3650_I76700_16GB_2TB_R/20%Monthly2017-03-09 01:09
http://www.hotnewdeal.com/2017/03/09/179490_Nixeus_NXVUE27P_2560x1440p_AHIPS_LED_Monitor_28/20%Monthly2017-03-09 01:09
http://www.hotnewdeal.com/2017/03/09/179489_NCAA_Hover_Helmets_on_Sale_via_Amazon_various_tea/20%Monthly2017-03-09 00:17
http://www.hotnewdeal.com/2017/03/09/179488_VUDU__50_Off_Heroine_Sale__Today_Only_382017/20%Monthly2017-03-09 00:00
http://www.hotnewdeal.com/2017/03/08/179487_60W_12A_6_Port_Desktop_Charger_with_Auto_Detect_Te/20%Monthly2017-03-08 23:56
http://www.hotnewdeal.com/2017/03/08/179486_Target_Merona_Womens_Ponte_Blazer_898__Free_/20%Monthly2017-03-08 23:37
http://www.hotnewdeal.com/2017/03/08/179485_Red_Pocket_now_offering_lightuse_10month_plan_o/20%Monthly2017-03-08 23:28
http://www.hotnewdeal.com/2017/03/08/179484_79999_Samsung_55_Inch_Curved_4K_Ultra_HD_Smart_T/20%Monthly2017-03-08 23:28
http://www.hotnewdeal.com/2017/03/08/179483_Martha_Stewart_Living_Storage_Bench_3840/20%Monthly2017-03-08 22:57
http://www.hotnewdeal.com/2017/03/08/179482_Nikon_D810_Body_only_grey_market_1879/20%Monthly2017-03-08 22:43
http://www.hotnewdeal.com/2017/03/08/179481_Nikon_Factory_Refurbished_D750_FXFormat_DSLR_Body/20%Monthly2017-03-08 22:33
http://www.hotnewdeal.com/2017/03/08/179480_GCU_Members_Titanfall_2_PS4_or_Xbox_One_1599_/20%Monthly2017-03-08 22:19
http://www.hotnewdeal.com/2017/03/08/179479_CUISINART_DEALS__Cuisinart_Compact_Digital_Toaste/20%Monthly2017-03-08 22:19
http://www.hotnewdeal.com/2017/03/08/179477_DuroMax_10000_Watt_Hybrid_Dual_Fuel_Portable_Gas_P/20%Monthly2017-03-08 21:41
http://www.hotnewdeal.com/2017/03/08/179476_Lifetime_Plex_Pass_for_11999/20%Monthly2017-03-08 21:41
http://www.hotnewdeal.com/2017/03/08/179475_Marriott_Rewards__Starwood_Preferred_Guest_Spring/20%Monthly2017-03-08 21:37
http://www.hotnewdeal.com/2017/03/08/179474_New_Sony_DualShock_4_Wireless_Controller_Jet_Blac/20%Monthly2017-03-08 21:37
http://www.hotnewdeal.com/2017/03/08/179473_150_Home_Depot_Husky_62_Adjustable_Workbench_Tab/20%Monthly2017-03-08 21:28
http://www.hotnewdeal.com/2017/03/08/179472_Polk_Signature_Speaker_Bundle_Pair_of_S60_Floors/20%Monthly2017-03-08 21:20
http://www.hotnewdeal.com/2017/03/08/179471_APEC_Essence_Ultra_Safe_Reverse_Osmosis_Drinking_W/20%Monthly2017-03-08 21:14
http://www.hotnewdeal.com/2017/03/08/179470_Apple_Watch_Sport_1st_Gen_Series_0_42mm_for_166/20%Monthly2017-03-08 21:10
http://www.hotnewdeal.com/2017/03/08/179469_ANEWKODI_24GHz_Rechargeable_Wireless_Mini_Keyboar/20%Monthly2017-03-08 21:10
http://www.hotnewdeal.com/2017/03/08/179468_Nutrition_ISO_93_protein_isolate_10lbs_6349_incl/20%Monthly2017-03-08 20:56
http://www.hotnewdeal.com/2017/03/08/179467_Graco_4Ever_AllinOne_Convertible_Car_Seat_Matri/20%Monthly2017-03-08 20:48
http://www.hotnewdeal.com/2017/03/08/179466_Galaxyhydro_300w_LED_Grow_Plant_Light_for_5809_/20%Monthly2017-03-08 20:48
http://www.hotnewdeal.com/2017/03/08/179465_Samsung_Fast_Charge_DualPort_Car_Charger__Retail/20%Monthly2017-03-08 20:41
http://www.hotnewdeal.com/2017/03/08/179464_15_back_in_Shop_Your_Way_SYW_points_for_30_pu/20%Monthly2017-03-08 20:41
http://www.hotnewdeal.com/2017/03/08/179463_Toddler_Girls_Short_Sleeve_Glitter_Daddys_Lucky_/20%Monthly2017-03-08 20:34
http://www.hotnewdeal.com/2017/03/08/179461_VTech_SitToStand_Ultimate_Alphabet_Train_2311_/20%Monthly2017-03-08 20:25
http://www.hotnewdeal.com/2017/03/08/179460_Avexir_Core_Series_16GB_DDR4_2400_for_7990_also/20%Monthly2017-03-08 20:25
http://www.hotnewdeal.com/2017/03/08/179458_ASUS_ROG_Strix_GL502VSDS71_Gaming_Laptop_Intel_C/20%Monthly2017-03-08 20:17
http://www.hotnewdeal.com/2017/03/08/179457_Uber_Flat_Fare_30Day_Ride_Package__NYC_299_Ub/20%Monthly2017-03-08 20:17
http://www.hotnewdeal.com/2017/03/08/179456_Regal_Cinemas_20_eGift_Card_for_10__Groupon_Ta/20%Monthly2017-03-08 20:08
http://www.hotnewdeal.com/2017/03/08/179455_Sheffield_2pc_Precision_Tool_Set_12in1_Folding_/20%Monthly2017-03-08 20:08
http://www.hotnewdeal.com/2017/03/08/179454_Refurbished_Asus_RTAC3100_AC3100_DualBand_Wirele/20%Monthly2017-03-08 20:03
http://www.hotnewdeal.com/2017/03/08/179453_1_gallon_organic_refined_coconut_oil_1879_free_s/20%Monthly2017-03-08 19:59
http://www.hotnewdeal.com/2017/03/08/179452_Garnier_Olia_Oil_Powered_Permanent_Hair_Color_30/20%Monthly2017-03-08 19:59
http://www.hotnewdeal.com/2017/03/08/179451_Precious_Cat_Ultra_Premium_Clumping_Cat_Litter_13/20%Monthly2017-03-08 19:48
http://www.hotnewdeal.com/2017/03/08/179450_Cracker_Barrel_Gift_Cards_40_Off_25_For_15__/20%Monthly2017-03-08 19:18
http://www.hotnewdeal.com/2017/03/08/179449_iClever_Aluminum_Alloy_Ultra_Slim_Bluetooth_40_Du/20%Monthly2017-03-08 19:18
http://www.hotnewdeal.com/2017/03/08/179448_1MORE_Triple_Driver_Titanium_on_sale_for_8499_at/20%Monthly2017-03-08 18:47
http://www.hotnewdeal.com/2017/03/08/179447_Logitech__K830_Illuminated_Keyboard__Black_499/20%Monthly2017-03-08 18:42
http://www.hotnewdeal.com/2017/03/08/179446_The_Legend_of_Zelda_Breath_of_the_Wild_The_Compl/20%Monthly2017-03-08 18:39
http://www.hotnewdeal.com/2017/03/08/179445_Titanfall_2_Deluxe_Version_PS4_Physical_Disc_249/20%Monthly2017-03-08 18:26
http://www.hotnewdeal.com/2017/03/08/179444_Hertz_Special_Spring_Break_Pricing_up_to_45_sav/20%Monthly2017-03-08 18:00
http://www.hotnewdeal.com/2017/03/08/179443_Yale_Real_Living_Keyless_Push_Button_Deadbolt_with/20%Monthly2017-03-08 17:43
http://www.hotnewdeal.com/2017/03/08/179442_Free_Stacys_Pita_Chips/20%Monthly2017-03-08 17:38
http://www.hotnewdeal.com/2017/03/08/179441_Prime_Members_Keurig_SingleServe_KCup_Pods_Var/20%Monthly2017-03-08 17:38
http://www.hotnewdeal.com/2017/03/08/179440_Olympus_Outlet__Spring_sale_MZuiko_25mm_f18_1/20%Monthly2017-03-08 17:11
http://www.hotnewdeal.com/2017/03/08/179439_Neiman_Marcus_Mens_J_Brand_Kane_Industrial_Relax/20%Monthly2017-03-08 16:50
http://www.hotnewdeal.com/2017/03/08/179438_Samsonite_Luggage_from_79_w_FS__BuyDig/20%Monthly2017-03-08 16:43
http://www.hotnewdeal.com/2017/03/08/179437_Peets_Coffee__Tea_Printable_Coupon_Enjoy_50_of/20%Monthly2017-03-08 16:42
http://www.hotnewdeal.com/2017/03/08/179436_Boston_to_New_Delhi_India_with_a_long_layover_in_L/20%Monthly2017-03-08 16:42
http://www.hotnewdeal.com/2017/03/08/179435_Sonos_PLAY3__255_w_Prime__Amazoncom/20%Monthly2017-03-08 16:34
http://www.hotnewdeal.com/2017/03/08/179434_Jabra_Step_SweatProof_Bluetooth_Sport_Earbud_Head/20%Monthly2017-03-08 16:34
http://www.hotnewdeal.com/2017/03/08/179433_AllClad_Factory_Seconds_Sale/20%Monthly2017-03-08 16:34
http://www.hotnewdeal.com/2017/03/08/179432_Kohls_Cardholders_Star_Wars_Pint_Glass_377__fr/20%Monthly2017-03-08 16:26
http://www.hotnewdeal.com/2017/03/08/179431_Up_To_65_Off__Extra_25_w_Free_Shipping_50_on/20%Monthly2017-03-08 16:04
http://www.hotnewdeal.com/2017/03/08/179430_38_New_Wells_Fargo_New_Checking_Customers_Depo/20%Monthly2017-03-08 15:59
http://www.hotnewdeal.com/2017/03/08/179429_52mm_VU_Sion_UV_Filter_13_77mm_VU_Sion_Slim_Circ/20%Monthly2017-03-08 15:47
http://www.hotnewdeal.com/2017/03/08/179427_GCU_Members_Sword_Art_Online_Hollow_Realization_/20%Monthly2017-03-08 15:47
http://www.hotnewdeal.com/2017/03/08/179426_Prime_Members_Monoprice_6_USB_20_Extension_Cabl/20%Monthly2017-03-08 15:39
http://www.hotnewdeal.com/2017/03/08/179425_Schlage_Connect_Touchscreen_Deadbolt_Camelot__Sa/20%Monthly2017-03-08 15:32
http://www.hotnewdeal.com/2017/03/08/179424_Nitecore_EA81_LED_Search_Light_40004500K_or_6000/20%Monthly2017-03-08 15:32
http://www.hotnewdeal.com/2017/03/08/179423_Brenthaven_Elliot_Slim_Brief_for_154_Laptop_20_/20%Monthly2017-03-08 15:24
http://www.hotnewdeal.com/2017/03/08/179421_diamond_naturals_chicken_rice_formula_for_adult_do/20%Monthly2017-03-08 15:17
http://www.hotnewdeal.com/2017/03/08/179420_Zotac_GeForce_GTX_1080_AMP_edition_8GB_GDDR5X_vide/20%Monthly2017-03-08 14:55
http://www.hotnewdeal.com/2017/03/08/179419_Samsung_Galaxy_S6_32GB_51_Android_16MP_Verizon_f/20%Monthly2017-03-08 14:46
http://www.hotnewdeal.com/2017/03/08/179418_Greenworks_Electric_Lawn_Mower__Target_for_1072/20%Monthly2017-03-08 14:38
http://www.hotnewdeal.com/2017/03/08/179417_Sony_DualShock_4_Wireless_Controller_Silver_2016/20%Monthly2017-03-08 14:38
http://www.hotnewdeal.com/2017/03/08/179416_Nikon_D3300_Clearance_sale_With_1855mm_lens_walm/20%Monthly2017-03-08 14:38
http://www.hotnewdeal.com/2017/03/08/179415_40_Hisense_40H5B_1080p_Smart_LED_HDTV_Refurb/20%Monthly2017-03-08 14:38
http://www.hotnewdeal.com/2017/03/08/179414_Nordstrom_3_Pc_Skincare_Gift_3_Beauty_Samples_w/20%Monthly2017-03-08 14:31
http://www.hotnewdeal.com/2017/03/08/179413_Choetech_USB_Type_C_Cables_6Pk_Type_C_to_Type_C_/20%Monthly2017-03-08 14:31
http://www.hotnewdeal.com/2017/03/08/179412_Xiaomi_Mi_Band_2_Smart_Bracelet_Black_for_1999/20%Monthly2017-03-08 14:31
http://www.hotnewdeal.com/2017/03/08/179411_AUKEY_20000mAh_USB_Power_Bank_w_Apple_Lightning_P/20%Monthly2017-03-08 14:23
http://www.hotnewdeal.com/2017/03/08/179410_Quest_cereal_bar_variety_pack_15_bars_1997_fre/20%Monthly2017-03-08 14:16
http://www.hotnewdeal.com/2017/03/08/179408_Nerf_Rival_Khaos_MXVI4000_Blaster__4759/20%Monthly2017-03-08 13:59
http://www.hotnewdeal.com/2017/03/08/179407_MICHAEL_Michael_Kors_Emry_ExtraLarge_Leather_Tot/20%Monthly2017-03-08 13:59
http://www.hotnewdeal.com/2017/03/08/179406_Viking_River_Cruises_2_For_1_Cruise_Fare_with_Free/20%Monthly2017-03-08 13:47
http://www.hotnewdeal.com/2017/03/08/179405_Dell_Mass_Effect_Andromeda_XB1PS4Windows_599/20%Monthly2017-03-08 13:39
http://www.hotnewdeal.com/2017/03/08/179403_Hamilton_Beach_35Quart_Orbital_Stand_Mixer_for_/20%Monthly2017-03-08 13:39
http://www.hotnewdeal.com/2017/03/08/179402_100_Southwest_Airlines_Gift_Card_for_only_90__F/20%Monthly2017-03-08 13:24
http://www.hotnewdeal.com/2017/03/08/179401_Pampers_swaddlers_size_5_152_count_for_3198__W/20%Monthly2017-03-08 13:24
http://www.hotnewdeal.com/2017/03/08/179400_Acer_Swift_3_14_I57200U_8GB_DDR4_memory_256_GB_S/20%Monthly2017-03-08 13:17
http://www.hotnewdeal.com/2017/03/08/179399_Promax_protein_bars_12_pack_1329_free_shipping/20%Monthly2017-03-08 13:17
http://www.hotnewdeal.com/2017/03/08/179398_Dell_23_Monitor__S2316H_for_12999__a_75_Dell_/20%Monthly2017-03-08 13:08
http://www.hotnewdeal.com/2017/03/08/179397_40oz_Willow__Everett_Teapot_Kettle_with_Warmer__/20%Monthly2017-03-08 12:55
http://www.hotnewdeal.com/2017/03/08/179396_Samsung_55_Class_KS8000_8Series_4K_SUHD_TV_Model_/20%Monthly2017-03-08 12:38
http://www.hotnewdeal.com/2017/03/08/179395_National_Geographic_Readers_Caterpillar_to_Butter/20%Monthly2017-03-08 12:32
http://www.hotnewdeal.com/2017/03/08/179394_New_Dell_Inspiron_15_7467_Gaming_156_1080P_TN_i/20%Monthly2017-03-08 12:32
http://www.hotnewdeal.com/2017/03/08/179393_Discount_tire_direct_offers_100_off_450_wcoupo/20%Monthly2017-03-08 12:24
http://www.hotnewdeal.com/2017/03/08/179391_Pampers_Baby_Dry_Diapers_Size_6_128_Count_1740_/20%Monthly2017-03-08 12:08
http://www.hotnewdeal.com/2017/03/08/179390_Amcrest_ProHD_1080p_WiFi_Security_Camera_Black_/20%Monthly2017-03-08 12:08
http://www.hotnewdeal.com/2017/03/08/179389_Toes_Ears__Nose_A_LifttheFlap_Book_349__/20%Monthly2017-03-08 12:08
http://www.hotnewdeal.com/2017/03/08/179388_Purchase_a_Freezer_get_190_in_food_FREE_the_cos/20%Monthly2017-03-08 12:08
http://www.hotnewdeal.com/2017/03/08/179387_Lenovo_ThinkServer_RD450_70QQ0015UX_2U_Rack_Server/20%Monthly2017-03-08 12:08
http://www.hotnewdeal.com/2017/03/08/179386_Balance_bars_10pack_428_free_shipping/20%Monthly2017-03-08 11:48
http://www.hotnewdeal.com/2017/03/08/179385_Amazon_Kill_Bill_Vol_1_Kill_Bill_Vol_2__Doubl/20%Monthly2017-03-08 11:40
http://www.hotnewdeal.com/2017/03/08/179384_Amazon_Schindlers_List_20th_Anniversary_Bluray/20%Monthly2017-03-08 11:40
http://www.hotnewdeal.com/2017/03/08/179383_Walmart_Healthtex_Baby_Toddler_Girl_2T4T_Only_/20%Monthly2017-03-08 11:18
http://www.hotnewdeal.com/2017/03/08/179382_100_Cabelas_Gift_Card_For_80_FREE_Mail_Delivery/20%Monthly2017-03-08 11:18
http://www.hotnewdeal.com/2017/03/08/179381_The_First_Years_Quick_Serve_Bottle_Warmer_714__/20%Monthly2017-03-08 11:09
http://www.hotnewdeal.com/2017/03/08/179380_ESPN_Magazine_PrintDigital_just_4_per_year_wh/20%Monthly2017-03-08 11:09
http://www.hotnewdeal.com/2017/03/08/179379_Set_Of_5_Baby_Stuffies_With_Friendship_Bracelets_/20%Monthly2017-03-08 10:56
http://www.hotnewdeal.com/2017/03/08/179378_Dell_E514DW_Multifunction_Mono_Laser_Printer_83_/20%Monthly2017-03-08 10:39
http://www.hotnewdeal.com/2017/03/08/179377_Avexir_Core_Series_16GB_DDR4_2400_Desktop_Memory_M/20%Monthly2017-03-08 10:33
http://www.hotnewdeal.com/2017/03/08/179376_Catan_5th_Edition__2798_Free_Shipping_with_Prim/20%Monthly2017-03-08 10:24
http://www.hotnewdeal.com/2017/03/08/179375_Zojirushi_NHS18_10Cup_Rice_CookerSteamer__45_/20%Monthly2017-03-08 10:24
http://www.hotnewdeal.com/2017/03/08/179374_30lb_Blue_Buffalo_Dry_Adult_Dog_Food_Chicken__Br/20%Monthly2017-03-08 10:17
http://www.hotnewdeal.com/2017/03/08/179373_Dell_e310dw_Wireless_Monochrome_Laser_Printer_50/20%Monthly2017-03-08 10:17
http://www.hotnewdeal.com/2017/03/08/179372_Samsonite_Garment_Bag_w_Bonus_Shoe_Cleaning_Mitt_/20%Monthly2017-03-08 10:17
http://www.hotnewdeal.com/2017/03/08/179371_Razor_Jr_Folding_Kiddie_Kick_Scooter__Pink__Ama/20%Monthly2017-03-08 09:59
http://www.hotnewdeal.com/2017/03/08/179370_YMMV_Contigo_20fl_oz_Stainless_Steel_Travel_Mug_M/20%Monthly2017-03-08 09:44
http://www.hotnewdeal.com/2017/03/08/179369_Martha_Stewart_Living_Fabric_Drawer_various_color/20%Monthly2017-03-08 09:40
http://www.hotnewdeal.com/2017/03/08/179368_2999_Nintendo_Switch_Game_Traveler_Deluxe_System/20%Monthly2017-03-08 09:40
http://www.hotnewdeal.com/2017/03/08/179367_Kohls_Mystery__Solve_this_Mystery_Will_you_get_/20%Monthly2017-03-08 09:18
http://www.hotnewdeal.com/2017/03/08/179366_ULTA_Eyeshadow_Palette__Full_Size_Mascara__Full_/20%Monthly2017-03-08 09:18
http://www.hotnewdeal.com/2017/03/08/179365_Lenovo_Ideacentre_300_Desktop_PC_Intel_Core_i564/20%Monthly2017-03-08 08:56
http://www.hotnewdeal.com/2017/03/08/179364_Metal_Gear_Solid_V_The_Phantom_Pain_PC_Digital_D/20%Monthly2017-03-08 08:47
http://www.hotnewdeal.com/2017/03/08/179363_Aquasana_3Stage_Under_Sink_Water_Filter_System_wi/20%Monthly2017-03-08 08:39
http://www.hotnewdeal.com/2017/03/08/179362_Bosch_12_DualBevel_Glide_Miter_Saw_45400_YMMV_/20%Monthly2017-03-08 08:39
http://www.hotnewdeal.com/2017/03/08/179361_iProtecting_Emergency_Survival_Bag_119_pcs1497/20%Monthly2017-03-08 08:32
http://www.hotnewdeal.com/2017/03/08/179360_Gymboree_Baby_Mouse_Plush_Rattle_250__More__F/20%Monthly2017-03-08 08:24
http://www.hotnewdeal.com/2017/03/08/179358_Garnier_SkinActive_Moisture_Rescue_Refreshing_Gel/20%Monthly2017-03-08 08:17
http://www.hotnewdeal.com/2017/03/08/179357_MSI_GeForce_GTX_1080_Gaming_Edition_8GB_256Bit_GD/20%Monthly2017-03-08 08:17
http://www.hotnewdeal.com/2017/03/08/179356_ACDelco_Windshield_Wiper_Blades__Starting_at_12/20%Monthly2017-03-08 07:59
http://www.hotnewdeal.com/2017/03/08/179355_Maybelline_Cosmetics_Lip_Balm_from_144_Mascara/20%Monthly2017-03-08 07:59
http://www.hotnewdeal.com/2017/03/08/179354_2_Pack__24ft__Hammock_Tree_Straps_Portable_Backp/20%Monthly2017-03-08 07:59
http://www.hotnewdeal.com/2017/03/08/179353_Matfer_Bourgeat_Black_Steel_1014_inch_Frying_Pan/20%Monthly2017-03-08 07:48
http://www.hotnewdeal.com/2017/03/08/179352_Resident_Evil_7_Biohazard_PS4_or_Xbox_One_399/20%Monthly2017-03-08 07:48
http://www.hotnewdeal.com/2017/03/08/179351_Waterproof_Wireless_Solar_Motion_Sensor_Night_Ligh/20%Monthly2017-03-08 07:48
http://www.hotnewdeal.com/2017/03/08/179350_WiFi_Range_Extender_Wireless_Repeater_Router_Dual_/20%Monthly2017-03-08 07:43
http://www.hotnewdeal.com/2017/03/08/179349_68oz_LOreal_Paris_Ideal_Clean_Foaming_Gel_Facial/20%Monthly2017-03-08 07:24
http://www.hotnewdeal.com/2017/03/08/179348_16Count_Brawny_XL_PickASize_Paper_Towels_2065/20%Monthly2017-03-08 07:09
http://www.hotnewdeal.com/2017/03/08/179347_4999_Brother_Monochrome_Laser_Printer_HLL2320D/20%Monthly2017-03-08 07:09
http://www.hotnewdeal.com/2017/03/08/179346_Asus_RX_470_possible_111xx_without_tax__deal_is/20%Monthly2017-03-08 07:09
http://www.hotnewdeal.com/2017/03/08/179344_BlueTech_AV1000_Rechargeable_Battery_Charger_with/20%Monthly2017-03-08 06:08
http://www.hotnewdeal.com/2017/03/08/179343_2Light_Brushed_Nickel_Retro_Vanity_Light_for_40_/20%Monthly2017-03-08 06:03
http://www.hotnewdeal.com/2017/03/08/179342_Prime_Members_12Count_of_159oz_Curate_GlutenFr/20%Monthly2017-03-08 05:31
http://www.hotnewdeal.com/2017/03/08/179341_Target_5_Target_gift_card_w_household_essential/20%Monthly2017-03-08 05:12
http://www.hotnewdeal.com/2017/03/08/179340_MSI_GL62M_7RD058_156_1080p_Laptop_w_Intel_Core/20%Monthly2017-03-08 05:12
http://www.hotnewdeal.com/2017/03/08/179339_Chemical_Guys_Mr_Pink_Super_Suds_Car_Wash_Soap_an/20%Monthly2017-03-08 03:08
http://www.hotnewdeal.com/2017/03/08/179337_Philips_Hue_Bridge_New_2nd_gen_3999__tax/20%Monthly2017-03-08 01:29
http://www.hotnewdeal.com/2017/03/08/179336_AVG_Protection_2017_Unlimited_Devices__2_YearwP/20%Monthly2017-03-08 01:08
http://www.hotnewdeal.com/2017/03/08/179335_Sikebo_Icon_Packs_and_more_on_sale_for_free_0_An/20%Monthly2017-03-08 01:08
http://www.hotnewdeal.com/2017/03/08/179334_AliExpresscom_Sitewide_Coupon_Code_14_off_60_/20%Monthly2017-03-08 01:08
http://www.hotnewdeal.com/2017/03/08/179333_The_Departed_Bluray_599_at_Amazoncom/20%Monthly2017-03-08 01:08
http://www.hotnewdeal.com/2017/03/08/179332_32GB_LeEco_Le_S3_4G_Unlocked_Smartphone_Gold_or_R/20%Monthly2017-03-08 00:16
http://www.hotnewdeal.com/2017/03/08/179331_Jumper_EZpad_6_Tablet_PC_Notebook_Laptop_Intel_Che/20%Monthly2017-03-08 00:16
http://www.hotnewdeal.com/2017/03/07/179330_72_oz_Chorox_Control_Bleach_Crystals_as_low_as_7/20%Monthly2017-03-07 23:48
http://www.hotnewdeal.com/2017/03/07/179329_OutdoorMaster_Ski_Goggles_Frameless_Interchangeabl/20%Monthly2017-03-07 23:48
http://www.hotnewdeal.com/2017/03/07/179328_Samsung_60_Inch_4K_Ultra_HD_Smart_TV_UN60KS8000__/20%Monthly2017-03-07 23:48
http://www.hotnewdeal.com/2017/03/07/179327_2412_Prime_Pampers_Swaddlers_Diapers_Size_4_164/20%Monthly2017-03-07 23:09
http://www.hotnewdeal.com/2017/03/07/179326_Inateck_3Pack_33Ft_1M_Nylon_Braided_USBC_to_US/20%Monthly2017-03-07 23:09
http://www.hotnewdeal.com/2017/03/07/179325_Dickies_Mens_Sanded_Duck_Sherpa_Lined_Hooded_Jack/20%Monthly2017-03-07 22:57
http://www.hotnewdeal.com/2017/03/07/179324_American_Tourister_Disneys_The_Good_Dinosaur_18_/20%Monthly2017-03-07 22:47
http://www.hotnewdeal.com/2017/03/07/179323_Moto_Z_play_299month_Bill_Credits_Verizon/20%Monthly2017-03-07 22:27
http://www.hotnewdeal.com/2017/03/07/179322_DEWALT_Ratcheting_Combination_Wrenches_from_250/20%Monthly2017-03-07 22:00
http://www.hotnewdeal.com/2017/03/07/179321_EBBO_Replacement_for_HP_950XL_951XL_Ink_Cartridges/20%Monthly2017-03-07 22:00
http://www.hotnewdeal.com/2017/03/07/179320_Nautica_Polarized_Mens_Aviator_Sunglasses_32__f/20%Monthly2017-03-07 21:49
http://www.hotnewdeal.com/2017/03/07/179319_New_Raisecom_Customers_10_Off_20_Target_Gift_/20%Monthly2017-03-07 21:35
http://www.hotnewdeal.com/2017/03/07/179318_Tacklife_CT02_Network_Cable_Tester_RJ45_RJ11_CAT5_/20%Monthly2017-03-07 21:35
http://www.hotnewdeal.com/2017/03/07/179317_692_CrockPot_2_Qt_Slow_Cooker__SCR200/20%Monthly2017-03-07 21:27
http://www.hotnewdeal.com/2017/03/07/179316_30999__Ryzen_1700_8Core_30GHz_Desktop_Process/20%Monthly2017-03-07 21:19
http://www.hotnewdeal.com/2017/03/07/179315_Set_of_4_Drawer_Organizers_Beige__719__Free_/20%Monthly2017-03-07 21:09
http://www.hotnewdeal.com/2017/03/07/179314_Sony_PlayStation_DualShock_4_Charging_Station_PS4/20%Monthly2017-03-07 20:56
http://www.hotnewdeal.com/2017/03/07/179313_Cytosport_protein_2lbs_999_free_shipping/20%Monthly2017-03-07 20:38
http://www.hotnewdeal.com/2017/03/07/179312_AllClad_12_Stainless_Steel_Frying_Pan_with_Lid_/20%Monthly2017-03-07 20:35
http://www.hotnewdeal.com/2017/03/07/179311_Disney_Princess_Sparkling_Cinderella_Doll_for_44/20%Monthly2017-03-07 20:35
http://www.hotnewdeal.com/2017/03/07/179310_STRAFE_Mechanical_Gaming_Keyboard__Cherry_MX_Red_/20%Monthly2017-03-07 20:27
http://www.hotnewdeal.com/2017/03/07/179309_LEGO_Star_Wars_TIE_Striker_75154__49_Amazon/20%Monthly2017-03-07 20:26
http://www.hotnewdeal.com/2017/03/07/179308_50_Hisense_50H8C_4K_UHD_HDR_Smart_LED_HDTV_Refur/20%Monthly2017-03-07 20:08
http://www.hotnewdeal.com/2017/03/07/179307_Propel_Drinking_Water_12_pk__538__Prime_Add/20%Monthly2017-03-07 20:08
http://www.hotnewdeal.com/2017/03/07/179306_UO_Mens_Canvas_Plimsoll_Sneakers_5__Free_shippi/20%Monthly2017-03-07 20:08
http://www.hotnewdeal.com/2017/03/07/179305_Free_Shutterfly_Photobook_with_any_purchase_at_Joa/20%Monthly2017-03-07 20:08
http://www.hotnewdeal.com/2017/03/07/179304_TPLink_AC1900_Archer_C9_DualBand_Gigabit_Router_/20%Monthly2017-03-07 19:48
http://www.hotnewdeal.com/2017/03/07/179303_5_Gallon_Portable_Toilet_Flush_Travel__Toilet_4/20%Monthly2017-03-07 19:33
http://www.hotnewdeal.com/2017/03/07/179301_AllClad_Stainless_Steel_3Quart_Saute_Pan_80__f/20%Monthly2017-03-07 19:25
http://www.hotnewdeal.com/2017/03/07/179300_Shimano_Nexave_FD_Spinning_Reel__25__Free_Shipp/20%Monthly2017-03-07 18:56
http://www.hotnewdeal.com/2017/03/07/179299_AMD_Ryzen_7_1700X_for_37999_and_Ryzen_7_1700_for/20%Monthly2017-03-07 18:56
http://www.hotnewdeal.com/2017/03/07/179298_Shop_Your_Way_MembersFree_22_surpise_points_to_u/20%Monthly2017-03-07 18:47
http://www.hotnewdeal.com/2017/03/07/179297_Fender_Passport_Studio_Speakers_w_Focal_Driver_p/20%Monthly2017-03-07 18:39
http://www.hotnewdeal.com/2017/03/07/179296__7_LEVIS_Pants__Tjmaxx/20%Monthly2017-03-07 18:32
http://www.hotnewdeal.com/2017/03/07/179295_YMMV_Uber_Flat_Fare_Los_Angeles_Area_1020_p/20%Monthly2017-03-07 18:24
http://www.hotnewdeal.com/2017/03/07/179294_Chemical_Guys_10_Best_Selling_kit_for_99__Ebay/20%Monthly2017-03-07 18:17
http://www.hotnewdeal.com/2017/03/07/179293_Superlux_HD660_Closed_Monitor_Headphones_2631_/20%Monthly2017-03-07 18:17
http://www.hotnewdeal.com/2017/03/07/179292_RayBan_Polarized_Black_Calfskin_Leather_Wayfarer_/20%Monthly2017-03-07 17:25
http://www.hotnewdeal.com/2017/03/07/179291_CHEAP_FILLER_LOreal_Paris_Excellence_Creme_6CB_/20%Monthly2017-03-07 17:09
http://www.hotnewdeal.com/2017/03/07/179290_Cube_iWork1x_116_Windows_10_Tablet_1080p_IPS_I/20%Monthly2017-03-07 16:56
http://www.hotnewdeal.com/2017/03/07/179289_Plantronics_Gaming_Headset_Black__Tom_Clancys_/20%Monthly2017-03-07 16:47
http://www.hotnewdeal.com/2017/03/07/179288_Magnetic_PU_Leather_Stand_Cover_For_Apple_iPad_Pro/20%Monthly2017-03-07 16:47
http://www.hotnewdeal.com/2017/03/07/179287_Humble_Jumbo_Bundle_8_Pay_What_You_Want__minimum/20%Monthly2017-03-07 16:40
http://www.hotnewdeal.com/2017/03/07/179286_Step2_2in1_Tball__Golf_Set_1189__free_shipp/20%Monthly2017-03-07 16:33
http://www.hotnewdeal.com/2017/03/07/179285_San_Francisco_or_Los_Angeles_to_Australia_for_725/20%Monthly2017-03-07 16:25
http://www.hotnewdeal.com/2017/03/07/179284_Sierra_Backpacks_Sale__50_Off_from_850__5_f/20%Monthly2017-03-07 16:19
http://www.hotnewdeal.com/2017/03/07/179283_AMD_Ryzen_7_1700_for_309_279_webay_bucks_and_R/20%Monthly2017-03-07 16:17
http://www.hotnewdeal.com/2017/03/07/179282_Nikon_Factory_Refurbished_D3300_242MP_1080p_Digit/20%Monthly2017-03-07 16:17
http://www.hotnewdeal.com/2017/03/07/179281_Generic_HDMI_Cable_2M_6_Feet_102_Free_Shipping/20%Monthly2017-03-07 16:08
http://www.hotnewdeal.com/2017/03/07/179280_Have_one_to_sell_Sell_now_Canon_Pixma_MG2522_All/20%Monthly2017-03-07 15:48
http://www.hotnewdeal.com/2017/03/07/179279_Speck_Kargo_backpack_made_by_Samsonite_2994_with/20%Monthly2017-03-07 15:40
http://www.hotnewdeal.com/2017/03/07/179278_792_Pack_of_5__Family_Care_Clotrimazole_Anti_Fu/20%Monthly2017-03-07 15:40
http://www.hotnewdeal.com/2017/03/07/179277_Acer_K202HQL_195_class_VGA__DVI_5ms_Widescreen_M/20%Monthly2017-03-07 15:40
http://www.hotnewdeal.com/2017/03/07/179276_Tom_Clancys_Ghost_Recon_Wildlands_PS4_or_XBox_On/20%Monthly2017-03-07 15:26
http://www.hotnewdeal.com/2017/03/07/179275_Kurt_Vonnegut_Hocus_Pocus_Kindle_Edition_199_/20%Monthly2017-03-07 15:18
http://www.hotnewdeal.com/2017/03/07/179274_Walmart_Bike_Clearance_YMMV_BM_Many_Models_75_Of/20%Monthly2017-03-07 15:09
http://www.hotnewdeal.com/2017/03/07/179273_Klipsch_Image_S4A_II_InEar_NoiseIsolating_Headph/20%Monthly2017-03-07 14:56
http://www.hotnewdeal.com/2017/03/07/179272_Xiaomi_Miband_2_USB_Charging_Cable_033__free_sh/20%Monthly2017-03-07 14:56
http://www.hotnewdeal.com/2017/03/07/179271_28_Off_APS_Mesomorph__All_Other_Preworkouts_min/20%Monthly2017-03-07 14:56
http://www.hotnewdeal.com/2017/03/07/179270_BH_50_off_deals/20%Monthly2017-03-07 14:47
http://www.hotnewdeal.com/2017/03/07/179269_4Pack_of_80Count_Lysol_Disinfecting_Wipes_Lemon/20%Monthly2017-03-07 14:47
http://www.hotnewdeal.com/2017/03/07/179268_Walmart_Girls_Licensed_Character_PJs_various_st/20%Monthly2017-03-07 14:47
http://www.hotnewdeal.com/2017/03/07/179267_128_GB_Corsair_Voyager_Slider_X1_USB_30_Flash_Dri/20%Monthly2017-03-07 14:47
http://www.hotnewdeal.com/2017/03/07/179266_Nike_vapor_untouchable_pro_20_fs/20%Monthly2017-03-07 14:39
http://www.hotnewdeal.com/2017/03/07/179265_Calvin_klein_womens_coats_from_various_styles_o/20%Monthly2017-03-07 14:32
http://www.hotnewdeal.com/2017/03/07/179264_Jabra_Sport_Pulse_Bluetooth_Headset_w_Heart_Rate_/20%Monthly2017-03-07 14:18
http://www.hotnewdeal.com/2017/03/07/179263_Refurbished_JBL_Yurbuds_Wireless_Earphones_for_11/20%Monthly2017-03-07 14:18
http://www.hotnewdeal.com/2017/03/07/179262_Frys_Kaspersky_Internet_Security_2017_3_Dev1_Yr_/20%Monthly2017-03-07 14:17
http://www.hotnewdeal.com/2017/03/07/179261_Zone_perfect_protein_bars_12_pack_681_free_shipp/20%Monthly2017-03-07 14:08
http://www.hotnewdeal.com/2017/03/07/179260_Oscillating_Parabolic_Dish_Radiant_Heater__20__/20%Monthly2017-03-07 14:08
http://www.hotnewdeal.com/2017/03/07/179259_Verizon_Smart_Rewards_Members_5_Verizon_Wireless/20%Monthly2017-03-07 13:59
http://www.hotnewdeal.com/2017/03/07/179258_Starwars_collectibles_starting_at_299__Amazon_F/20%Monthly2017-03-07 13:59
http://www.hotnewdeal.com/2017/03/07/179257_Walmart__First_Alert_94_CuFt_BoltDown_Combina/20%Monthly2017-03-07 13:48
http://www.hotnewdeal.com/2017/03/07/179256_The_Wither_3_Wild_Hunt__Complete_Edition_25_and/20%Monthly2017-03-07 13:48
http://www.hotnewdeal.com/2017/03/07/179255_Surface_pro_3_i5_256gb_8gb_certified_refurbish/20%Monthly2017-03-07 13:40
http://www.hotnewdeal.com/2017/03/07/179254_1477_The_Resident_Evil_Collection_Bluray_at_W/20%Monthly2017-03-07 13:40
http://www.hotnewdeal.com/2017/03/07/179253_Call_of_Duty_Infinite_Warfare_PS4_61_off_2347_/20%Monthly2017-03-07 13:33
http://www.hotnewdeal.com/2017/03/07/179252_Wootcom_has_debranded_Samsung_SSD_drives_refur/20%Monthly2017-03-07 13:24
http://www.hotnewdeal.com/2017/03/07/179251_Blackstone_28_Outdoor_Griddle_Grill_100/20%Monthly2017-03-07 13:17
http://www.hotnewdeal.com/2017/03/07/179250_Cuisinart_DLC8SBCY_Pro_Custom_11Cup_Food_Process/20%Monthly2017-03-07 13:17
http://www.hotnewdeal.com/2017/03/07/179249_Lutron_Pico_Wireless_Remote_Control_For_Caseta_for/20%Monthly2017-03-07 12:56
http://www.hotnewdeal.com/2017/03/07/179248_Corsair_Obsidian_Series_250D_AluminumSteel_MiniI/20%Monthly2017-03-07 12:56
http://www.hotnewdeal.com/2017/03/07/179247_The_Atlantic_Magazine_Print__Digital_3Years_f/20%Monthly2017-03-07 12:55
http://www.hotnewdeal.com/2017/03/07/179246_Ringke_Cases_for_iPhone_77_Plus_LG_G6G5_Google/20%Monthly2017-03-07 12:32
http://www.hotnewdeal.com/2017/03/07/179245_dual_LGA_2011_tower_server_with_16_ram_slots__29/20%Monthly2017-03-07 12:24
http://www.hotnewdeal.com/2017/03/07/179244_ASICS_GELCUMULUS_18_Running_Shoes_72__40_OFF/20%Monthly2017-03-07 12:18
http://www.hotnewdeal.com/2017/03/07/179243_Dell_XPS_15_156_4K_Touch_Laptop_i7_Quad_Core_16/20%Monthly2017-03-07 12:08
http://www.hotnewdeal.com/2017/03/07/179242_24_Ounce_Bag_New_England_Coffee_Breakfast_Blend_G/20%Monthly2017-03-07 12:08
http://www.hotnewdeal.com/2017/03/07/179241_Samsung_UN55KU7000_55Inch_4K_Curved_UHD_LED_TV__/20%Monthly2017-03-07 11:59
http://www.hotnewdeal.com/2017/03/07/179240_Captain_Toad_Treasure_Tracker__Toad_amiibo_200/20%Monthly2017-03-07 11:59
http://www.hotnewdeal.com/2017/03/07/179239_50_IHOP_Gift_Card_for_40__FREE_Shipping__Amazo/20%Monthly2017-03-07 11:48
http://www.hotnewdeal.com/2017/03/07/179238_299__i77700k_at_Microcenter_in_store_only/20%Monthly2017-03-07 11:48
http://www.hotnewdeal.com/2017/03/07/179236_TurboTax_Deluxe_FedState_box_edition_3399_at_Wa/20%Monthly2017-03-07 11:48
http://www.hotnewdeal.com/2017/03/07/179235_Marantz_SG5B_DualPattern_Shotgun_Mic_1344_wPr/20%Monthly2017-03-07 11:48
http://www.hotnewdeal.com/2017/03/07/179234_Car_Magnetic_Air_Vent_Mount_3__free_shipping/20%Monthly2017-03-07 11:48
http://www.hotnewdeal.com/2017/03/07/179233_Acer_Aspire_156_i57200U_4GBRAM_1TB_version__/20%Monthly2017-03-07 11:40
http://www.hotnewdeal.com/2017/03/07/179231_50_Nike_Gift_Card_Digital_Delivery__Bonus_10_/20%Monthly2017-03-07 10:56
http://www.hotnewdeal.com/2017/03/07/179230_SOG_Key_Folding_Knife__15_Blade_Black_Stainles/20%Monthly2017-03-07 10:56
http://www.hotnewdeal.com/2017/03/07/179229_Intel_Core_i57500_for_17700/20%Monthly2017-03-07 10:42
http://www.hotnewdeal.com/2017/03/07/179228_10lbs_dymatize_elite_whey_protein_6269__799_sh/20%Monthly2017-03-07 10:35
http://www.hotnewdeal.com/2017/03/07/179227_JBL_Studio_520CBK_2Way_Dual_4Inch_Center_Channel/20%Monthly2017-03-07 10:34
http://www.hotnewdeal.com/2017/03/07/179226_Hamper_Hoops_by_WhamO_for_999_1598_Shipped_o/20%Monthly2017-03-07 10:18
http://www.hotnewdeal.com/2017/03/07/179225_Xbox_one_S_1TB_Gears_of_War__Walmart_24650/20%Monthly2017-03-07 10:18
http://www.hotnewdeal.com/2017/03/07/179224_5_for_a_10_Dunkin_Donuts_eGift_Card__Groupon_/20%Monthly2017-03-07 10:08
http://www.hotnewdeal.com/2017/03/07/179223_Best_Buy_SING_Blu_Ray_pre_order_with_extra_digital/20%Monthly2017-03-07 10:08
http://www.hotnewdeal.com/2017/03/07/179222_LifeProof_Nuud_Case_for_Samsung_Galaxy_S3__599_/20%Monthly2017-03-07 09:49
http://www.hotnewdeal.com/2017/03/07/179221_6Pack_Smart_Sheep_XL_Wool_Dryer_Balls_Reusable_N/20%Monthly2017-03-07 09:34
http://www.hotnewdeal.com/2017/03/07/179218_Disney_Challenge_5_Free_DMR_Points__1st_Monday_of/20%Monthly2017-03-07 08:56
http://www.hotnewdeal.com/2017/03/07/179217_ExOfficio_Mens_Cargo_Pants_2673pick_up_at_REI/20%Monthly2017-03-07 08:48
http://www.hotnewdeal.com/2017/03/07/179216_Amex_Offer_Spend_25_At_Carrabbas_Italian_Grill_/20%Monthly2017-03-07 08:35
http://www.hotnewdeal.com/2017/03/07/179215_IHOP_Restaurants_Short_Stack_of_Pancakes_Free_Va/20%Monthly2017-03-07 08:08
http://www.hotnewdeal.com/2017/03/07/179214_Mr_Buddy_Big_Buddy_Heater__Walmart__YMMV__50/20%Monthly2017-03-07 08:08
http://www.hotnewdeal.com/2017/03/07/179213_30Pack_of_15oz_SunChips_Variety_Pack_807_or_Le/20%Monthly2017-03-07 07:42
http://www.hotnewdeal.com/2017/03/07/179212_Logitech_M720_Triathalon_MultiDevice_Wireless_Mou/20%Monthly2017-03-07 07:28
http://www.hotnewdeal.com/2017/03/07/179211_Barbasol_Shave_Cream_Sensitive_Skin_Travel_Size_TS/20%Monthly2017-03-07 07:20
http://www.hotnewdeal.com/2017/03/07/179210_Xbox_One_S_1TB_Console_Gears_of_War_4_Bundle__Xbo/20%Monthly2017-03-07 07:10
http://www.hotnewdeal.com/2017/03/07/179209_6x_2L_of_Canda_Dry_for_6_or_whatever_your_local_/20%Monthly2017-03-07 05:09
http://www.hotnewdeal.com/2017/03/07/179208_2oz_Arrid_XX_Extra_Dry_Solid_Antiperspirant_Deodor/20%Monthly2017-03-07 04:09
http://www.hotnewdeal.com/2017/03/07/179207_Acronis_True_Image_2016_with_1_TB_Cloud_Storage_or/20%Monthly2017-03-07 04:09
http://www.hotnewdeal.com/2017/03/07/179206_JC_Penney__Stafford_Shirts_Regularly_36_to_60_/20%Monthly2017-03-07 03:26
http://www.hotnewdeal.com/2017/03/07/179205_Bestek_Backlit_Gaming_Mechanical_Keyboard_2572_/20%Monthly2017-03-07 03:25
http://www.hotnewdeal.com/2017/03/07/179204_Amazon_848998_LUNA_PROTEIN__Gluten_Free_Pro/20%Monthly2017-03-07 03:09
http://www.hotnewdeal.com/2017/03/07/179203_4Months_of_Google_Play_Music__YouTube_Red_Subscr/20%Monthly2017-03-07 02:10
http://www.hotnewdeal.com/2017/03/07/179202_Best_Buy_Space_Jam_20th_Anniversary_Edition_Bl/20%Monthly2017-03-07 02:10
http://www.hotnewdeal.com/2017/03/07/179201_Reebok_Coupon_NHL_Apparel_and_Accessories_50_Off/20%Monthly2017-03-07 02:09
http://www.hotnewdeal.com/2017/03/07/179200_Mosiso__Pro_Digital_Multifunction_Kitchen_Food_Sc/20%Monthly2017-03-07 02:09
http://www.hotnewdeal.com/2017/03/07/179199_Wonderful_Pistachios_Roasted_and_Salted_32oz_Ba/20%Monthly2017-03-07 01:31
http://www.hotnewdeal.com/2017/03/07/179198_Train_to_Busan_2016__Korean_Zombie_movie__96_f/20%Monthly2017-03-07 01:09
http://www.hotnewdeal.com/2017/03/07/179197_JBL_J55A_or_J55i_Factory_Recertified_Bold_Headphon/20%Monthly2017-03-07 01:09
http://www.hotnewdeal.com/2017/03/07/179196_ZIONOR_Lagopus_X4_Goggles_w_Magnet_Fast_Lens_Chan/20%Monthly2017-03-07 01:09
http://www.hotnewdeal.com/2017/03/07/179195_Health_Warrior_Chia_Bars_Chocolate_Peanut_Butter/20%Monthly2017-03-07 00:18
http://www.hotnewdeal.com/2017/03/07/179194_GoodSense_Allergy_Relief_Diphenhydramine_HCL_Anti/20%Monthly2017-03-07 00:00
http://www.hotnewdeal.com/2017/03/06/179193_Coffeemate_Original_Powder_Coffee_Creamer_353_O/20%Monthly2017-03-06 23:51
http://www.hotnewdeal.com/2017/03/06/179192_Mackie_CR3_3_Reference_Multimedia_Speakers_Pair/20%Monthly2017-03-06 23:51
http://www.hotnewdeal.com/2017/03/06/179191_Light_and_Thin_64bit_ARM_based_Open_Source_Notebo/20%Monthly2017-03-06 23:37
http://www.hotnewdeal.com/2017/03/06/179190_Home_Depot_1500Watt_Electric_OilFilled_Radiant_/20%Monthly2017-03-06 23:37
http://www.hotnewdeal.com/2017/03/06/179189_100_Hotelscom_Gift_Card_For85_FREE_Mail_Delive/20%Monthly2017-03-06 23:20
http://www.hotnewdeal.com/2017/03/06/179188_Bose_Quietcomfort_25_Noise_Cancelling_Headphones_/20%Monthly2017-03-06 23:10
http://www.hotnewdeal.com/2017/03/06/179187_Bose_QC_25_WHITE_ONLY_Headphones_for_17999_at_Am/20%Monthly2017-03-06 23:10
http://www.hotnewdeal.com/2017/03/06/179186_Home_Depot__DeWalt_36_Top_Tool_Chest_99_BM_YMM/20%Monthly2017-03-06 23:10
http://www.hotnewdeal.com/2017/03/06/179185_Too_Faced_Cosmetics_Eye_Shadow_Palets_and_Chocolat/20%Monthly2017-03-06 22:57
http://www.hotnewdeal.com/2017/03/06/179184_Westworld_HBO_Episode_1_The_Original_HD_Digita/20%Monthly2017-03-06 22:50
http://www.hotnewdeal.com/2017/03/06/179181_Mission_Impossible_Ghost_Protocol_Bluray__DVD_/20%Monthly2017-03-06 22:35
http://www.hotnewdeal.com/2017/03/06/179180_Womens_Merona_Heather_Ultimate_LS_Crew_Tee__Mero/20%Monthly2017-03-06 22:35
http://www.hotnewdeal.com/2017/03/06/179179_5_off_50__BJsWholesale_Club/20%Monthly2017-03-06 22:19
http://www.hotnewdeal.com/2017/03/06/179178_Rise_of_the_Tomb_Raider_XBOX_One__Digital_Downlo/20%Monthly2017-03-06 22:18
http://www.hotnewdeal.com/2017/03/06/179177_Lucky_Brand_Final_Call__60_Off_Clearance__Free/20%Monthly2017-03-06 22:18
http://www.hotnewdeal.com/2017/03/06/179176_JBL_Studio_580_ProfessionalQuality_200_Watt_Floor/20%Monthly2017-03-06 22:18
http://www.hotnewdeal.com/2017/03/06/179175_Kershaw_1600_Chive_SpeedSafe_Folding_Knife_24_shi/20%Monthly2017-03-06 22:08
http://www.hotnewdeal.com/2017/03/06/179174_AXGIO_Spirit_Sports_Wireless_Bluetooth_Sweatproof_/20%Monthly2017-03-06 21:49
http://www.hotnewdeal.com/2017/03/06/179173_6Pack_of_6oz_Colgate_Sparkling_White_Gel_Toothpa/20%Monthly2017-03-06 21:40
http://www.hotnewdeal.com/2017/03/06/179171_Samsonite_Omni_Hardside_Luggage_20_24__28_Sp/20%Monthly2017-03-06 21:29
http://www.hotnewdeal.com/2017/03/06/179170_Burris_AR332_3x32_Prism_Sight_wFastfire_III_free/20%Monthly2017-03-06 21:27
http://www.hotnewdeal.com/2017/03/06/179169_ATHM50x_Headphones__FiiO_A1_amp__Slappa_Case__/20%Monthly2017-03-06 21:27
http://www.hotnewdeal.com/2017/03/06/179168_FEIYUE_FY03_EAGLE3_112_Full_Scale_Desert_Offro/20%Monthly2017-03-06 21:27
http://www.hotnewdeal.com/2017/03/06/179167_ActionPie_VJJBV1S_High_Resolution_Heavy_Bass_Ine/20%Monthly2017-03-06 21:19
http://www.hotnewdeal.com/2017/03/06/179166_HP_ProLiant_ML10_v2_Tower_Server_with_Intel_Core_i/20%Monthly2017-03-06 21:13
http://www.hotnewdeal.com/2017/03/06/179165_Tamron_SP_70200MM_F28_DI_VC_USD_Telephoto_Lens_/20%Monthly2017-03-06 21:09
http://www.hotnewdeal.com/2017/03/06/179164_Mountain_Hardwear_Womens_Wind_Activa_Jacket__2/20%Monthly2017-03-06 21:09
http://www.hotnewdeal.com/2017/03/06/179163_Amazon__up_to_30_off_select_Dremel_tools__acces/20%Monthly2017-03-06 20:51
http://www.hotnewdeal.com/2017/03/06/179162_49__Philips_SHP9500S_OverEar_Headphone_eBay_vi/20%Monthly2017-03-06 20:40
http://www.hotnewdeal.com/2017/03/06/179161_Dell_Alienware_17_R4_Laptop_i7_6820HK_8GB_GTX_10/20%Monthly2017-03-06 20:40
http://www.hotnewdeal.com/2017/03/06/179160_Columbia_Womens_Mighty_Lite_III_Jacket_44_Colum/20%Monthly2017-03-06 20:34
http://www.hotnewdeal.com/2017/03/06/179159_Legend_of_Zelda_Breath_of_the_Wild__WiiU_4799/20%Monthly2017-03-06 20:17
http://www.hotnewdeal.com/2017/03/06/179158_Elechomes_CHS2002_3HP_30000_rpm_HighSpeed_Blend/20%Monthly2017-03-06 20:17
http://www.hotnewdeal.com/2017/03/06/179157_The_Ten_Commandments_SixDisc_Limited_Edition_Blu/20%Monthly2017-03-06 19:39
http://www.hotnewdeal.com/2017/03/06/179156_RayBan_Tech_Unisex_Polarized_CarbonFiber_Sunglas/20%Monthly2017-03-06 19:35
http://www.hotnewdeal.com/2017/03/06/179155_iFi_Sale_iDSD_Black_Ed_400_iFi_Retro_S50_Tube_/20%Monthly2017-03-06 19:35
http://www.hotnewdeal.com/2017/03/06/179154_8lbs_Optimum_Nutrition_Gold_100_Whey_Protein_Ch/20%Monthly2017-03-06 19:19
http://www.hotnewdeal.com/2017/03/06/179153_BTKM12_Bluetooth_Hook_Earphones_w_APTX_7__Ama/20%Monthly2017-03-06 18:48
http://www.hotnewdeal.com/2017/03/06/179152_Kenneth_Cole_New_York_Mens_Ticket_Agent_100_Saff/20%Monthly2017-03-06 18:41
http://www.hotnewdeal.com/2017/03/06/179151_Asus_156_i77700HQ_GTX10502GB_8GBDDR4_256GBM/20%Monthly2017-03-06 18:34
http://www.hotnewdeal.com/2017/03/06/179149_Momo_Baby_Soft_Sole_Leather_Baby_Shoes_Various_Co/20%Monthly2017-03-06 18:34
http://www.hotnewdeal.com/2017/03/06/179148_Insteon_IO_Linc_Garage_Door_Control_Kit_w_25_De/20%Monthly2017-03-06 18:25
http://www.hotnewdeal.com/2017/03/06/179147_Quilted_Northern_Ultra_Plush_Toilet_Paper_24_Supr/20%Monthly2017-03-06 18:25
http://www.hotnewdeal.com/2017/03/06/179145_Polk_Audio_TL1600_51_Home_Theater_System_w_Power/20%Monthly2017-03-06 18:17
http://www.hotnewdeal.com/2017/03/06/179142_Klipsch_ProMedia_21_Speaker_System_w_Subwoofer_/20%Monthly2017-03-06 17:41
http://www.hotnewdeal.com/2017/03/06/179141_Infantino_Topsy_Turvy_Spiral_Activity_Toy_735__/20%Monthly2017-03-06 17:40
http://www.hotnewdeal.com/2017/03/06/179140_Timbuk2_Prompt_15_Messenger_Bag_22_After_33_Sli/20%Monthly2017-03-06 17:19
http://www.hotnewdeal.com/2017/03/06/179139_SwissGear_Granite_16_Laptop_BackpackSchool_Bag_f/20%Monthly2017-03-06 17:19
http://www.hotnewdeal.com/2017/03/06/179138_Home_Depot_PreLit_LED_Lawn_Decor_75_Off_White_S/20%Monthly2017-03-06 17:09
http://www.hotnewdeal.com/2017/03/06/179137_Walmart_Golds_Gym_Anti_Burst_Core_Ball_396__F/20%Monthly2017-03-06 16:56
http://www.hotnewdeal.com/2017/03/06/179136_Nordstrom_Rack_Up_To_65_Off_Cole_Haan__Womens_/20%Monthly2017-03-06 16:56
http://www.hotnewdeal.com/2017/03/06/179135_Full_Face_Flat_Black_Speed__Strength_SS1200_Motor/20%Monthly2017-03-06 16:47
http://www.hotnewdeal.com/2017/03/06/179134_Free_Schwarzkopf_Gliss_Hair_Care_Products_After_Re/20%Monthly2017-03-06 16:32
http://www.hotnewdeal.com/2017/03/06/179133_Focusrite_Saffire_Pro_14_8i6o_FireWire_Audio_Inte/20%Monthly2017-03-06 16:32
http://www.hotnewdeal.com/2017/03/06/179132_Gorilla_Ladder_2798_at_Home_Depot/20%Monthly2017-03-06 16:17
http://www.hotnewdeal.com/2017/03/06/179131_Mr_Coffee_Pour_Brew_Go_16oz_Personal_Coffee_M/20%Monthly2017-03-06 16:17
http://www.hotnewdeal.com/2017/03/06/179130_PowerSpec_G350_Desktop_i77700K_16GB_DDR4_3000_G/20%Monthly2017-03-06 16:17
http://www.hotnewdeal.com/2017/03/06/179129_Peets_Coffee__French_Roast__Large_20_Ounce_Pee/20%Monthly2017-03-06 16:08
http://www.hotnewdeal.com/2017/03/06/179127_LG_HBS770_Tone_Pro_Wireless_Bluetooth_Stereo_Head/20%Monthly2017-03-06 15:59
http://www.hotnewdeal.com/2017/03/06/179126_Thomas__Friends_4070_off/20%Monthly2017-03-06 15:58
http://www.hotnewdeal.com/2017/03/06/179125_Asolo_Mens_Triumph_GoreTex_Waterproof_Hiking_Boo/20%Monthly2017-03-06 15:47
http://www.hotnewdeal.com/2017/03/06/179124_Cascade_Platinum_ActionPacs_Dishwasher_Detergent_/20%Monthly2017-03-06 15:39
http://www.hotnewdeal.com/2017/03/06/179123_eBay__importCDs__25_OFF_Vinyl_Records_Order_60/20%Monthly2017-03-06 15:32
http://www.hotnewdeal.com/2017/03/06/179122_TitanFall_2_Digital_Download__Xbox_One_Standard_E/20%Monthly2017-03-06 15:18
http://www.hotnewdeal.com/2017/03/06/179121_Rainmachine_Mini8_Irrigation_System_119__Free_S/20%Monthly2017-03-06 15:09
http://www.hotnewdeal.com/2017/03/06/179120_Cats__Dogs_The_Revenge_of_Kitty_Galore_Bluray_/20%Monthly2017-03-06 14:56
http://www.hotnewdeal.com/2017/03/06/179119_Back_in_stock_Nintendo_Switch_Grey_Target/20%Monthly2017-03-06 14:47
http://www.hotnewdeal.com/2017/03/06/179118_Sony_4K_WiFi_Action_Cam_19999_Best_Buy/20%Monthly2017-03-06 14:47
http://www.hotnewdeal.com/2017/03/06/179117_Allen_Edmonds_Strand_Cap_Toe_Oxfords_Walnut_or_Bl/20%Monthly2017-03-06 14:39
http://www.hotnewdeal.com/2017/03/06/179116_200_Southwest_GC_185_100_babiesrus_GC_90__em/20%Monthly2017-03-06 14:38
http://www.hotnewdeal.com/2017/03/06/179115_Canon_Wireless_AllinOne_Printers_refurb_PIXMA_/20%Monthly2017-03-06 14:31
http://www.hotnewdeal.com/2017/03/06/179114_gogcom_Spring_Sale_Browse_500_deals_up_to_90_of/20%Monthly2017-03-06 14:17
http://www.hotnewdeal.com/2017/03/06/179112_BiMart_Customers__5QT_Jug_of_Pennzoil_Platinum_S/20%Monthly2017-03-06 14:07
http://www.hotnewdeal.com/2017/03/06/179111_Kohls_Charge_Holders__Mens_Levis_or_Dockers_Be/20%Monthly2017-03-06 13:58
http://www.hotnewdeal.com/2017/03/06/179109_41x_Zoom_Digital_Microscope_Egg_w_USB_Windows_M/20%Monthly2017-03-06 13:58
http://www.hotnewdeal.com/2017/03/06/179108_Postit_PopUp_Note_Dispenser_Cat_Shape_532_Wal/20%Monthly2017-03-06 13:58
http://www.hotnewdeal.com/2017/03/06/179107_Norton_Security_Deluxe_5_Devices_PCMac_Download_/20%Monthly2017-03-06 13:47
http://www.hotnewdeal.com/2017/03/06/179105_KOHLS_Cardholder_with_Discover_Deals_Hamilton_Bch/20%Monthly2017-03-06 13:39
http://www.hotnewdeal.com/2017/03/06/179104_The_Legend_of_Zelda_Arts__Artifacts/20%Monthly2017-03-06 13:35
http://www.hotnewdeal.com/2017/03/06/179103_Amazon_Italy_Batman_The_Complete_Television_Seri/20%Monthly2017-03-06 13:34
http://www.hotnewdeal.com/2017/03/06/179102_Manufacturer_Refurbished_Inspiron_133_Touchscree/20%Monthly2017-03-06 13:29
http://www.hotnewdeal.com/2017/03/06/179101_Columbia_Girls_Katelyn_Crest_Hooded_Jacket_32_W/20%Monthly2017-03-06 13:29
http://www.hotnewdeal.com/2017/03/06/179100_GTA_V_Pulse_Elite_Headset/20%Monthly2017-03-06 13:20
http://www.hotnewdeal.com/2017/03/06/179099_Train_to_Busan_Bluray_1299_at_Target/20%Monthly2017-03-06 13:15
http://www.hotnewdeal.com/2017/03/06/179098_NETGEAR_ProSAFE_5Port_Fast_Ethernet_Switch_FS105/20%Monthly2017-03-06 13:10
http://www.hotnewdeal.com/2017/03/06/179097_iXCC_Bluetooth_40_HandsFree_Mini_Car_Receiver__/20%Monthly2017-03-06 13:10
http://www.hotnewdeal.com/2017/03/06/179096_Car__Driver_3_per_year_when_you_buy_4_years_/20%Monthly2017-03-06 13:06
http://www.hotnewdeal.com/2017/03/06/179095_Anker_Quick_Charge_30_63W_5Port_USB_Wall_Charger/20%Monthly2017-03-06 13:06
http://www.hotnewdeal.com/2017/03/06/179094_32GB_Galaxy_S7_Tmobile__64_GB_Micro_SD_card_fo/20%Monthly2017-03-06 12:58
http://www.hotnewdeal.com/2017/03/06/179092_Sony_MDR100_hEar_Bluetooth_NC_Headphones_w_NFC_/20%Monthly2017-03-06 12:58
http://www.hotnewdeal.com/2017/03/06/179091_Prime_Members_Scott_1000_Sheets_Per_Roll_Toilet_P/20%Monthly2017-03-06 12:57
http://www.hotnewdeal.com/2017/03/06/179090_Lenovo_S510_Small_Form_Factor_Desktop_Core_I36100/20%Monthly2017-03-06 12:57
http://www.hotnewdeal.com/2017/03/06/179089_Aeon_Labs_Aeotec_ZWave_Smart_Energy_Meter_1695_/20%Monthly2017-03-06 12:57
http://www.hotnewdeal.com/2017/03/06/179088_16oz_Contigo_Autoseal_Insulated_Stainless_Steel_Tr/20%Monthly2017-03-06 12:57
http://www.hotnewdeal.com/2017/03/06/179087_Prismacolor_Scholar_Colored_Pencils_48Count_for_/20%Monthly2017-03-06 12:57
http://www.hotnewdeal.com/2017/03/06/179086_3999_Tot_Tutors_Focus_Wood_Art_Activity_Desk_and/20%Monthly2017-03-06 12:57
http://www.hotnewdeal.com/2017/03/06/179085_Olaxer_Shea_Butter_Moisturizing_Body_Lotion_599/20%Monthly2017-03-06 12:53
http://www.hotnewdeal.com/2017/03/06/179084_JBL_Charge_2_Bluetooth_Speaker_w_USB_Charger_Rec/20%Monthly2017-03-06 12:38
http://www.hotnewdeal.com/2017/03/06/179083_Los_Angeles_to_Taipei_483_RT_or_San_Francisco_to_/20%Monthly2017-03-06 12:26
http://www.hotnewdeal.com/2017/03/06/179082_Sears_Samsung_Washer_50_HE__Dryer_74_electric_n/20%Monthly2017-03-06 12:22
http://www.hotnewdeal.com/2017/03/06/179081_Amcrest_Wireless_IP_Security_Camera_1080P_6490_/20%Monthly2017-03-06 12:19
http://www.hotnewdeal.com/2017/03/06/179080_100_ExxonMobilSunoco_GC_93__FS_ebay/20%Monthly2017-03-06 12:18
http://www.hotnewdeal.com/2017/03/06/179079_Lenovo_Edge_2_1580_156_Full_HD_IPS_2in1_Touchs/20%Monthly2017-03-06 12:18
http://www.hotnewdeal.com/2017/03/06/179078_19oz_3M_Glass_Cleaner_267_w_SS__Free_Shipping/20%Monthly2017-03-06 12:08
http://www.hotnewdeal.com/2017/03/06/179077_50_iTunes_Gift_Card_for_only_4250__Email_deliv/20%Monthly2017-03-06 12:00
http://www.hotnewdeal.com/2017/03/06/179076_Nescafe_Clasico_Instant_Coffee7_Ounce_Pack_of_2/20%Monthly2017-03-06 12:00
http://www.hotnewdeal.com/2017/03/06/179075_LG_V20_64GB_Silver_or_Gray_Dual_Sim_Unlocked_And/20%Monthly2017-03-06 11:56
http://www.hotnewdeal.com/2017/03/06/179074_Greenworks_GMax_40_Volt_20_Twin_Force_Battery_La/20%Monthly2017-03-06 11:56
http://www.hotnewdeal.com/2017/03/06/179073_1284_Magformers_Inspire_Set_14pieces_Prime/20%Monthly2017-03-06 11:36
http://www.hotnewdeal.com/2017/03/06/179072_Microsoft_Surface_Pro_3_Tablet_12Inch_128_GB_I/20%Monthly2017-03-06 11:28
http://www.hotnewdeal.com/2017/03/06/179071_899_Samsung_55_Class_KS8000_8_Series_4K_SUHD_TV/20%Monthly2017-03-06 11:15
http://www.hotnewdeal.com/2017/03/06/179070_New_Balance_613_Mens_Cross_Training_Shoe_3499_/20%Monthly2017-03-06 11:06
http://www.hotnewdeal.com/2017/03/06/179069_FiiO_X5_2nd_Gen_Portable_HighResolution_Audio_P/20%Monthly2017-03-06 10:58
http://www.hotnewdeal.com/2017/03/06/179068_Turtle_Beach__Geek_Squad_Certified_Refurbished_El/20%Monthly2017-03-06 10:58
http://www.hotnewdeal.com/2017/03/06/179067_MSI_Radeon_RX_480_4GB_256Bit_GDDR5_PCI_Express_3/20%Monthly2017-03-06 10:54
http://www.hotnewdeal.com/2017/03/06/179066_Zojirushi_Rice_Cookers_NHS06_3Cup_3250_NSLA/20%Monthly2017-03-06 10:43
http://www.hotnewdeal.com/2017/03/06/179065_PS4_Battlefield_Hardline__499_Digital/20%Monthly2017-03-06 10:43
http://www.hotnewdeal.com/2017/03/06/179064_Billy_Lynns_Long_Halftime_Walk_4KUHD__Bluray_/20%Monthly2017-03-06 10:38
http://www.hotnewdeal.com/2017/03/06/179063_Back_in_Stock_Samsung_nvme_m2_256gb_ssd_sm951_/20%Monthly2017-03-06 10:24
http://www.hotnewdeal.com/2017/03/06/179062_Bose_SoundSport_wireless_headphones_120_Groupon/20%Monthly2017-03-06 10:17
http://www.hotnewdeal.com/2017/03/06/179060_Kohls_Cardholders_Zojirushi_NPHCC18XH_Induction_/20%Monthly2017-03-06 10:13
http://www.hotnewdeal.com/2017/03/06/179059_Nobunagas_Ambition_Sphere_of_Influence_Ascension_/20%Monthly2017-03-06 10:07
http://www.hotnewdeal.com/2017/03/06/179057_hpcom_Latest_HP_Spectre_x360_Convertible_Laptop/20%Monthly2017-03-06 10:01
http://www.hotnewdeal.com/2017/03/06/179056_Magnetic_Screen_Door_Mesh_Curtain_Full_Frame_Velcr/20%Monthly2017-03-06 10:01
http://www.hotnewdeal.com/2017/03/06/179055_VIVA_ChooseASheet_Paper_Towels_White_Big_Roll/20%Monthly2017-03-06 09:56
http://www.hotnewdeal.com/2017/03/06/179054_Sears_Reebok_Womens_Hexaffect_Run_20_RedBlack_/20%Monthly2017-03-06 09:45
http://www.hotnewdeal.com/2017/03/06/179053_2x_Disney_3D_Blurays_Region_Free__2418_shipp/20%Monthly2017-03-06 09:35
http://www.hotnewdeal.com/2017/03/06/179052_Anker_PowerCore_20000mAh_Quick_Charge_30_Portable/20%Monthly2017-03-06 09:35
http://www.hotnewdeal.com/2017/03/06/179051_8oz_3M_Scratch_Remover_621_w_SS__Free_Shippin/20%Monthly2017-03-06 09:35
http://www.hotnewdeal.com/2017/03/06/179050_27_MSI_Optix_G27C_BlackRed_1920x1080_4ms_144Hz_V/20%Monthly2017-03-06 09:35
http://www.hotnewdeal.com/2017/03/06/179048_Amazon_up_to_50_off_Baseball__Softball_Equipmen/20%Monthly2017-03-06 09:06
http://www.hotnewdeal.com/2017/03/06/179045_Olive_Garden_Buy_One_Take_One_Starting_at_1299/20%Monthly2017-03-06 08:50
http://www.hotnewdeal.com/2017/03/06/179044_Kohls_Cardholders_Kiddie_Pool_w_Water_Spray_Featu/20%Monthly2017-03-06 08:50
http://www.hotnewdeal.com/2017/03/06/179043_Amazon_BLACKDECKER_40V_MAX_Lithium_Sweeper_Vac_/20%Monthly2017-03-06 08:46
http://www.hotnewdeal.com/2017/03/06/179042_Arrid_XX_Extra_Dry_Solid_Antiperspirant_Deodorant/20%Monthly2017-03-06 08:42
http://www.hotnewdeal.com/2017/03/06/179040_Gatorade_Original_Thirst_Quencher_Variety_Pack_20/20%Monthly2017-03-06 07:41
http://www.hotnewdeal.com/2017/03/06/179039_Maybelline_2_off_coupons__from_084_and_up__Fr/20%Monthly2017-03-06 07:06
http://www.hotnewdeal.com/2017/03/06/179038_The_Pillars_of_the_Earth__Ken_Follett__Kindle_Ed/20%Monthly2017-03-06 07:06
http://www.hotnewdeal.com/2017/03/06/179037_Mediasonic_2535_SATA_HDDSSD_DualBay_USB_30/20%Monthly2017-03-06 06:05
http://www.hotnewdeal.com/2017/03/06/179036_PRIME_Conbrov_T36_1080p_Full_Hd_Car_Dash_Cam_Reco/20%Monthly2017-03-06 05:05
http://www.hotnewdeal.com/2017/03/06/179035_Barrie_House_Breakfast_Blend_Single_Cup_Capsules_/20%Monthly2017-03-06 05:05
http://www.hotnewdeal.com/2017/03/06/179034_Tom_Clancys_The_Division__PC__1489__cdkeysc/20%Monthly2017-03-06 04:26
http://www.hotnewdeal.com/2017/03/06/179033_10ft_Duck_Brand_Self_Adhesive_Foam_Weatherstrip_Se/20%Monthly2017-03-06 04:05
http://www.hotnewdeal.com/2017/03/06/179032_PNY__240GB_Internal_PCI_Express_30_x4_NVMe_Sol/20%Monthly2017-03-06 04:05
http://www.hotnewdeal.com/2017/03/06/179030_ZOTAC_831_length_GeForce_GTX_1080_Mini_w_ga/20%Monthly2017-03-06 03:06
http://www.hotnewdeal.com/2017/03/06/179028_Musicians_Gear_Deluxe_Conductor_Music_Stand_for_/20%Monthly2017-03-06 02:09
http://www.hotnewdeal.com/2017/03/06/179027_Ohuhu_Portable_Nylon_Fabric_Travel_Camping_Hammock/20%Monthly2017-03-06 02:05
http://www.hotnewdeal.com/2017/03/06/179026_logitech_m317_walmart_5_YMMV/20%Monthly2017-03-06 02:05
http://www.hotnewdeal.com/2017/03/06/179025_Gillette_Fusion_ProShield_Chill_Mens_Razor_with_F/20%Monthly2017-03-06 01:26
http://www.hotnewdeal.com/2017/03/06/179024_Xbox_One_Armed_Forces_Edition_Wireless_at_Walmart_/20%Monthly2017-03-06 01:08
http://www.hotnewdeal.com/2017/03/06/179023_Prime_Only_SS_Royal_Basmati_Rice_15Pound_Bag_/20%Monthly2017-03-06 01:05
http://www.hotnewdeal.com/2017/03/05/179022_Mobile_1_oil_5_qts__Mobile_1_Filter__1899_/20%Monthly2017-03-05 23:27
http://www.hotnewdeal.com/2017/03/05/179021_Harman_Kardon_Onyx_Studio_Speaker_Brandnew_799/20%Monthly2017-03-05 23:19
http://www.hotnewdeal.com/2017/03/05/179020_2Piece_Beautyblender_Apply_and_Clean_w_Mini_Soli/20%Monthly2017-03-05 23:09
http://www.hotnewdeal.com/2017/03/05/179019_Prime_Members_Levis_Mens_Wool_Classic_DoubleBr/20%Monthly2017-03-05 22:37
http://www.hotnewdeal.com/2017/03/05/179018_Express_offers_Extra_50_Off_Clearance/20%Monthly2017-03-05 22:29
http://www.hotnewdeal.com/2017/03/05/179017_Oz_Great_and_Powerful_3D_BluRay__Digital__Amazo/20%Monthly2017-03-05 22:14
http://www.hotnewdeal.com/2017/03/05/179016_24Pack_of_12oz_Blue_Sky_Natural_Soda_Cherry_Vani/20%Monthly2017-03-05 21:45
http://www.hotnewdeal.com/2017/03/05/179015_Yamaha_RXV381_AVR_189_at_Frys_In_Store_Only/20%Monthly2017-03-05 21:40
http://www.hotnewdeal.com/2017/03/05/179014_PSA__YMMV__Prime_Members_ONLY_Amazon_offering_/20%Monthly2017-03-05 21:24
http://www.hotnewdeal.com/2017/03/05/179013_Thetford_Curve_Portable_Toilet__85_at_Amazon/20%Monthly2017-03-05 20:52
http://www.hotnewdeal.com/2017/03/05/179012_Samsung_49_Class_Series_7_4K_Ultra_HD_Smart_LED_T/20%Monthly2017-03-05 20:17
http://www.hotnewdeal.com/2017/03/05/179011_Amazon_Kindle_PaperWhite_ereader_Latest_Version/20%Monthly2017-03-05 20:08
http://www.hotnewdeal.com/2017/03/05/179010_Universal_Monitor_Stand_at_Monoprice_for_425_aft/20%Monthly2017-03-05 19:25
http://www.hotnewdeal.com/2017/03/05/179009_ZTE_Trek_2_HD_K88_WiFi_GSM_ATT_Unlocked_8_Andro/20%Monthly2017-03-05 19:15
http://www.hotnewdeal.com/2017/03/05/179008_Igloo_Portable_Countertop_Ice_Maker_35_YMMV/20%Monthly2017-03-05 19:09
http://www.hotnewdeal.com/2017/03/05/179007_Cooler_Master_Hyper_212_LED_for_15_AR_on_Amazon/20%Monthly2017-03-05 19:09
http://www.hotnewdeal.com/2017/03/05/179006_Amazon_Basics_6ft_HDMI_Cables__Pack_of_3_999/20%Monthly2017-03-05 18:56
http://www.hotnewdeal.com/2017/03/05/179004_Kohls_Cardholders_Step2_Anniversary_Edition_Up_/20%Monthly2017-03-05 18:21
http://www.hotnewdeal.com/2017/03/05/179003_7up_2liter_69_60_off_Oreos_188_Russell_St/20%Monthly2017-03-05 18:21
http://www.hotnewdeal.com/2017/03/05/179002_Buy_selected_Wolverine_or_Xmen_movie_get_750_t/20%Monthly2017-03-05 18:21
http://www.hotnewdeal.com/2017/03/05/179001_Staples_weekly_ad_351731217_Staples_5_ream/20%Monthly2017-03-05 18:21
http://www.hotnewdeal.com/2017/03/05/179000_5_pound_Haribo_Gummi_Bears_1036_Prime_984_Subs/20%Monthly2017-03-05 17:55
http://www.hotnewdeal.com/2017/03/05/178999_Bose_QuietComfort_35_on_sale_for_150_with_free_sh/20%Monthly2017-03-05 17:39
http://www.hotnewdeal.com/2017/03/05/178998_Craftsman_Evolv_8oz_Stubby_Claw_Hammer_with_Rubb/20%Monthly2017-03-05 17:39
http://www.hotnewdeal.com/2017/03/05/178997_Amazoncom_Digital_Xbox_One_Games_Sale_5__30_/20%Monthly2017-03-05 17:14
http://www.hotnewdeal.com/2017/03/05/178996_Samsung_Galaxy_Tab_S2_SMT813NZKEXAR_97_32GB_Wi/20%Monthly2017-03-05 16:32
http://www.hotnewdeal.com/2017/03/05/178995_Similac_Pro_Sensitive_Baby_Formula_4_pack_for_72/20%Monthly2017-03-05 16:05
http://www.hotnewdeal.com/2017/03/05/178994_VeraEdge_ZWave_Home_Controller_6295__tax_after/20%Monthly2017-03-05 16:05
http://www.hotnewdeal.com/2017/03/05/178993_WG163_WORX_20V_GT_30_Cordless_String_Trimmer__Ed/20%Monthly2017-03-05 15:48
http://www.hotnewdeal.com/2017/03/05/178992_Target_Mens_OneSizeFitsAll_Velvet_Plush_Robe_/20%Monthly2017-03-05 15:44
http://www.hotnewdeal.com/2017/03/05/178991_Lowepro_Format_160_Camera_Bag__Joby_GorillaPod_Tr/20%Monthly2017-03-05 15:33
http://www.hotnewdeal.com/2017/03/05/178989_Logitech_MK520_Wireless_Keyboard_and_Mouse_Combo_/20%Monthly2017-03-05 15:05
http://www.hotnewdeal.com/2017/03/05/178988_JBL_Charge_2_Splashproof_Portable_Speaker__Refur/20%Monthly2017-03-05 14:55
http://www.hotnewdeal.com/2017/03/05/178986_Ring_Stick_Up_MotionActivated_Security_Camera__8/20%Monthly2017-03-05 14:14
http://www.hotnewdeal.com/2017/03/05/178985_Panasonic_Eneloop_8_Pack_AA_Rechargeable_Batteries/20%Monthly2017-03-05 13:56
http://www.hotnewdeal.com/2017/03/05/178984_Kohls_Cardholders_3Qt_Nuwave_Digital_Air_Fryer_/20%Monthly2017-03-05 13:41
http://www.hotnewdeal.com/2017/03/05/178983_Scott_Toilet_Paper_and_Paper_Towels_up_to_40_off/20%Monthly2017-03-05 13:25
http://www.hotnewdeal.com/2017/03/05/178982_4_ct_Scrubbing_Bubbles_5in1_Cleaner_32_oz__5_G/20%Monthly2017-03-05 13:05
http://www.hotnewdeal.com/2017/03/05/178981_Sony_Xperia_X_Performance_unlocked_smartphone32GB/20%Monthly2017-03-05 12:57
http://www.hotnewdeal.com/2017/03/05/178980_Better_Than_Bacon_Mini_Ears_Dog_Treats_69oz_22/20%Monthly2017-03-05 12:45
http://www.hotnewdeal.com/2017/03/05/178979_Onkyo_TX_NR555_72_Channel_AV_Network_Receiver_/20%Monthly2017-03-05 12:15
http://www.hotnewdeal.com/2017/03/05/178978_FIFA_17_Digital_Download_Xbox_One_1980/20%Monthly2017-03-05 12:08
http://www.hotnewdeal.com/2017/03/05/178977_Corsair_STRAFE_Mechanical_Gaming_Keyboard_Cherry_M/20%Monthly2017-03-05 11:49
http://www.hotnewdeal.com/2017/03/05/178976_Target_Save_70_on_Mens_Shirts_from_350/20%Monthly2017-03-05 11:28
http://www.hotnewdeal.com/2017/03/05/178975_Turtle_Beach_i30_Mobile_Gaming_Bluetooth_headset_/20%Monthly2017-03-05 11:27
http://www.hotnewdeal.com/2017/03/05/178974_Firik_Adjustable_Soft_Fleece_Kids_Headphones_for_/20%Monthly2017-03-05 11:22
http://www.hotnewdeal.com/2017/03/05/178973_Sony_MDR1000XB_NoiseCancelling_Headphones__34/20%Monthly2017-03-05 11:06
http://www.hotnewdeal.com/2017/03/05/178972_Amazoncom__12Count_Colgate_Extra_Clean_Full_Hea/20%Monthly2017-03-05 10:53
http://www.hotnewdeal.com/2017/03/05/178971_Tracfone_LG_Sunset_GSM_phone_4995_with_1200_minu/20%Monthly2017-03-05 10:53
http://www.hotnewdeal.com/2017/03/05/178970_Withings_Body__Body_Composition_WiFi_Scale_White/20%Monthly2017-03-05 10:38
http://www.hotnewdeal.com/2017/03/05/178969_NHL_17_1980_or_NHL_17_Deluxe_2640_plus_tax_/20%Monthly2017-03-05 10:38
http://www.hotnewdeal.com/2017/03/05/178968_Prime_Members_3Pack_of_48oz_Gain_Smart_Pouch_Liq/20%Monthly2017-03-05 10:29
http://www.hotnewdeal.com/2017/03/05/178967_Monoprice_ZWave_Plus_PIR_Motion_Detector_w_Temp/20%Monthly2017-03-05 10:22
http://www.hotnewdeal.com/2017/03/05/178966_Anjou_Silicone_Personal_Lubricant_for_Women_and_Me/20%Monthly2017-03-05 10:00
http://www.hotnewdeal.com/2017/03/05/178965_Corsair_MM300_Antifray_Cloth_Gaming_Mouse_Mat_Gra/20%Monthly2017-03-05 09:50
http://www.hotnewdeal.com/2017/03/05/178964_Microsoft__Surface_Pro_4__123__128GB__Intel_/20%Monthly2017-03-05 09:50
http://www.hotnewdeal.com/2017/03/05/178963_3M_Virtua_Safety_Glasses_154__Free_Prime_Shippi/20%Monthly2017-03-05 09:35
http://www.hotnewdeal.com/2017/03/05/178962_Honor_8_Unlocked_Smartphone_64GB_for_320_32GB_fo/20%Monthly2017-03-05 09:35
http://www.hotnewdeal.com/2017/03/05/178960_Haul_Master_1000_lb_Dolly_8__Harbor_Freight/20%Monthly2017-03-05 09:23
http://www.hotnewdeal.com/2017/03/05/178959_2pk_Zebra_Stainless_Steel_M301__05mm_Mechani/20%Monthly2017-03-05 09:09
http://www.hotnewdeal.com/2017/03/05/178958_Step2_2in1_Tball__Golf_Set_1189__free_shipp/20%Monthly2017-03-05 08:53
http://www.hotnewdeal.com/2017/03/05/178957_Dewalt_DWS780_Sliding_Dual_Bevel_Miter_Saw_432__/20%Monthly2017-03-05 08:37
http://www.hotnewdeal.com/2017/03/05/178955_2Count_Colgate_Toothpaste_6oz_193_3Count_8oz_/20%Monthly2017-03-05 08:08
http://www.hotnewdeal.com/2017/03/05/178954_iPhone_7_and_7_Plus_at_Target_200_Gift_Card_Plus/20%Monthly2017-03-05 08:05
http://www.hotnewdeal.com/2017/03/05/178953_FRAM_Fresh_Breeze_Cabin_Air_Filters_from_505__F/20%Monthly2017-03-05 07:49
http://www.hotnewdeal.com/2017/03/05/178952_Safety_1st_Nature_Next_Bamboo_Gate_993_at_Amazon/20%Monthly2017-03-05 07:34
http://www.hotnewdeal.com/2017/03/05/178951_Nature_Made_Vitamin_D3_LIquid_Softgels_100Count_/20%Monthly2017-03-05 07:26
http://www.hotnewdeal.com/2017/03/05/178950_Franklin_Sports_RTP_Teeball_Performance_Gloves__B/20%Monthly2017-03-05 06:26
http://www.hotnewdeal.com/2017/03/05/178949_CompareNSave_Concentrate_Grass_and_Weed_Killer_/20%Monthly2017-03-05 06:08
http://www.hotnewdeal.com/2017/03/05/178948_12Count_Fiber_One_Chocolate_Fudge_Brownies_4_or_/20%Monthly2017-03-05 05:29
http://www.hotnewdeal.com/2017/03/05/178947_AMD_Ryzen_1700X_Processor_390Frys_Intel_Core_i7/20%Monthly2017-03-05 04:26
http://www.hotnewdeal.com/2017/03/05/178946_Little_Dot_Tube_Headphone_Amplifier__Pre_amps_M/20%Monthly2017-03-05 04:05
http://www.hotnewdeal.com/2017/03/05/178944_GCU_Members_Doom_PS4_or_Xbox_One_1599_Dishon/20%Monthly2017-03-05 02:27
http://www.hotnewdeal.com/2017/03/05/178943_Harry_Potter_8_Movie_Bundle_HD__Google_Play_499/20%Monthly2017-03-05 02:27
http://www.hotnewdeal.com/2017/03/05/178942_Nuwave_Oven_Brio_3Qt_Air_Fryer__9999_fs_41_/20%Monthly2017-03-05 02:05
http://www.hotnewdeal.com/2017/03/05/178941_Space_Jam_20th_Anniversary_Steelbook_Bluray_DVD/20%Monthly2017-03-05 02:05
http://www.hotnewdeal.com/2017/03/05/178940_The_Accountant_Bluray__DVD__Digital_HD_Ultravi/20%Monthly2017-03-05 02:05
http://www.hotnewdeal.com/2017/03/05/178939_SanDisk__Ultra_Dual_64GB_OTG_Micro_USBUSB_30_Fl/20%Monthly2017-03-05 02:05
http://www.hotnewdeal.com/2017/03/05/178938_Continental_Gatorskin_bike_tires_one_pair_58_shi/20%Monthly2017-03-05 02:05
http://www.hotnewdeal.com/2017/03/05/178937_60Pack_Insignia_AA_or_AAA_Batteries_899__Free_/20%Monthly2017-03-05 01:30
http://www.hotnewdeal.com/2017/03/05/178936_Prime_Members_ALEX_Toys_Craft_My_First_Sewing_Kit/20%Monthly2017-03-05 01:05
http://www.hotnewdeal.com/2017/03/05/178935_10Ct_Dove_Men__Care_Body_and_Face_Bar_Deep_Clea/20%Monthly2017-03-05 01:05
http://www.hotnewdeal.com/2017/03/05/178933_HTC_One_A9_Boost_Mobile_Prepaid_Smartphone__50_S/20%Monthly2017-03-05 00:13
http://www.hotnewdeal.com/2017/03/04/178932_CyberpowerPC_Gamer_Xtreme_S256T_i77700_8GB_DDR4/20%Monthly2017-03-04 23:39
http://www.hotnewdeal.com/2017/03/04/178930_Samsung_nvme_m2_256gb_ssd_sm951_refurb_6930_/20%Monthly2017-03-04 23:06
http://www.hotnewdeal.com/2017/03/04/178929_Pampers_Swaddlers_Diapers_Size_3_180_Count_One_M/20%Monthly2017-03-04 22:49
http://www.hotnewdeal.com/2017/03/04/178928_The_North_Face_Thermoball_Jacket_7496_Shipped__/20%Monthly2017-03-04 22:44
http://www.hotnewdeal.com/2017/03/04/178927_John_Wick_4K_Ultra_HD__Bluray__Digital_HD_14/20%Monthly2017-03-04 22:34
http://www.hotnewdeal.com/2017/03/04/178926_FoodSaver_11_x_16_Portion_Pouch_VacuumSeal_Roll/20%Monthly2017-03-04 22:25
http://www.hotnewdeal.com/2017/03/04/178925_Amazon_Fire_7_QuadCore_8GB_AlexaEnabled_Tablet_/20%Monthly2017-03-04 22:21
http://www.hotnewdeal.com/2017/03/04/178924_50_Steam_Gift_card_for_45__Amazon/20%Monthly2017-03-04 21:45
http://www.hotnewdeal.com/2017/03/04/178923_Sams_club_free_tire_installation_and_instant_disc/20%Monthly2017-03-04 21:39
http://www.hotnewdeal.com/2017/03/04/178922_Tom_Clancys_The_Division_Season_Pass_PC_Digital/20%Monthly2017-03-04 21:28
http://www.hotnewdeal.com/2017/03/04/178921_ALCATEL_ONETOUCH_5_Android_Smartphone_W1200_Minu/20%Monthly2017-03-04 21:20
http://www.hotnewdeal.com/2017/03/04/178920_Mini_Metro_2__Google_Play_Android_3_iOS/20%Monthly2017-03-04 21:10
http://www.hotnewdeal.com/2017/03/04/178919_Xiaomi_Mi_R1D_AC1200_Dual_Band_WiFi_Router_w_1TB_/20%Monthly2017-03-04 21:06
http://www.hotnewdeal.com/2017/03/04/178918_KONG_Classic_Medium_Dog_Toy_Red_248__Free_Shi/20%Monthly2017-03-04 20:30
http://www.hotnewdeal.com/2017/03/04/178917_Bestbuy__Insignia_9_table_fan__Gray_for_599_w/20%Monthly2017-03-04 20:22
http://www.hotnewdeal.com/2017/03/04/178916_Boudreauxs_Butt_Paste_4_oz_TubesQuantity_of_6_/20%Monthly2017-03-04 20:18
http://www.hotnewdeal.com/2017/03/04/178914_Alienware_15_R3_VR_Gaming_Laptop_i76700HQ_156/20%Monthly2017-03-04 20:14
http://www.hotnewdeal.com/2017/03/04/178912_Samsung_Galaxy_S7_Duos_SMG930FD_NEW_UNLOCKED_/20%Monthly2017-03-04 20:04
http://www.hotnewdeal.com/2017/03/04/178911_Raspberry_Pi_Zero_Wireless_10__Micro_Center_IN/20%Monthly2017-03-04 19:19
http://www.hotnewdeal.com/2017/03/04/178910_Haribo_Gummi_Candy_Happy_Cola_5Ounce_Bags_Pack/20%Monthly2017-03-04 19:09
http://www.hotnewdeal.com/2017/03/04/178909_PETSMARTcom_for_Store_Pick_Up_only_Purina_TIDY_/20%Monthly2017-03-04 18:22
http://www.hotnewdeal.com/2017/03/04/178908_AmazonBasics_Bike_Saddle_Bag_SM_2_AddOn_Item/20%Monthly2017-03-04 18:18
http://www.hotnewdeal.com/2017/03/04/178907_Samsung_4K_HDR_HDTVs_60_UN60KS8000_1079_UN55K/20%Monthly2017-03-04 17:36
http://www.hotnewdeal.com/2017/03/04/178906_LeEco_Le_Max_2_6GB_RAM__128GB_ROM_26499__5_c/20%Monthly2017-03-04 17:31
http://www.hotnewdeal.com/2017/03/04/178905_Prime_Members_Quaker_Chewy_Granola_Bars_Variety_P/20%Monthly2017-03-04 17:20
http://www.hotnewdeal.com/2017/03/04/178904_Doom_PC_Digital_Download__1177_AC__CDKeys/20%Monthly2017-03-04 16:27
http://www.hotnewdeal.com/2017/03/04/178903_HP_Pavilion_22b010_AIO_A67310_4GB_DDR3L_1TB_HDD/20%Monthly2017-03-04 15:48
http://www.hotnewdeal.com/2017/03/04/178902_Sennheiser_HD_650_Open_Back_Professional_Headphone/20%Monthly2017-03-04 15:45
http://www.hotnewdeal.com/2017/03/04/178901_Stagecom_Clearance_Doorbuster__499/20%Monthly2017-03-04 15:35
http://www.hotnewdeal.com/2017/03/04/178900_Krave_Beef_Jerky_In_Sea_Salt_and_Garlic_Chili_Powd/20%Monthly2017-03-04 15:21
http://www.hotnewdeal.com/2017/03/04/178899_Full_Spectrum_Floor_Lamp_ShopKo_2455_Free_Pickup/20%Monthly2017-03-04 15:20
http://www.hotnewdeal.com/2017/03/04/178898_Plants_vs_Zombies_Garden_Warfare_2__Xbox_One_Dig/20%Monthly2017-03-04 15:10
http://www.hotnewdeal.com/2017/03/04/178897_Allen_Edmonds_Strandmok_20_Suede_CapToe_Oxfords_/20%Monthly2017-03-04 14:58
http://www.hotnewdeal.com/2017/03/04/178896_52oz_Utz_Sourdough_Nuggets_Pretzels_Barrel_331_A/20%Monthly2017-03-04 14:51
http://www.hotnewdeal.com/2017/03/04/178895_Wood_Stove__107000_BTU_EPA_Certified_Model_20/20%Monthly2017-03-04 14:51
http://www.hotnewdeal.com/2017/03/04/178894_Irwin_5WR_or_6LN_ViceGrip_Multi_Plier_at_Sears_Cl/20%Monthly2017-03-04 14:50
http://www.hotnewdeal.com/2017/03/04/178893_Radio_Flyer_AllTerrain_Stroll_N_Trike_RideOn_R/20%Monthly2017-03-04 14:14
http://www.hotnewdeal.com/2017/03/04/178892_Battlefield_Hardline__PS4_Digital_Code_5_Unrave/20%Monthly2017-03-04 14:09
http://www.hotnewdeal.com/2017/03/04/178891_Tek_Gear_Fleece_Sweatshirt_Mens_7_or_Womens_4/20%Monthly2017-03-04 14:09
http://www.hotnewdeal.com/2017/03/04/178890_Verbatim_128GB_PremiumPlus_533X_microSDXC_Memory_C/20%Monthly2017-03-04 14:05
http://www.hotnewdeal.com/2017/03/04/178889_LG_Tone_Infinim_HBS912_4997__Costco_30_price/20%Monthly2017-03-04 14:00
http://www.hotnewdeal.com/2017/03/04/178888_Ritz_Crackers_Fresh_Stacks_Bacon_Flavor_115Ounce/20%Monthly2017-03-04 13:51
http://www.hotnewdeal.com/2017/03/04/178887_Sky_King_Quadrone_with_Camera_2999/20%Monthly2017-03-04 13:51
http://www.hotnewdeal.com/2017/03/04/178886_Boys_Sherpa_Hoodies_3__more_free_store_pick_up/20%Monthly2017-03-04 13:51
http://www.hotnewdeal.com/2017/03/04/178885_10_PC_Pyrex_Mixing_Bowls_for_15macys/20%Monthly2017-03-04 13:30
http://www.hotnewdeal.com/2017/03/04/178883_New_York__Zurich_369_rt_in_May_nonstop_American_/20%Monthly2017-03-04 13:20
http://www.hotnewdeal.com/2017/03/04/178882_FERM_Power_Tools_OTM1005_Ferm_Oscillating_Multitoo/20%Monthly2017-03-04 13:10
http://www.hotnewdeal.com/2017/03/04/178881_Acer_Predator_173_Gaming_Laptop_Intel_Core_i76/20%Monthly2017-03-04 12:58
http://www.hotnewdeal.com/2017/03/04/178880_ESET_Smart_Security_2016__3_PCs_24AC_wXBox_1_C/20%Monthly2017-03-04 12:57
http://www.hotnewdeal.com/2017/03/04/178879_MSI_760GMAP34FX_AMD_760G_mATX_USB30_Motherboar/20%Monthly2017-03-04 12:57
http://www.hotnewdeal.com/2017/03/04/178878_Frys_BM_Store_AD_35__36_Klipsch_RF82_II_22/20%Monthly2017-03-04 12:39
http://www.hotnewdeal.com/2017/03/04/178877_Intel_i77700k__30999_Free_Shipping_34999__/20%Monthly2017-03-04 12:35
http://www.hotnewdeal.com/2017/03/04/178876_Amazon__Zinus_Deluxe_Faux_Leather_Upholstered_Pla/20%Monthly2017-03-04 12:35
http://www.hotnewdeal.com/2017/03/04/178875_Kmart__KMartcom_have_many_varieties_of_CFL__LED/20%Monthly2017-03-04 12:35
http://www.hotnewdeal.com/2017/03/04/178874_Mediasonic_HF7SU3S3_ProBox_4_Bay_35_SATA_Hard_D/20%Monthly2017-03-04 12:24
http://www.hotnewdeal.com/2017/03/04/178873_Intex_Pillow_Rest_Raised_Airbed_with_Builtin_Pill/20%Monthly2017-03-04 12:20
http://www.hotnewdeal.com/2017/03/04/178872_Samsung_SE330_Series_27Inch_FHD_Monitor__NewEgg_/20%Monthly2017-03-04 12:10
http://www.hotnewdeal.com/2017/03/04/178871_Assassins_Creed_Ezio_Collection_XBox_One_20ACNe/20%Monthly2017-03-04 12:10
http://www.hotnewdeal.com/2017/03/04/178870_Lowes_Blue_Hawk_Large_Wheeled_Tool_Box_50/20%Monthly2017-03-04 12:01
http://www.hotnewdeal.com/2017/03/04/178869_OxyLED_MD50_XML_T6_800_Lumen_Flashlight_w_batter/20%Monthly2017-03-04 12:01
http://www.hotnewdeal.com/2017/03/04/178868_Logitech_G700s_910003584_Wired__Wireless_Laser_R/20%Monthly2017-03-04 11:49
http://www.hotnewdeal.com/2017/03/04/178867_The_Big_One_Microfiber_Pillow_StandardQueen_for/20%Monthly2017-03-04 11:44
http://www.hotnewdeal.com/2017/03/04/178865_CounterStrike_Global_Offensive_PCDD__589_AC/20%Monthly2017-03-04 11:35
http://www.hotnewdeal.com/2017/03/04/178863_Snapper_SP60V_60V_Lawn_Mower_300_Walmart_in_Store/20%Monthly2017-03-04 11:24
http://www.hotnewdeal.com/2017/03/04/178862_60_Samsung_UN60KU6270_4K_UHD_Smart_LED_HDTV_Refu/20%Monthly2017-03-04 11:13
http://www.hotnewdeal.com/2017/03/04/178861_Xenoblade_Chronicles_X_wii_u_for_2997_GameSto/20%Monthly2017-03-04 11:02
http://www.hotnewdeal.com/2017/03/04/178860_Craftsman_8_Drill_Press_5999_Free_Store_Pickup_/20%Monthly2017-03-04 10:51
http://www.hotnewdeal.com/2017/03/04/178859_Best_Buy__Toshiba__50_Class_495_Diag__LED/20%Monthly2017-03-04 10:51
http://www.hotnewdeal.com/2017/03/04/178858_Netgear_R6400_AC1750_Dual_Band_Router_65AC_Neweg/20%Monthly2017-03-04 10:37
http://www.hotnewdeal.com/2017/03/04/178857_Galaxy_S6_Edge__plus_Screen_Protector_3pack_0/20%Monthly2017-03-04 10:22
http://www.hotnewdeal.com/2017/03/04/178856_Nike_Mens_Lacrosse_Shorts_1598_Tennis_or_Train/20%Monthly2017-03-04 10:21
http://www.hotnewdeal.com/2017/03/04/178855_Sun_Joe_SPX3001_2030_PSI_176_GPM_145_AMP_Electri/20%Monthly2017-03-04 10:11
http://www.hotnewdeal.com/2017/03/04/178854_Sea_Foam_one_gallon_128oz_bulk_3708_after_prom/20%Monthly2017-03-04 10:01
http://www.hotnewdeal.com/2017/03/04/178853_Muscle_Rack_UR361860PB4PSV_Silver_Vein_Steel_Stor/20%Monthly2017-03-04 09:41
http://www.hotnewdeal.com/2017/03/04/178852_6Pack_of_The_Big_One_Washcloths_various_colors_/20%Monthly2017-03-04 09:15
http://www.hotnewdeal.com/2017/03/04/178850_Lysol_No_Mess_Automatic_Toilet_Bowl_Cleaner_Citru/20%Monthly2017-03-04 08:49
http://www.hotnewdeal.com/2017/03/04/178849_WPS_OfficeFree_Metal_Gear_Solid_V_XB1_9_AC__A/20%Monthly2017-03-04 08:36
http://www.hotnewdeal.com/2017/03/04/178848_Sabrent_4_Port_Mini_Portable_USB_30_Hub_2ft_cab/20%Monthly2017-03-04 08:36
http://www.hotnewdeal.com/2017/03/04/178847_Refurbished_Acer_Aspire_Switch_Alpha_12_2560x1440/20%Monthly2017-03-04 08:12
http://www.hotnewdeal.com/2017/03/04/178846_Amazon_has_Pure_Leaf_Iced_Tea_Real_Brewed_Tea_Sw/20%Monthly2017-03-04 07:44
http://www.hotnewdeal.com/2017/03/04/178845_ZEdge_Z3_3Inch_2K_Ultra_Full_HD1296P_2560x1080_C/20%Monthly2017-03-04 05:32
http://www.hotnewdeal.com/2017/03/04/178844_Home_Expressions_Microfiber_Sheet_Set_twin_560/20%Monthly2017-03-04 05:10
http://www.hotnewdeal.com/2017/03/04/178843_EVGA_PowerLink_cable_management_Support_ALL_NVIDI/20%Monthly2017-03-04 05:10
http://www.hotnewdeal.com/2017/03/04/178842_Sunny_Health__Fitness_SFT4400_Treadmill_Gray_/20%Monthly2017-03-04 04:32
http://www.hotnewdeal.com/2017/03/04/178840_Minion_Stuart_HD_WiFi_Cam_1500_WALMART_YMMV/20%Monthly2017-03-04 02:33
http://www.hotnewdeal.com/2017/03/04/178839_6Pairs_of_FILA_SPORT_Womens_NoShow_Hashtag_Sock/20%Monthly2017-03-04 02:11
http://www.hotnewdeal.com/2017/03/04/178838_75Quart_Belgique_Dutch_Oven_Hard_Anodized_or_St/20%Monthly2017-03-04 02:05
http://www.hotnewdeal.com/2017/03/04/178837_Best_Buy__SanDisk__Ultra_Fit_32GB_USB_30_Flash_/20%Monthly2017-03-04 01:33
http://www.hotnewdeal.com/2017/03/04/178836_DeWalt_DWE7480_10Inch_Compact_Job_Site_Table_Saw_/20%Monthly2017-03-04 01:33
http://www.hotnewdeal.com/2017/03/04/178835_CapitalOne_360_Money_Market_Account_1_APY__200/20%Monthly2017-03-04 01:32
http://www.hotnewdeal.com/2017/03/04/178834_Sephora_Colorful_5_Eyeshadow_Palette_11__free_sa/20%Monthly2017-03-04 01:12
http://www.hotnewdeal.com/2017/03/04/178833_Patagonia_Nano_Puff_Hoody_6997_at_Costco/20%Monthly2017-03-04 00:19
http://www.hotnewdeal.com/2017/03/04/178832_Crack_for_199_Crack_with_Speedball_for_299/20%Monthly2017-03-04 00:13
http://www.hotnewdeal.com/2017/03/04/178831_FOG_by_London_Fog_Mens_Outerwear_Packable_Perfor/20%Monthly2017-03-04 00:03
http://www.hotnewdeal.com/2017/03/04/178829_Save_25_off_100_50_off_200_and_75_off_of_4/20%Monthly2017-03-04 00:02
http://www.hotnewdeal.com/2017/03/03/178828_Levis_505_Mens__2999fs__Costcocom_member_o/20%Monthly2017-03-03 23:56
http://www.hotnewdeal.com/2017/03/03/178826_Keebler_Mini_Fudge_Stripes_36count_box_of_2oz_bag/20%Monthly2017-03-03 23:13
http://www.hotnewdeal.com/2017/03/03/178825_Blaze_Pizza_Pi_Day_2017_314_314_for_any_pizza/20%Monthly2017-03-03 23:13
http://www.hotnewdeal.com/2017/03/03/178824_Dell_U3417W_UltraSharp_Curved_3440x1440_60Hz_Monit/20%Monthly2017-03-03 23:06
http://www.hotnewdeal.com/2017/03/03/178823_Various_Piggy_Banks_Star_Wars_Minions_TMNT_etc/20%Monthly2017-03-03 23:00
http://www.hotnewdeal.com/2017/03/03/178822_Eutuxia_Tempered_Glass_Classic_Monitor_Laptop_Stan/20%Monthly2017-03-03 23:00
http://www.hotnewdeal.com/2017/03/03/178821_60_Samsung_UN60KS8000_4K_Smart_SUHD_HDR_1000_HDTV/20%Monthly2017-03-03 22:36
http://www.hotnewdeal.com/2017/03/03/178820_55_Sony_4K_HDTVs_55_XBR55X850D_HDR_4K_HDTV_7/20%Monthly2017-03-03 22:36
http://www.hotnewdeal.com/2017/03/03/178818_Waterpik__Ultra_Water_Flosser__WhiteBlackClear/20%Monthly2017-03-03 22:04
http://www.hotnewdeal.com/2017/03/03/178817_50_Off_Sleeping_Bags_Various_Brands_Starting_a/20%Monthly2017-03-03 22:04
http://www.hotnewdeal.com/2017/03/03/178816_Gilt_City_Voucher_4_Months_Hulu_Limited_Commerci/20%Monthly2017-03-03 21:51
http://www.hotnewdeal.com/2017/03/03/178815_Lenovo_Phab_2_64_32GB_4G_GSM_Unlocked_Smartphone/20%Monthly2017-03-03 21:51
http://www.hotnewdeal.com/2017/03/03/178814_Kid_Trax_6V_Teenage_Mutant_Ninja_Turtle_Quad_Ride/20%Monthly2017-03-03 21:51
http://www.hotnewdeal.com/2017/03/03/178812_Car_Smart_Phone_Mount_Holder_7/20%Monthly2017-03-03 21:45
http://www.hotnewdeal.com/2017/03/03/178811_32GB_Samsung_Galaxy_S7_Edge_Smartphone_for_Sprint_/20%Monthly2017-03-03 21:37
http://www.hotnewdeal.com/2017/03/03/178810_ANNKE_8CH_1080P_HDTVI_H264_Security_DVR_Video_S/20%Monthly2017-03-03 21:37
http://www.hotnewdeal.com/2017/03/03/178809_International_Delight_Hazelnut_Liquid_Creamer_192/20%Monthly2017-03-03 21:13
http://www.hotnewdeal.com/2017/03/03/178808_Kroger_Digital_Coupon_No_Activation_Fee_for_100_/20%Monthly2017-03-03 20:30
http://www.hotnewdeal.com/2017/03/03/178807_35Qt_Cooks_Enameled_Cast_Iron_Dutch_Oven_blue_/20%Monthly2017-03-03 20:15
http://www.hotnewdeal.com/2017/03/03/178806_Evoland_2__7_Steam_games_on_Bundle_Stars_for_14/20%Monthly2017-03-03 20:14
http://www.hotnewdeal.com/2017/03/03/178805_IMMagic_Partition_Resizer_Pro_v32_Free_License_/20%Monthly2017-03-03 20:14
http://www.hotnewdeal.com/2017/03/03/178804_97Ct_Arm__Hammer_Laundry_Detergent_Plus_OxiClean/20%Monthly2017-03-03 20:03
http://www.hotnewdeal.com/2017/03/03/178802_Toshiba_65LED_2160p_4K_Ultra_HD_TV_with_Chromecas/20%Monthly2017-03-03 19:51
http://www.hotnewdeal.com/2017/03/03/178801_Garmin_Forerunner_230_GPS_Running_Watch__Heart_Ra/20%Monthly2017-03-03 19:50
http://www.hotnewdeal.com/2017/03/03/178800_Sony_PSHX500_USB_Turntable_360__free_shipping/20%Monthly2017-03-03 19:37
http://www.hotnewdeal.com/2017/03/03/178799_Focusrite_Scarlett_Solo_USB_Audio_Interface_2nd_G/20%Monthly2017-03-03 19:24
http://www.hotnewdeal.com/2017/03/03/178798_Garmin_Forerunner_10_GPS_Watch_PinkWhite_40_Am/20%Monthly2017-03-03 19:24
http://www.hotnewdeal.com/2017/03/03/178797_Citizen_Mens_BM818003E_EcoDrive_watch_for_719/20%Monthly2017-03-03 18:36
http://www.hotnewdeal.com/2017/03/03/178796_IKEA_Hindo_Outdoor_Storage_Shelves__Cabinets_fro/20%Monthly2017-03-03 18:20
http://www.hotnewdeal.com/2017/03/03/178795_CRC_Heavy_Duty_Silicone_Lubricant_11_Wt_Oz_228_/20%Monthly2017-03-03 18:04
http://www.hotnewdeal.com/2017/03/03/178794_GreenWorks_Pro_80V_20Inch_Cordless_Snow_Thrower_/20%Monthly2017-03-03 18:03
http://www.hotnewdeal.com/2017/03/03/178793_Monoprice_Surge_Protection_Bundle_12Outlet_3420J/20%Monthly2017-03-03 17:56
http://www.hotnewdeal.com/2017/03/03/178792_Canon_T6i_DSLR_Camera__18135mm_STM_Lens__Pro10/20%Monthly2017-03-03 17:51
http://www.hotnewdeal.com/2017/03/03/178790_FoodSaver_V3240_Vacuum_Sealing_System__70__Free/20%Monthly2017-03-03 17:40
http://www.hotnewdeal.com/2017/03/03/178789_Chemical_Guys_V_Line_Polishes_and_Clay_Bar_Sale__/20%Monthly2017-03-03 17:37
http://www.hotnewdeal.com/2017/03/03/178788_2016_Macbook_Pro_13_w_Touch_Bar__1550/20%Monthly2017-03-03 17:37
http://www.hotnewdeal.com/2017/03/03/178787_Scary_Movie_Triple_Feature_Unrated_Bluray_Wi/20%Monthly2017-03-03 17:37
http://www.hotnewdeal.com/2017/03/03/178786_Target_Davern_Cottage_Console_Table_59__FS_Reg/20%Monthly2017-03-03 17:13
http://www.hotnewdeal.com/2017/03/03/178785_Little_Tikes_Easy_Score_Basketball_Hoop_Set_1749/20%Monthly2017-03-03 17:13
http://www.hotnewdeal.com/2017/03/03/178784_Frys_Email_Exclusive_John_Wick_4K_Ultra_HD__Blu/20%Monthly2017-03-03 16:48
http://www.hotnewdeal.com/2017/03/03/178783_Today_Only_Spirit_Airlines_99_off_Flights_or_Fli/20%Monthly2017-03-03 16:43
http://www.hotnewdeal.com/2017/03/03/178782_Amazon_Prime_Lil_Rider_Wiggle_RideOn_Car_249/20%Monthly2017-03-03 16:43
http://www.hotnewdeal.com/2017/03/03/178781_PSA__IKEA_Kitchen_Event_Save_up_to_20_3120174/20%Monthly2017-03-03 16:42
http://www.hotnewdeal.com/2017/03/03/178780_Pampers_Swaddlers_Newborn_Diapers_Size_1_216_Coun/20%Monthly2017-03-03 16:36
http://www.hotnewdeal.com/2017/03/03/178779_VORTEX_SPARC_AR_1X_RED_DOT_SCOPE__SPCAR1_139_w/20%Monthly2017-03-03 16:29
http://www.hotnewdeal.com/2017/03/03/178778_Coboc_6_ft_Gold_Plated_High_Speed_HDMI_to_HDMI_/20%Monthly2017-03-03 16:29
http://www.hotnewdeal.com/2017/03/03/178777_Raisecom_50_Dunkin_Donuts_eGift_Card_3657_26/20%Monthly2017-03-03 16:13
http://www.hotnewdeal.com/2017/03/03/178776_JCPenney_Instore_Coupon_Giveaway__10_Off_10_2/20%Monthly2017-03-03 16:12
http://www.hotnewdeal.com/2017/03/03/178775_Mackie_Multimedia_Speakers_3_CR3_75_or_4_CR4_/20%Monthly2017-03-03 16:03
http://www.hotnewdeal.com/2017/03/03/178774_Sears_25_Off_Keter_Rio_3_Piece_Patio_Furniture_S/20%Monthly2017-03-03 15:37
http://www.hotnewdeal.com/2017/03/03/178773_Refurb__HP_27_27EA_IPS_1920x1080_Monitor_w_Bu/20%Monthly2017-03-03 15:30
http://www.hotnewdeal.com/2017/03/03/178772_165_RT_Denver_to_Cartagena_Columbia__Spirit_Air/20%Monthly2017-03-03 14:50
http://www.hotnewdeal.com/2017/03/03/178771_The_Witness_Humble_Monthly_PC__12/20%Monthly2017-03-03 14:50
http://www.hotnewdeal.com/2017/03/03/178770_Fostex_TH900_mk2_Headphones_w_Detachable_Cable_/20%Monthly2017-03-03 14:36
http://www.hotnewdeal.com/2017/03/03/178768_The_Great_Fusion_and_VR_Space_The_Last_Mission_fo/20%Monthly2017-03-03 14:22
http://www.hotnewdeal.com/2017/03/03/178766_Honeywell_Manual_360Degree_Surround_Heater_Black/20%Monthly2017-03-03 14:22
http://www.hotnewdeal.com/2017/03/03/178765_A_Kings_Tale_Final_Fantasy_XV__Free_Download_fo/20%Monthly2017-03-03 14:12
http://www.hotnewdeal.com/2017/03/03/178764_Frys_BM_Store_34_Klipsch_R115SW__Wireless_Kit/20%Monthly2017-03-03 14:12
http://www.hotnewdeal.com/2017/03/03/178763_Oneidas_36_Hour_Sale_Extra_30_Off_Sitewide__3/20%Monthly2017-03-03 14:11
http://www.hotnewdeal.com/2017/03/03/178762_Danner_60_Sale_on_many_sytles__STEADFAST_6_REAL/20%Monthly2017-03-03 14:02
http://www.hotnewdeal.com/2017/03/03/178761_Amazon_Mentos_Rolls_Mint_132_Ounce_Pack_of_15/20%Monthly2017-03-03 14:01
http://www.hotnewdeal.com/2017/03/03/178760_Dell_Inspiron_156_Touchscreen_Laptop_7th_Gen_In/20%Monthly2017-03-03 14:01
http://www.hotnewdeal.com/2017/03/03/178759_Stafford_Mens_Easy_Care_Dress_Shirts_850__free/20%Monthly2017-03-03 13:41
http://www.hotnewdeal.com/2017/03/03/178758_Dunkin_Donuts_5_for_10_eGift_Card_at_Groupon__/20%Monthly2017-03-03 13:41
http://www.hotnewdeal.com/2017/03/03/178757_Sunham_Supreme_Select_100_Cotton_Bath_Towel_4_ea/20%Monthly2017-03-03 13:41
http://www.hotnewdeal.com/2017/03/03/178756_LOGAN_Special_Offer_5_OFF_your_order_when_you_bu/20%Monthly2017-03-03 13:26
http://www.hotnewdeal.com/2017/03/03/178755_The_Legend_of_Zelda_Breath_of_the_Wild_Standard_E/20%Monthly2017-03-03 13:26
http://www.hotnewdeal.com/2017/03/03/178753_Vornado_5303DC_Energy_Smart_Air_Circulator_for_Ama/20%Monthly2017-03-03 13:22
http://www.hotnewdeal.com/2017/03/03/178752_Girls_clearance_clothes_23_free_store_pickup_W/20%Monthly2017-03-03 13:22
http://www.hotnewdeal.com/2017/03/03/178751_FreedomPop_Global_SIM_Promo_3GB_001_33/20%Monthly2017-03-03 13:22
http://www.hotnewdeal.com/2017/03/03/178750_ASUS_Dualfan_Radeon_RX_480_4GB_OC_Edition_at_jet/20%Monthly2017-03-03 13:21
http://www.hotnewdeal.com/2017/03/03/178749_Cool_Gear_Infusion_Pitcher_825oz_w_Water_Filte/20%Monthly2017-03-03 13:21
http://www.hotnewdeal.com/2017/03/03/178748_699_Toshiba_8GB_microSDHC_UHSI_Memory_Card_Kit_/20%Monthly2017-03-03 13:21
http://www.hotnewdeal.com/2017/03/03/178747_Courage_Under_Fire_Bluray_496_Amazon_addon_/20%Monthly2017-03-03 13:15
http://www.hotnewdeal.com/2017/03/03/178746_Kaspersky_Internet_Security_3Dev_Free_after_55_R/20%Monthly2017-03-03 13:15
http://www.hotnewdeal.com/2017/03/03/178745_MSI_GeForce_GTX_1080_w_Bundled_Game_For_Honor__/20%Monthly2017-03-03 13:10
http://www.hotnewdeal.com/2017/03/03/178744_Fujifilm_Instax_Mini_Film_Pack_20_1099_60_3/20%Monthly2017-03-03 12:58
http://www.hotnewdeal.com/2017/03/03/178743_BHG_Coffee_Table_Vintage_Oak_Reg_159_Clearance/20%Monthly2017-03-03 12:58
http://www.hotnewdeal.com/2017/03/03/178742_Cuisinart_Small_Appliances_12Cup_Programmable_Co/20%Monthly2017-03-03 12:57
http://www.hotnewdeal.com/2017/03/03/178741_Best_Picture_Academy_Award_Winners_5Film_Bluray/20%Monthly2017-03-03 12:57
http://www.hotnewdeal.com/2017/03/03/178740_Tot_Tutors_Focus_Wood_Art_Activity_Desk_and_Stool_/20%Monthly2017-03-03 12:57
http://www.hotnewdeal.com/2017/03/03/178739_3Count_Willow__Everett_Garment_Bags_with_Shoe_Ba/20%Monthly2017-03-03 12:43
http://www.hotnewdeal.com/2017/03/03/178738_Buy_1_Select_Video_Game_Get_40_Off_a_2nd__Best_/20%Monthly2017-03-03 12:35
http://www.hotnewdeal.com/2017/03/03/178737_Britax_Roundabout_G41_Convertible_Car_Seat__Onyx/20%Monthly2017-03-03 12:34
http://www.hotnewdeal.com/2017/03/03/178736_New_Xbox_One_S_1TB_Console__Gears_of_War_4_Bundle/20%Monthly2017-03-03 12:24
http://www.hotnewdeal.com/2017/03/03/178735_25_Dell_U2515H_2560x1440_IPS_Monitor_290__free_/20%Monthly2017-03-03 12:20
http://www.hotnewdeal.com/2017/03/03/178733_BACK_again_Natures_Bakery_Whole_Wheat_Fig_Bar_P/20%Monthly2017-03-03 12:01
http://www.hotnewdeal.com/2017/03/03/178732_TurboTax_Premier_5065__Amazon/20%Monthly2017-03-03 11:56
http://www.hotnewdeal.com/2017/03/03/178731_Pampers_Baby_Dry_Diapers_Size_6_128_Count_1740_/20%Monthly2017-03-03 11:50
http://www.hotnewdeal.com/2017/03/03/178730_RAVPower_20100mAh_Portable_Charger_w__Qualcomm_Qu/20%Monthly2017-03-03 11:50
http://www.hotnewdeal.com/2017/03/03/178729_Weber_Genesis_E330_in_Copper_449__Home_Depot_C/20%Monthly2017-03-03 11:40
http://www.hotnewdeal.com/2017/03/03/178728_Nintendo_Switch__Dellcom_Can_be_combined_with_/20%Monthly2017-03-03 11:36
http://www.hotnewdeal.com/2017/03/03/178727_Macys_Belgique_HardAnodized_75Qt_Dutch_Oven_/20%Monthly2017-03-03 11:36
http://www.hotnewdeal.com/2017/03/03/178726_79_SpiderMan_6V_Speed_Electric_BatteryPowered_C/20%Monthly2017-03-03 11:36
http://www.hotnewdeal.com/2017/03/03/178725_Eddie_Bauer_Extra_40_off_Clearance__Free_shippi/20%Monthly2017-03-03 11:36
http://www.hotnewdeal.com/2017/03/03/178723_Ricoh_SP_C250DN_Color_Wireless_Laser_Printe_for_6/20%Monthly2017-03-03 11:21
http://www.hotnewdeal.com/2017/03/03/178722_Home_Expressions_Solid_Bath_Towel_255_each__fre/20%Monthly2017-03-03 11:11
http://www.hotnewdeal.com/2017/03/03/178721_Nintendo_Switch_Grey_and_Neon_on_Google_Express_29/20%Monthly2017-03-03 10:58
http://www.hotnewdeal.com/2017/03/03/178720_2Pack_of_Foscam_C1_Black_Indoor_HD_720P_Wireless_/20%Monthly2017-03-03 10:58
http://www.hotnewdeal.com/2017/03/03/178719_TMobile_Free_iPhone_7_after_trade_in_and_rebate_a/20%Monthly2017-03-03 10:39
http://www.hotnewdeal.com/2017/03/03/178718_Asus_12x_USB_30_Desktop_External_Bluray_Writer_f/20%Monthly2017-03-03 10:20
http://www.hotnewdeal.com/2017/03/03/178717_Refurb_215_HP_Compaq_LA2206x_1920x1080_5ms_TN_L/20%Monthly2017-03-03 10:20
http://www.hotnewdeal.com/2017/03/03/178716_Acer_K272HUL_UMHX2AAD03_Black_27_IPS_2560_x_1/20%Monthly2017-03-03 10:10
http://www.hotnewdeal.com/2017/03/03/178715_Unadvertised_90_off_CVS_bath_sets/20%Monthly2017-03-03 10:05
http://www.hotnewdeal.com/2017/03/03/178714_Nike_Mens_Home_Soccer_Jerseys_3998_20162017_F/20%Monthly2017-03-03 09:50
http://www.hotnewdeal.com/2017/03/03/178713_Nintendo_Switch_Bundle_from_BHvideo__41995_Inc/20%Monthly2017-03-03 09:50
http://www.hotnewdeal.com/2017/03/03/178711_Nourish_Digital_Kitchen_Food_Scale_Grey_799_A/20%Monthly2017-03-03 09:40
http://www.hotnewdeal.com/2017/03/03/178710_Logitech__M557_Bluetooth_Mouse__Dark_Gray_13Be/20%Monthly2017-03-03 09:40
http://www.hotnewdeal.com/2017/03/03/178709_Smithsonian_Magazine_1Year_Subscription_for_849/20%Monthly2017-03-03 09:40
http://www.hotnewdeal.com/2017/03/03/178708_The_Legend_of_Zelda_Breath_of_the_Wild_Special_Edi/20%Monthly2017-03-03 09:36
http://www.hotnewdeal.com/2017/03/03/178707_Home_Depot_Dewalt_20Volt_MAX_LithiumIon_Cordless/20%Monthly2017-03-03 08:58
http://www.hotnewdeal.com/2017/03/03/178706_Nutiva_Organic_Coconut_Oil_Refined_1_Gallon__1/20%Monthly2017-03-03 08:58
http://www.hotnewdeal.com/2017/03/03/178705_Mothers_Wheel_Brush_509_Amazon/20%Monthly2017-03-03 08:49
http://www.hotnewdeal.com/2017/03/03/178704_Bose_QuietComfort_25_Noise_Cancelling_Headphones_/20%Monthly2017-03-03 08:44
http://www.hotnewdeal.com/2017/03/03/178703_Michelin_Pro4_Road_Bicycle_Tire__two_for_52_w_fr/20%Monthly2017-03-03 08:28
http://www.hotnewdeal.com/2017/03/03/178702_Target_Womens_Juniors_Mossimo_Supply_Fleece_P/20%Monthly2017-03-03 08:19
http://www.hotnewdeal.com/2017/03/03/178701_Kohls_Cardholders_Star_Wars_Fun_Kits_Magnetic_Ac/20%Monthly2017-03-03 07:45
http://www.hotnewdeal.com/2017/03/03/178700_Cravegreens_Pest_Control_Ultrasonic_Repellent_Ele/20%Monthly2017-03-03 07:36
http://www.hotnewdeal.com/2017/03/03/178699_Syba_PCIE_20_SATA_III_Controller_Card_for_FAR_A/20%Monthly2017-03-03 07:36
http://www.hotnewdeal.com/2017/03/03/178698_2558_Prime_Pampers_Swaddlers_Diapers_Size_5_152/20%Monthly2017-03-03 07:35
http://www.hotnewdeal.com/2017/03/03/178697_Riedel_WineChampagne_Glasses__Kohls__2_for_8/20%Monthly2017-03-03 07:25
http://www.hotnewdeal.com/2017/03/03/178696_Samsung_Gear_360_for_99__free_shipping/20%Monthly2017-03-03 07:22
http://www.hotnewdeal.com/2017/03/03/178694_60_Watt_DIMMABLE_LED_light_bulb_119_Lowes_YMM/20%Monthly2017-03-03 07:11
http://www.hotnewdeal.com/2017/03/03/178693_San_Francisco_to_Las_Vegas_or_vice_versa_56_RT_on/20%Monthly2017-03-03 07:06
http://www.hotnewdeal.com/2017/03/03/178692_Sears_Craftsman_HarleyDavidson_3_Drawer_Portable/20%Monthly2017-03-03 06:10
http://www.hotnewdeal.com/2017/03/03/178691_8Port_Netgear_ProSAFE_Unmanaged_Metal_Gigabit_Swi/20%Monthly2017-03-03 05:31
http://www.hotnewdeal.com/2017/03/03/178690_MiracleGro_Drip_and_Soaker_Kit_regular_40_boug/20%Monthly2017-03-03 04:10
http://www.hotnewdeal.com/2017/03/03/178689_Nintendo_Switch_Pro_Controller__other_accessories/20%Monthly2017-03-03 02:32
http://www.hotnewdeal.com/2017/03/03/178688_Nintendo_Switch_Bundle_Pro_Controller__Zelda__/20%Monthly2017-03-03 02:10
http://www.hotnewdeal.com/2017/03/03/178687_Kohls_Cardholders_3Pack_EOS_Holiday_Lip_Balm_Sph/20%Monthly2017-03-03 02:10
http://www.hotnewdeal.com/2017/03/03/178686_PNY_128GB_Elite_microSDXC_UHSIU1_Class_10_Memory/20%Monthly2017-03-03 01:11
http://www.hotnewdeal.com/2017/03/03/178685_HGST_Desktar_NAS_5TB__Frys_11999tax_instore_o/20%Monthly2017-03-03 01:11
http://www.hotnewdeal.com/2017/03/03/178684_1349_Enfagrow_Toddler_Transitions_Infant_and_Tod/20%Monthly2017-03-03 01:11
http://www.hotnewdeal.com/2017/03/03/178683_Battlefield_1__Titanfall_2_Deluxe_Bundle_50_pl/20%Monthly2017-03-03 01:11
http://www.hotnewdeal.com/2017/03/03/178682_Today_only_free_shipping_at_elf_cosmetics__fr/20%Monthly2017-03-03 01:06
http://www.hotnewdeal.com/2017/03/02/178680_BEN_Handle_for_Yeti_Tumbler_30_oz__Yellow_ONLY_/20%Monthly2017-03-02 22:52
http://www.hotnewdeal.com/2017/03/02/178679_75_LG_75UH8500_4K_UHD_HDR_3D_Smart_LED_HDTV_2475/20%Monthly2017-03-02 22:52
http://www.hotnewdeal.com/2017/03/02/178677_Dell_Ladies_Tote_w_14_Laptop_Sleeve_10_After_2/20%Monthly2017-03-02 22:29
http://www.hotnewdeal.com/2017/03/02/178676_Micro_Center__GeForce_GTX_1080_Models_8GB__519/20%Monthly2017-03-02 22:23
http://www.hotnewdeal.com/2017/03/02/178675_NETGEAR_Nighthawk_X4S__AC2600_4x4_MUMIMO_Smart_W/20%Monthly2017-03-02 22:12
http://www.hotnewdeal.com/2017/03/02/178674_Skullcandy_INKD_20_Earbud_Headphones__425/20%Monthly2017-03-02 22:12
http://www.hotnewdeal.com/2017/03/02/178673_Turbotax_Home__Business_2016_5335_PCMac_Disc/20%Monthly2017-03-02 22:02
http://www.hotnewdeal.com/2017/03/02/178672_Bosch_300_Series_Dishwasher_Stainless__Clearanc/20%Monthly2017-03-02 21:37
http://www.hotnewdeal.com/2017/03/02/178671_Gillette_Fusion_Razor_Cartridge_Refills_4_Count_/20%Monthly2017-03-02 21:37
http://www.hotnewdeal.com/2017/03/02/178669_2Pack_Scotch_Transparent_Tape_1__Free_Prime_Shi/20%Monthly2017-03-02 21:13
http://www.hotnewdeal.com/2017/03/02/178668_Power_Wheels_12Volt_OEM_Replacement_Battery__32/20%Monthly2017-03-02 21:13
http://www.hotnewdeal.com/2017/03/02/178667_ASUS_15inch_Gaming_Laptop_i77700HQ_GTX_1060_1/20%Monthly2017-03-02 20:58
http://www.hotnewdeal.com/2017/03/02/178666_Factory_Recertified_Acer_Aspire_TC710_Desktop_Int/20%Monthly2017-03-02 20:29
http://www.hotnewdeal.com/2017/03/02/178665_Dell_133_2in1_Touchscreen_Full_HD_Laptop_Pent/20%Monthly2017-03-02 20:29
http://www.hotnewdeal.com/2017/03/02/178664_Timberland_Womens_White_Ledge_WaterProof_Hiking_B/20%Monthly2017-03-02 20:02
http://www.hotnewdeal.com/2017/03/02/178663_18_Deep_Pocket_Embossed_Hypoallergenic_Mattress_P/20%Monthly2017-03-02 19:51
http://www.hotnewdeal.com/2017/03/02/178662_Kids_Receive_2_FREE_GAMES_Of_Bowling_Every_Day_All/20%Monthly2017-03-02 19:37
http://www.hotnewdeal.com/2017/03/02/178661_ASUS_ZenBook_Touch_Ultrabook_i75500U_133_2560/20%Monthly2017-03-02 19:37
http://www.hotnewdeal.com/2017/03/02/178660_Folding_Drain_Rack__YKL_Stainless_Steel_Colander_/20%Monthly2017-03-02 19:37
http://www.hotnewdeal.com/2017/03/02/178659_AMD_Ryzen_7_1700X__37999_Shipped_from_Monoprice/20%Monthly2017-03-02 19:00
http://www.hotnewdeal.com/2017/03/02/178658_AllNew_Fire_HD_8_Tablet_8_HD_Display_WiFi_16/20%Monthly2017-03-02 19:00
http://www.hotnewdeal.com/2017/03/02/178657_Stanley_10_off_50_Promotion_on_Amazon/20%Monthly2017-03-02 18:59
http://www.hotnewdeal.com/2017/03/02/178656_Lenovo_IdeaCentre_30020ish_Desktop_PC_Intel_Quad/20%Monthly2017-03-02 18:59
http://www.hotnewdeal.com/2017/03/02/178655_The_Giving_Tree_831_at_Amazon/20%Monthly2017-03-02 18:48
http://www.hotnewdeal.com/2017/03/02/178654_XFX_Radeon_RX_480_RX480P836BM_8GB_GDDR5_Video_Car/20%Monthly2017-03-02 18:44
http://www.hotnewdeal.com/2017/03/02/178653_Polk_LSi_M_Speaker_Sale_LSi_M704c_Center_325_M7/20%Monthly2017-03-02 18:15
http://www.hotnewdeal.com/2017/03/02/178652_Amazon_Amex_Membership_Rewards_Cardholders_Pay_w/20%Monthly2017-03-02 18:14
http://www.hotnewdeal.com/2017/03/02/178651_Arthur_Christmas_Bluray_3D__Bluray__DVD__Ult/20%Monthly2017-03-02 18:03
http://www.hotnewdeal.com/2017/03/02/178650_Target_Coupon_Extra_50_Off_Boys_Hoodies/20%Monthly2017-03-02 17:52
http://www.hotnewdeal.com/2017/03/02/178648_BeatsX_Earphones_Bose_SoundSport_wireless11249/20%Monthly2017-03-02 17:40
http://www.hotnewdeal.com/2017/03/02/178647_The_Big_Book_of_Berenstain_Bears_Beginner_Books_ha/20%Monthly2017-03-02 17:31
http://www.hotnewdeal.com/2017/03/02/178646_12_Stanley_TV_Top_Shelf_1548__FSSS/20%Monthly2017-03-02 17:31
http://www.hotnewdeal.com/2017/03/02/178645_All_Vizio_M_and_P_series_10_off__M50D1_4K_HDR_/20%Monthly2017-03-02 17:23
http://www.hotnewdeal.com/2017/03/02/178643_82000__British_Airways_Avios_for_54857_via_Bri/20%Monthly2017-03-02 17:13
http://www.hotnewdeal.com/2017/03/02/178642_Travelpro_Inflight_Mobile_Office_20_Inch__Duffe/20%Monthly2017-03-02 17:13
http://www.hotnewdeal.com/2017/03/02/178641_Chemical_Guys_Hybrid_V7_Quick_Detailer_and_EcoSmar/20%Monthly2017-03-02 16:57
http://www.hotnewdeal.com/2017/03/02/178640_New_York_to_Mumbai_India_565_RT_on_Air_China_Tra/20%Monthly2017-03-02 16:36
http://www.hotnewdeal.com/2017/03/02/178639_Yankee_Candle_Printable_Coupon_Buy_1_2_or_3_Cand/20%Monthly2017-03-02 16:22
http://www.hotnewdeal.com/2017/03/02/178638_Refurbed_Acer_Desktop_Intel_Core_i5_6th_Gen_6400_/20%Monthly2017-03-02 16:22
http://www.hotnewdeal.com/2017/03/02/178637_Assassins_Creed_Unity_Dead_Kings_Underground_Arm/20%Monthly2017-03-02 16:22
http://www.hotnewdeal.com/2017/03/02/178636_How_Doctors_Think_Kindle_Edition_199_on_amazon/20%Monthly2017-03-02 16:22
http://www.hotnewdeal.com/2017/03/02/178635_AmazonBasics_Premium_8Piece_Steak_Knife_Set_for_/20%Monthly2017-03-02 16:17
http://www.hotnewdeal.com/2017/03/02/178634_Yahoo_Company_Store_22_Off_Sitewide_Today_Only/20%Monthly2017-03-02 16:11
http://www.hotnewdeal.com/2017/03/02/178633_Timbuk2_Meta_15_Messenger_Bag_25_After_35_Slick/20%Monthly2017-03-02 16:05
http://www.hotnewdeal.com/2017/03/02/178632_Dell_Alienware_15_R3_Laptop_i76700HQ_GTX_1070_/20%Monthly2017-03-02 16:01
http://www.hotnewdeal.com/2017/03/02/178631_Linia__Android_puzzle_game_is_free_usually_199/20%Monthly2017-03-02 15:51
http://www.hotnewdeal.com/2017/03/02/178630_Dragon_Quest_Builders_PS4_3499_Toys_R_Us_Free/20%Monthly2017-03-02 15:51
http://www.hotnewdeal.com/2017/03/02/178629_Mega_Bloks_First_Builders_Cozy_Cottage_Building_Se/20%Monthly2017-03-02 15:51
http://www.hotnewdeal.com/2017/03/02/178628_Lululemon_Womens_Reversible_3_Running_Short_29_/20%Monthly2017-03-02 15:38
http://www.hotnewdeal.com/2017/03/02/178627_APEKX_Wireless_41_Bluetooth_Stereo_InEar_Lightwe/20%Monthly2017-03-02 15:30
http://www.hotnewdeal.com/2017/03/02/178626_Travelers_Club_Luggage_Charlott_20_Expandable_Har/20%Monthly2017-03-02 15:30
http://www.hotnewdeal.com/2017/03/02/178625_2Pack_Okra_Vent_Car_Mount_for_710_AC__Free_Shi/20%Monthly2017-03-02 15:23
http://www.hotnewdeal.com/2017/03/02/178624_50_Off_Doctor_Strange_999_VUDU_YMMV/20%Monthly2017-03-02 15:23
http://www.hotnewdeal.com/2017/03/02/178623_MSI_RX_480_4GB_16499_After_30_rebate_free_ship_/20%Monthly2017-03-02 15:12
http://www.hotnewdeal.com/2017/03/02/178622_Chicken_Coop_up_to_6_chickens_319_normally_489/20%Monthly2017-03-02 15:12
http://www.hotnewdeal.com/2017/03/02/178621_TPLink_AC2600_Wireless_4x4_MUMIMO_Gigabit_Router/20%Monthly2017-03-02 15:06
http://www.hotnewdeal.com/2017/03/02/178620_Klipsch_Reference_Series_X6i_InEar_Headphones_80/20%Monthly2017-03-02 15:06
http://www.hotnewdeal.com/2017/03/02/178619_Weber_Genesis_S330_599__Home_Depot_Clearance_/20%Monthly2017-03-02 14:44
http://www.hotnewdeal.com/2017/03/02/178618_Highland_Sugarworks_Grade_A_Dark_Color_1_qt_Jug_a/20%Monthly2017-03-02 14:34
http://www.hotnewdeal.com/2017/03/02/178617_Mad_Max_Anthology_Bluray_1782_shipped_via_Zavvi/20%Monthly2017-03-02 14:16
http://www.hotnewdeal.com/2017/03/02/178616_Igloo_Compact_Ice_Maker_Silver_4500_Walmart_/20%Monthly2017-03-02 14:13
http://www.hotnewdeal.com/2017/03/02/178615_GOJO_Fast_Wipes_Hand_Cleaning_Towel_25_Count_Cani/20%Monthly2017-03-02 14:12
http://www.hotnewdeal.com/2017/03/02/178614_IMALENT_DT70_16000_Lumen_Rechargeable_LED_Flashli/20%Monthly2017-03-02 14:12
http://www.hotnewdeal.com/2017/03/02/178613_Lenovo_Flex_4_14_Laptop_i7_6500U_512GB_SSD_8GB/20%Monthly2017-03-02 14:02
http://www.hotnewdeal.com/2017/03/02/178612_ScotchBriteTM_Surface_Preparation_Pad_SPP14x28/20%Monthly2017-03-02 13:50
http://www.hotnewdeal.com/2017/03/02/178611_Up_to_53_off_Water_Filtration_Systems_Aquasana_2/20%Monthly2017-03-02 13:50
http://www.hotnewdeal.com/2017/03/02/178610_TMobile_FREE_subscription_to_MLBTV_Premium__MLB/20%Monthly2017-03-02 13:41
http://www.hotnewdeal.com/2017/03/02/178609_15_off_Select_Klein_Tools__Home_Depot/20%Monthly2017-03-02 13:41
http://www.hotnewdeal.com/2017/03/02/178608_METRx_NOS_Pumped_Blue_Raspberry_169_ounce_12_c/20%Monthly2017-03-02 13:37
http://www.hotnewdeal.com/2017/03/02/178607_Marvel_Comics__Comixology_Digital_Comics_Free__X/20%Monthly2017-03-02 13:23
http://www.hotnewdeal.com/2017/03/02/178606_200_Savings_on_the_popular_Olympus_EM1_Mark_II_/20%Monthly2017-03-02 13:13
http://www.hotnewdeal.com/2017/03/02/178605_Matchbox_Treasure_Truck_Metal_Detector_689__Ama/20%Monthly2017-03-02 13:13
http://www.hotnewdeal.com/2017/03/02/178604_Citizen_EcoDrive_watches_up_to_50_off__Sears__/20%Monthly2017-03-02 13:06
http://www.hotnewdeal.com/2017/03/02/178603_50_Off_all_FLASH_Deals_with_coupon_code_FLASH50_/20%Monthly2017-03-02 12:58
http://www.hotnewdeal.com/2017/03/02/178602_Smithsonian_Magazine_849_per_year/20%Monthly2017-03-02 12:58
http://www.hotnewdeal.com/2017/03/02/178601_Borderlands_2_GOTY_Steam__780/20%Monthly2017-03-02 12:58
http://www.hotnewdeal.com/2017/03/02/178600_BESTEK_600A_Peak_10000mAh_Car_Battery_Charger__Ju/20%Monthly2017-03-02 12:52
http://www.hotnewdeal.com/2017/03/02/178599_33ft_iXCC_Element_II_Lightning_Cable_MFi_Certifi/20%Monthly2017-03-02 12:52
http://www.hotnewdeal.com/2017/03/02/178598_Spigen_Case_for_Amazon_Kindle_Paperwhite_or_Fire_7/20%Monthly2017-03-02 12:41
http://www.hotnewdeal.com/2017/03/02/178597_Little_Caesars_New_Smokehouse_Pizza_for_Only_4/20%Monthly2017-03-02 12:41
http://www.hotnewdeal.com/2017/03/02/178596_San_Francisco_to_Huatulco_Mexico_BUSINESS_CLASS_AI/20%Monthly2017-03-02 12:31
http://www.hotnewdeal.com/2017/03/02/178595_Smith_Optics_Elite_Outside_the_Wire_Goggle_Deluxe_/20%Monthly2017-03-02 12:31
http://www.hotnewdeal.com/2017/03/02/178594_Ohuhu_Tip_Darts_with_National_Flag_Flights_Stainle/20%Monthly2017-03-02 12:31
http://www.hotnewdeal.com/2017/03/02/178592_Hanes_Clearance_Sale_Mens_Graphic_Tees_399_Wo/20%Monthly2017-03-02 12:13
http://www.hotnewdeal.com/2017/03/02/178591_72Pack_Foray_Porous_Point_5mm_Black_Ink_Pens_19/20%Monthly2017-03-02 12:08
http://www.hotnewdeal.com/2017/03/02/178590_Nintendo_Switch_29999_via_Amazon_Prime_Now_YMMW/20%Monthly2017-03-02 12:03
http://www.hotnewdeal.com/2017/03/02/178589_Walmart_more_clearance_Grilling_goodies_Most_for_/20%Monthly2017-03-02 12:03
http://www.hotnewdeal.com/2017/03/02/178588_FateEXTELLA_The_Umbral_Star_by_Xseed_PS4_366/20%Monthly2017-03-02 12:03
http://www.hotnewdeal.com/2017/03/02/178587_10_for_a_15_eGift_Card_to_Chuck_E_Cheeses/20%Monthly2017-03-02 11:51
http://www.hotnewdeal.com/2017/03/02/178586_Ziploc_Flexible_Totes_Jumbo_22_Gallon_size__3/20%Monthly2017-03-02 11:50
http://www.hotnewdeal.com/2017/03/02/178584_2Pack_Paring_Knives_Set_152__Free_Prime_Shippi/20%Monthly2017-03-02 11:38
http://www.hotnewdeal.com/2017/03/02/178583_Microsoft__Wired_Controller_for_Xbox_One_and_PC_/20%Monthly2017-03-02 11:28
http://www.hotnewdeal.com/2017/03/02/178582_Fractal_Design_Define_R5_Black_Window_Silent_ATX_M/20%Monthly2017-03-02 11:23
http://www.hotnewdeal.com/2017/03/02/178581_FDA_Certified_Wrist_Digital_Blood_Pressure_Monitor/20%Monthly2017-03-02 11:23
http://www.hotnewdeal.com/2017/03/02/178580_Barrie_House_Kcups_80ct_for_1999_or_less/20%Monthly2017-03-02 11:12
http://www.hotnewdeal.com/2017/03/02/178579_Intel_Core_i57600K_Kaby_Lake_420_GHz_LGA_1151_1/20%Monthly2017-03-02 11:12
http://www.hotnewdeal.com/2017/03/02/178577_Skylanders_Imaginators_Thumpin_Whumpa_Islands_Adv/20%Monthly2017-03-02 10:51
http://www.hotnewdeal.com/2017/03/02/178576_Dell_SE2416HSC1_24_1080P_IPS_AntiGlare_Monitor_/20%Monthly2017-03-02 10:51
http://www.hotnewdeal.com/2017/03/02/178575_Allen_Edmonds_Additional_20_Off_Select_Mens_Cle/20%Monthly2017-03-02 10:40
http://www.hotnewdeal.com/2017/03/02/178574_LG_G5_32gb_for_5_per_month/20%Monthly2017-03-02 10:35
http://www.hotnewdeal.com/2017/03/02/178573_Asus_Strix_Radeon_Amd_RX_470_4GB_115_after_30_Re/20%Monthly2017-03-02 10:19
http://www.hotnewdeal.com/2017/03/02/178572_48count_Dreambaby_Outlet_Plugs_148__Free_Prime/20%Monthly2017-03-02 10:13
http://www.hotnewdeal.com/2017/03/02/178571_The_Ren__Stimpy_Show_1st__2nd_Seasons_Uncut_/20%Monthly2017-03-02 10:13
http://www.hotnewdeal.com/2017/03/02/178570_25_Off_Select_Kitchen_Items_Instant_Pot_IPDUO60/20%Monthly2017-03-02 09:51
http://www.hotnewdeal.com/2017/03/02/178569_1000Piece_Video_Game_Puzzles_Mass_Effect_Fallou/20%Monthly2017-03-02 09:38
http://www.hotnewdeal.com/2017/03/02/178568_New_Balance_630v5_Mens_Running_Shoe_gray_for_3/20%Monthly2017-03-02 09:37
http://www.hotnewdeal.com/2017/03/02/178567_FisherPrice_Bob_the_Builder_Talking_Tool_Belt_11/20%Monthly2017-03-02 09:37
http://www.hotnewdeal.com/2017/03/02/178566_Sears_Motorola_oem_Brand_New_Google_Nexus_6_XT1103/20%Monthly2017-03-02 09:23
http://www.hotnewdeal.com/2017/03/02/178565_Make_Magazine_DIY_Projects_HowTos_Electronic/20%Monthly2017-03-02 09:13
http://www.hotnewdeal.com/2017/03/02/178563_TiVo_Roamio_OTA_1_TB_DVR_30540__FREE_Shipping_/20%Monthly2017-03-02 08:52
http://www.hotnewdeal.com/2017/03/02/178562_12Count_of_25oz_Earths_Best_Organic_Stage_1_My/20%Monthly2017-03-02 08:28
http://www.hotnewdeal.com/2017/03/02/178561_Spigen_Apple_iPhone_7_Plus_Thin_Fit_QNMP_Ultra_S/20%Monthly2017-03-02 08:14
http://www.hotnewdeal.com/2017/03/02/178560_Switch_to_Cricket_and_get_a_50_bill_credit/20%Monthly2017-03-02 08:03
http://www.hotnewdeal.com/2017/03/02/178559_Ice_Freezer_Packs_For_Lunches_2Pack_1__FS/20%Monthly2017-03-02 07:48
http://www.hotnewdeal.com/2017/03/02/178558_PS4_Gaming_Headset_with_Microphone_for_PlayStation/20%Monthly2017-03-02 07:48
http://www.hotnewdeal.com/2017/03/02/178557_Natures_Bakery_Whole_Wheat_Fig_Bar_Lemon_Vegan_/20%Monthly2017-03-02 06:35
http://www.hotnewdeal.com/2017/03/02/178556_Huge_Discounts_Seems_like_Price_Mistake_on_Lexma/20%Monthly2017-03-02 06:35
http://www.hotnewdeal.com/2017/03/02/178555_Call_Recorder_License__ACR_for_Android_for_099/20%Monthly2017-03-02 06:13
http://www.hotnewdeal.com/2017/03/02/178554_ZEALOT_S6_Waterproof_Portable_Bluetooth_Speakers_P/20%Monthly2017-03-02 06:13
http://www.hotnewdeal.com/2017/03/02/178553_35_off_Kingtoys_Guitar_Capo_Electric_Guitar_Banjo/20%Monthly2017-03-02 05:27
http://www.hotnewdeal.com/2017/03/02/178552_Free_After_Rebate_DEEPCOOL_WIND_PAL_MINI_Laptop_C/20%Monthly2017-03-02 05:12
http://www.hotnewdeal.com/2017/03/02/178551_MANGROOMER_Professional_DoItYourself_Electric_Ba/20%Monthly2017-03-02 05:12
http://www.hotnewdeal.com/2017/03/02/178550_Apple_iPad_Air_2_97_WiFi_Tablet_32GB_29999_or/20%Monthly2017-03-02 04:32
http://www.hotnewdeal.com/2017/03/02/178549_Target_Free_5_Target_Gift_card_with_Beauty__Per/20%Monthly2017-03-02 04:32
http://www.hotnewdeal.com/2017/03/02/178548_Lenovo_IdeaCentre_710_Desktop_PC_Intel_Core_i767/20%Monthly2017-03-02 04:12
http://www.hotnewdeal.com/2017/03/02/178547_Resident_Evil_7_Biohazard_PS4_or_Xbox_One_399/20%Monthly2017-03-02 03:36
http://www.hotnewdeal.com/2017/03/02/178545_Starcraft_II_Wings_of_Liberty_999_Heart_of_the/20%Monthly2017-03-02 02:34
http://www.hotnewdeal.com/2017/03/02/178544_Polk_Audio_MagniFi_Mini_Home_Theater_Sound_Bar_Sys/20%Monthly2017-03-02 02:27
http://www.hotnewdeal.com/2017/03/02/178543_Cell_Phone_Dashboard_Windshield_Holder__699_Aft/20%Monthly2017-03-02 02:13
http://www.hotnewdeal.com/2017/03/02/178542_48_ct_Martinson_K_Cups_for_1699__10_Menards_S/20%Monthly2017-03-02 01:34
http://www.hotnewdeal.com/2017/03/02/178541_Lenovo_Miix_700_12_Touchscreen_Laptop_Intel_Core_/20%Monthly2017-03-02 01:13
http://www.hotnewdeal.com/2017/03/02/178540_Nikon_D3400_242MP_DSLR_Camera_with_AFP_1855mm_V/20%Monthly2017-03-02 01:13
http://www.hotnewdeal.com/2017/03/02/178539_676_NIVEA_Men_Sensitive_Shaving_Foam_7_Ounce_Pa/20%Monthly2017-03-02 00:20
http://www.hotnewdeal.com/2017/03/02/178538_Amazoncom__16_Count_Larabar_Gluten_Free_Bars_Va/20%Monthly2017-03-02 00:20
http://www.hotnewdeal.com/2017/03/02/178537_Chef_Craft_Paring_Knives_2Pack_098_add_on_item/20%Monthly2017-03-02 00:20
http://www.hotnewdeal.com/2017/03/02/178536_Bluetooth_Handheld_Karaoke_Speakers_Portable_KTV_C/20%Monthly2017-03-02 00:13
http://www.hotnewdeal.com/2017/03/01/178534_Nike_Swoosh_Mini_Basketball_Size_3_Pink__Black/20%Monthly2017-03-01 23:56
http://www.hotnewdeal.com/2017/03/01/178533_Jayone_Seaweed_Roasted_and_Lightly_Salted_24_Cou/20%Monthly2017-03-01 23:44
http://www.hotnewdeal.com/2017/03/01/178532_Dell_Inspiron_i5378_2in1_133_1080P_IPS_Touch_/20%Monthly2017-03-01 23:43
http://www.hotnewdeal.com/2017/03/01/178531_Butternut_Mountain_Farm_Vermont_Pure_Maple_Syrup_M/20%Monthly2017-03-01 23:28
http://www.hotnewdeal.com/2017/03/01/178530_ECOOPRO_Stereo_USB_Gaming_Headset_with_Microphone/20%Monthly2017-03-01 23:28
http://www.hotnewdeal.com/2017/03/01/178529_Prime_Members_APC_7Outlet_SurgeArrest_1440J_Surg/20%Monthly2017-03-01 23:14
http://www.hotnewdeal.com/2017/03/01/178528_Amazoncom__Fiber_One_90_Calorie_Brownies_Mega_Pa/20%Monthly2017-03-01 23:00
http://www.hotnewdeal.com/2017/03/01/178526_Amazoncom__NJoy_Sugar_Canisters_20_ounce_Pac/20%Monthly2017-03-01 22:46
http://www.hotnewdeal.com/2017/03/01/178525_Learning_Linux_Shell_Scripting_36_Value_For_a_L/20%Monthly2017-03-01 22:46
http://www.hotnewdeal.com/2017/03/01/178524_Kid_Lid_FoldUp_Keyboard_Cover_480_80_off__F/20%Monthly2017-03-01 22:46
http://www.hotnewdeal.com/2017/03/01/178523_Mitakes_That_Worked_40_Familiar_Inventions__How/20%Monthly2017-03-01 22:23
http://www.hotnewdeal.com/2017/03/01/178522_Baby_Girls_Knit_Soft_Fur_Winter_Warm_Snow_Boots_Cr/20%Monthly2017-03-01 22:07
http://www.hotnewdeal.com/2017/03/01/178521_Amazoncom__Coffeemate_Liquid_Coffee_Creamer_Fr/20%Monthly2017-03-01 22:04
http://www.hotnewdeal.com/2017/03/01/178520_The_Hobbit_Trilogy_3D__Extended_Edition_Bluray_S/20%Monthly2017-03-01 22:04
http://www.hotnewdeal.com/2017/03/01/178519_Crawford_2Bike_HeavyDuty_Bike_Stand_1999North/20%Monthly2017-03-01 21:50
http://www.hotnewdeal.com/2017/03/01/178518_ASRock_H170MITXDL_Mini_ITX_Intel_Motherboard_54/20%Monthly2017-03-01 21:39
http://www.hotnewdeal.com/2017/03/01/178517_Spa_Sensations_12_Theratouch_Memory_Foam_Mattress/20%Monthly2017-03-01 21:37
http://www.hotnewdeal.com/2017/03/01/178516_Azio_Large_Print_TriColor_Illuminated_Keyboard_K/20%Monthly2017-03-01 21:32
http://www.hotnewdeal.com/2017/03/01/178515_Contigo_West_Loop_16fl_oz_for_798_at_Lowes_wit/20%Monthly2017-03-01 21:31
http://www.hotnewdeal.com/2017/03/01/178514_30_Victorinox_8_Fibrox_Pro_Chefs_Knife/20%Monthly2017-03-01 21:31
http://www.hotnewdeal.com/2017/03/01/178513_Samsung_Galaxy_S7_32GB_SMG930P_Sprint_w_Samsung_/20%Monthly2017-03-01 21:13
http://www.hotnewdeal.com/2017/03/01/178512_Panera_Bread_Free_Pick_two_after_2_or_3_visits_th/20%Monthly2017-03-01 20:52
http://www.hotnewdeal.com/2017/03/01/178510_Paneria_609_Radiomir_8_day_Manual_Wind_Watch_4145/20%Monthly2017-03-01 20:51
http://www.hotnewdeal.com/2017/03/01/178509_Dyson_DC50_199_Light_Ball_Animal_239_clearance_/20%Monthly2017-03-01 20:51
http://www.hotnewdeal.com/2017/03/01/178508_NETGEAR_VMS4230100NAS_Arlo_Pro_Smart_Security_Sys/20%Monthly2017-03-01 20:51
http://www.hotnewdeal.com/2017/03/01/178507_WEme_Mini_DisplayPort_DP_Thunderbolt_2_Port_Compa/20%Monthly2017-03-01 20:24
http://www.hotnewdeal.com/2017/03/01/178506_Dirt_Devil_Mardi_Gras_Factory_Sale_starting_at_13/20%Monthly2017-03-01 20:20
http://www.hotnewdeal.com/2017/03/01/178505_Michaels_60_Off_Any_Regular_Item_Coupon_Today_Onl/20%Monthly2017-03-01 20:04
http://www.hotnewdeal.com/2017/03/01/178504_Toddlers_Are_Aholes_Its_Not_Your_Fault_Book__/20%Monthly2017-03-01 20:03
http://www.hotnewdeal.com/2017/03/01/178503_CAMELBAK__Contigo_Water_Bottles__Travel_Mugs_St/20%Monthly2017-03-01 19:51
http://www.hotnewdeal.com/2017/03/01/178502_Kids_Ride_On_6V_Battery_Powered_ATV_Quad_Green_/20%Monthly2017-03-01 19:51
http://www.hotnewdeal.com/2017/03/01/178501_Prime_Decorative_Metal_Desk_Organizer_495/20%Monthly2017-03-01 19:51
http://www.hotnewdeal.com/2017/03/01/178500_Fender_Limited_Edition_120V_68_Custom_Deluxe_Reve/20%Monthly2017-03-01 19:51
http://www.hotnewdeal.com/2017/03/01/178499_Pokmon_The_Movies_13_Steelbook_Collection_LIMI/20%Monthly2017-03-01 19:30
http://www.hotnewdeal.com/2017/03/01/178497_Prime_Members_FisherPrice_Laugh__Learn_CrawlAr/20%Monthly2017-03-01 18:38
http://www.hotnewdeal.com/2017/03/01/178496_Bose_SoundTrue_aroundear_headphones_II__Samsung_/20%Monthly2017-03-01 18:38
http://www.hotnewdeal.com/2017/03/01/178495_AMEX_Offer_UndercoverTourist__Spend_150_or_mor/20%Monthly2017-03-01 18:38
http://www.hotnewdeal.com/2017/03/01/178494_New_High_End_Winix_Air_Purifiers_on_sale_NK_and_H/20%Monthly2017-03-01 18:37
http://www.hotnewdeal.com/2017/03/01/178493_YKS_Mini_Bluetooth_OBDII_B06_Auto_ScannerDiagnost/20%Monthly2017-03-01 18:26
http://www.hotnewdeal.com/2017/03/01/178492_Hurley_WetSuits_Extra_20_Off_Clearance_Fusion_20/20%Monthly2017-03-01 18:26
http://www.hotnewdeal.com/2017/03/01/178491_6Pack_of_9oz_Pace_or_Prego_Ready_Meals_various_f/20%Monthly2017-03-01 18:13
http://www.hotnewdeal.com/2017/03/01/178490_Kershaw_Chill_Pocket_Knife_1364_sss_eligible__a/20%Monthly2017-03-01 18:13
http://www.hotnewdeal.com/2017/03/01/178489_NBA_Jam_On_Fire_Edition_digital_download_for_XB/20%Monthly2017-03-01 18:13
http://www.hotnewdeal.com/2017/03/01/178488_Intel_Core_i56600_6M_Skylake_QuadCore_33_GHz_LG/20%Monthly2017-03-01 18:13
http://www.hotnewdeal.com/2017/03/01/178487_40_Off_Mens_Underwear_when_you_spend_100/20%Monthly2017-03-01 17:47
http://www.hotnewdeal.com/2017/03/01/178486_LG_Electronics_49UH6030_49Inch_4K_Ultra_HD_Smart_/20%Monthly2017-03-01 17:38
http://www.hotnewdeal.com/2017/03/01/178485_iPhone_7_128GB_ATT_Refurbished_515_plus_tax_I/20%Monthly2017-03-01 17:38
http://www.hotnewdeal.com/2017/03/01/178484_PowerA_Xbox_One_Liquid_Metal_Sidekick_Wired_Contro/20%Monthly2017-03-01 17:30
http://www.hotnewdeal.com/2017/03/01/178483_TMobile_SIM_card_009_YMMV_Frys_in_store_pick_u/20%Monthly2017-03-01 17:13
http://www.hotnewdeal.com/2017/03/01/178482_Xbox_One_S_500GB_Console_Minecraft_Bundle_for_199/20%Monthly2017-03-01 17:13
http://www.hotnewdeal.com/2017/03/01/178481_Nickelodeons_Doug_Complete_Series_DVD__6_amazon/20%Monthly2017-03-01 17:13
http://www.hotnewdeal.com/2017/03/01/178480_AUSDOM_S07_Wireless_Bluetooth_V41_Sport_Earphone_/20%Monthly2017-03-01 17:13
http://www.hotnewdeal.com/2017/03/01/178479_Focusrite_2nd_Gen_Scarlett_Audio_Interface_Solo_/20%Monthly2017-03-01 17:13
http://www.hotnewdeal.com/2017/03/01/178478_Fidelity_rewards_card_offer_After_you_spend_300_/20%Monthly2017-03-01 17:00
http://www.hotnewdeal.com/2017/03/01/178477_FREE_100_Best_Buy_gift_card_w_24_month_agreement/20%Monthly2017-03-01 16:44
http://www.hotnewdeal.com/2017/03/01/178476_J_crew_killshot_2_Nike_sneaker_90/20%Monthly2017-03-01 16:29
http://www.hotnewdeal.com/2017/03/01/178475_Harman_Kardon_Omni_10_Streaming_HD_Speaker_w_Blue/20%Monthly2017-03-01 16:24
http://www.hotnewdeal.com/2017/03/01/178474_Cat6_Ethernet_Cable_Flat_Black_With_Snagless_RJ45_/20%Monthly2017-03-01 16:06
http://www.hotnewdeal.com/2017/03/01/178473_24Pack_of_84Oz_IZZE_Fortified_Sparkling_Juice_/20%Monthly2017-03-01 16:03
http://www.hotnewdeal.com/2017/03/01/178472_YMMV__Pelonis_Digital_Oil_Filled_Heater_Black__/20%Monthly2017-03-01 15:56
http://www.hotnewdeal.com/2017/03/01/178471_Xbox_360_Digital_Games_Dance_Central_2_Carnival_/20%Monthly2017-03-01 15:51
http://www.hotnewdeal.com/2017/03/01/178470_Dorco_Pace_4_Razor_w_10_Cartridges__95__Free_/20%Monthly2017-03-01 15:45
http://www.hotnewdeal.com/2017/03/01/178469_Weird_Science_Bluray__Ultraviolet__Digital_59/20%Monthly2017-03-01 15:45
http://www.hotnewdeal.com/2017/03/01/178468_Cap_Barbell_Bench_with_100lb_Weight_Set69_Walm/20%Monthly2017-03-01 15:45
http://www.hotnewdeal.com/2017/03/01/178466_2Lb_EAS_100_Whey_Protein_Powder_Vanilla_918_/20%Monthly2017-03-01 15:37
http://www.hotnewdeal.com/2017/03/01/178465_Fishing__Berkley_Powerbait__Gulp_Rebates__Possi/20%Monthly2017-03-01 15:30
http://www.hotnewdeal.com/2017/03/01/178464_Tsuro_the_game_of_the_path_board_game/20%Monthly2017-03-01 15:23
http://www.hotnewdeal.com/2017/03/01/178463_Impact_Whey_Isolate_11lbs_6599_Any_flavor_Free_/20%Monthly2017-03-01 15:23
http://www.hotnewdeal.com/2017/03/01/178462_Best_Buy__Oculus_Rift__Touch_Virtual_Reality__7/20%Monthly2017-03-01 15:12
http://www.hotnewdeal.com/2017/03/01/178461_LG_LAS465B_21ch_300W_Sound_Bar_with_Wireless_Subw/20%Monthly2017-03-01 15:08
http://www.hotnewdeal.com/2017/03/01/178460_ZyXEL_600_Mbps_Mini_Powerline_AV2_Gigabit_Adapter/20%Monthly2017-03-01 14:59
http://www.hotnewdeal.com/2017/03/01/178459_Amazon__Pocky_Biscuit_Stick_Chocolate_247_Ounc/20%Monthly2017-03-01 14:59
http://www.hotnewdeal.com/2017/03/01/178458_Nike_Soccer_Balls_Choice_of_4_Designs_1598_siz/20%Monthly2017-03-01 14:59
http://www.hotnewdeal.com/2017/03/01/178457_FoodSaver_Vertical_Flip_3speed_Vacuum_Sealer_w_A/20%Monthly2017-03-01 14:50
http://www.hotnewdeal.com/2017/03/01/178456_Make_Magazine_DIY_Projects_HowTos_Electronics/20%Monthly2017-03-01 14:50
http://www.hotnewdeal.com/2017/03/01/178455_LG_Stylo_2_Plus__includes_case_MetroPCS__FREE_/20%Monthly2017-03-01 14:36
http://www.hotnewdeal.com/2017/03/01/178454_30Ct_Vidal_Sassoon_Medium_No_Crimper_Hair_Elastic/20%Monthly2017-03-01 14:22
http://www.hotnewdeal.com/2017/03/01/178453_Asus_G752VS_173_Laptop_i76820HK_64GB_1TB_512GB_/20%Monthly2017-03-01 14:12
http://www.hotnewdeal.com/2017/03/01/178452_12Pack_of_35oz_Cesar_Filets_in_Sauce_Adult_Wet_D/20%Monthly2017-03-01 14:12
http://www.hotnewdeal.com/2017/03/01/178451_Kindle_First_March_EBooks_2017_Picks__Your_Choic/20%Monthly2017-03-01 14:05
http://www.hotnewdeal.com/2017/03/01/178450_Grab_3_Pack_Anker_PowerLine_USBC_to_USB_30_Cab/20%Monthly2017-03-01 14:02
http://www.hotnewdeal.com/2017/03/01/178449_Cricket_Drops_Unlimited_Plan_to_55_With_Autopay/20%Monthly2017-03-01 13:51
http://www.hotnewdeal.com/2017/03/01/178448_Klipsch_R15PM_Powered_Bluetooth_Speakers__Audio_/20%Monthly2017-03-01 13:40
http://www.hotnewdeal.com/2017/03/01/178447_FisherPrice_Bright_Beats_Smart_Touch_Play_Space_f/20%Monthly2017-03-01 13:37